<?xml version="1.0"?>
<gpx
 version="1.1"
 creator="Satmap Active 20"
 xmlns:xsi="http://www.w3.org/2001/XMLSchema-instance"
 xmlns="http://www.topografix.com/GPX/1/1"
 xmlns:satmap="http://www.satmap.com/updates/xmlschemas/GpxExtensions/v2/GpxExtensions_v2.xsd"
 xsi:schemaLocation="http://www.topografix.com/GPX/1/1 http://www.topografix.com/GPX/1/1/gpx.xsd">
<metadata>
<time>2024-02-10T09:19:55Z</time>
<extensions>
<satmap:platform>43</satmap:platform>
<satmap:software version="3.12.831">SM15.exe</satmap:software>
<satmap:username>Jim Grant</satmap:username>
<satmap:network_ids>
<satmap:network_id type="wifi">00-23-A7-EC-D5-78</satmap:network_id>
<satmap:network_id type="bluetooth">80-BB-EB-D7-5B-7C</satmap:network_id>
</satmap:network_ids>
<satmap:snap_type>simple</satmap:snap_type>
</extensions>
</metadata>
<trk>
<name>2024-02-10_0920</name>
<desc>Track 1</desc>
<number>1</number>
<trkseg>
<trkpt lat="53.379476" lon="-1.928182"><ele>221</ele><time>2024-02-10T09:19:55Z</time><name>PT1</name></trkpt>
<trkpt lat="53.379476" lon="-1.928197"><ele>221</ele><time>2024-02-10T09:20:42Z</time><name>PT2</name></trkpt>
<trkpt lat="53.379503" lon="-1.928202"><ele>220</ele><time>2024-02-10T09:20:51Z</time><name>PT3</name></trkpt>
<trkpt lat="53.379481" lon="-1.928213"><ele>220</ele><time>2024-02-10T09:20:55Z</time><name>PT4</name></trkpt>
<trkpt lat="53.379468" lon="-1.928181"><ele>220</ele><time>2024-02-10T09:21:14Z</time><name>PT5</name></trkpt>
<trkpt lat="53.379498" lon="-1.928182"><ele>218</ele><time>2024-02-10T09:21:25Z</time><name>PT6</name></trkpt>
<trkpt lat="53.379500" lon="-1.928186"><ele>218</ele><time>2024-02-10T09:21:28Z</time><name>PT7</name></trkpt>
<trkpt lat="53.379504" lon="-1.928201"><ele>221</ele><time>2024-02-10T09:21:31Z</time><name>PT8</name></trkpt>
<trkpt lat="53.379492" lon="-1.928188"><ele>222</ele><time>2024-02-10T09:21:35Z</time><name>PT9</name></trkpt>
<trkpt lat="53.379494" lon="-1.928194"><ele>221</ele><time>2024-02-10T09:21:38Z</time><name>PT10</name></trkpt>
<trkpt lat="53.379513" lon="-1.928199"><ele>221</ele><time>2024-02-10T09:21:41Z</time><name>PT11</name></trkpt>
<trkpt lat="53.379526" lon="-1.928202"><ele>221</ele><time>2024-02-10T09:21:45Z</time><name>PT12</name></trkpt>
<trkpt lat="53.379501" lon="-1.928173"><ele>219</ele><time>2024-02-10T09:21:49Z</time><name>PT13</name></trkpt>
<trkpt lat="53.379495" lon="-1.928157"><ele>218</ele><time>2024-02-10T09:21:53Z</time><name>PT14</name></trkpt>
<trkpt lat="53.379513" lon="-1.928149"><ele>218</ele><time>2024-02-10T09:22:43Z</time><name>PT15</name></trkpt>
<trkpt lat="53.379522" lon="-1.928146"><ele>219</ele><time>2024-02-10T09:22:47Z</time><name>PT16</name></trkpt>
<trkpt lat="53.379529" lon="-1.928150"><ele>220</ele><time>2024-02-10T09:22:50Z</time><name>PT17</name></trkpt>
<trkpt lat="53.379526" lon="-1.928149"><ele>222</ele><time>2024-02-10T09:22:54Z</time><name>PT18</name></trkpt>
<trkpt lat="53.379530" lon="-1.928156"><ele>222</ele><time>2024-02-10T09:23:41Z</time><name>PT19</name></trkpt>
<trkpt lat="53.379552" lon="-1.928147"><ele>222</ele><time>2024-02-10T09:23:44Z</time><name>PT20</name></trkpt>
<trkpt lat="53.379579" lon="-1.928138"><ele>220</ele><time>2024-02-10T09:24:19Z</time><name>PT21</name></trkpt>
<trkpt lat="53.379601" lon="-1.928134"><ele>219</ele><time>2024-02-10T09:24:23Z</time><name>PT22</name></trkpt>
<trkpt lat="53.379579" lon="-1.928190"><ele>221</ele><time>2024-02-10T09:24:31Z</time><name>PT23</name></trkpt>
<trkpt lat="53.379563" lon="-1.928252"><ele>221</ele><time>2024-02-10T09:24:35Z</time><name>PT24</name></trkpt>
<trkpt lat="53.379554" lon="-1.928312"><ele>220</ele><time>2024-02-10T09:24:38Z</time><name>PT25</name></trkpt>
<trkpt lat="53.379534" lon="-1.928308"><ele>220</ele><time>2024-02-10T09:24:42Z</time><name>PT26</name></trkpt>
<trkpt lat="53.379535" lon="-1.928260"><ele>220</ele><time>2024-02-10T09:24:45Z</time><name>PT27</name></trkpt>
<trkpt lat="53.379556" lon="-1.928223"><ele>218</ele><time>2024-02-10T09:24:49Z</time><name>PT28</name></trkpt>
<trkpt lat="53.379572" lon="-1.928240"><ele>217</ele><time>2024-02-10T09:24:53Z</time><name>PT29</name></trkpt>
<trkpt lat="53.379579" lon="-1.928234"><ele>216</ele><time>2024-02-10T09:24:56Z</time><name>PT30</name></trkpt>
<trkpt lat="53.379588" lon="-1.928255"><ele>216</ele><time>2024-02-10T09:25:00Z</time><name>PT31</name></trkpt>
<trkpt lat="53.379595" lon="-1.928250"><ele>216</ele><time>2024-02-10T09:25:20Z</time><name>PT32</name></trkpt>
<trkpt lat="53.379614" lon="-1.928218"><ele>215</ele><time>2024-02-10T09:25:34Z</time><name>PT33</name></trkpt>
<trkpt lat="53.379627" lon="-1.928210"><ele>215</ele><time>2024-02-10T09:25:38Z</time><name>PT34</name></trkpt>
<trkpt lat="53.379631" lon="-1.928208"><ele>217</ele><time>2024-02-10T09:26:47Z</time><name>PT35</name></trkpt>
<trkpt lat="53.379607" lon="-1.928228"><ele>218</ele><time>2024-02-10T09:27:40Z</time><name>PT36</name></trkpt>
<trkpt lat="53.379607" lon="-1.928201"><ele>218</ele><time>2024-02-10T09:27:44Z</time><name>PT37</name></trkpt>
<trkpt lat="53.379625" lon="-1.928187"><ele>217</ele><time>2024-02-10T09:27:47Z</time><name>PT38</name></trkpt>
<trkpt lat="53.379625" lon="-1.928192"><ele>216</ele><time>2024-02-10T09:27:51Z</time><name>PT39</name></trkpt>
<trkpt lat="53.379619" lon="-1.928181"><ele>218</ele><time>2024-02-10T09:28:41Z</time><name>PT40</name></trkpt>
<trkpt lat="53.379615" lon="-1.928182"><ele>218</ele><time>2024-02-10T09:28:44Z</time><name>PT41</name></trkpt>
<trkpt lat="53.379622" lon="-1.928188"><ele>218</ele><time>2024-02-10T09:29:09Z</time><name>PT42</name></trkpt>
<trkpt lat="53.379615" lon="-1.928183"><ele>219</ele><time>2024-02-10T09:29:12Z</time><name>PT43</name></trkpt>
<trkpt lat="53.379593" lon="-1.928160"><ele>223</ele><time>2024-02-10T09:29:15Z</time><name>PT44</name></trkpt>
<trkpt lat="53.379601" lon="-1.928131"><ele>223</ele><time>2024-02-10T09:29:19Z</time><name>PT45</name></trkpt>
<trkpt lat="53.379591" lon="-1.928113"><ele>222</ele><time>2024-02-10T09:29:22Z</time><name>PT46</name></trkpt>
<trkpt lat="53.379602" lon="-1.928113"><ele>221</ele><time>2024-02-10T09:29:26Z</time><name>PT47</name></trkpt>
<trkpt lat="53.379610" lon="-1.928093"><ele>221</ele><time>2024-02-10T09:29:29Z</time><name>PT48</name></trkpt>
<trkpt lat="53.379615" lon="-1.928070"><ele>221</ele><time>2024-02-10T09:29:32Z</time><name>PT49</name></trkpt>
<trkpt lat="53.379623" lon="-1.928041"><ele>220</ele><time>2024-02-10T09:29:36Z</time><name>PT50</name></trkpt>
<trkpt lat="53.379622" lon="-1.928001"><ele>219</ele><time>2024-02-10T09:29:39Z</time><name>PT51</name></trkpt>
<trkpt lat="53.379627" lon="-1.927987"><ele>218</ele><time>2024-02-10T09:29:42Z</time><name>PT52</name></trkpt>
<trkpt lat="53.379652" lon="-1.927949"><ele>214</ele><time>2024-02-10T09:29:45Z</time><name>PT53</name></trkpt>
<trkpt lat="53.379684" lon="-1.927885"><ele>210</ele><time>2024-02-10T09:29:49Z</time><name>PT54</name></trkpt>
<trkpt lat="53.379708" lon="-1.927838"><ele>209</ele><time>2024-02-10T09:29:53Z</time><name>PT55</name></trkpt>
<trkpt lat="53.379734" lon="-1.927769"><ele>206</ele><time>2024-02-10T09:29:57Z</time><name>PT56</name></trkpt>
<trkpt lat="53.379741" lon="-1.927694"><ele>207</ele><time>2024-02-10T09:30:00Z</time><name>PT57</name></trkpt>
<trkpt lat="53.379764" lon="-1.927675"><ele>206</ele><time>2024-02-10T09:30:03Z</time><name>PT58</name></trkpt>
<trkpt lat="53.379792" lon="-1.927654"><ele>203</ele><time>2024-02-10T09:30:06Z</time><name>PT59</name></trkpt>
<trkpt lat="53.379817" lon="-1.927624"><ele>202</ele><time>2024-02-10T09:30:10Z</time><name>PT60</name></trkpt>
<trkpt lat="53.379840" lon="-1.927605"><ele>201</ele><time>2024-02-10T09:30:13Z</time><name>PT61</name></trkpt>
<trkpt lat="53.379873" lon="-1.927547"><ele>202</ele><time>2024-02-10T09:30:17Z</time><name>PT62</name></trkpt>
<trkpt lat="53.379890" lon="-1.927479"><ele>202</ele><time>2024-02-10T09:30:21Z</time><name>PT63</name></trkpt>
<trkpt lat="53.379911" lon="-1.927434"><ele>205</ele><time>2024-02-10T09:30:24Z</time><name>PT64</name></trkpt>
<trkpt lat="53.379955" lon="-1.927378"><ele>208</ele><time>2024-02-10T09:30:28Z</time><name>PT65</name></trkpt>
<trkpt lat="53.379987" lon="-1.927351"><ele>205</ele><time>2024-02-10T09:30:32Z</time><name>PT66</name></trkpt>
<trkpt lat="53.380010" lon="-1.927293"><ele>205</ele><time>2024-02-10T09:30:36Z</time><name>PT67</name></trkpt>
<trkpt lat="53.380036" lon="-1.927271"><ele>204</ele><time>2024-02-10T09:30:39Z</time><name>PT68</name></trkpt>
<trkpt lat="53.380058" lon="-1.927247"><ele>200</ele><time>2024-02-10T09:30:42Z</time><name>PT69</name></trkpt>
<trkpt lat="53.380082" lon="-1.927224"><ele>199</ele><time>2024-02-10T09:30:45Z</time><name>PT70</name></trkpt>
<trkpt lat="53.380120" lon="-1.927185"><ele>201</ele><time>2024-02-10T09:30:48Z</time><name>PT71</name></trkpt>
<trkpt lat="53.380173" lon="-1.927136"><ele>203</ele><time>2024-02-10T09:30:52Z</time><name>PT72</name></trkpt>
<trkpt lat="53.380213" lon="-1.927091"><ele>204</ele><time>2024-02-10T09:30:56Z</time><name>PT73</name></trkpt>
<trkpt lat="53.380292" lon="-1.927157"><ele>204</ele><time>2024-02-10T09:31:00Z</time><name>PT74</name></trkpt>
<trkpt lat="53.380342" lon="-1.927147"><ele>203</ele><time>2024-02-10T09:31:04Z</time><name>PT75</name></trkpt>
<trkpt lat="53.380359" lon="-1.927116"><ele>202</ele><time>2024-02-10T09:31:07Z</time><name>PT76</name></trkpt>
<trkpt lat="53.380395" lon="-1.927075"><ele>198</ele><time>2024-02-10T09:31:11Z</time><name>PT77</name></trkpt>
<trkpt lat="53.380420" lon="-1.927057"><ele>196</ele><time>2024-02-10T09:31:15Z</time><name>PT78</name></trkpt>
<trkpt lat="53.380442" lon="-1.927050"><ele>193</ele><time>2024-02-10T09:31:18Z</time><name>PT79</name></trkpt>
<trkpt lat="53.380461" lon="-1.927006"><ele>190</ele><time>2024-02-10T09:31:21Z</time><name>PT80</name></trkpt>
<trkpt lat="53.380508" lon="-1.926958"><ele>194</ele><time>2024-02-10T09:31:25Z</time><name>PT81</name></trkpt>
<trkpt lat="53.380545" lon="-1.926933"><ele>195</ele><time>2024-02-10T09:31:28Z</time><name>PT82</name></trkpt>
<trkpt lat="53.380585" lon="-1.926870"><ele>194</ele><time>2024-02-10T09:31:32Z</time><name>PT83</name></trkpt>
<trkpt lat="53.380621" lon="-1.926810"><ele>194</ele><time>2024-02-10T09:31:36Z</time><name>PT84</name></trkpt>
<trkpt lat="53.380658" lon="-1.926743"><ele>196</ele><time>2024-02-10T09:31:39Z</time><name>PT85</name></trkpt>
<trkpt lat="53.380687" lon="-1.926679"><ele>196</ele><time>2024-02-10T09:31:42Z</time><name>PT86</name></trkpt>
<trkpt lat="53.380727" lon="-1.926614"><ele>199</ele><time>2024-02-10T09:31:45Z</time><name>PT87</name></trkpt>
<trkpt lat="53.380764" lon="-1.926585"><ele>199</ele><time>2024-02-10T09:31:49Z</time><name>PT88</name></trkpt>
<trkpt lat="53.380802" lon="-1.926550"><ele>200</ele><time>2024-02-10T09:31:52Z</time><name>PT89</name></trkpt>
<trkpt lat="53.380841" lon="-1.926521"><ele>201</ele><time>2024-02-10T09:31:56Z</time><name>PT90</name></trkpt>
<trkpt lat="53.380872" lon="-1.926507"><ele>202</ele><time>2024-02-10T09:31:59Z</time><name>PT91</name></trkpt>
<trkpt lat="53.380917" lon="-1.926447"><ele>201</ele><time>2024-02-10T09:32:03Z</time><name>PT92</name></trkpt>
<trkpt lat="53.380946" lon="-1.926414"><ele>202</ele><time>2024-02-10T09:32:06Z</time><name>PT93</name></trkpt>
<trkpt lat="53.380986" lon="-1.926400"><ele>202</ele><time>2024-02-10T09:32:09Z</time><name>PT94</name></trkpt>
<trkpt lat="53.381035" lon="-1.926321"><ele>203</ele><time>2024-02-10T09:32:13Z</time><name>PT95</name></trkpt>
<trkpt lat="53.381092" lon="-1.926198"><ele>208</ele><time>2024-02-10T09:32:17Z</time><name>PT96</name></trkpt>
<trkpt lat="53.381142" lon="-1.926168"><ele>212</ele><time>2024-02-10T09:32:20Z</time><name>PT97</name></trkpt>
<trkpt lat="53.381176" lon="-1.926150"><ele>211</ele><time>2024-02-10T09:32:23Z</time><name>PT98</name></trkpt>
<trkpt lat="53.381221" lon="-1.926096"><ele>212</ele><time>2024-02-10T09:32:27Z</time><name>PT99</name></trkpt>
<trkpt lat="53.381255" lon="-1.926048"><ele>213</ele><time>2024-02-10T09:32:30Z</time><name>PT100</name></trkpt>
<trkpt lat="53.381299" lon="-1.926005"><ele>213</ele><time>2024-02-10T09:32:34Z</time><name>PT101</name></trkpt>
<trkpt lat="53.381337" lon="-1.925998"><ele>213</ele><time>2024-02-10T09:32:37Z</time><name>PT102</name></trkpt>
<trkpt lat="53.381372" lon="-1.925973"><ele>213</ele><time>2024-02-10T09:32:41Z</time><name>PT103</name></trkpt>
<trkpt lat="53.381391" lon="-1.925927"><ele>213</ele><time>2024-02-10T09:32:44Z</time><name>PT104</name></trkpt>
<trkpt lat="53.381432" lon="-1.925885"><ele>213</ele><time>2024-02-10T09:32:47Z</time><name>PT105</name></trkpt>
<trkpt lat="53.381476" lon="-1.925867"><ele>213</ele><time>2024-02-10T09:32:50Z</time><name>PT106</name></trkpt>
<trkpt lat="53.381512" lon="-1.925836"><ele>214</ele><time>2024-02-10T09:32:53Z</time><name>PT107</name></trkpt>
<trkpt lat="53.381565" lon="-1.925825"><ele>216</ele><time>2024-02-10T09:32:57Z</time><name>PT108</name></trkpt>
<trkpt lat="53.381590" lon="-1.925795"><ele>215</ele><time>2024-02-10T09:33:00Z</time><name>PT109</name></trkpt>
<trkpt lat="53.381594" lon="-1.925736"><ele>213</ele><time>2024-02-10T09:33:03Z</time><name>PT110</name></trkpt>
<trkpt lat="53.381624" lon="-1.925676"><ele>215</ele><time>2024-02-10T09:33:07Z</time><name>PT111</name></trkpt>
<trkpt lat="53.381649" lon="-1.925654"><ele>214</ele><time>2024-02-10T09:33:10Z</time><name>PT112</name></trkpt>
<trkpt lat="53.381684" lon="-1.925611"><ele>214</ele><time>2024-02-10T09:33:13Z</time><name>PT113</name></trkpt>
<trkpt lat="53.381722" lon="-1.925577"><ele>212</ele><time>2024-02-10T09:33:17Z</time><name>PT114</name></trkpt>
<trkpt lat="53.381768" lon="-1.925548"><ele>212</ele><time>2024-02-10T09:33:21Z</time><name>PT115</name></trkpt>
<trkpt lat="53.381831" lon="-1.925427"><ele>220</ele><time>2024-02-10T09:33:24Z</time><name>PT116</name></trkpt>
<trkpt lat="53.381866" lon="-1.925377"><ele>220</ele><time>2024-02-10T09:33:27Z</time><name>PT117</name></trkpt>
<trkpt lat="53.381916" lon="-1.925294"><ele>223</ele><time>2024-02-10T09:33:31Z</time><name>PT118</name></trkpt>
<trkpt lat="53.381959" lon="-1.925222"><ele>227</ele><time>2024-02-10T09:33:34Z</time><name>PT119</name></trkpt>
<trkpt lat="53.381988" lon="-1.925183"><ele>225</ele><time>2024-02-10T09:33:37Z</time><name>PT120</name></trkpt>
<trkpt lat="53.382015" lon="-1.925131"><ele>227</ele><time>2024-02-10T09:33:40Z</time><name>PT121</name></trkpt>
<trkpt lat="53.382051" lon="-1.925108"><ele>226</ele><time>2024-02-10T09:33:43Z</time><name>PT122</name></trkpt>
<trkpt lat="53.382093" lon="-1.925081"><ele>225</ele><time>2024-02-10T09:33:47Z</time><name>PT123</name></trkpt>
<trkpt lat="53.382125" lon="-1.925063"><ele>223</ele><time>2024-02-10T09:33:50Z</time><name>PT124</name></trkpt>
<trkpt lat="53.382167" lon="-1.925028"><ele>224</ele><time>2024-02-10T09:33:54Z</time><name>PT125</name></trkpt>
<trkpt lat="53.382217" lon="-1.924985"><ele>226</ele><time>2024-02-10T09:33:58Z</time><name>PT126</name></trkpt>
<trkpt lat="53.382262" lon="-1.924972"><ele>224</ele><time>2024-02-10T09:34:02Z</time><name>PT127</name></trkpt>
<trkpt lat="53.382293" lon="-1.924963"><ele>223</ele><time>2024-02-10T09:34:05Z</time><name>PT128</name></trkpt>
<trkpt lat="53.382353" lon="-1.924938"><ele>225</ele><time>2024-02-10T09:34:09Z</time><name>PT129</name></trkpt>
<trkpt lat="53.382391" lon="-1.924932"><ele>225</ele><time>2024-02-10T09:34:12Z</time><name>PT130</name></trkpt>
<trkpt lat="53.382434" lon="-1.924910"><ele>225</ele><time>2024-02-10T09:34:16Z</time><name>PT131</name></trkpt>
<trkpt lat="53.382472" lon="-1.924897"><ele>224</ele><time>2024-02-10T09:34:19Z</time><name>PT132</name></trkpt>
<trkpt lat="53.382520" lon="-1.924874"><ele>223</ele><time>2024-02-10T09:34:23Z</time><name>PT133</name></trkpt>
<trkpt lat="53.382574" lon="-1.924841"><ele>224</ele><time>2024-02-10T09:34:27Z</time><name>PT134</name></trkpt>
<trkpt lat="53.382590" lon="-1.924816"><ele>225</ele><time>2024-02-10T09:34:30Z</time><name>PT135</name></trkpt>
<trkpt lat="53.382643" lon="-1.924774"><ele>229</ele><time>2024-02-10T09:34:34Z</time><name>PT136</name></trkpt>
<trkpt lat="53.382680" lon="-1.924753"><ele>231</ele><time>2024-02-10T09:34:37Z</time><name>PT137</name></trkpt>
<trkpt lat="53.382711" lon="-1.924705"><ele>231</ele><time>2024-02-10T09:34:41Z</time><name>PT138</name></trkpt>
<trkpt lat="53.382737" lon="-1.924702"><ele>231</ele><time>2024-02-10T09:34:44Z</time><name>PT139</name></trkpt>
<trkpt lat="53.382776" lon="-1.924694"><ele>229</ele><time>2024-02-10T09:34:48Z</time><name>PT140</name></trkpt>
<trkpt lat="53.382815" lon="-1.924691"><ele>228</ele><time>2024-02-10T09:34:51Z</time><name>PT141</name></trkpt>
<trkpt lat="53.382850" lon="-1.924698"><ele>228</ele><time>2024-02-10T09:34:54Z</time><name>PT142</name></trkpt>
<trkpt lat="53.382885" lon="-1.924747"><ele>225</ele><time>2024-02-10T09:34:58Z</time><name>PT143</name></trkpt>
<trkpt lat="53.382927" lon="-1.924732"><ele>226</ele><time>2024-02-10T09:35:01Z</time><name>PT144</name></trkpt>
<trkpt lat="53.382958" lon="-1.924684"><ele>225</ele><time>2024-02-10T09:35:05Z</time><name>PT145</name></trkpt>
<trkpt lat="53.383014" lon="-1.924666"><ele>228</ele><time>2024-02-10T09:35:08Z</time><name>PT146</name></trkpt>
<trkpt lat="53.383064" lon="-1.924684"><ele>227</ele><time>2024-02-10T09:35:12Z</time><name>PT147</name></trkpt>
<trkpt lat="53.383108" lon="-1.924691"><ele>229</ele><time>2024-02-10T09:35:15Z</time><name>PT148</name></trkpt>
<trkpt lat="53.383178" lon="-1.924662"><ele>232</ele><time>2024-02-10T09:35:19Z</time><name>PT149</name></trkpt>
<trkpt lat="53.383231" lon="-1.924687"><ele>231</ele><time>2024-02-10T09:35:23Z</time><name>PT150</name></trkpt>
<trkpt lat="53.383268" lon="-1.924689"><ele>232</ele><time>2024-02-10T09:35:26Z</time><name>PT151</name></trkpt>
<trkpt lat="53.383295" lon="-1.924697"><ele>233</ele><time>2024-02-10T09:35:29Z</time><name>PT152</name></trkpt>
<trkpt lat="53.383329" lon="-1.924729"><ele>231</ele><time>2024-02-10T09:35:32Z</time><name>PT153</name></trkpt>
<trkpt lat="53.383377" lon="-1.924740"><ele>232</ele><time>2024-02-10T09:35:36Z</time><name>PT154</name></trkpt>
<trkpt lat="53.383421" lon="-1.924743"><ele>234</ele><time>2024-02-10T09:35:40Z</time><name>PT155</name></trkpt>
<trkpt lat="53.383474" lon="-1.924746"><ele>236</ele><time>2024-02-10T09:35:44Z</time><name>PT156</name></trkpt>
<trkpt lat="53.383511" lon="-1.924777"><ele>234</ele><time>2024-02-10T09:35:48Z</time><name>PT157</name></trkpt>
<trkpt lat="53.383533" lon="-1.924778"><ele>235</ele><time>2024-02-10T09:35:52Z</time><name>PT158</name></trkpt>
<trkpt lat="53.383602" lon="-1.924771"><ele>230</ele><time>2024-02-10T09:35:56Z</time><name>PT159</name></trkpt>
<trkpt lat="53.383675" lon="-1.924781"><ele>228</ele><time>2024-02-10T09:35:59Z</time><name>PT160</name></trkpt>
<trkpt lat="53.383725" lon="-1.924788"><ele>226</ele><time>2024-02-10T09:36:02Z</time><name>PT161</name></trkpt>
<trkpt lat="53.383784" lon="-1.924812"><ele>226</ele><time>2024-02-10T09:36:06Z</time><name>PT162</name></trkpt>
<trkpt lat="53.383822" lon="-1.924827"><ele>225</ele><time>2024-02-10T09:36:09Z</time><name>PT163</name></trkpt>
<trkpt lat="53.383866" lon="-1.924821"><ele>225</ele><time>2024-02-10T09:36:12Z</time><name>PT164</name></trkpt>
<trkpt lat="53.383917" lon="-1.924806"><ele>225</ele><time>2024-02-10T09:36:16Z</time><name>PT165</name></trkpt>
<trkpt lat="53.383973" lon="-1.924845"><ele>225</ele><time>2024-02-10T09:36:20Z</time><name>PT166</name></trkpt>
<trkpt lat="53.384014" lon="-1.924846"><ele>225</ele><time>2024-02-10T09:36:23Z</time><name>PT167</name></trkpt>
<trkpt lat="53.384075" lon="-1.924844"><ele>225</ele><time>2024-02-10T09:36:27Z</time><name>PT168</name></trkpt>
<trkpt lat="53.384107" lon="-1.924832"><ele>225</ele><time>2024-02-10T09:36:30Z</time><name>PT169</name></trkpt>
<trkpt lat="53.384142" lon="-1.924861"><ele>223</ele><time>2024-02-10T09:36:33Z</time><name>PT170</name></trkpt>
<trkpt lat="53.384185" lon="-1.924831"><ele>227</ele><time>2024-02-10T09:36:36Z</time><name>PT171</name></trkpt>
<trkpt lat="53.384224" lon="-1.924789"><ele>226</ele><time>2024-02-10T09:36:40Z</time><name>PT172</name></trkpt>
<trkpt lat="53.384253" lon="-1.924751"><ele>226</ele><time>2024-02-10T09:36:43Z</time><name>PT173</name></trkpt>
<trkpt lat="53.384295" lon="-1.924723"><ele>227</ele><time>2024-02-10T09:36:46Z</time><name>PT174</name></trkpt>
<trkpt lat="53.384332" lon="-1.924700"><ele>228</ele><time>2024-02-10T09:36:49Z</time><name>PT175</name></trkpt>
<trkpt lat="53.384368" lon="-1.924694"><ele>226</ele><time>2024-02-10T09:36:52Z</time><name>PT176</name></trkpt>
<trkpt lat="53.384409" lon="-1.924681"><ele>223</ele><time>2024-02-10T09:36:56Z</time><name>PT177</name></trkpt>
<trkpt lat="53.384446" lon="-1.924665"><ele>223</ele><time>2024-02-10T09:36:59Z</time><name>PT178</name></trkpt>
<trkpt lat="53.384485" lon="-1.924650"><ele>221</ele><time>2024-02-10T09:37:03Z</time><name>PT179</name></trkpt>
<trkpt lat="53.384514" lon="-1.924650"><ele>219</ele><time>2024-02-10T09:37:06Z</time><name>PT180</name></trkpt>
<trkpt lat="53.384556" lon="-1.924637"><ele>219</ele><time>2024-02-10T09:37:09Z</time><name>PT181</name></trkpt>
<trkpt lat="53.384620" lon="-1.924625"><ele>219</ele><time>2024-02-10T09:37:13Z</time><name>PT182</name></trkpt>
<trkpt lat="53.384667" lon="-1.924626"><ele>218</ele><time>2024-02-10T09:37:17Z</time><name>PT183</name></trkpt>
<trkpt lat="53.384700" lon="-1.924626"><ele>218</ele><time>2024-02-10T09:37:20Z</time><name>PT184</name></trkpt>
<trkpt lat="53.384737" lon="-1.924613"><ele>215</ele><time>2024-02-10T09:37:24Z</time><name>PT185</name></trkpt>
<trkpt lat="53.384786" lon="-1.924592"><ele>217</ele><time>2024-02-10T09:37:27Z</time><name>PT186</name></trkpt>
<trkpt lat="53.384842" lon="-1.924573"><ele>217</ele><time>2024-02-10T09:37:31Z</time><name>PT187</name></trkpt>
<trkpt lat="53.384887" lon="-1.924575"><ele>217</ele><time>2024-02-10T09:37:34Z</time><name>PT188</name></trkpt>
<trkpt lat="53.384918" lon="-1.924561"><ele>217</ele><time>2024-02-10T09:37:37Z</time><name>PT189</name></trkpt>
<trkpt lat="53.384954" lon="-1.924553"><ele>217</ele><time>2024-02-10T09:37:40Z</time><name>PT190</name></trkpt>
<trkpt lat="53.385018" lon="-1.924546"><ele>218</ele><time>2024-02-10T09:37:44Z</time><name>PT191</name></trkpt>
<trkpt lat="53.385080" lon="-1.924524"><ele>220</ele><time>2024-02-10T09:37:48Z</time><name>PT192</name></trkpt>
<trkpt lat="53.385117" lon="-1.924526"><ele>219</ele><time>2024-02-10T09:37:51Z</time><name>PT193</name></trkpt>
<trkpt lat="53.385155" lon="-1.924519"><ele>219</ele><time>2024-02-10T09:37:54Z</time><name>PT194</name></trkpt>
<trkpt lat="53.385210" lon="-1.924520"><ele>218</ele><time>2024-02-10T09:37:58Z</time><name>PT195</name></trkpt>
<trkpt lat="53.385273" lon="-1.924506"><ele>219</ele><time>2024-02-10T09:38:02Z</time><name>PT196</name></trkpt>
<trkpt lat="53.385322" lon="-1.924486"><ele>222</ele><time>2024-02-10T09:38:05Z</time><name>PT197</name></trkpt>
<trkpt lat="53.385381" lon="-1.924458"><ele>224</ele><time>2024-02-10T09:38:09Z</time><name>PT198</name></trkpt>
<trkpt lat="53.385431" lon="-1.924444"><ele>223</ele><time>2024-02-10T09:38:13Z</time><name>PT199</name></trkpt>
<trkpt lat="53.385465" lon="-1.924431"><ele>220</ele><time>2024-02-10T09:38:17Z</time><name>PT200</name></trkpt>
<trkpt lat="53.385540" lon="-1.924335"><ele>225</ele><time>2024-02-10T09:38:21Z</time><name>PT201</name></trkpt>
<trkpt lat="53.385556" lon="-1.924277"><ele>226</ele><time>2024-02-10T09:38:24Z</time><name>PT202</name></trkpt>
<trkpt lat="53.385583" lon="-1.924230"><ele>224</ele><time>2024-02-10T09:38:28Z</time><name>PT203</name></trkpt>
<trkpt lat="53.385626" lon="-1.924206"><ele>225</ele><time>2024-02-10T09:38:31Z</time><name>PT204</name></trkpt>
<trkpt lat="53.385674" lon="-1.924147"><ele>230</ele><time>2024-02-10T09:38:34Z</time><name>PT205</name></trkpt>
<trkpt lat="53.385721" lon="-1.924099"><ele>231</ele><time>2024-02-10T09:38:38Z</time><name>PT206</name></trkpt>
<trkpt lat="53.385764" lon="-1.924094"><ele>233</ele><time>2024-02-10T09:38:41Z</time><name>PT207</name></trkpt>
<trkpt lat="53.385805" lon="-1.924072"><ele>230</ele><time>2024-02-10T09:38:45Z</time><name>PT208</name></trkpt>
<trkpt lat="53.385848" lon="-1.924053"><ele>231</ele><time>2024-02-10T09:38:48Z</time><name>PT209</name></trkpt>
<trkpt lat="53.385893" lon="-1.924047"><ele>229</ele><time>2024-02-10T09:38:52Z</time><name>PT210</name></trkpt>
<trkpt lat="53.385955" lon="-1.924045"><ele>229</ele><time>2024-02-10T09:38:56Z</time><name>PT211</name></trkpt>
<trkpt lat="53.385997" lon="-1.924020"><ele>230</ele><time>2024-02-10T09:38:59Z</time><name>PT212</name></trkpt>
<trkpt lat="53.386053" lon="-1.923985"><ele>234</ele><time>2024-02-10T09:39:03Z</time><name>PT213</name></trkpt>
<trkpt lat="53.386086" lon="-1.923977"><ele>232</ele><time>2024-02-10T09:39:07Z</time><name>PT214</name></trkpt>
<trkpt lat="53.386123" lon="-1.923977"><ele>230</ele><time>2024-02-10T09:39:11Z</time><name>PT215</name></trkpt>
<trkpt lat="53.386156" lon="-1.923944"><ele>231</ele><time>2024-02-10T09:39:15Z</time><name>PT216</name></trkpt>
<trkpt lat="53.386161" lon="-1.923942"><ele>230</ele><time>2024-02-10T09:39:18Z</time><name>PT217</name></trkpt>
<trkpt lat="53.386244" lon="-1.923912"><ele>226</ele><time>2024-02-10T09:39:22Z</time><name>PT218</name></trkpt>
<trkpt lat="53.386315" lon="-1.923904"><ele>224</ele><time>2024-02-10T09:39:26Z</time><name>PT219</name></trkpt>
<trkpt lat="53.386350" lon="-1.923899"><ele>224</ele><time>2024-02-10T09:39:29Z</time><name>PT220</name></trkpt>
<trkpt lat="53.386382" lon="-1.923892"><ele>223</ele><time>2024-02-10T09:39:32Z</time><name>PT221</name></trkpt>
<trkpt lat="53.386417" lon="-1.923880"><ele>222</ele><time>2024-02-10T09:39:36Z</time><name>PT222</name></trkpt>
<trkpt lat="53.386449" lon="-1.923852"><ele>222</ele><time>2024-02-10T09:39:39Z</time><name>PT223</name></trkpt>
<trkpt lat="53.386490" lon="-1.923804"><ele>222</ele><time>2024-02-10T09:39:43Z</time><name>PT224</name></trkpt>
<trkpt lat="53.386515" lon="-1.923776"><ele>221</ele><time>2024-02-10T09:39:46Z</time><name>PT225</name></trkpt>
<trkpt lat="53.386564" lon="-1.923744"><ele>220</ele><time>2024-02-10T09:39:50Z</time><name>PT226</name></trkpt>
<trkpt lat="53.386597" lon="-1.923727"><ele>219</ele><time>2024-02-10T09:39:54Z</time><name>PT227</name></trkpt>
<trkpt lat="53.386616" lon="-1.923690"><ele>218</ele><time>2024-02-10T09:39:57Z</time><name>PT228</name></trkpt>
<trkpt lat="53.386654" lon="-1.923680"><ele>218</ele><time>2024-02-10T09:40:01Z</time><name>PT229</name></trkpt>
<trkpt lat="53.386708" lon="-1.923636"><ele>219</ele><time>2024-02-10T09:40:05Z</time><name>PT230</name></trkpt>
<trkpt lat="53.386733" lon="-1.923592"><ele>218</ele><time>2024-02-10T09:40:08Z</time><name>PT231</name></trkpt>
<trkpt lat="53.386751" lon="-1.923546"><ele>217</ele><time>2024-02-10T09:40:11Z</time><name>PT232</name></trkpt>
<trkpt lat="53.386797" lon="-1.923505"><ele>217</ele><time>2024-02-10T09:40:15Z</time><name>PT233</name></trkpt>
<trkpt lat="53.386828" lon="-1.923464"><ele>217</ele><time>2024-02-10T09:40:18Z</time><name>PT234</name></trkpt>
<trkpt lat="53.386858" lon="-1.923437"><ele>217</ele><time>2024-02-10T09:40:21Z</time><name>PT235</name></trkpt>
<trkpt lat="53.386899" lon="-1.923404"><ele>218</ele><time>2024-02-10T09:40:24Z</time><name>PT236</name></trkpt>
<trkpt lat="53.386934" lon="-1.923362"><ele>219</ele><time>2024-02-10T09:40:28Z</time><name>PT237</name></trkpt>
<trkpt lat="53.386975" lon="-1.923355"><ele>220</ele><time>2024-02-10T09:40:31Z</time><name>PT238</name></trkpt>
<trkpt lat="53.386981" lon="-1.923353"><ele>220</ele><time>2024-02-10T09:40:34Z</time><name>PT239</name></trkpt>
<trkpt lat="53.386990" lon="-1.923340"><ele>219</ele><time>2024-02-10T09:40:38Z</time><name>PT240</name></trkpt>
<trkpt lat="53.387041" lon="-1.923299"><ele>218</ele><time>2024-02-10T09:40:41Z</time><name>PT241</name></trkpt>
<trkpt lat="53.387090" lon="-1.923265"><ele>216</ele><time>2024-02-10T09:40:45Z</time><name>PT242</name></trkpt>
<trkpt lat="53.387131" lon="-1.923240"><ele>216</ele><time>2024-02-10T09:40:48Z</time><name>PT243</name></trkpt>
<trkpt lat="53.387210" lon="-1.923209"><ele>217</ele><time>2024-02-10T09:40:52Z</time><name>PT244</name></trkpt>
<trkpt lat="53.387252" lon="-1.923186"><ele>217</ele><time>2024-02-10T09:40:55Z</time><name>PT245</name></trkpt>
<trkpt lat="53.387315" lon="-1.923155"><ele>219</ele><time>2024-02-10T09:40:59Z</time><name>PT246</name></trkpt>
<trkpt lat="53.387352" lon="-1.923137"><ele>221</ele><time>2024-02-10T09:41:02Z</time><name>PT247</name></trkpt>
<trkpt lat="53.387391" lon="-1.923122"><ele>221</ele><time>2024-02-10T09:41:06Z</time><name>PT248</name></trkpt>
<trkpt lat="53.387437" lon="-1.923094"><ele>222</ele><time>2024-02-10T09:41:10Z</time><name>PT249</name></trkpt>
<trkpt lat="53.387492" lon="-1.923072"><ele>224</ele><time>2024-02-10T09:41:14Z</time><name>PT250</name></trkpt>
<trkpt lat="53.387544" lon="-1.923045"><ele>225</ele><time>2024-02-10T09:41:18Z</time><name>PT251</name></trkpt>
<trkpt lat="53.387576" lon="-1.923028"><ele>226</ele><time>2024-02-10T09:41:21Z</time><name>PT252</name></trkpt>
<trkpt lat="53.387614" lon="-1.923011"><ele>227</ele><time>2024-02-10T09:41:24Z</time><name>PT253</name></trkpt>
<trkpt lat="53.387673" lon="-1.922986"><ele>226</ele><time>2024-02-10T09:41:28Z</time><name>PT254</name></trkpt>
<trkpt lat="53.387721" lon="-1.922957"><ele>226</ele><time>2024-02-10T09:41:32Z</time><name>PT255</name></trkpt>
<trkpt lat="53.387759" lon="-1.922942"><ele>226</ele><time>2024-02-10T09:41:35Z</time><name>PT256</name></trkpt>
<trkpt lat="53.387788" lon="-1.922926"><ele>225</ele><time>2024-02-10T09:41:38Z</time><name>PT257</name></trkpt>
<trkpt lat="53.387834" lon="-1.922899"><ele>225</ele><time>2024-02-10T09:41:42Z</time><name>PT258</name></trkpt>
<trkpt lat="53.387873" lon="-1.922878"><ele>224</ele><time>2024-02-10T09:41:45Z</time><name>PT259</name></trkpt>
<trkpt lat="53.387923" lon="-1.922833"><ele>226</ele><time>2024-02-10T09:41:49Z</time><name>PT260</name></trkpt>
<trkpt lat="53.387956" lon="-1.922807"><ele>225</ele><time>2024-02-10T09:41:52Z</time><name>PT261</name></trkpt>
<trkpt lat="53.388005" lon="-1.922791"><ele>226</ele><time>2024-02-10T09:41:56Z</time><name>PT262</name></trkpt>
<trkpt lat="53.388020" lon="-1.922747"><ele>226</ele><time>2024-02-10T09:41:59Z</time><name>PT263</name></trkpt>
<trkpt lat="53.388077" lon="-1.922703"><ele>228</ele><time>2024-02-10T09:42:03Z</time><name>PT264</name></trkpt>
<trkpt lat="53.388099" lon="-1.922647"><ele>228</ele><time>2024-02-10T09:42:07Z</time><name>PT265</name></trkpt>
<trkpt lat="53.388116" lon="-1.922597"><ele>226</ele><time>2024-02-10T09:42:11Z</time><name>PT266</name></trkpt>
<trkpt lat="53.388118" lon="-1.922559"><ele>226</ele><time>2024-02-10T09:42:14Z</time><name>PT267</name></trkpt>
<trkpt lat="53.388123" lon="-1.922495"><ele>226</ele><time>2024-02-10T09:42:18Z</time><name>PT268</name></trkpt>
<trkpt lat="53.388134" lon="-1.922429"><ele>228</ele><time>2024-02-10T09:42:21Z</time><name>PT269</name></trkpt>
<trkpt lat="53.388143" lon="-1.922364"><ele>227</ele><time>2024-02-10T09:42:25Z</time><name>PT270</name></trkpt>
<trkpt lat="53.388158" lon="-1.922313"><ele>227</ele><time>2024-02-10T09:42:28Z</time><name>PT271</name></trkpt>
<trkpt lat="53.388181" lon="-1.922244"><ele>228</ele><time>2024-02-10T09:42:32Z</time><name>PT272</name></trkpt>
<trkpt lat="53.388199" lon="-1.922195"><ele>227</ele><time>2024-02-10T09:42:35Z</time><name>PT273</name></trkpt>
<trkpt lat="53.388229" lon="-1.922128"><ele>227</ele><time>2024-02-10T09:42:39Z</time><name>PT274</name></trkpt>
<trkpt lat="53.388252" lon="-1.922075"><ele>227</ele><time>2024-02-10T09:42:42Z</time><name>PT275</name></trkpt>
<trkpt lat="53.388285" lon="-1.922006"><ele>227</ele><time>2024-02-10T09:42:46Z</time><name>PT276</name></trkpt>
<trkpt lat="53.388313" lon="-1.921966"><ele>228</ele><time>2024-02-10T09:42:50Z</time><name>PT277</name></trkpt>
<trkpt lat="53.388371" lon="-1.921885"><ele>234</ele><time>2024-02-10T09:42:53Z</time><name>PT278</name></trkpt>
<trkpt lat="53.388407" lon="-1.921836"><ele>238</ele><time>2024-02-10T09:42:57Z</time><name>PT279</name></trkpt>
<trkpt lat="53.388415" lon="-1.921818"><ele>239</ele><time>2024-02-10T09:43:00Z</time><name>PT280</name></trkpt>
<trkpt lat="53.388421" lon="-1.921791"><ele>238</ele><time>2024-02-10T09:43:04Z</time><name>PT281</name></trkpt>
<trkpt lat="53.388428" lon="-1.921781"><ele>237</ele><time>2024-02-10T09:43:08Z</time><name>PT282</name></trkpt>
<trkpt lat="53.388442" lon="-1.921791"><ele>236</ele><time>2024-02-10T09:43:11Z</time><name>PT283</name></trkpt>
<trkpt lat="53.388466" lon="-1.921806"><ele>235</ele><time>2024-02-10T09:43:14Z</time><name>PT284</name></trkpt>
<trkpt lat="53.388487" lon="-1.921827"><ele>234</ele><time>2024-02-10T09:43:18Z</time><name>PT285</name></trkpt>
<trkpt lat="53.388527" lon="-1.921876"><ele>233</ele><time>2024-02-10T09:43:22Z</time><name>PT286</name></trkpt>
<trkpt lat="53.388560" lon="-1.921913"><ele>233</ele><time>2024-02-10T09:43:26Z</time><name>PT287</name></trkpt>
<trkpt lat="53.388581" lon="-1.921963"><ele>232</ele><time>2024-02-10T09:43:30Z</time><name>PT288</name></trkpt>
<trkpt lat="53.388599" lon="-1.921991"><ele>232</ele><time>2024-02-10T09:43:33Z</time><name>PT289</name></trkpt>
<trkpt lat="53.388613" lon="-1.922020"><ele>232</ele><time>2024-02-10T09:43:37Z</time><name>PT290</name></trkpt>
<trkpt lat="53.388627" lon="-1.922054"><ele>229</ele><time>2024-02-10T09:43:40Z</time><name>PT291</name></trkpt>
<trkpt lat="53.388669" lon="-1.922111"><ele>228</ele><time>2024-02-10T09:43:44Z</time><name>PT292</name></trkpt>
<trkpt lat="53.388703" lon="-1.922170"><ele>227</ele><time>2024-02-10T09:43:48Z</time><name>PT293</name></trkpt>
<trkpt lat="53.388739" lon="-1.922238"><ele>225</ele><time>2024-02-10T09:43:51Z</time><name>PT294</name></trkpt>
<trkpt lat="53.388777" lon="-1.922303"><ele>222</ele><time>2024-02-10T09:43:55Z</time><name>PT295</name></trkpt>
<trkpt lat="53.388790" lon="-1.922405"><ele>224</ele><time>2024-02-10T09:43:58Z</time><name>PT296</name></trkpt>
<trkpt lat="53.388815" lon="-1.922443"><ele>224</ele><time>2024-02-10T09:44:02Z</time><name>PT297</name></trkpt>
<trkpt lat="53.388841" lon="-1.922448"><ele>226</ele><time>2024-02-10T09:44:06Z</time><name>PT298</name></trkpt>
<trkpt lat="53.388865" lon="-1.922481"><ele>226</ele><time>2024-02-10T09:44:09Z</time><name>PT299</name></trkpt>
<trkpt lat="53.388895" lon="-1.922459"><ele>227</ele><time>2024-02-10T09:44:20Z</time><name>PT300</name></trkpt>
<trkpt lat="53.388918" lon="-1.922451"><ele>227</ele><time>2024-02-10T09:44:23Z</time><name>PT301</name></trkpt>
<trkpt lat="53.388939" lon="-1.922458"><ele>229</ele><time>2024-02-10T09:44:26Z</time><name>PT302</name></trkpt>
<trkpt lat="53.388943" lon="-1.922433"><ele>231</ele><time>2024-02-10T09:44:30Z</time><name>PT303</name></trkpt>
<trkpt lat="53.388961" lon="-1.922412"><ele>235</ele><time>2024-02-10T09:44:33Z</time><name>PT304</name></trkpt>
<trkpt lat="53.388984" lon="-1.922416"><ele>237</ele><time>2024-02-10T09:44:36Z</time><name>PT305</name></trkpt>
<trkpt lat="53.389025" lon="-1.922407"><ele>242</ele><time>2024-02-10T09:44:40Z</time><name>PT306</name></trkpt>
<trkpt lat="53.389052" lon="-1.922394"><ele>244</ele><time>2024-02-10T09:44:43Z</time><name>PT307</name></trkpt>
<trkpt lat="53.389084" lon="-1.922383"><ele>243</ele><time>2024-02-10T09:44:47Z</time><name>PT308</name></trkpt>
<trkpt lat="53.389135" lon="-1.922369"><ele>248</ele><time>2024-02-10T09:44:51Z</time><name>PT309</name></trkpt>
<trkpt lat="53.389163" lon="-1.922352"><ele>250</ele><time>2024-02-10T09:44:54Z</time><name>PT310</name></trkpt>
<trkpt lat="53.389184" lon="-1.922321"><ele>251</ele><time>2024-02-10T09:44:57Z</time><name>PT311</name></trkpt>
<trkpt lat="53.389204" lon="-1.922303"><ele>253</ele><time>2024-02-10T09:45:00Z</time><name>PT312</name></trkpt>
<trkpt lat="53.389249" lon="-1.922273"><ele>258</ele><time>2024-02-10T09:45:04Z</time><name>PT313</name></trkpt>
<trkpt lat="53.389280" lon="-1.922243"><ele>259</ele><time>2024-02-10T09:45:08Z</time><name>PT314</name></trkpt>
<trkpt lat="53.389297" lon="-1.922230"><ele>257</ele><time>2024-02-10T09:45:11Z</time><name>PT315</name></trkpt>
<trkpt lat="53.389315" lon="-1.922208"><ele>256</ele><time>2024-02-10T09:45:15Z</time><name>PT316</name></trkpt>
<trkpt lat="53.389333" lon="-1.922190"><ele>255</ele><time>2024-02-10T09:45:18Z</time><name>PT317</name></trkpt>
<trkpt lat="53.389361" lon="-1.922158"><ele>256</ele><time>2024-02-10T09:45:21Z</time><name>PT318</name></trkpt>
<trkpt lat="53.389403" lon="-1.922137"><ele>257</ele><time>2024-02-10T09:45:25Z</time><name>PT319</name></trkpt>
<trkpt lat="53.389433" lon="-1.922134"><ele>258</ele><time>2024-02-10T09:45:28Z</time><name>PT320</name></trkpt>
<trkpt lat="53.389465" lon="-1.922113"><ele>260</ele><time>2024-02-10T09:45:31Z</time><name>PT321</name></trkpt>
<trkpt lat="53.389504" lon="-1.922089"><ele>260</ele><time>2024-02-10T09:45:35Z</time><name>PT322</name></trkpt>
<trkpt lat="53.389530" lon="-1.922067"><ele>260</ele><time>2024-02-10T09:45:38Z</time><name>PT323</name></trkpt>
<trkpt lat="53.389565" lon="-1.922036"><ele>262</ele><time>2024-02-10T09:45:42Z</time><name>PT324</name></trkpt>
<trkpt lat="53.389595" lon="-1.922022"><ele>263</ele><time>2024-02-10T09:45:45Z</time><name>PT325</name></trkpt>
<trkpt lat="53.389621" lon="-1.922010"><ele>263</ele><time>2024-02-10T09:45:48Z</time><name>PT326</name></trkpt>
<trkpt lat="53.389637" lon="-1.921984"><ele>263</ele><time>2024-02-10T09:45:51Z</time><name>PT327</name></trkpt>
<trkpt lat="53.389671" lon="-1.921947"><ele>265</ele><time>2024-02-10T09:45:55Z</time><name>PT328</name></trkpt>
<trkpt lat="53.389697" lon="-1.921935"><ele>265</ele><time>2024-02-10T09:45:58Z</time><name>PT329</name></trkpt>
<trkpt lat="53.389732" lon="-1.921906"><ele>266</ele><time>2024-02-10T09:46:02Z</time><name>PT330</name></trkpt>
<trkpt lat="53.389767" lon="-1.921871"><ele>267</ele><time>2024-02-10T09:46:06Z</time><name>PT331</name></trkpt>
<trkpt lat="53.389792" lon="-1.921859"><ele>269</ele><time>2024-02-10T09:46:09Z</time><name>PT332</name></trkpt>
<trkpt lat="53.389815" lon="-1.921833"><ele>270</ele><time>2024-02-10T09:46:13Z</time><name>PT333</name></trkpt>
<trkpt lat="53.389841" lon="-1.921809"><ele>271</ele><time>2024-02-10T09:46:17Z</time><name>PT334</name></trkpt>
<trkpt lat="53.389877" lon="-1.921789"><ele>272</ele><time>2024-02-10T09:46:21Z</time><name>PT335</name></trkpt>
<trkpt lat="53.389910" lon="-1.921765"><ele>273</ele><time>2024-02-10T09:46:24Z</time><name>PT336</name></trkpt>
<trkpt lat="53.389935" lon="-1.921743"><ele>273</ele><time>2024-02-10T09:46:28Z</time><name>PT337</name></trkpt>
<trkpt lat="53.389949" lon="-1.921727"><ele>272</ele><time>2024-02-10T09:46:32Z</time><name>PT338</name></trkpt>
<trkpt lat="53.389982" lon="-1.921712"><ele>273</ele><time>2024-02-10T09:46:36Z</time><name>PT339</name></trkpt>
<trkpt lat="53.390006" lon="-1.921691"><ele>274</ele><time>2024-02-10T09:46:39Z</time><name>PT340</name></trkpt>
<trkpt lat="53.390025" lon="-1.921669"><ele>274</ele><time>2024-02-10T09:46:42Z</time><name>PT341</name></trkpt>
<trkpt lat="53.390053" lon="-1.921636"><ele>274</ele><time>2024-02-10T09:46:46Z</time><name>PT342</name></trkpt>
<trkpt lat="53.390083" lon="-1.921616"><ele>276</ele><time>2024-02-10T09:46:50Z</time><name>PT343</name></trkpt>
<trkpt lat="53.390101" lon="-1.921597"><ele>277</ele><time>2024-02-10T09:46:53Z</time><name>PT344</name></trkpt>
<trkpt lat="53.390124" lon="-1.921556"><ele>278</ele><time>2024-02-10T09:46:57Z</time><name>PT345</name></trkpt>
<trkpt lat="53.390158" lon="-1.921528"><ele>279</ele><time>2024-02-10T09:47:01Z</time><name>PT346</name></trkpt>
<trkpt lat="53.390185" lon="-1.921504"><ele>279</ele><time>2024-02-10T09:47:05Z</time><name>PT347</name></trkpt>
<trkpt lat="53.390216" lon="-1.921495"><ele>280</ele><time>2024-02-10T09:47:09Z</time><name>PT348</name></trkpt>
<trkpt lat="53.390236" lon="-1.921477"><ele>281</ele><time>2024-02-10T09:47:12Z</time><name>PT349</name></trkpt>
<trkpt lat="53.390259" lon="-1.921443"><ele>282</ele><time>2024-02-10T09:47:15Z</time><name>PT350</name></trkpt>
<trkpt lat="53.390281" lon="-1.921433"><ele>281</ele><time>2024-02-10T09:47:18Z</time><name>PT351</name></trkpt>
<trkpt lat="53.390311" lon="-1.921413"><ele>282</ele><time>2024-02-10T09:47:22Z</time><name>PT352</name></trkpt>
<trkpt lat="53.390327" lon="-1.921390"><ele>283</ele><time>2024-02-10T09:47:25Z</time><name>PT353</name></trkpt>
<trkpt lat="53.390342" lon="-1.921364"><ele>284</ele><time>2024-02-10T09:47:28Z</time><name>PT354</name></trkpt>
<trkpt lat="53.390373" lon="-1.921335"><ele>285</ele><time>2024-02-10T09:47:32Z</time><name>PT355</name></trkpt>
<trkpt lat="53.390392" lon="-1.921315"><ele>286</ele><time>2024-02-10T09:47:35Z</time><name>PT356</name></trkpt>
<trkpt lat="53.390416" lon="-1.921291"><ele>287</ele><time>2024-02-10T09:47:39Z</time><name>PT357</name></trkpt>
<trkpt lat="53.390433" lon="-1.921273"><ele>288</ele><time>2024-02-10T09:47:42Z</time><name>PT358</name></trkpt>
<trkpt lat="53.390450" lon="-1.921256"><ele>287</ele><time>2024-02-10T09:47:45Z</time><name>PT359</name></trkpt>
<trkpt lat="53.390474" lon="-1.921221"><ele>288</ele><time>2024-02-10T09:47:49Z</time><name>PT360</name></trkpt>
<trkpt lat="53.390492" lon="-1.921183"><ele>287</ele><time>2024-02-10T09:47:53Z</time><name>PT361</name></trkpt>
<trkpt lat="53.390508" lon="-1.921149"><ele>287</ele><time>2024-02-10T09:47:56Z</time><name>PT362</name></trkpt>
<trkpt lat="53.390524" lon="-1.921090"><ele>288</ele><time>2024-02-10T09:48:00Z</time><name>PT363</name></trkpt>
<trkpt lat="53.390547" lon="-1.921040"><ele>288</ele><time>2024-02-10T09:48:04Z</time><name>PT364</name></trkpt>
<trkpt lat="53.390563" lon="-1.921008"><ele>287</ele><time>2024-02-10T09:48:07Z</time><name>PT365</name></trkpt>
<trkpt lat="53.390581" lon="-1.920971"><ele>286</ele><time>2024-02-10T09:48:11Z</time><name>PT366</name></trkpt>
<trkpt lat="53.390591" lon="-1.920930"><ele>286</ele><time>2024-02-10T09:48:14Z</time><name>PT367</name></trkpt>
<trkpt lat="53.390599" lon="-1.920882"><ele>284</ele><time>2024-02-10T09:48:18Z</time><name>PT368</name></trkpt>
<trkpt lat="53.390607" lon="-1.920847"><ele>283</ele><time>2024-02-10T09:48:21Z</time><name>PT369</name></trkpt>
<trkpt lat="53.390625" lon="-1.920820"><ele>281</ele><time>2024-02-10T09:48:25Z</time><name>PT370</name></trkpt>
<trkpt lat="53.390631" lon="-1.920782"><ele>278</ele><time>2024-02-10T09:48:29Z</time><name>PT371</name></trkpt>
<trkpt lat="53.390648" lon="-1.920732"><ele>279</ele><time>2024-02-10T09:48:32Z</time><name>PT372</name></trkpt>
<trkpt lat="53.390672" lon="-1.920671"><ele>278</ele><time>2024-02-10T09:48:36Z</time><name>PT373</name></trkpt>
<trkpt lat="53.390695" lon="-1.920608"><ele>280</ele><time>2024-02-10T09:48:40Z</time><name>PT374</name></trkpt>
<trkpt lat="53.390728" lon="-1.920534"><ele>282</ele><time>2024-02-10T09:48:44Z</time><name>PT375</name></trkpt>
<trkpt lat="53.390750" lon="-1.920480"><ele>283</ele><time>2024-02-10T09:48:47Z</time><name>PT376</name></trkpt>
<trkpt lat="53.390768" lon="-1.920434"><ele>285</ele><time>2024-02-10T09:48:51Z</time><name>PT377</name></trkpt>
<trkpt lat="53.390777" lon="-1.920406"><ele>286</ele><time>2024-02-10T09:48:55Z</time><name>PT378</name></trkpt>
<trkpt lat="53.390789" lon="-1.920388"><ele>285</ele><time>2024-02-10T09:49:02Z</time><name>PT379</name></trkpt>
<trkpt lat="53.390816" lon="-1.920323"><ele>286</ele><time>2024-02-10T09:49:06Z</time><name>PT380</name></trkpt>
<trkpt lat="53.390826" lon="-1.920278"><ele>284</ele><time>2024-02-10T09:49:09Z</time><name>PT381</name></trkpt>
<trkpt lat="53.390838" lon="-1.920233"><ele>284</ele><time>2024-02-10T09:49:12Z</time><name>PT382</name></trkpt>
<trkpt lat="53.390855" lon="-1.920164"><ele>284</ele><time>2024-02-10T09:49:16Z</time><name>PT383</name></trkpt>
<trkpt lat="53.390874" lon="-1.920109"><ele>285</ele><time>2024-02-10T09:49:19Z</time><name>PT384</name></trkpt>
<trkpt lat="53.390889" lon="-1.920066"><ele>285</ele><time>2024-02-10T09:49:22Z</time><name>PT385</name></trkpt>
<trkpt lat="53.390909" lon="-1.919992"><ele>284</ele><time>2024-02-10T09:49:26Z</time><name>PT386</name></trkpt>
<trkpt lat="53.390921" lon="-1.919950"><ele>284</ele><time>2024-02-10T09:49:29Z</time><name>PT387</name></trkpt>
<trkpt lat="53.390932" lon="-1.919905"><ele>286</ele><time>2024-02-10T09:49:33Z</time><name>PT388</name></trkpt>
<trkpt lat="53.390962" lon="-1.919892"><ele>286</ele><time>2024-02-10T09:49:47Z</time><name>PT389</name></trkpt>
<trkpt lat="53.390997" lon="-1.919850"><ele>287</ele><time>2024-02-10T09:49:50Z</time><name>PT390</name></trkpt>
<trkpt lat="53.391020" lon="-1.919781"><ele>288</ele><time>2024-02-10T09:49:54Z</time><name>PT391</name></trkpt>
<trkpt lat="53.391057" lon="-1.919711"><ele>289</ele><time>2024-02-10T09:49:58Z</time><name>PT392</name></trkpt>
<trkpt lat="53.391078" lon="-1.919666"><ele>289</ele><time>2024-02-10T09:50:01Z</time><name>PT393</name></trkpt>
<trkpt lat="53.391108" lon="-1.919594"><ele>290</ele><time>2024-02-10T09:50:05Z</time><name>PT394</name></trkpt>
<trkpt lat="53.391125" lon="-1.919504"><ele>289</ele><time>2024-02-10T09:50:09Z</time><name>PT395</name></trkpt>
<trkpt lat="53.391139" lon="-1.919444"><ele>289</ele><time>2024-02-10T09:50:12Z</time><name>PT396</name></trkpt>
<trkpt lat="53.391156" lon="-1.919391"><ele>288</ele><time>2024-02-10T09:50:15Z</time><name>PT397</name></trkpt>
<trkpt lat="53.391184" lon="-1.919333"><ele>289</ele><time>2024-02-10T09:50:19Z</time><name>PT398</name></trkpt>
<trkpt lat="53.391206" lon="-1.919280"><ele>288</ele><time>2024-02-10T09:50:23Z</time><name>PT399</name></trkpt>
<trkpt lat="53.391221" lon="-1.919206"><ele>288</ele><time>2024-02-10T09:50:27Z</time><name>PT400</name></trkpt>
<trkpt lat="53.391241" lon="-1.919124"><ele>288</ele><time>2024-02-10T09:50:31Z</time><name>PT401</name></trkpt>
<trkpt lat="53.391256" lon="-1.919078"><ele>288</ele><time>2024-02-10T09:50:34Z</time><name>PT402</name></trkpt>
<trkpt lat="53.391270" lon="-1.919019"><ele>288</ele><time>2024-02-10T09:50:38Z</time><name>PT403</name></trkpt>
<trkpt lat="53.391297" lon="-1.918953"><ele>288</ele><time>2024-02-10T09:50:42Z</time><name>PT404</name></trkpt>
<trkpt lat="53.391310" lon="-1.918943"><ele>287</ele><time>2024-02-10T09:50:45Z</time><name>PT405</name></trkpt>
<trkpt lat="53.391319" lon="-1.918914"><ele>288</ele><time>2024-02-10T09:50:48Z</time><name>PT406</name></trkpt>
<trkpt lat="53.391321" lon="-1.918865"><ele>289</ele><time>2024-02-10T09:50:51Z</time><name>PT407</name></trkpt>
<trkpt lat="53.391332" lon="-1.918828"><ele>289</ele><time>2024-02-10T09:50:54Z</time><name>PT408</name></trkpt>
<trkpt lat="53.391342" lon="-1.918797"><ele>289</ele><time>2024-02-10T09:50:58Z</time><name>PT409</name></trkpt>
<trkpt lat="53.391339" lon="-1.918790"><ele>288</ele><time>2024-02-10T09:51:02Z</time><name>PT410</name></trkpt>
<trkpt lat="53.391343" lon="-1.918780"><ele>288</ele><time>2024-02-10T09:51:05Z</time><name>PT411</name></trkpt>
<trkpt lat="53.391359" lon="-1.918758"><ele>286</ele><time>2024-02-10T09:51:09Z</time><name>PT412</name></trkpt>
<trkpt lat="53.391376" lon="-1.918736"><ele>288</ele><time>2024-02-10T09:51:18Z</time><name>PT413</name></trkpt>
<trkpt lat="53.391387" lon="-1.918701"><ele>288</ele><time>2024-02-10T09:51:22Z</time><name>PT414</name></trkpt>
<trkpt lat="53.391398" lon="-1.918677"><ele>289</ele><time>2024-02-10T09:51:25Z</time><name>PT415</name></trkpt>
<trkpt lat="53.391417" lon="-1.918657"><ele>289</ele><time>2024-02-10T09:51:29Z</time><name>PT416</name></trkpt>
<trkpt lat="53.391433" lon="-1.918641"><ele>290</ele><time>2024-02-10T09:51:32Z</time><name>PT417</name></trkpt>
<trkpt lat="53.391451" lon="-1.918631"><ele>291</ele><time>2024-02-10T09:51:36Z</time><name>PT418</name></trkpt>
<trkpt lat="53.391458" lon="-1.918606"><ele>291</ele><time>2024-02-10T09:51:39Z</time><name>PT419</name></trkpt>
<trkpt lat="53.391461" lon="-1.918584"><ele>292</ele><time>2024-02-10T09:51:42Z</time><name>PT420</name></trkpt>
<trkpt lat="53.391465" lon="-1.918585"><ele>292</ele><time>2024-02-10T09:51:46Z</time><name>PT421</name></trkpt>
<trkpt lat="53.391463" lon="-1.918596"><ele>293</ele><time>2024-02-10T09:52:00Z</time><name>PT422</name></trkpt>
<trkpt lat="53.391468" lon="-1.918594"><ele>294</ele><time>2024-02-10T09:52:04Z</time><name>PT423</name></trkpt>
<trkpt lat="53.391481" lon="-1.918563"><ele>294</ele><time>2024-02-10T09:52:07Z</time><name>PT424</name></trkpt>
<trkpt lat="53.391497" lon="-1.918549"><ele>293</ele><time>2024-02-10T09:52:11Z</time><name>PT425</name></trkpt>
<trkpt lat="53.391522" lon="-1.918516"><ele>293</ele><time>2024-02-10T09:52:15Z</time><name>PT426</name></trkpt>
<trkpt lat="53.391547" lon="-1.918488"><ele>293</ele><time>2024-02-10T09:52:18Z</time><name>PT427</name></trkpt>
<trkpt lat="53.391577" lon="-1.918450"><ele>294</ele><time>2024-02-10T09:52:21Z</time><name>PT428</name></trkpt>
<trkpt lat="53.391600" lon="-1.918403"><ele>294</ele><time>2024-02-10T09:52:25Z</time><name>PT429</name></trkpt>
<trkpt lat="53.391619" lon="-1.918353"><ele>296</ele><time>2024-02-10T09:52:28Z</time><name>PT430</name></trkpt>
<trkpt lat="53.391629" lon="-1.918323"><ele>296</ele><time>2024-02-10T09:52:32Z</time><name>PT431</name></trkpt>
<trkpt lat="53.391621" lon="-1.918282"><ele>296</ele><time>2024-02-10T09:52:36Z</time><name>PT432</name></trkpt>
<trkpt lat="53.391615" lon="-1.918241"><ele>297</ele><time>2024-02-10T09:52:39Z</time><name>PT433</name></trkpt>
<trkpt lat="53.391631" lon="-1.918176"><ele>299</ele><time>2024-02-10T09:52:43Z</time><name>PT434</name></trkpt>
<trkpt lat="53.391651" lon="-1.918143"><ele>300</ele><time>2024-02-10T09:52:46Z</time><name>PT435</name></trkpt>
<trkpt lat="53.391661" lon="-1.918104"><ele>299</ele><time>2024-02-10T09:52:49Z</time><name>PT436</name></trkpt>
<trkpt lat="53.391667" lon="-1.918066"><ele>299</ele><time>2024-02-10T09:52:53Z</time><name>PT437</name></trkpt>
<trkpt lat="53.391678" lon="-1.918039"><ele>299</ele><time>2024-02-10T09:52:57Z</time><name>PT438</name></trkpt>
<trkpt lat="53.391679" lon="-1.918015"><ele>298</ele><time>2024-02-10T09:53:00Z</time><name>PT439</name></trkpt>
<trkpt lat="53.391683" lon="-1.917977"><ele>297</ele><time>2024-02-10T09:53:04Z</time><name>PT440</name></trkpt>
<trkpt lat="53.391694" lon="-1.917936"><ele>299</ele><time>2024-02-10T09:53:08Z</time><name>PT441</name></trkpt>
<trkpt lat="53.391702" lon="-1.917913"><ele>299</ele><time>2024-02-10T09:53:11Z</time><name>PT442</name></trkpt>
<trkpt lat="53.391726" lon="-1.917891"><ele>299</ele><time>2024-02-10T09:53:15Z</time><name>PT443</name></trkpt>
<trkpt lat="53.391744" lon="-1.917868"><ele>298</ele><time>2024-02-10T09:53:19Z</time><name>PT444</name></trkpt>
<trkpt lat="53.391755" lon="-1.917805"><ele>300</ele><time>2024-02-10T09:53:23Z</time><name>PT445</name></trkpt>
<trkpt lat="53.391738" lon="-1.917763"><ele>300</ele><time>2024-02-10T09:53:26Z</time><name>PT446</name></trkpt>
<trkpt lat="53.391745" lon="-1.917730"><ele>300</ele><time>2024-02-10T09:53:29Z</time><name>PT447</name></trkpt>
<trkpt lat="53.391763" lon="-1.917680"><ele>301</ele><time>2024-02-10T09:53:33Z</time><name>PT448</name></trkpt>
<trkpt lat="53.391765" lon="-1.917666"><ele>298</ele><time>2024-02-10T09:53:36Z</time><name>PT449</name></trkpt>
<trkpt lat="53.391747" lon="-1.917615"><ele>298</ele><time>2024-02-10T09:53:40Z</time><name>PT450</name></trkpt>
<trkpt lat="53.391736" lon="-1.917582"><ele>297</ele><time>2024-02-10T09:53:44Z</time><name>PT451</name></trkpt>
<trkpt lat="53.391739" lon="-1.917590"><ele>297</ele><time>2024-02-10T09:53:48Z</time><name>PT452</name></trkpt>
<trkpt lat="53.391742" lon="-1.917571"><ele>297</ele><time>2024-02-10T09:53:59Z</time><name>PT453</name></trkpt>
<trkpt lat="53.391729" lon="-1.917543"><ele>298</ele><time>2024-02-10T09:54:02Z</time><name>PT454</name></trkpt>
<trkpt lat="53.391681" lon="-1.917491"><ele>297</ele><time>2024-02-10T09:54:06Z</time><name>PT455</name></trkpt>
<trkpt lat="53.391655" lon="-1.917435"><ele>297</ele><time>2024-02-10T09:54:10Z</time><name>PT456</name></trkpt>
<trkpt lat="53.391639" lon="-1.917379"><ele>297</ele><time>2024-02-10T09:54:14Z</time><name>PT457</name></trkpt>
<trkpt lat="53.391622" lon="-1.917304"><ele>297</ele><time>2024-02-10T09:54:18Z</time><name>PT458</name></trkpt>
<trkpt lat="53.391612" lon="-1.917239"><ele>297</ele><time>2024-02-10T09:54:22Z</time><name>PT459</name></trkpt>
<trkpt lat="53.391601" lon="-1.917161"><ele>298</ele><time>2024-02-10T09:54:26Z</time><name>PT460</name></trkpt>
<trkpt lat="53.391586" lon="-1.917098"><ele>299</ele><time>2024-02-10T09:54:30Z</time><name>PT461</name></trkpt>
<trkpt lat="53.391585" lon="-1.917041"><ele>298</ele><time>2024-02-10T09:54:33Z</time><name>PT462</name></trkpt>
<trkpt lat="53.391573" lon="-1.916982"><ele>296</ele><time>2024-02-10T09:54:36Z</time><name>PT463</name></trkpt>
<trkpt lat="53.391561" lon="-1.916919"><ele>296</ele><time>2024-02-10T09:54:39Z</time><name>PT464</name></trkpt>
<trkpt lat="53.391562" lon="-1.916869"><ele>296</ele><time>2024-02-10T09:54:42Z</time><name>PT465</name></trkpt>
<trkpt lat="53.391561" lon="-1.916795"><ele>295</ele><time>2024-02-10T09:54:46Z</time><name>PT466</name></trkpt>
<trkpt lat="53.391562" lon="-1.916741"><ele>295</ele><time>2024-02-10T09:54:49Z</time><name>PT467</name></trkpt>
<trkpt lat="53.391568" lon="-1.916672"><ele>294</ele><time>2024-02-10T09:54:53Z</time><name>PT468</name></trkpt>
<trkpt lat="53.391573" lon="-1.916609"><ele>293</ele><time>2024-02-10T09:54:57Z</time><name>PT469</name></trkpt>
<trkpt lat="53.391575" lon="-1.916567"><ele>293</ele><time>2024-02-10T09:55:00Z</time><name>PT470</name></trkpt>
<trkpt lat="53.391575" lon="-1.916513"><ele>292</ele><time>2024-02-10T09:55:04Z</time><name>PT471</name></trkpt>
<trkpt lat="53.391578" lon="-1.916477"><ele>292</ele><time>2024-02-10T09:55:07Z</time><name>PT472</name></trkpt>
<trkpt lat="53.391580" lon="-1.916425"><ele>290</ele><time>2024-02-10T09:55:11Z</time><name>PT473</name></trkpt>
<trkpt lat="53.391573" lon="-1.916376"><ele>291</ele><time>2024-02-10T09:55:14Z</time><name>PT474</name></trkpt>
<trkpt lat="53.391574" lon="-1.916340"><ele>289</ele><time>2024-02-10T09:55:17Z</time><name>PT475</name></trkpt>
<trkpt lat="53.391569" lon="-1.916288"><ele>288</ele><time>2024-02-10T09:55:21Z</time><name>PT476</name></trkpt>
<trkpt lat="53.391570" lon="-1.916246"><ele>288</ele><time>2024-02-10T09:55:24Z</time><name>PT477</name></trkpt>
<trkpt lat="53.391577" lon="-1.916193"><ele>288</ele><time>2024-02-10T09:55:27Z</time><name>PT478</name></trkpt>
<trkpt lat="53.391581" lon="-1.916154"><ele>287</ele><time>2024-02-10T09:55:30Z</time><name>PT479</name></trkpt>
<trkpt lat="53.391573" lon="-1.916090"><ele>286</ele><time>2024-02-10T09:55:34Z</time><name>PT480</name></trkpt>
<trkpt lat="53.391577" lon="-1.916042"><ele>285</ele><time>2024-02-10T09:55:38Z</time><name>PT481</name></trkpt>
<trkpt lat="53.391570" lon="-1.915986"><ele>285</ele><time>2024-02-10T09:55:41Z</time><name>PT482</name></trkpt>
<trkpt lat="53.391575" lon="-1.915917"><ele>284</ele><time>2024-02-10T09:55:45Z</time><name>PT483</name></trkpt>
<trkpt lat="53.391595" lon="-1.915855"><ele>284</ele><time>2024-02-10T09:55:49Z</time><name>PT484</name></trkpt>
<trkpt lat="53.391611" lon="-1.915784"><ele>282</ele><time>2024-02-10T09:55:53Z</time><name>PT485</name></trkpt>
<trkpt lat="53.391627" lon="-1.915727"><ele>283</ele><time>2024-02-10T09:55:56Z</time><name>PT486</name></trkpt>
<trkpt lat="53.391647" lon="-1.915647"><ele>282</ele><time>2024-02-10T09:56:00Z</time><name>PT487</name></trkpt>
<trkpt lat="53.391675" lon="-1.915592"><ele>282</ele><time>2024-02-10T09:56:04Z</time><name>PT488</name></trkpt>
<trkpt lat="53.391687" lon="-1.915528"><ele>282</ele><time>2024-02-10T09:56:08Z</time><name>PT489</name></trkpt>
<trkpt lat="53.391702" lon="-1.915464"><ele>282</ele><time>2024-02-10T09:56:12Z</time><name>PT490</name></trkpt>
<trkpt lat="53.391716" lon="-1.915410"><ele>282</ele><time>2024-02-10T09:56:15Z</time><name>PT491</name></trkpt>
<trkpt lat="53.391729" lon="-1.915350"><ele>281</ele><time>2024-02-10T09:56:18Z</time><name>PT492</name></trkpt>
<trkpt lat="53.391746" lon="-1.915301"><ele>281</ele><time>2024-02-10T09:56:21Z</time><name>PT493</name></trkpt>
<trkpt lat="53.391763" lon="-1.915219"><ele>281</ele><time>2024-02-10T09:56:25Z</time><name>PT494</name></trkpt>
<trkpt lat="53.391780" lon="-1.915164"><ele>282</ele><time>2024-02-10T09:56:28Z</time><name>PT495</name></trkpt>
<trkpt lat="53.391803" lon="-1.915111"><ele>281</ele><time>2024-02-10T09:56:32Z</time><name>PT496</name></trkpt>
<trkpt lat="53.391824" lon="-1.915047"><ele>281</ele><time>2024-02-10T09:56:36Z</time><name>PT497</name></trkpt>
<trkpt lat="53.391846" lon="-1.914972"><ele>281</ele><time>2024-02-10T09:56:40Z</time><name>PT498</name></trkpt>
<trkpt lat="53.391859" lon="-1.914919"><ele>281</ele><time>2024-02-10T09:56:43Z</time><name>PT499</name></trkpt>
<trkpt lat="53.391871" lon="-1.914859"><ele>281</ele><time>2024-02-10T09:56:46Z</time><name>PT500</name></trkpt>
<trkpt lat="53.391891" lon="-1.914783"><ele>280</ele><time>2024-02-10T09:56:50Z</time><name>PT501</name></trkpt>
<trkpt lat="53.391903" lon="-1.914735"><ele>280</ele><time>2024-02-10T09:56:53Z</time><name>PT502</name></trkpt>
<trkpt lat="53.391920" lon="-1.914679"><ele>280</ele><time>2024-02-10T09:56:56Z</time><name>PT503</name></trkpt>
<trkpt lat="53.391951" lon="-1.914604"><ele>282</ele><time>2024-02-10T09:57:00Z</time><name>PT504</name></trkpt>
<trkpt lat="53.391979" lon="-1.914540"><ele>282</ele><time>2024-02-10T09:57:04Z</time><name>PT505</name></trkpt>
<trkpt lat="53.392000" lon="-1.914475"><ele>282</ele><time>2024-02-10T09:57:08Z</time><name>PT506</name></trkpt>
<trkpt lat="53.392017" lon="-1.914425"><ele>282</ele><time>2024-02-10T09:57:11Z</time><name>PT507</name></trkpt>
<trkpt lat="53.392034" lon="-1.914349"><ele>281</ele><time>2024-02-10T09:57:15Z</time><name>PT508</name></trkpt>
<trkpt lat="53.392058" lon="-1.914280"><ele>282</ele><time>2024-02-10T09:57:19Z</time><name>PT509</name></trkpt>
<trkpt lat="53.392070" lon="-1.914225"><ele>282</ele><time>2024-02-10T09:57:22Z</time><name>PT510</name></trkpt>
<trkpt lat="53.392095" lon="-1.914160"><ele>283</ele><time>2024-02-10T09:57:26Z</time><name>PT511</name></trkpt>
<trkpt lat="53.392111" lon="-1.914091"><ele>283</ele><time>2024-02-10T09:57:30Z</time><name>PT512</name></trkpt>
<trkpt lat="53.392134" lon="-1.914026"><ele>283</ele><time>2024-02-10T09:57:34Z</time><name>PT513</name></trkpt>
<trkpt lat="53.392153" lon="-1.913976"><ele>282</ele><time>2024-02-10T09:57:37Z</time><name>PT514</name></trkpt>
<trkpt lat="53.392166" lon="-1.913930"><ele>281</ele><time>2024-02-10T09:57:40Z</time><name>PT515</name></trkpt>
<trkpt lat="53.392194" lon="-1.913855"><ele>282</ele><time>2024-02-10T09:57:44Z</time><name>PT516</name></trkpt>
<trkpt lat="53.392210" lon="-1.913789"><ele>283</ele><time>2024-02-10T09:57:48Z</time><name>PT517</name></trkpt>
<trkpt lat="53.392232" lon="-1.913716"><ele>283</ele><time>2024-02-10T09:57:52Z</time><name>PT518</name></trkpt>
<trkpt lat="53.392265" lon="-1.913659"><ele>283</ele><time>2024-02-10T09:57:56Z</time><name>PT519</name></trkpt>
<trkpt lat="53.392277" lon="-1.913578"><ele>283</ele><time>2024-02-10T09:58:00Z</time><name>PT520</name></trkpt>
<trkpt lat="53.392293" lon="-1.913512"><ele>283</ele><time>2024-02-10T09:58:03Z</time><name>PT521</name></trkpt>
<trkpt lat="53.392308" lon="-1.913459"><ele>283</ele><time>2024-02-10T09:58:06Z</time><name>PT522</name></trkpt>
<trkpt lat="53.392328" lon="-1.913409"><ele>284</ele><time>2024-02-10T09:58:09Z</time><name>PT523</name></trkpt>
<trkpt lat="53.392344" lon="-1.913347"><ele>283</ele><time>2024-02-10T09:58:13Z</time><name>PT524</name></trkpt>
<trkpt lat="53.392357" lon="-1.913296"><ele>284</ele><time>2024-02-10T09:58:16Z</time><name>PT525</name></trkpt>
<trkpt lat="53.392381" lon="-1.913235"><ele>284</ele><time>2024-02-10T09:58:20Z</time><name>PT526</name></trkpt>
<trkpt lat="53.392403" lon="-1.913185"><ele>284</ele><time>2024-02-10T09:58:23Z</time><name>PT527</name></trkpt>
<trkpt lat="53.392420" lon="-1.913120"><ele>285</ele><time>2024-02-10T09:58:26Z</time><name>PT528</name></trkpt>
<trkpt lat="53.392443" lon="-1.913054"><ele>287</ele><time>2024-02-10T09:58:30Z</time><name>PT529</name></trkpt>
<trkpt lat="53.392464" lon="-1.912988"><ele>288</ele><time>2024-02-10T09:58:34Z</time><name>PT530</name></trkpt>
<trkpt lat="53.392482" lon="-1.912944"><ele>287</ele><time>2024-02-10T09:58:37Z</time><name>PT531</name></trkpt>
<trkpt lat="53.392497" lon="-1.912884"><ele>288</ele><time>2024-02-10T09:58:40Z</time><name>PT532</name></trkpt>
<trkpt lat="53.392514" lon="-1.912790"><ele>288</ele><time>2024-02-10T09:58:44Z</time><name>PT533</name></trkpt>
<trkpt lat="53.392536" lon="-1.912733"><ele>289</ele><time>2024-02-10T09:58:47Z</time><name>PT534</name></trkpt>
<trkpt lat="53.392563" lon="-1.912658"><ele>289</ele><time>2024-02-10T09:58:51Z</time><name>PT535</name></trkpt>
<trkpt lat="53.392596" lon="-1.912606"><ele>289</ele><time>2024-02-10T09:58:55Z</time><name>PT536</name></trkpt>
<trkpt lat="53.392619" lon="-1.912571"><ele>289</ele><time>2024-02-10T09:58:58Z</time><name>PT537</name></trkpt>
<trkpt lat="53.392650" lon="-1.912513"><ele>290</ele><time>2024-02-10T09:59:02Z</time><name>PT538</name></trkpt>
<trkpt lat="53.392647" lon="-1.912515"><ele>290</ele><time>2024-02-10T09:59:05Z</time><name>PT539</name></trkpt>
<trkpt lat="53.392658" lon="-1.912499"><ele>290</ele><time>2024-02-10T09:59:09Z</time><name>PT540</name></trkpt>
<trkpt lat="53.392688" lon="-1.912440"><ele>290</ele><time>2024-02-10T09:59:12Z</time><name>PT541</name></trkpt>
<trkpt lat="53.392729" lon="-1.912364"><ele>291</ele><time>2024-02-10T09:59:16Z</time><name>PT542</name></trkpt>
<trkpt lat="53.392776" lon="-1.912326"><ele>289</ele><time>2024-02-10T09:59:20Z</time><name>PT543</name></trkpt>
<trkpt lat="53.392827" lon="-1.912268"><ele>290</ele><time>2024-02-10T09:59:24Z</time><name>PT544</name></trkpt>
<trkpt lat="53.392860" lon="-1.912246"><ele>290</ele><time>2024-02-10T09:59:27Z</time><name>PT545</name></trkpt>
<trkpt lat="53.392892" lon="-1.912209"><ele>290</ele><time>2024-02-10T09:59:30Z</time><name>PT546</name></trkpt>
<trkpt lat="53.392945" lon="-1.912205"><ele>289</ele><time>2024-02-10T09:59:34Z</time><name>PT547</name></trkpt>
<trkpt lat="53.393003" lon="-1.912213"><ele>289</ele><time>2024-02-10T09:59:38Z</time><name>PT548</name></trkpt>
<trkpt lat="53.393035" lon="-1.912202"><ele>289</ele><time>2024-02-10T09:59:41Z</time><name>PT549</name></trkpt>
<trkpt lat="53.393084" lon="-1.912218"><ele>287</ele><time>2024-02-10T09:59:45Z</time><name>PT550</name></trkpt>
<trkpt lat="53.393127" lon="-1.912221"><ele>286</ele><time>2024-02-10T09:59:49Z</time><name>PT551</name></trkpt>
<trkpt lat="53.393179" lon="-1.912244"><ele>285</ele><time>2024-02-10T09:59:53Z</time><name>PT552</name></trkpt>
<trkpt lat="53.393217" lon="-1.912249"><ele>285</ele><time>2024-02-10T09:59:56Z</time><name>PT553</name></trkpt>
<trkpt lat="53.393255" lon="-1.912248"><ele>284</ele><time>2024-02-10T09:59:59Z</time><name>PT554</name></trkpt>
<trkpt lat="53.393303" lon="-1.912253"><ele>285</ele><time>2024-02-10T10:00:02Z</time><name>PT555</name></trkpt>
<trkpt lat="53.393354" lon="-1.912259"><ele>284</ele><time>2024-02-10T10:00:06Z</time><name>PT556</name></trkpt>
<trkpt lat="53.393392" lon="-1.912266"><ele>283</ele><time>2024-02-10T10:00:09Z</time><name>PT557</name></trkpt>
<trkpt lat="53.393427" lon="-1.912287"><ele>282</ele><time>2024-02-10T10:00:12Z</time><name>PT558</name></trkpt>
<trkpt lat="53.393476" lon="-1.912278"><ele>282</ele><time>2024-02-10T10:00:16Z</time><name>PT559</name></trkpt>
<trkpt lat="53.393513" lon="-1.912273"><ele>282</ele><time>2024-02-10T10:00:19Z</time><name>PT560</name></trkpt>
<trkpt lat="53.393565" lon="-1.912272"><ele>283</ele><time>2024-02-10T10:00:23Z</time><name>PT561</name></trkpt>
<trkpt lat="53.393604" lon="-1.912275"><ele>284</ele><time>2024-02-10T10:00:26Z</time><name>PT562</name></trkpt>
<trkpt lat="53.393645" lon="-1.912293"><ele>283</ele><time>2024-02-10T10:00:30Z</time><name>PT563</name></trkpt>
<trkpt lat="53.393674" lon="-1.912297"><ele>283</ele><time>2024-02-10T10:00:33Z</time><name>PT564</name></trkpt>
<trkpt lat="53.393721" lon="-1.912297"><ele>283</ele><time>2024-02-10T10:00:37Z</time><name>PT565</name></trkpt>
<trkpt lat="53.393772" lon="-1.912287"><ele>284</ele><time>2024-02-10T10:00:41Z</time><name>PT566</name></trkpt>
<trkpt lat="53.393802" lon="-1.912281"><ele>285</ele><time>2024-02-10T10:00:44Z</time><name>PT567</name></trkpt>
<trkpt lat="53.393851" lon="-1.912275"><ele>285</ele><time>2024-02-10T10:00:48Z</time><name>PT568</name></trkpt>
<trkpt lat="53.393901" lon="-1.912265"><ele>287</ele><time>2024-02-10T10:00:52Z</time><name>PT569</name></trkpt>
<trkpt lat="53.393942" lon="-1.912276"><ele>284</ele><time>2024-02-10T10:00:56Z</time><name>PT570</name></trkpt>
<trkpt lat="53.393972" lon="-1.912279"><ele>285</ele><time>2024-02-10T10:01:00Z</time><name>PT571</name></trkpt>
<trkpt lat="53.393990" lon="-1.912274"><ele>286</ele><time>2024-02-10T10:01:04Z</time><name>PT572</name></trkpt>
<trkpt lat="53.394009" lon="-1.912271"><ele>287</ele><time>2024-02-10T10:01:08Z</time><name>PT573</name></trkpt>
<trkpt lat="53.394057" lon="-1.912273"><ele>288</ele><time>2024-02-10T10:01:12Z</time><name>PT574</name></trkpt>
<trkpt lat="53.394094" lon="-1.912251"><ele>290</ele><time>2024-02-10T10:01:15Z</time><name>PT575</name></trkpt>
<trkpt lat="53.394138" lon="-1.912238"><ele>290</ele><time>2024-02-10T10:01:18Z</time><name>PT576</name></trkpt>
<trkpt lat="53.394186" lon="-1.912233"><ele>290</ele><time>2024-02-10T10:01:22Z</time><name>PT577</name></trkpt>
<trkpt lat="53.394224" lon="-1.912224"><ele>289</ele><time>2024-02-10T10:01:25Z</time><name>PT578</name></trkpt>
<trkpt lat="53.394263" lon="-1.912219"><ele>289</ele><time>2024-02-10T10:01:28Z</time><name>PT579</name></trkpt>
<trkpt lat="53.394315" lon="-1.912208"><ele>290</ele><time>2024-02-10T10:01:32Z</time><name>PT580</name></trkpt>
<trkpt lat="53.394355" lon="-1.912192"><ele>292</ele><time>2024-02-10T10:01:35Z</time><name>PT581</name></trkpt>
<trkpt lat="53.394413" lon="-1.912188"><ele>292</ele><time>2024-02-10T10:01:39Z</time><name>PT582</name></trkpt>
<trkpt lat="53.394452" lon="-1.912194"><ele>291</ele><time>2024-02-10T10:01:42Z</time><name>PT583</name></trkpt>
<trkpt lat="53.394498" lon="-1.912176"><ele>291</ele><time>2024-02-10T10:01:46Z</time><name>PT584</name></trkpt>
<trkpt lat="53.394546" lon="-1.912172"><ele>290</ele><time>2024-02-10T10:01:50Z</time><name>PT585</name></trkpt>
<trkpt lat="53.394579" lon="-1.912166"><ele>291</ele><time>2024-02-10T10:01:53Z</time><name>PT586</name></trkpt>
<trkpt lat="53.394625" lon="-1.912159"><ele>290</ele><time>2024-02-10T10:01:57Z</time><name>PT587</name></trkpt>
<trkpt lat="53.394663" lon="-1.912175"><ele>288</ele><time>2024-02-10T10:02:00Z</time><name>PT588</name></trkpt>
<trkpt lat="53.394705" lon="-1.912163"><ele>287</ele><time>2024-02-10T10:02:04Z</time><name>PT589</name></trkpt>
<trkpt lat="53.394743" lon="-1.912155"><ele>286</ele><time>2024-02-10T10:02:07Z</time><name>PT590</name></trkpt>
<trkpt lat="53.394779" lon="-1.912164"><ele>285</ele><time>2024-02-10T10:02:10Z</time><name>PT591</name></trkpt>
<trkpt lat="53.394803" lon="-1.912160"><ele>283</ele><time>2024-02-10T10:02:13Z</time><name>PT592</name></trkpt>
<trkpt lat="53.394853" lon="-1.912166"><ele>280</ele><time>2024-02-10T10:02:17Z</time><name>PT593</name></trkpt>
<trkpt lat="53.394884" lon="-1.912140"><ele>281</ele><time>2024-02-10T10:02:20Z</time><name>PT594</name></trkpt>
<trkpt lat="53.394936" lon="-1.912121"><ele>282</ele><time>2024-02-10T10:02:24Z</time><name>PT595</name></trkpt>
<trkpt lat="53.394970" lon="-1.912105"><ele>283</ele><time>2024-02-10T10:02:27Z</time><name>PT596</name></trkpt>
<trkpt lat="53.395015" lon="-1.912080"><ele>283</ele><time>2024-02-10T10:02:31Z</time><name>PT597</name></trkpt>
<trkpt lat="53.395042" lon="-1.912072"><ele>284</ele><time>2024-02-10T10:02:34Z</time><name>PT598</name></trkpt>
<trkpt lat="53.395071" lon="-1.912063"><ele>284</ele><time>2024-02-10T10:02:37Z</time><name>PT599</name></trkpt>
<trkpt lat="53.395107" lon="-1.912052"><ele>285</ele><time>2024-02-10T10:02:41Z</time><name>PT600</name></trkpt>
<trkpt lat="53.395147" lon="-1.912024"><ele>285</ele><time>2024-02-10T10:02:45Z</time><name>PT601</name></trkpt>
<trkpt lat="53.395178" lon="-1.911997"><ele>287</ele><time>2024-02-10T10:02:48Z</time><name>PT602</name></trkpt>
<trkpt lat="53.395206" lon="-1.911970"><ele>287</ele><time>2024-02-10T10:02:51Z</time><name>PT603</name></trkpt>
<trkpt lat="53.395259" lon="-1.911927"><ele>287</ele><time>2024-02-10T10:02:55Z</time><name>PT604</name></trkpt>
<trkpt lat="53.395283" lon="-1.911895"><ele>287</ele><time>2024-02-10T10:02:58Z</time><name>PT605</name></trkpt>
<trkpt lat="53.395323" lon="-1.911871"><ele>285</ele><time>2024-02-10T10:03:02Z</time><name>PT606</name></trkpt>
<trkpt lat="53.395340" lon="-1.911858"><ele>285</ele><time>2024-02-10T10:03:05Z</time><name>PT607</name></trkpt>
<trkpt lat="53.395367" lon="-1.911842"><ele>286</ele><time>2024-02-10T10:03:09Z</time><name>PT608</name></trkpt>
<trkpt lat="53.395378" lon="-1.911818"><ele>286</ele><time>2024-02-10T10:03:12Z</time><name>PT609</name></trkpt>
<trkpt lat="53.395402" lon="-1.911774"><ele>289</ele><time>2024-02-10T10:03:15Z</time><name>PT610</name></trkpt>
<trkpt lat="53.395423" lon="-1.911755"><ele>290</ele><time>2024-02-10T10:03:18Z</time><name>PT611</name></trkpt>
<trkpt lat="53.395433" lon="-1.911740"><ele>288</ele><time>2024-02-10T10:03:21Z</time><name>PT612</name></trkpt>
<trkpt lat="53.395456" lon="-1.911717"><ele>289</ele><time>2024-02-10T10:03:24Z</time><name>PT613</name></trkpt>
<trkpt lat="53.395459" lon="-1.911715"><ele>289</ele><time>2024-02-10T10:03:27Z</time><name>PT614</name></trkpt>
<trkpt lat="53.395459" lon="-1.911714"><ele>289</ele><time>2024-02-10T10:03:30Z</time><name>PT615</name></trkpt>
<trkpt lat="53.395460" lon="-1.911715"><ele>289</ele><time>2024-02-10T10:03:34Z</time><name>PT616</name></trkpt>
<trkpt lat="53.395457" lon="-1.911700"><ele>289</ele><time>2024-02-10T10:03:45Z</time><name>PT617</name></trkpt>
<trkpt lat="53.395455" lon="-1.911694"><ele>288</ele><time>2024-02-10T10:03:48Z</time><name>PT618</name></trkpt>
<trkpt lat="53.395439" lon="-1.911691"><ele>288</ele><time>2024-02-10T10:04:02Z</time><name>PT619</name></trkpt>
<trkpt lat="53.395428" lon="-1.911703"><ele>288</ele><time>2024-02-10T10:04:05Z</time><name>PT620</name></trkpt>
<trkpt lat="53.395423" lon="-1.911712"><ele>288</ele><time>2024-02-10T10:04:08Z</time><name>PT621</name></trkpt>
<trkpt lat="53.395425" lon="-1.911703"><ele>288</ele><time>2024-02-10T10:04:27Z</time><name>PT622</name></trkpt>
<trkpt lat="53.395419" lon="-1.911697"><ele>288</ele><time>2024-02-10T10:04:30Z</time><name>PT623</name></trkpt>
<trkpt lat="53.395396" lon="-1.911694"><ele>288</ele><time>2024-02-10T10:04:33Z</time><name>PT624</name></trkpt>
<trkpt lat="53.395378" lon="-1.911729"><ele>288</ele><time>2024-02-10T10:04:37Z</time><name>PT625</name></trkpt>
<trkpt lat="53.395358" lon="-1.911744"><ele>288</ele><time>2024-02-10T10:04:41Z</time><name>PT626</name></trkpt>
<trkpt lat="53.395352" lon="-1.911725"><ele>289</ele><time>2024-02-10T10:04:44Z</time><name>PT627</name></trkpt>
<trkpt lat="53.395360" lon="-1.911731"><ele>290</ele><time>2024-02-10T10:05:13Z</time><name>PT628</name></trkpt>
<trkpt lat="53.395361" lon="-1.911731"><ele>290</ele><time>2024-02-10T10:05:17Z</time><name>PT629</name></trkpt>
<trkpt lat="53.395366" lon="-1.911711"><ele>291</ele><time>2024-02-10T10:05:50Z</time><name>PT630</name></trkpt>
<trkpt lat="53.395381" lon="-1.911684"><ele>291</ele><time>2024-02-10T10:05:53Z</time><name>PT631</name></trkpt>
<trkpt lat="53.395397" lon="-1.911668"><ele>290</ele><time>2024-02-10T10:05:56Z</time><name>PT632</name></trkpt>
<trkpt lat="53.395413" lon="-1.911635"><ele>288</ele><time>2024-02-10T10:06:00Z</time><name>PT633</name></trkpt>
<trkpt lat="53.395432" lon="-1.911632"><ele>288</ele><time>2024-02-10T10:06:04Z</time><name>PT634</name></trkpt>
<trkpt lat="53.395440" lon="-1.911628"><ele>288</ele><time>2024-02-10T10:06:08Z</time><name>PT635</name></trkpt>
<trkpt lat="53.395455" lon="-1.911656"><ele>291</ele><time>2024-02-10T10:06:12Z</time><name>PT636</name></trkpt>
<trkpt lat="53.395461" lon="-1.911676"><ele>291</ele><time>2024-02-10T10:06:16Z</time><name>PT637</name></trkpt>
<trkpt lat="53.395463" lon="-1.911686"><ele>291</ele><time>2024-02-10T10:06:19Z</time><name>PT638</name></trkpt>
<trkpt lat="53.395465" lon="-1.911689"><ele>291</ele><time>2024-02-10T10:06:23Z</time><name>PT639</name></trkpt>
<trkpt lat="53.395470" lon="-1.911709"><ele>291</ele><time>2024-02-10T10:06:26Z</time><name>PT640</name></trkpt>
<trkpt lat="53.395476" lon="-1.911716"><ele>292</ele><time>2024-02-10T10:06:30Z</time><name>PT641</name></trkpt>
<trkpt lat="53.395481" lon="-1.911675"><ele>293</ele><time>2024-02-10T10:06:33Z</time><name>PT642</name></trkpt>
<trkpt lat="53.395482" lon="-1.911637"><ele>292</ele><time>2024-02-10T10:06:37Z</time><name>PT643</name></trkpt>
<trkpt lat="53.395485" lon="-1.911648"><ele>293</ele><time>2024-02-10T10:06:41Z</time><name>PT644</name></trkpt>
<trkpt lat="53.395503" lon="-1.911631"><ele>292</ele><time>2024-02-10T10:06:47Z</time><name>PT645</name></trkpt>
<trkpt lat="53.395526" lon="-1.911641"><ele>291</ele><time>2024-02-10T10:06:50Z</time><name>PT646</name></trkpt>
<trkpt lat="53.395541" lon="-1.911641"><ele>292</ele><time>2024-02-10T10:06:54Z</time><name>PT647</name></trkpt>
<trkpt lat="53.395559" lon="-1.911640"><ele>292</ele><time>2024-02-10T10:07:02Z</time><name>PT648</name></trkpt>
<trkpt lat="53.395585" lon="-1.911639"><ele>293</ele><time>2024-02-10T10:07:19Z</time><name>PT649</name></trkpt>
<trkpt lat="53.395596" lon="-1.911644"><ele>292</ele><time>2024-02-10T10:07:22Z</time><name>PT650</name></trkpt>
<trkpt lat="53.395620" lon="-1.911645"><ele>292</ele><time>2024-02-10T10:07:26Z</time><name>PT651</name></trkpt>
<trkpt lat="53.395656" lon="-1.911659"><ele>293</ele><time>2024-02-10T10:07:30Z</time><name>PT652</name></trkpt>
<trkpt lat="53.395684" lon="-1.911645"><ele>295</ele><time>2024-02-10T10:07:33Z</time><name>PT653</name></trkpt>
<trkpt lat="53.395730" lon="-1.911632"><ele>295</ele><time>2024-02-10T10:07:37Z</time><name>PT654</name></trkpt>
<trkpt lat="53.395777" lon="-1.911622"><ele>296</ele><time>2024-02-10T10:07:41Z</time><name>PT655</name></trkpt>
<trkpt lat="53.395809" lon="-1.911607"><ele>296</ele><time>2024-02-10T10:07:45Z</time><name>PT656</name></trkpt>
<trkpt lat="53.395828" lon="-1.911605"><ele>296</ele><time>2024-02-10T10:07:48Z</time><name>PT657</name></trkpt>
<trkpt lat="53.395860" lon="-1.911614"><ele>296</ele><time>2024-02-10T10:07:52Z</time><name>PT658</name></trkpt>
<trkpt lat="53.395891" lon="-1.911624"><ele>297</ele><time>2024-02-10T10:07:56Z</time><name>PT659</name></trkpt>
<trkpt lat="53.395913" lon="-1.911627"><ele>297</ele><time>2024-02-10T10:08:00Z</time><name>PT660</name></trkpt>
<trkpt lat="53.395956" lon="-1.911634"><ele>296</ele><time>2024-02-10T10:08:07Z</time><name>PT661</name></trkpt>
<trkpt lat="53.396016" lon="-1.911617"><ele>295</ele><time>2024-02-10T10:08:11Z</time><name>PT662</name></trkpt>
<trkpt lat="53.396056" lon="-1.911594"><ele>295</ele><time>2024-02-10T10:08:14Z</time><name>PT663</name></trkpt>
<trkpt lat="53.396085" lon="-1.911578"><ele>294</ele><time>2024-02-10T10:08:17Z</time><name>PT664</name></trkpt>
<trkpt lat="53.396131" lon="-1.911577"><ele>294</ele><time>2024-02-10T10:08:21Z</time><name>PT665</name></trkpt>
<trkpt lat="53.396166" lon="-1.911565"><ele>294</ele><time>2024-02-10T10:08:24Z</time><name>PT666</name></trkpt>
<trkpt lat="53.396214" lon="-1.911556"><ele>294</ele><time>2024-02-10T10:08:28Z</time><name>PT667</name></trkpt>
<trkpt lat="53.396253" lon="-1.911554"><ele>294</ele><time>2024-02-10T10:08:31Z</time><name>PT668</name></trkpt>
<trkpt lat="53.396290" lon="-1.911556"><ele>295</ele><time>2024-02-10T10:08:34Z</time><name>PT669</name></trkpt>
<trkpt lat="53.396340" lon="-1.911566"><ele>296</ele><time>2024-02-10T10:08:38Z</time><name>PT670</name></trkpt>
<trkpt lat="53.396379" lon="-1.911570"><ele>295</ele><time>2024-02-10T10:08:41Z</time><name>PT671</name></trkpt>
<trkpt lat="53.396414" lon="-1.911583"><ele>295</ele><time>2024-02-10T10:08:44Z</time><name>PT672</name></trkpt>
<trkpt lat="53.396460" lon="-1.911601"><ele>296</ele><time>2024-02-10T10:08:48Z</time><name>PT673</name></trkpt>
<trkpt lat="53.396493" lon="-1.911628"><ele>297</ele><time>2024-02-10T10:08:52Z</time><name>PT674</name></trkpt>
<trkpt lat="53.396522" lon="-1.911648"><ele>300</ele><time>2024-02-10T10:08:55Z</time><name>PT675</name></trkpt>
<trkpt lat="53.396563" lon="-1.911663"><ele>300</ele><time>2024-02-10T10:08:59Z</time><name>PT676</name></trkpt>
<trkpt lat="53.396605" lon="-1.911694"><ele>301</ele><time>2024-02-10T10:09:03Z</time><name>PT677</name></trkpt>
<trkpt lat="53.396636" lon="-1.911708"><ele>301</ele><time>2024-02-10T10:09:06Z</time><name>PT678</name></trkpt>
<trkpt lat="53.396673" lon="-1.911726"><ele>300</ele><time>2024-02-10T10:09:09Z</time><name>PT679</name></trkpt>
<trkpt lat="53.396720" lon="-1.911747"><ele>300</ele><time>2024-02-10T10:09:13Z</time><name>PT680</name></trkpt>
<trkpt lat="53.396754" lon="-1.911754"><ele>299</ele><time>2024-02-10T10:09:16Z</time><name>PT681</name></trkpt>
<trkpt lat="53.396779" lon="-1.911771"><ele>298</ele><time>2024-02-10T10:09:19Z</time><name>PT682</name></trkpt>
<trkpt lat="53.396814" lon="-1.911816"><ele>297</ele><time>2024-02-10T10:09:23Z</time><name>PT683</name></trkpt>
<trkpt lat="53.396837" lon="-1.911849"><ele>298</ele><time>2024-02-10T10:09:26Z</time><name>PT684</name></trkpt>
<trkpt lat="53.396863" lon="-1.911885"><ele>299</ele><time>2024-02-10T10:09:30Z</time><name>PT685</name></trkpt>
<trkpt lat="53.396881" lon="-1.911910"><ele>300</ele><time>2024-02-10T10:09:33Z</time><name>PT686</name></trkpt>
<trkpt lat="53.396919" lon="-1.911937"><ele>300</ele><time>2024-02-10T10:09:37Z</time><name>PT687</name></trkpt>
<trkpt lat="53.396934" lon="-1.911972"><ele>300</ele><time>2024-02-10T10:09:40Z</time><name>PT688</name></trkpt>
<trkpt lat="53.396959" lon="-1.911991"><ele>301</ele><time>2024-02-10T10:09:43Z</time><name>PT689</name></trkpt>
<trkpt lat="53.396996" lon="-1.912018"><ele>300</ele><time>2024-02-10T10:09:47Z</time><name>PT690</name></trkpt>
<trkpt lat="53.397033" lon="-1.912034"><ele>301</ele><time>2024-02-10T10:09:51Z</time><name>PT691</name></trkpt>
<trkpt lat="53.397058" lon="-1.912056"><ele>300</ele><time>2024-02-10T10:09:54Z</time><name>PT692</name></trkpt>
<trkpt lat="53.397097" lon="-1.912080"><ele>301</ele><time>2024-02-10T10:09:58Z</time><name>PT693</name></trkpt>
<trkpt lat="53.397118" lon="-1.912104"><ele>302</ele><time>2024-02-10T10:10:01Z</time><name>PT694</name></trkpt>
<trkpt lat="53.397143" lon="-1.912117"><ele>302</ele><time>2024-02-10T10:10:05Z</time><name>PT695</name></trkpt>
<trkpt lat="53.397166" lon="-1.912120"><ele>302</ele><time>2024-02-10T10:10:08Z</time><name>PT696</name></trkpt>
<trkpt lat="53.397208" lon="-1.912138"><ele>302</ele><time>2024-02-10T10:10:12Z</time><name>PT697</name></trkpt>
<trkpt lat="53.397247" lon="-1.912174"><ele>305</ele><time>2024-02-10T10:10:16Z</time><name>PT698</name></trkpt>
<trkpt lat="53.397268" lon="-1.912210"><ele>305</ele><time>2024-02-10T10:10:19Z</time><name>PT699</name></trkpt>
<trkpt lat="53.397292" lon="-1.912229"><ele>305</ele><time>2024-02-10T10:10:22Z</time><name>PT700</name></trkpt>
<trkpt lat="53.397302" lon="-1.912245"><ele>305</ele><time>2024-02-10T10:10:25Z</time><name>PT701</name></trkpt>
<trkpt lat="53.397304" lon="-1.912246"><ele>306</ele><time>2024-02-10T10:10:29Z</time><name>PT702</name></trkpt>
<trkpt lat="53.397313" lon="-1.912256"><ele>305</ele><time>2024-02-10T10:10:32Z</time><name>PT703</name></trkpt>
<trkpt lat="53.397316" lon="-1.912255"><ele>306</ele><time>2024-02-10T10:10:36Z</time><name>PT704</name></trkpt>
<trkpt lat="53.397317" lon="-1.912254"><ele>306</ele><time>2024-02-10T10:10:39Z</time><name>PT705</name></trkpt>
<trkpt lat="53.397320" lon="-1.912269"><ele>307</ele><time>2024-02-10T10:10:42Z</time><name>PT706</name></trkpt>
<trkpt lat="53.397323" lon="-1.912252"><ele>307</ele><time>2024-02-10T10:10:57Z</time><name>PT707</name></trkpt>
<trkpt lat="53.397353" lon="-1.912240"><ele>307</ele><time>2024-02-10T10:11:01Z</time><name>PT708</name></trkpt>
<trkpt lat="53.397367" lon="-1.912254"><ele>307</ele><time>2024-02-10T10:11:04Z</time><name>PT709</name></trkpt>
<trkpt lat="53.397395" lon="-1.912268"><ele>307</ele><time>2024-02-10T10:11:08Z</time><name>PT710</name></trkpt>
<trkpt lat="53.397421" lon="-1.912289"><ele>307</ele><time>2024-02-10T10:11:12Z</time><name>PT711</name></trkpt>
<trkpt lat="53.397440" lon="-1.912283"><ele>307</ele><time>2024-02-10T10:11:15Z</time><name>PT712</name></trkpt>
<trkpt lat="53.397471" lon="-1.912262"><ele>308</ele><time>2024-02-10T10:11:19Z</time><name>PT713</name></trkpt>
<trkpt lat="53.397491" lon="-1.912227"><ele>309</ele><time>2024-02-10T10:11:23Z</time><name>PT714</name></trkpt>
<trkpt lat="53.397508" lon="-1.912216"><ele>309</ele><time>2024-02-10T10:11:26Z</time><name>PT715</name></trkpt>
<trkpt lat="53.397534" lon="-1.912213"><ele>309</ele><time>2024-02-10T10:11:30Z</time><name>PT716</name></trkpt>
<trkpt lat="53.397556" lon="-1.912214"><ele>310</ele><time>2024-02-10T10:11:33Z</time><name>PT717</name></trkpt>
<trkpt lat="53.397592" lon="-1.912209"><ele>309</ele><time>2024-02-10T10:11:37Z</time><name>PT718</name></trkpt>
<trkpt lat="53.397622" lon="-1.912201"><ele>310</ele><time>2024-02-10T10:11:40Z</time><name>PT719</name></trkpt>
<trkpt lat="53.397664" lon="-1.912204"><ele>310</ele><time>2024-02-10T10:11:44Z</time><name>PT720</name></trkpt>
<trkpt lat="53.397696" lon="-1.912215"><ele>310</ele><time>2024-02-10T10:11:47Z</time><name>PT721</name></trkpt>
<trkpt lat="53.397726" lon="-1.912221"><ele>310</ele><time>2024-02-10T10:11:51Z</time><name>PT722</name></trkpt>
<trkpt lat="53.397753" lon="-1.912211"><ele>311</ele><time>2024-02-10T10:11:54Z</time><name>PT723</name></trkpt>
<trkpt lat="53.397789" lon="-1.912190"><ele>312</ele><time>2024-02-10T10:11:58Z</time><name>PT724</name></trkpt>
<trkpt lat="53.397827" lon="-1.912177"><ele>312</ele><time>2024-02-10T10:12:02Z</time><name>PT725</name></trkpt>
<trkpt lat="53.397857" lon="-1.912171"><ele>312</ele><time>2024-02-10T10:12:05Z</time><name>PT726</name></trkpt>
<trkpt lat="53.397896" lon="-1.912171"><ele>312</ele><time>2024-02-10T10:12:09Z</time><name>PT727</name></trkpt>
<trkpt lat="53.397921" lon="-1.912167"><ele>311</ele><time>2024-02-10T10:12:12Z</time><name>PT728</name></trkpt>
<trkpt lat="53.397943" lon="-1.912163"><ele>310</ele><time>2024-02-10T10:12:16Z</time><name>PT729</name></trkpt>
<trkpt lat="53.397970" lon="-1.912151"><ele>309</ele><time>2024-02-10T10:12:20Z</time><name>PT730</name></trkpt>
<trkpt lat="53.397994" lon="-1.912140"><ele>310</ele><time>2024-02-10T10:12:23Z</time><name>PT731</name></trkpt>
<trkpt lat="53.398030" lon="-1.912124"><ele>311</ele><time>2024-02-10T10:12:27Z</time><name>PT732</name></trkpt>
<trkpt lat="53.398053" lon="-1.912111"><ele>312</ele><time>2024-02-10T10:12:30Z</time><name>PT733</name></trkpt>
<trkpt lat="53.398083" lon="-1.912084"><ele>312</ele><time>2024-02-10T10:12:34Z</time><name>PT734</name></trkpt>
<trkpt lat="53.398106" lon="-1.912083"><ele>313</ele><time>2024-02-10T10:12:38Z</time><name>PT735</name></trkpt>
<trkpt lat="53.398134" lon="-1.912104"><ele>315</ele><time>2024-02-10T10:12:42Z</time><name>PT736</name></trkpt>
<trkpt lat="53.398161" lon="-1.912122"><ele>316</ele><time>2024-02-10T10:12:45Z</time><name>PT737</name></trkpt>
<trkpt lat="53.398190" lon="-1.912143"><ele>317</ele><time>2024-02-10T10:12:49Z</time><name>PT738</name></trkpt>
<trkpt lat="53.398218" lon="-1.912155"><ele>316</ele><time>2024-02-10T10:12:53Z</time><name>PT739</name></trkpt>
<trkpt lat="53.398248" lon="-1.912137"><ele>317</ele><time>2024-02-10T10:12:56Z</time><name>PT740</name></trkpt>
<trkpt lat="53.398270" lon="-1.912127"><ele>316</ele><time>2024-02-10T10:13:00Z</time><name>PT741</name></trkpt>
<trkpt lat="53.398298" lon="-1.912122"><ele>317</ele><time>2024-02-10T10:13:04Z</time><name>PT742</name></trkpt>
<trkpt lat="53.398309" lon="-1.912123"><ele>317</ele><time>2024-02-10T10:13:07Z</time><name>PT743</name></trkpt>
<trkpt lat="53.398310" lon="-1.912123"><ele>316</ele><time>2024-02-10T10:13:11Z</time><name>PT744</name></trkpt>
<trkpt lat="53.398318" lon="-1.912125"><ele>316</ele><time>2024-02-10T10:13:21Z</time><name>PT745</name></trkpt>
<trkpt lat="53.398325" lon="-1.912123"><ele>316</ele><time>2024-02-10T10:13:25Z</time><name>PT746</name></trkpt>
<trkpt lat="53.398330" lon="-1.912114"><ele>316</ele><time>2024-02-10T10:13:32Z</time><name>PT747</name></trkpt>
<trkpt lat="53.398340" lon="-1.912113"><ele>316</ele><time>2024-02-10T10:13:36Z</time><name>PT748</name></trkpt>
<trkpt lat="53.398386" lon="-1.912088"><ele>316</ele><time>2024-02-10T10:13:40Z</time><name>PT749</name></trkpt>
<trkpt lat="53.398419" lon="-1.912082"><ele>317</ele><time>2024-02-10T10:13:43Z</time><name>PT750</name></trkpt>
<trkpt lat="53.398443" lon="-1.912064"><ele>317</ele><time>2024-02-10T10:13:46Z</time><name>PT751</name></trkpt>
<trkpt lat="53.398472" lon="-1.912050"><ele>317</ele><time>2024-02-10T10:13:49Z</time><name>PT752</name></trkpt>
<trkpt lat="53.398500" lon="-1.912023"><ele>318</ele><time>2024-02-10T10:13:53Z</time><name>PT753</name></trkpt>
<trkpt lat="53.398526" lon="-1.911997"><ele>319</ele><time>2024-02-10T10:13:57Z</time><name>PT754</name></trkpt>
<trkpt lat="53.398545" lon="-1.911981"><ele>320</ele><time>2024-02-10T10:14:00Z</time><name>PT755</name></trkpt>
<trkpt lat="53.398564" lon="-1.911964"><ele>321</ele><time>2024-02-10T10:14:04Z</time><name>PT756</name></trkpt>
<trkpt lat="53.398587" lon="-1.911950"><ele>321</ele><time>2024-02-10T10:14:07Z</time><name>PT757</name></trkpt>
<trkpt lat="53.398627" lon="-1.911943"><ele>322</ele><time>2024-02-10T10:14:11Z</time><name>PT758</name></trkpt>
<trkpt lat="53.398659" lon="-1.911933"><ele>322</ele><time>2024-02-10T10:14:15Z</time><name>PT759</name></trkpt>
<trkpt lat="53.398699" lon="-1.911920"><ele>323</ele><time>2024-02-10T10:14:19Z</time><name>PT760</name></trkpt>
<trkpt lat="53.398735" lon="-1.911912"><ele>324</ele><time>2024-02-10T10:14:23Z</time><name>PT761</name></trkpt>
<trkpt lat="53.398758" lon="-1.911904"><ele>322</ele><time>2024-02-10T10:14:26Z</time><name>PT762</name></trkpt>
<trkpt lat="53.398788" lon="-1.911901"><ele>320</ele><time>2024-02-10T10:14:30Z</time><name>PT763</name></trkpt>
<trkpt lat="53.398815" lon="-1.911888"><ele>321</ele><time>2024-02-10T10:14:33Z</time><name>PT764</name></trkpt>
<trkpt lat="53.398837" lon="-1.911872"><ele>320</ele><time>2024-02-10T10:14:36Z</time><name>PT765</name></trkpt>
<trkpt lat="53.398870" lon="-1.911839"><ele>322</ele><time>2024-02-10T10:14:40Z</time><name>PT766</name></trkpt>
<trkpt lat="53.398894" lon="-1.911807"><ele>321</ele><time>2024-02-10T10:14:44Z</time><name>PT767</name></trkpt>
<trkpt lat="53.398923" lon="-1.911787"><ele>321</ele><time>2024-02-10T10:14:48Z</time><name>PT768</name></trkpt>
<trkpt lat="53.398965" lon="-1.911758"><ele>320</ele><time>2024-02-10T10:14:52Z</time><name>PT769</name></trkpt>
<trkpt lat="53.398983" lon="-1.911732"><ele>320</ele><time>2024-02-10T10:14:55Z</time><name>PT770</name></trkpt>
<trkpt lat="53.399000" lon="-1.911705"><ele>320</ele><time>2024-02-10T10:14:58Z</time><name>PT771</name></trkpt>
<trkpt lat="53.399015" lon="-1.911665"><ele>321</ele><time>2024-02-10T10:15:02Z</time><name>PT772</name></trkpt>
<trkpt lat="53.399020" lon="-1.911665"><ele>320</ele><time>2024-02-10T10:15:06Z</time><name>PT773</name></trkpt>
<trkpt lat="53.399031" lon="-1.911655"><ele>320</ele><time>2024-02-10T10:15:09Z</time><name>PT774</name></trkpt>
<trkpt lat="53.399046" lon="-1.911647"><ele>321</ele><time>2024-02-10T10:15:12Z</time><name>PT775</name></trkpt>
<trkpt lat="53.399050" lon="-1.911646"><ele>321</ele><time>2024-02-10T10:15:26Z</time><name>PT776</name></trkpt>
<trkpt lat="53.399057" lon="-1.911586"><ele>319</ele><time>2024-02-10T10:15:30Z</time><name>PT777</name></trkpt>
<trkpt lat="53.399070" lon="-1.911551"><ele>318</ele><time>2024-02-10T10:15:33Z</time><name>PT778</name></trkpt>
<trkpt lat="53.399090" lon="-1.911530"><ele>318</ele><time>2024-02-10T10:15:37Z</time><name>PT779</name></trkpt>
<trkpt lat="53.399114" lon="-1.911509"><ele>318</ele><time>2024-02-10T10:15:41Z</time><name>PT780</name></trkpt>
<trkpt lat="53.399126" lon="-1.911488"><ele>318</ele><time>2024-02-10T10:15:44Z</time><name>PT781</name></trkpt>
<trkpt lat="53.399159" lon="-1.911455"><ele>319</ele><time>2024-02-10T10:15:48Z</time><name>PT782</name></trkpt>
<trkpt lat="53.399180" lon="-1.911437"><ele>319</ele><time>2024-02-10T10:15:51Z</time><name>PT783</name></trkpt>
<trkpt lat="53.399204" lon="-1.911410"><ele>321</ele><time>2024-02-10T10:15:55Z</time><name>PT784</name></trkpt>
<trkpt lat="53.399229" lon="-1.911392"><ele>322</ele><time>2024-02-10T10:15:59Z</time><name>PT785</name></trkpt>
<trkpt lat="53.399253" lon="-1.911369"><ele>324</ele><time>2024-02-10T10:16:02Z</time><name>PT786</name></trkpt>
<trkpt lat="53.399279" lon="-1.911334"><ele>325</ele><time>2024-02-10T10:16:05Z</time><name>PT787</name></trkpt>
<trkpt lat="53.399311" lon="-1.911306"><ele>325</ele><time>2024-02-10T10:16:09Z</time><name>PT788</name></trkpt>
<trkpt lat="53.399321" lon="-1.911279"><ele>326</ele><time>2024-02-10T10:16:12Z</time><name>PT789</name></trkpt>
<trkpt lat="53.399328" lon="-1.911261"><ele>326</ele><time>2024-02-10T10:16:15Z</time><name>PT790</name></trkpt>
<trkpt lat="53.399332" lon="-1.911237"><ele>327</ele><time>2024-02-10T10:16:18Z</time><name>PT791</name></trkpt>
<trkpt lat="53.399353" lon="-1.911215"><ele>328</ele><time>2024-02-10T10:16:22Z</time><name>PT792</name></trkpt>
<trkpt lat="53.399374" lon="-1.911199"><ele>329</ele><time>2024-02-10T10:16:26Z</time><name>PT793</name></trkpt>
<trkpt lat="53.399387" lon="-1.911178"><ele>328</ele><time>2024-02-10T10:16:30Z</time><name>PT794</name></trkpt>
<trkpt lat="53.399408" lon="-1.911153"><ele>328</ele><time>2024-02-10T10:16:34Z</time><name>PT795</name></trkpt>
<trkpt lat="53.399417" lon="-1.911126"><ele>325</ele><time>2024-02-10T10:16:37Z</time><name>PT796</name></trkpt>
<trkpt lat="53.399438" lon="-1.911094"><ele>326</ele><time>2024-02-10T10:16:41Z</time><name>PT797</name></trkpt>
<trkpt lat="53.399442" lon="-1.911063"><ele>327</ele><time>2024-02-10T10:16:45Z</time><name>PT798</name></trkpt>
<trkpt lat="53.399448" lon="-1.911040"><ele>326</ele><time>2024-02-10T10:16:49Z</time><name>PT799</name></trkpt>
<trkpt lat="53.399457" lon="-1.911024"><ele>327</ele><time>2024-02-10T10:16:53Z</time><name>PT800</name></trkpt>
<trkpt lat="53.399464" lon="-1.911018"><ele>328</ele><time>2024-02-10T10:16:56Z</time><name>PT801</name></trkpt>
<trkpt lat="53.399466" lon="-1.910988"><ele>328</ele><time>2024-02-10T10:16:59Z</time><name>PT802</name></trkpt>
<trkpt lat="53.399496" lon="-1.910995"><ele>330</ele><time>2024-02-10T10:17:03Z</time><name>PT803</name></trkpt>
<trkpt lat="53.399516" lon="-1.911000"><ele>329</ele><time>2024-02-10T10:17:07Z</time><name>PT804</name></trkpt>
<trkpt lat="53.399538" lon="-1.910999"><ele>328</ele><time>2024-02-10T10:17:11Z</time><name>PT805</name></trkpt>
<trkpt lat="53.399542" lon="-1.911015"><ele>328</ele><time>2024-02-10T10:17:15Z</time><name>PT806</name></trkpt>
<trkpt lat="53.399554" lon="-1.911015"><ele>328</ele><time>2024-02-10T10:17:18Z</time><name>PT807</name></trkpt>
<trkpt lat="53.399566" lon="-1.911018"><ele>329</ele><time>2024-02-10T10:17:21Z</time><name>PT808</name></trkpt>
<trkpt lat="53.399603" lon="-1.911034"><ele>332</ele><time>2024-02-10T10:17:25Z</time><name>PT809</name></trkpt>
<trkpt lat="53.399626" lon="-1.911036"><ele>335</ele><time>2024-02-10T10:17:28Z</time><name>PT810</name></trkpt>
<trkpt lat="53.399662" lon="-1.911015"><ele>336</ele><time>2024-02-10T10:17:32Z</time><name>PT811</name></trkpt>
<trkpt lat="53.399695" lon="-1.911003"><ele>335</ele><time>2024-02-10T10:17:36Z</time><name>PT812</name></trkpt>
<trkpt lat="53.399718" lon="-1.910992"><ele>334</ele><time>2024-02-10T10:17:40Z</time><name>PT813</name></trkpt>
<trkpt lat="53.399731" lon="-1.910974"><ele>334</ele><time>2024-02-10T10:17:44Z</time><name>PT814</name></trkpt>
<trkpt lat="53.399756" lon="-1.910955"><ele>334</ele><time>2024-02-10T10:17:48Z</time><name>PT815</name></trkpt>
<trkpt lat="53.399788" lon="-1.910950"><ele>335</ele><time>2024-02-10T10:17:52Z</time><name>PT816</name></trkpt>
<trkpt lat="53.399817" lon="-1.910945"><ele>335</ele><time>2024-02-10T10:17:55Z</time><name>PT817</name></trkpt>
<trkpt lat="53.399843" lon="-1.910914"><ele>336</ele><time>2024-02-10T10:17:58Z</time><name>PT818</name></trkpt>
<trkpt lat="53.399864" lon="-1.910882"><ele>336</ele><time>2024-02-10T10:18:01Z</time><name>PT819</name></trkpt>
<trkpt lat="53.399882" lon="-1.910860"><ele>338</ele><time>2024-02-10T10:18:04Z</time><name>PT820</name></trkpt>
<trkpt lat="53.399902" lon="-1.910825"><ele>337</ele><time>2024-02-10T10:18:08Z</time><name>PT821</name></trkpt>
<trkpt lat="53.399923" lon="-1.910800"><ele>337</ele><time>2024-02-10T10:18:11Z</time><name>PT822</name></trkpt>
<trkpt lat="53.399963" lon="-1.910777"><ele>338</ele><time>2024-02-10T10:18:15Z</time><name>PT823</name></trkpt>
<trkpt lat="53.399991" lon="-1.910747"><ele>338</ele><time>2024-02-10T10:18:19Z</time><name>PT824</name></trkpt>
<trkpt lat="53.400021" lon="-1.910725"><ele>338</ele><time>2024-02-10T10:18:23Z</time><name>PT825</name></trkpt>
<trkpt lat="53.400035" lon="-1.910693"><ele>339</ele><time>2024-02-10T10:18:27Z</time><name>PT826</name></trkpt>
<trkpt lat="53.400048" lon="-1.910693"><ele>339</ele><time>2024-02-10T10:18:30Z</time><name>PT827</name></trkpt>
<trkpt lat="53.400063" lon="-1.910690"><ele>339</ele><time>2024-02-10T10:18:34Z</time><name>PT828</name></trkpt>
<trkpt lat="53.400077" lon="-1.910681"><ele>339</ele><time>2024-02-10T10:18:38Z</time><name>PT829</name></trkpt>
<trkpt lat="53.400081" lon="-1.910680"><ele>339</ele><time>2024-02-10T10:18:41Z</time><name>PT830</name></trkpt>
<trkpt lat="53.400106" lon="-1.910645"><ele>340</ele><time>2024-02-10T10:18:45Z</time><name>PT831</name></trkpt>
<trkpt lat="53.400132" lon="-1.910641"><ele>341</ele><time>2024-02-10T10:18:48Z</time><name>PT832</name></trkpt>
<trkpt lat="53.400167" lon="-1.910634"><ele>341</ele><time>2024-02-10T10:18:52Z</time><name>PT833</name></trkpt>
<trkpt lat="53.400194" lon="-1.910619"><ele>342</ele><time>2024-02-10T10:18:56Z</time><name>PT834</name></trkpt>
<trkpt lat="53.400225" lon="-1.910602"><ele>343</ele><time>2024-02-10T10:19:00Z</time><name>PT835</name></trkpt>
<trkpt lat="53.400246" lon="-1.910593"><ele>343</ele><time>2024-02-10T10:19:04Z</time><name>PT836</name></trkpt>
<trkpt lat="53.400252" lon="-1.910572"><ele>343</ele><time>2024-02-10T10:19:07Z</time><name>PT837</name></trkpt>
<trkpt lat="53.400268" lon="-1.910533"><ele>344</ele><time>2024-02-10T10:19:10Z</time><name>PT838</name></trkpt>
<trkpt lat="53.400278" lon="-1.910507"><ele>344</ele><time>2024-02-10T10:19:13Z</time><name>PT839</name></trkpt>
<trkpt lat="53.400301" lon="-1.910486"><ele>346</ele><time>2024-02-10T10:19:17Z</time><name>PT840</name></trkpt>
<trkpt lat="53.400313" lon="-1.910471"><ele>347</ele><time>2024-02-10T10:19:20Z</time><name>PT841</name></trkpt>
<trkpt lat="53.400339" lon="-1.910455"><ele>349</ele><time>2024-02-10T10:19:24Z</time><name>PT842</name></trkpt>
<trkpt lat="53.400344" lon="-1.910437"><ele>349</ele><time>2024-02-10T10:19:27Z</time><name>PT843</name></trkpt>
<trkpt lat="53.400363" lon="-1.910424"><ele>352</ele><time>2024-02-10T10:19:31Z</time><name>PT844</name></trkpt>
<trkpt lat="53.400376" lon="-1.910404"><ele>352</ele><time>2024-02-10T10:19:34Z</time><name>PT845</name></trkpt>
<trkpt lat="53.400388" lon="-1.910390"><ele>352</ele><time>2024-02-10T10:19:38Z</time><name>PT846</name></trkpt>
<trkpt lat="53.400395" lon="-1.910370"><ele>351</ele><time>2024-02-10T10:19:41Z</time><name>PT847</name></trkpt>
<trkpt lat="53.400407" lon="-1.910352"><ele>352</ele><time>2024-02-10T10:19:44Z</time><name>PT848</name></trkpt>
<trkpt lat="53.400418" lon="-1.910325"><ele>352</ele><time>2024-02-10T10:19:48Z</time><name>PT849</name></trkpt>
<trkpt lat="53.400420" lon="-1.910293"><ele>353</ele><time>2024-02-10T10:19:52Z</time><name>PT850</name></trkpt>
<trkpt lat="53.400416" lon="-1.910249"><ele>354</ele><time>2024-02-10T10:19:56Z</time><name>PT851</name></trkpt>
<trkpt lat="53.400424" lon="-1.910234"><ele>354</ele><time>2024-02-10T10:19:59Z</time><name>PT852</name></trkpt>
<trkpt lat="53.400450" lon="-1.910229"><ele>354</ele><time>2024-02-10T10:20:03Z</time><name>PT853</name></trkpt>
<trkpt lat="53.400472" lon="-1.910224"><ele>353</ele><time>2024-02-10T10:20:06Z</time><name>PT854</name></trkpt>
<trkpt lat="53.400484" lon="-1.910205"><ele>353</ele><time>2024-02-10T10:20:09Z</time><name>PT855</name></trkpt>
<trkpt lat="53.400510" lon="-1.910197"><ele>356</ele><time>2024-02-10T10:20:13Z</time><name>PT856</name></trkpt>
<trkpt lat="53.400523" lon="-1.910184"><ele>357</ele><time>2024-02-10T10:20:16Z</time><name>PT857</name></trkpt>
<trkpt lat="53.400534" lon="-1.910169"><ele>359</ele><time>2024-02-10T10:20:20Z</time><name>PT858</name></trkpt>
<trkpt lat="53.400556" lon="-1.910144"><ele>361</ele><time>2024-02-10T10:20:23Z</time><name>PT859</name></trkpt>
<trkpt lat="53.400585" lon="-1.910140"><ele>362</ele><time>2024-02-10T10:20:27Z</time><name>PT860</name></trkpt>
<trkpt lat="53.400602" lon="-1.910127"><ele>362</ele><time>2024-02-10T10:20:30Z</time><name>PT861</name></trkpt>
<trkpt lat="53.400626" lon="-1.910116"><ele>363</ele><time>2024-02-10T10:20:34Z</time><name>PT862</name></trkpt>
<trkpt lat="53.400652" lon="-1.910103"><ele>364</ele><time>2024-02-10T10:20:38Z</time><name>PT863</name></trkpt>
<trkpt lat="53.400677" lon="-1.910087"><ele>365</ele><time>2024-02-10T10:20:42Z</time><name>PT864</name></trkpt>
<trkpt lat="53.400708" lon="-1.910084"><ele>365</ele><time>2024-02-10T10:20:46Z</time><name>PT865</name></trkpt>
<trkpt lat="53.400733" lon="-1.910072"><ele>365</ele><time>2024-02-10T10:20:49Z</time><name>PT866</name></trkpt>
<trkpt lat="53.400766" lon="-1.910052"><ele>365</ele><time>2024-02-10T10:20:53Z</time><name>PT867</name></trkpt>
<trkpt lat="53.400782" lon="-1.910031"><ele>365</ele><time>2024-02-10T10:20:56Z</time><name>PT868</name></trkpt>
<trkpt lat="53.400814" lon="-1.910044"><ele>365</ele><time>2024-02-10T10:21:00Z</time><name>PT869</name></trkpt>
<trkpt lat="53.400846" lon="-1.910037"><ele>365</ele><time>2024-02-10T10:21:04Z</time><name>PT870</name></trkpt>
<trkpt lat="53.400875" lon="-1.910015"><ele>365</ele><time>2024-02-10T10:21:07Z</time><name>PT871</name></trkpt>
<trkpt lat="53.400899" lon="-1.910002"><ele>365</ele><time>2024-02-10T10:21:10Z</time><name>PT872</name></trkpt>
<trkpt lat="53.400930" lon="-1.909985"><ele>365</ele><time>2024-02-10T10:21:14Z</time><name>PT873</name></trkpt>
<trkpt lat="53.400958" lon="-1.909978"><ele>365</ele><time>2024-02-10T10:21:17Z</time><name>PT874</name></trkpt>
<trkpt lat="53.401001" lon="-1.909941"><ele>366</ele><time>2024-02-10T10:21:21Z</time><name>PT875</name></trkpt>
<trkpt lat="53.401044" lon="-1.909923"><ele>366</ele><time>2024-02-10T10:21:25Z</time><name>PT876</name></trkpt>
<trkpt lat="53.401077" lon="-1.909883"><ele>365</ele><time>2024-02-10T10:21:29Z</time><name>PT877</name></trkpt>
<trkpt lat="53.401093" lon="-1.909862"><ele>365</ele><time>2024-02-10T10:21:32Z</time><name>PT878</name></trkpt>
<trkpt lat="53.401112" lon="-1.909833"><ele>365</ele><time>2024-02-10T10:21:36Z</time><name>PT879</name></trkpt>
<trkpt lat="53.401131" lon="-1.909813"><ele>367</ele><time>2024-02-10T10:21:40Z</time><name>PT880</name></trkpt>
<trkpt lat="53.401153" lon="-1.909787"><ele>367</ele><time>2024-02-10T10:21:43Z</time><name>PT881</name></trkpt>
<trkpt lat="53.401171" lon="-1.909749"><ele>367</ele><time>2024-02-10T10:21:47Z</time><name>PT882</name></trkpt>
<trkpt lat="53.401186" lon="-1.909714"><ele>367</ele><time>2024-02-10T10:21:51Z</time><name>PT883</name></trkpt>
<trkpt lat="53.401218" lon="-1.909704"><ele>368</ele><time>2024-02-10T10:21:54Z</time><name>PT884</name></trkpt>
<trkpt lat="53.401242" lon="-1.909689"><ele>367</ele><time>2024-02-10T10:21:57Z</time><name>PT885</name></trkpt>
<trkpt lat="53.401288" lon="-1.909662"><ele>369</ele><time>2024-02-10T10:22:01Z</time><name>PT886</name></trkpt>
<trkpt lat="53.401328" lon="-1.909646"><ele>367</ele><time>2024-02-10T10:22:05Z</time><name>PT887</name></trkpt>
<trkpt lat="53.401346" lon="-1.909629"><ele>367</ele><time>2024-02-10T10:22:08Z</time><name>PT888</name></trkpt>
<trkpt lat="53.401366" lon="-1.909597"><ele>369</ele><time>2024-02-10T10:22:12Z</time><name>PT889</name></trkpt>
<trkpt lat="53.401394" lon="-1.909589"><ele>369</ele><time>2024-02-10T10:22:15Z</time><name>PT890</name></trkpt>
<trkpt lat="53.401431" lon="-1.909572"><ele>370</ele><time>2024-02-10T10:22:19Z</time><name>PT891</name></trkpt>
<trkpt lat="53.401469" lon="-1.909564"><ele>371</ele><time>2024-02-10T10:22:23Z</time><name>PT892</name></trkpt>
<trkpt lat="53.401508" lon="-1.909549"><ele>371</ele><time>2024-02-10T10:22:27Z</time><name>PT893</name></trkpt>
<trkpt lat="53.401536" lon="-1.909552"><ele>371</ele><time>2024-02-10T10:22:30Z</time><name>PT894</name></trkpt>
<trkpt lat="53.401583" lon="-1.909553"><ele>370</ele><time>2024-02-10T10:22:34Z</time><name>PT895</name></trkpt>
<trkpt lat="53.401624" lon="-1.909570"><ele>370</ele><time>2024-02-10T10:22:38Z</time><name>PT896</name></trkpt>
<trkpt lat="53.401648" lon="-1.909578"><ele>370</ele><time>2024-02-10T10:22:41Z</time><name>PT897</name></trkpt>
<trkpt lat="53.401668" lon="-1.909576"><ele>367</ele><time>2024-02-10T10:22:45Z</time><name>PT898</name></trkpt>
<trkpt lat="53.401701" lon="-1.909594"><ele>367</ele><time>2024-02-10T10:22:48Z</time><name>PT899</name></trkpt>
<trkpt lat="53.401747" lon="-1.909585"><ele>366</ele><time>2024-02-10T10:22:52Z</time><name>PT900</name></trkpt>
<trkpt lat="53.401762" lon="-1.909573"><ele>365</ele><time>2024-02-10T10:22:55Z</time><name>PT901</name></trkpt>
<trkpt lat="53.401775" lon="-1.909542"><ele>366</ele><time>2024-02-10T10:22:59Z</time><name>PT902</name></trkpt>
<trkpt lat="53.401811" lon="-1.909543"><ele>365</ele><time>2024-02-10T10:23:03Z</time><name>PT903</name></trkpt>
<trkpt lat="53.401829" lon="-1.909540"><ele>366</ele><time>2024-02-10T10:23:06Z</time><name>PT904</name></trkpt>
<trkpt lat="53.401854" lon="-1.909535"><ele>367</ele><time>2024-02-10T10:23:09Z</time><name>PT905</name></trkpt>
<trkpt lat="53.401885" lon="-1.909532"><ele>367</ele><time>2024-02-10T10:23:13Z</time><name>PT906</name></trkpt>
<trkpt lat="53.401910" lon="-1.909531"><ele>367</ele><time>2024-02-10T10:23:16Z</time><name>PT907</name></trkpt>
<trkpt lat="53.401928" lon="-1.909525"><ele>367</ele><time>2024-02-10T10:23:19Z</time><name>PT908</name></trkpt>
<trkpt lat="53.401956" lon="-1.909524"><ele>367</ele><time>2024-02-10T10:23:23Z</time><name>PT909</name></trkpt>
<trkpt lat="53.401978" lon="-1.909517"><ele>370</ele><time>2024-02-10T10:23:26Z</time><name>PT910</name></trkpt>
<trkpt lat="53.402006" lon="-1.909498"><ele>371</ele><time>2024-02-10T10:23:30Z</time><name>PT911</name></trkpt>
<trkpt lat="53.402026" lon="-1.909484"><ele>371</ele><time>2024-02-10T10:23:33Z</time><name>PT912</name></trkpt>
<trkpt lat="53.402048" lon="-1.909469"><ele>373</ele><time>2024-02-10T10:23:36Z</time><name>PT913</name></trkpt>
<trkpt lat="53.402071" lon="-1.909471"><ele>374</ele><time>2024-02-10T10:23:39Z</time><name>PT914</name></trkpt>
<trkpt lat="53.402111" lon="-1.909461"><ele>374</ele><time>2024-02-10T10:23:43Z</time><name>PT915</name></trkpt>
<trkpt lat="53.402136" lon="-1.909435"><ele>376</ele><time>2024-02-10T10:23:47Z</time><name>PT916</name></trkpt>
<trkpt lat="53.402152" lon="-1.909419"><ele>376</ele><time>2024-02-10T10:23:50Z</time><name>PT917</name></trkpt>
<trkpt lat="53.402174" lon="-1.909419"><ele>376</ele><time>2024-02-10T10:23:54Z</time><name>PT918</name></trkpt>
<trkpt lat="53.402190" lon="-1.909403"><ele>376</ele><time>2024-02-10T10:23:57Z</time><name>PT919</name></trkpt>
<trkpt lat="53.402218" lon="-1.909389"><ele>378</ele><time>2024-02-10T10:24:00Z</time><name>PT920</name></trkpt>
<trkpt lat="53.402250" lon="-1.909380"><ele>378</ele><time>2024-02-10T10:24:03Z</time><name>PT921</name></trkpt>
<trkpt lat="53.402282" lon="-1.909373"><ele>379</ele><time>2024-02-10T10:24:07Z</time><name>PT922</name></trkpt>
<trkpt lat="53.402308" lon="-1.909363"><ele>380</ele><time>2024-02-10T10:24:10Z</time><name>PT923</name></trkpt>
<trkpt lat="53.402336" lon="-1.909347"><ele>380</ele><time>2024-02-10T10:24:14Z</time><name>PT924</name></trkpt>
<trkpt lat="53.402357" lon="-1.909326"><ele>380</ele><time>2024-02-10T10:24:17Z</time><name>PT925</name></trkpt>
<trkpt lat="53.402383" lon="-1.909310"><ele>379</ele><time>2024-02-10T10:24:20Z</time><name>PT926</name></trkpt>
<trkpt lat="53.402403" lon="-1.909276"><ele>379</ele><time>2024-02-10T10:24:24Z</time><name>PT927</name></trkpt>
<trkpt lat="53.402417" lon="-1.909260"><ele>380</ele><time>2024-02-10T10:24:27Z</time><name>PT928</name></trkpt>
<trkpt lat="53.402440" lon="-1.909231"><ele>380</ele><time>2024-02-10T10:24:30Z</time><name>PT929</name></trkpt>
<trkpt lat="53.402480" lon="-1.909208"><ele>380</ele><time>2024-02-10T10:24:34Z</time><name>PT930</name></trkpt>
<trkpt lat="53.402506" lon="-1.909189"><ele>381</ele><time>2024-02-10T10:24:37Z</time><name>PT931</name></trkpt>
<trkpt lat="53.402528" lon="-1.909173"><ele>382</ele><time>2024-02-10T10:24:41Z</time><name>PT932</name></trkpt>
<trkpt lat="53.402559" lon="-1.909160"><ele>381</ele><time>2024-02-10T10:24:45Z</time><name>PT933</name></trkpt>
<trkpt lat="53.402591" lon="-1.909131"><ele>382</ele><time>2024-02-10T10:24:49Z</time><name>PT934</name></trkpt>
<trkpt lat="53.402611" lon="-1.909120"><ele>383</ele><time>2024-02-10T10:24:52Z</time><name>PT935</name></trkpt>
<trkpt lat="53.402636" lon="-1.909096"><ele>384</ele><time>2024-02-10T10:24:56Z</time><name>PT936</name></trkpt>
<trkpt lat="53.402645" lon="-1.909076"><ele>384</ele><time>2024-02-10T10:24:59Z</time><name>PT937</name></trkpt>
<trkpt lat="53.402666" lon="-1.909047"><ele>386</ele><time>2024-02-10T10:25:03Z</time><name>PT938</name></trkpt>
<trkpt lat="53.402683" lon="-1.909026"><ele>386</ele><time>2024-02-10T10:25:06Z</time><name>PT939</name></trkpt>
<trkpt lat="53.402698" lon="-1.909005"><ele>387</ele><time>2024-02-10T10:25:10Z</time><name>PT940</name></trkpt>
<trkpt lat="53.402719" lon="-1.908987"><ele>388</ele><time>2024-02-10T10:25:14Z</time><name>PT941</name></trkpt>
<trkpt lat="53.402731" lon="-1.908966"><ele>387</ele><time>2024-02-10T10:25:17Z</time><name>PT942</name></trkpt>
<trkpt lat="53.402759" lon="-1.908947"><ele>386</ele><time>2024-02-10T10:25:21Z</time><name>PT943</name></trkpt>
<trkpt lat="53.402775" lon="-1.908953"><ele>387</ele><time>2024-02-10T10:25:25Z</time><name>PT944</name></trkpt>
<trkpt lat="53.402793" lon="-1.908951"><ele>387</ele><time>2024-02-10T10:25:29Z</time><name>PT945</name></trkpt>
<trkpt lat="53.402804" lon="-1.908949"><ele>388</ele><time>2024-02-10T10:25:32Z</time><name>PT946</name></trkpt>
<trkpt lat="53.402833" lon="-1.908927"><ele>388</ele><time>2024-02-10T10:25:36Z</time><name>PT947</name></trkpt>
<trkpt lat="53.402862" lon="-1.908907"><ele>389</ele><time>2024-02-10T10:25:39Z</time><name>PT948</name></trkpt>
<trkpt lat="53.402888" lon="-1.908882"><ele>389</ele><time>2024-02-10T10:25:43Z</time><name>PT949</name></trkpt>
<trkpt lat="53.402914" lon="-1.908863"><ele>389</ele><time>2024-02-10T10:25:47Z</time><name>PT950</name></trkpt>
<trkpt lat="53.402934" lon="-1.908847"><ele>390</ele><time>2024-02-10T10:25:51Z</time><name>PT951</name></trkpt>
<trkpt lat="53.402941" lon="-1.908845"><ele>389</ele><time>2024-02-10T10:25:55Z</time><name>PT952</name></trkpt>
<trkpt lat="53.402977" lon="-1.908839"><ele>390</ele><time>2024-02-10T10:25:59Z</time><name>PT953</name></trkpt>
<trkpt lat="53.403007" lon="-1.908836"><ele>389</ele><time>2024-02-10T10:26:03Z</time><name>PT954</name></trkpt>
<trkpt lat="53.403050" lon="-1.908826"><ele>388</ele><time>2024-02-10T10:26:07Z</time><name>PT955</name></trkpt>
<trkpt lat="53.403076" lon="-1.908813"><ele>388</ele><time>2024-02-10T10:26:10Z</time><name>PT956</name></trkpt>
<trkpt lat="53.403114" lon="-1.908808"><ele>388</ele><time>2024-02-10T10:26:14Z</time><name>PT957</name></trkpt>
<trkpt lat="53.403151" lon="-1.908803"><ele>390</ele><time>2024-02-10T10:26:17Z</time><name>PT958</name></trkpt>
<trkpt lat="53.403196" lon="-1.908800"><ele>389</ele><time>2024-02-10T10:26:21Z</time><name>PT959</name></trkpt>
<trkpt lat="53.403242" lon="-1.908775"><ele>389</ele><time>2024-02-10T10:26:25Z</time><name>PT960</name></trkpt>
<trkpt lat="53.403265" lon="-1.908758"><ele>389</ele><time>2024-02-10T10:26:28Z</time><name>PT961</name></trkpt>
<trkpt lat="53.403290" lon="-1.908751"><ele>390</ele><time>2024-02-10T10:26:32Z</time><name>PT962</name></trkpt>
<trkpt lat="53.403323" lon="-1.908730"><ele>390</ele><time>2024-02-10T10:26:35Z</time><name>PT963</name></trkpt>
<trkpt lat="53.403365" lon="-1.908726"><ele>389</ele><time>2024-02-10T10:26:39Z</time><name>PT964</name></trkpt>
<trkpt lat="53.403387" lon="-1.908727"><ele>389</ele><time>2024-02-10T10:26:42Z</time><name>PT965</name></trkpt>
<trkpt lat="53.403410" lon="-1.908737"><ele>390</ele><time>2024-02-10T10:26:46Z</time><name>PT966</name></trkpt>
<trkpt lat="53.403437" lon="-1.908727"><ele>390</ele><time>2024-02-10T10:26:49Z</time><name>PT967</name></trkpt>
<trkpt lat="53.403459" lon="-1.908726"><ele>391</ele><time>2024-02-10T10:26:52Z</time><name>PT968</name></trkpt>
<trkpt lat="53.403483" lon="-1.908718"><ele>392</ele><time>2024-02-10T10:26:56Z</time><name>PT969</name></trkpt>
<trkpt lat="53.403505" lon="-1.908716"><ele>391</ele><time>2024-02-10T10:27:00Z</time><name>PT970</name></trkpt>
<trkpt lat="53.403525" lon="-1.908715"><ele>393</ele><time>2024-02-10T10:27:04Z</time><name>PT971</name></trkpt>
<trkpt lat="53.403556" lon="-1.908712"><ele>393</ele><time>2024-02-10T10:27:08Z</time><name>PT972</name></trkpt>
<trkpt lat="53.403584" lon="-1.908721"><ele>393</ele><time>2024-02-10T10:27:12Z</time><name>PT973</name></trkpt>
<trkpt lat="53.403605" lon="-1.908723"><ele>392</ele><time>2024-02-10T10:27:16Z</time><name>PT974</name></trkpt>
<trkpt lat="53.403624" lon="-1.908717"><ele>392</ele><time>2024-02-10T10:27:20Z</time><name>PT975</name></trkpt>
<trkpt lat="53.403654" lon="-1.908692"><ele>393</ele><time>2024-02-10T10:27:24Z</time><name>PT976</name></trkpt>
<trkpt lat="53.403695" lon="-1.908677"><ele>394</ele><time>2024-02-10T10:27:28Z</time><name>PT977</name></trkpt>
<trkpt lat="53.403726" lon="-1.908669"><ele>395</ele><time>2024-02-10T10:27:32Z</time><name>PT978</name></trkpt>
<trkpt lat="53.403749" lon="-1.908654"><ele>395</ele><time>2024-02-10T10:27:35Z</time><name>PT979</name></trkpt>
<trkpt lat="53.403774" lon="-1.908635"><ele>396</ele><time>2024-02-10T10:27:38Z</time><name>PT980</name></trkpt>
<trkpt lat="53.403816" lon="-1.908609"><ele>396</ele><time>2024-02-10T10:27:42Z</time><name>PT981</name></trkpt>
<trkpt lat="53.403843" lon="-1.908584"><ele>398</ele><time>2024-02-10T10:27:46Z</time><name>PT982</name></trkpt>
<trkpt lat="53.403863" lon="-1.908569"><ele>398</ele><time>2024-02-10T10:27:49Z</time><name>PT983</name></trkpt>
<trkpt lat="53.403880" lon="-1.908559"><ele>399</ele><time>2024-02-10T10:27:52Z</time><name>PT984</name></trkpt>
<trkpt lat="53.403907" lon="-1.908547"><ele>399</ele><time>2024-02-10T10:27:56Z</time><name>PT985</name></trkpt>
<trkpt lat="53.403933" lon="-1.908532"><ele>400</ele><time>2024-02-10T10:28:00Z</time><name>PT986</name></trkpt>
<trkpt lat="53.403951" lon="-1.908514"><ele>399</ele><time>2024-02-10T10:28:03Z</time><name>PT987</name></trkpt>
<trkpt lat="53.403985" lon="-1.908495"><ele>399</ele><time>2024-02-10T10:28:07Z</time><name>PT988</name></trkpt>
<trkpt lat="53.404002" lon="-1.908457"><ele>400</ele><time>2024-02-10T10:28:10Z</time><name>PT989</name></trkpt>
<trkpt lat="53.404017" lon="-1.908424"><ele>401</ele><time>2024-02-10T10:28:13Z</time><name>PT990</name></trkpt>
<trkpt lat="53.404040" lon="-1.908392"><ele>402</ele><time>2024-02-10T10:28:17Z</time><name>PT991</name></trkpt>
<trkpt lat="53.404052" lon="-1.908371"><ele>401</ele><time>2024-02-10T10:28:20Z</time><name>PT992</name></trkpt>
<trkpt lat="53.404069" lon="-1.908325"><ele>402</ele><time>2024-02-10T10:28:24Z</time><name>PT993</name></trkpt>
<trkpt lat="53.404083" lon="-1.908300"><ele>403</ele><time>2024-02-10T10:28:27Z</time><name>PT994</name></trkpt>
<trkpt lat="53.404100" lon="-1.908282"><ele>401</ele><time>2024-02-10T10:28:31Z</time><name>PT995</name></trkpt>
<trkpt lat="53.404133" lon="-1.908258"><ele>403</ele><time>2024-02-10T10:28:35Z</time><name>PT996</name></trkpt>
<trkpt lat="53.404164" lon="-1.908236"><ele>403</ele><time>2024-02-10T10:28:39Z</time><name>PT997</name></trkpt>
<trkpt lat="53.404178" lon="-1.908209"><ele>404</ele><time>2024-02-10T10:28:42Z</time><name>PT998</name></trkpt>
<trkpt lat="53.404200" lon="-1.908178"><ele>404</ele><time>2024-02-10T10:28:46Z</time><name>PT999</name></trkpt>
<trkpt lat="53.404213" lon="-1.908141"><ele>404</ele><time>2024-02-10T10:28:50Z</time><name>PT1000</name></trkpt>
<trkpt lat="53.404229" lon="-1.908114"><ele>405</ele><time>2024-02-10T10:28:53Z</time><name>PT1001</name></trkpt>
<trkpt lat="53.404250" lon="-1.908065"><ele>404</ele><time>2024-02-10T10:28:57Z</time><name>PT1002</name></trkpt>
<trkpt lat="53.404261" lon="-1.908039"><ele>405</ele><time>2024-02-10T10:29:00Z</time><name>PT1003</name></trkpt>
<trkpt lat="53.404285" lon="-1.908009"><ele>406</ele><time>2024-02-10T10:29:04Z</time><name>PT1004</name></trkpt>
<trkpt lat="53.404303" lon="-1.907987"><ele>406</ele><time>2024-02-10T10:29:08Z</time><name>PT1005</name></trkpt>
<trkpt lat="53.404322" lon="-1.907977"><ele>408</ele><time>2024-02-10T10:29:11Z</time><name>PT1006</name></trkpt>
<trkpt lat="53.404342" lon="-1.907954"><ele>410</ele><time>2024-02-10T10:29:15Z</time><name>PT1007</name></trkpt>
<trkpt lat="53.404354" lon="-1.907933"><ele>409</ele><time>2024-02-10T10:29:18Z</time><name>PT1008</name></trkpt>
<trkpt lat="53.404381" lon="-1.907920"><ele>410</ele><time>2024-02-10T10:29:22Z</time><name>PT1009</name></trkpt>
<trkpt lat="53.404402" lon="-1.907906"><ele>412</ele><time>2024-02-10T10:29:25Z</time><name>PT1010</name></trkpt>
<trkpt lat="53.404428" lon="-1.907888"><ele>411</ele><time>2024-02-10T10:29:29Z</time><name>PT1011</name></trkpt>
<trkpt lat="53.404433" lon="-1.907861"><ele>412</ele><time>2024-02-10T10:29:32Z</time><name>PT1012</name></trkpt>
<trkpt lat="53.404440" lon="-1.907829"><ele>414</ele><time>2024-02-10T10:29:35Z</time><name>PT1013</name></trkpt>
<trkpt lat="53.404456" lon="-1.907801"><ele>414</ele><time>2024-02-10T10:29:38Z</time><name>PT1014</name></trkpt>
<trkpt lat="53.404473" lon="-1.907759"><ele>412</ele><time>2024-02-10T10:29:41Z</time><name>PT1015</name></trkpt>
<trkpt lat="53.404484" lon="-1.907721"><ele>413</ele><time>2024-02-10T10:29:44Z</time><name>PT1016</name></trkpt>
<trkpt lat="53.404495" lon="-1.907693"><ele>413</ele><time>2024-02-10T10:29:48Z</time><name>PT1017</name></trkpt>
<trkpt lat="53.404509" lon="-1.907669"><ele>414</ele><time>2024-02-10T10:29:51Z</time><name>PT1018</name></trkpt>
<trkpt lat="53.404525" lon="-1.907648"><ele>416</ele><time>2024-02-10T10:29:54Z</time><name>PT1019</name></trkpt>
<trkpt lat="53.404526" lon="-1.907614"><ele>419</ele><time>2024-02-10T10:29:57Z</time><name>PT1020</name></trkpt>
<trkpt lat="53.404549" lon="-1.907586"><ele>422</ele><time>2024-02-10T10:30:01Z</time><name>PT1021</name></trkpt>
<trkpt lat="53.404573" lon="-1.907571"><ele>422</ele><time>2024-02-10T10:30:04Z</time><name>PT1022</name></trkpt>
<trkpt lat="53.404585" lon="-1.907544"><ele>422</ele><time>2024-02-10T10:30:07Z</time><name>PT1023</name></trkpt>
<trkpt lat="53.404607" lon="-1.907498"><ele>424</ele><time>2024-02-10T10:30:11Z</time><name>PT1024</name></trkpt>
<trkpt lat="53.404625" lon="-1.907457"><ele>423</ele><time>2024-02-10T10:30:15Z</time><name>PT1025</name></trkpt>
<trkpt lat="53.404631" lon="-1.907444"><ele>422</ele><time>2024-02-10T10:30:18Z</time><name>PT1026</name></trkpt>
<trkpt lat="53.404639" lon="-1.907426"><ele>423</ele><time>2024-02-10T10:30:21Z</time><name>PT1027</name></trkpt>
<trkpt lat="53.404650" lon="-1.907393"><ele>424</ele><time>2024-02-10T10:30:25Z</time><name>PT1028</name></trkpt>
<trkpt lat="53.404665" lon="-1.907371"><ele>424</ele><time>2024-02-10T10:30:28Z</time><name>PT1029</name></trkpt>
<trkpt lat="53.404678" lon="-1.907359"><ele>424</ele><time>2024-02-10T10:30:32Z</time><name>PT1030</name></trkpt>
<trkpt lat="53.404690" lon="-1.907315"><ele>426</ele><time>2024-02-10T10:30:36Z</time><name>PT1031</name></trkpt>
<trkpt lat="53.404698" lon="-1.907304"><ele>426</ele><time>2024-02-10T10:30:40Z</time><name>PT1032</name></trkpt>
<trkpt lat="53.404709" lon="-1.907280"><ele>425</ele><time>2024-02-10T10:30:43Z</time><name>PT1033</name></trkpt>
<trkpt lat="53.404728" lon="-1.907249"><ele>427</ele><time>2024-02-10T10:30:47Z</time><name>PT1034</name></trkpt>
<trkpt lat="53.404734" lon="-1.907247"><ele>427</ele><time>2024-02-10T10:30:51Z</time><name>PT1035</name></trkpt>
<trkpt lat="53.404742" lon="-1.907211"><ele>426</ele><time>2024-02-10T10:30:54Z</time><name>PT1036</name></trkpt>
<trkpt lat="53.404750" lon="-1.907199"><ele>428</ele><time>2024-02-10T10:30:57Z</time><name>PT1037</name></trkpt>
<trkpt lat="53.404758" lon="-1.907199"><ele>429</ele><time>2024-02-10T10:31:00Z</time><name>PT1038</name></trkpt>
<trkpt lat="53.404757" lon="-1.907185"><ele>429</ele><time>2024-02-10T10:31:04Z</time><name>PT1039</name></trkpt>
<trkpt lat="53.404767" lon="-1.907165"><ele>429</ele><time>2024-02-10T10:31:07Z</time><name>PT1040</name></trkpt>
<trkpt lat="53.404783" lon="-1.907169"><ele>429</ele><time>2024-02-10T10:31:10Z</time><name>PT1041</name></trkpt>
<trkpt lat="53.404785" lon="-1.907137"><ele>431</ele><time>2024-02-10T10:31:14Z</time><name>PT1042</name></trkpt>
<trkpt lat="53.404797" lon="-1.907122"><ele>432</ele><time>2024-02-10T10:31:17Z</time><name>PT1043</name></trkpt>
<trkpt lat="53.404806" lon="-1.907107"><ele>432</ele><time>2024-02-10T10:31:21Z</time><name>PT1044</name></trkpt>
<trkpt lat="53.404814" lon="-1.907091"><ele>433</ele><time>2024-02-10T10:31:24Z</time><name>PT1045</name></trkpt>
<trkpt lat="53.404838" lon="-1.907078"><ele>433</ele><time>2024-02-10T10:31:28Z</time><name>PT1046</name></trkpt>
<trkpt lat="53.404849" lon="-1.907071"><ele>440</ele><time>2024-02-10T10:31:32Z</time><name>PT1047</name></trkpt>
<trkpt lat="53.404868" lon="-1.907070"><ele>440</ele><time>2024-02-10T10:31:36Z</time><name>PT1048</name></trkpt>
<trkpt lat="53.404874" lon="-1.907066"><ele>441</ele><time>2024-02-10T10:31:39Z</time><name>PT1049</name></trkpt>
<trkpt lat="53.404888" lon="-1.907057"><ele>441</ele><time>2024-02-10T10:31:42Z</time><name>PT1050</name></trkpt>
<trkpt lat="53.404913" lon="-1.907036"><ele>440</ele><time>2024-02-10T10:31:46Z</time><name>PT1051</name></trkpt>
<trkpt lat="53.404930" lon="-1.907019"><ele>441</ele><time>2024-02-10T10:31:49Z</time><name>PT1052</name></trkpt>
<trkpt lat="53.404963" lon="-1.907000"><ele>440</ele><time>2024-02-10T10:31:53Z</time><name>PT1053</name></trkpt>
<trkpt lat="53.404989" lon="-1.906985"><ele>440</ele><time>2024-02-10T10:31:56Z</time><name>PT1054</name></trkpt>
<trkpt lat="53.405020" lon="-1.906946"><ele>441</ele><time>2024-02-10T10:32:00Z</time><name>PT1055</name></trkpt>
<trkpt lat="53.405039" lon="-1.906926"><ele>440</ele><time>2024-02-10T10:32:04Z</time><name>PT1056</name></trkpt>
<trkpt lat="53.405063" lon="-1.906917"><ele>439</ele><time>2024-02-10T10:32:08Z</time><name>PT1057</name></trkpt>
<trkpt lat="53.405082" lon="-1.906888"><ele>439</ele><time>2024-02-10T10:32:11Z</time><name>PT1058</name></trkpt>
<trkpt lat="53.405101" lon="-1.906864"><ele>440</ele><time>2024-02-10T10:32:14Z</time><name>PT1059</name></trkpt>
<trkpt lat="53.405120" lon="-1.906836"><ele>441</ele><time>2024-02-10T10:32:18Z</time><name>PT1060</name></trkpt>
<trkpt lat="53.405138" lon="-1.906816"><ele>441</ele><time>2024-02-10T10:32:22Z</time><name>PT1061</name></trkpt>
<trkpt lat="53.405153" lon="-1.906797"><ele>442</ele><time>2024-02-10T10:32:25Z</time><name>PT1062</name></trkpt>
<trkpt lat="53.405176" lon="-1.906774"><ele>443</ele><time>2024-02-10T10:32:29Z</time><name>PT1063</name></trkpt>
<trkpt lat="53.405190" lon="-1.906755"><ele>442</ele><time>2024-02-10T10:32:32Z</time><name>PT1064</name></trkpt>
<trkpt lat="53.405217" lon="-1.906718"><ele>444</ele><time>2024-02-10T10:32:36Z</time><name>PT1065</name></trkpt>
<trkpt lat="53.405245" lon="-1.906687"><ele>445</ele><time>2024-02-10T10:32:40Z</time><name>PT1066</name></trkpt>
<trkpt lat="53.405270" lon="-1.906652"><ele>444</ele><time>2024-02-10T10:32:44Z</time><name>PT1067</name></trkpt>
<trkpt lat="53.405289" lon="-1.906637"><ele>445</ele><time>2024-02-10T10:32:47Z</time><name>PT1068</name></trkpt>
<trkpt lat="53.405303" lon="-1.906608"><ele>444</ele><time>2024-02-10T10:32:50Z</time><name>PT1069</name></trkpt>
<trkpt lat="53.405319" lon="-1.906601"><ele>447</ele><time>2024-02-10T10:32:53Z</time><name>PT1070</name></trkpt>
<trkpt lat="53.405338" lon="-1.906588"><ele>448</ele><time>2024-02-10T10:32:57Z</time><name>PT1071</name></trkpt>
<trkpt lat="53.405349" lon="-1.906569"><ele>450</ele><time>2024-02-10T10:33:00Z</time><name>PT1072</name></trkpt>
<trkpt lat="53.405375" lon="-1.906552"><ele>448</ele><time>2024-02-10T10:33:04Z</time><name>PT1073</name></trkpt>
<trkpt lat="53.405393" lon="-1.906537"><ele>449</ele><time>2024-02-10T10:33:08Z</time><name>PT1074</name></trkpt>
<trkpt lat="53.405422" lon="-1.906518"><ele>450</ele><time>2024-02-10T10:33:12Z</time><name>PT1075</name></trkpt>
<trkpt lat="53.405439" lon="-1.906498"><ele>449</ele><time>2024-02-10T10:33:15Z</time><name>PT1076</name></trkpt>
<trkpt lat="53.405458" lon="-1.906472"><ele>450</ele><time>2024-02-10T10:33:18Z</time><name>PT1077</name></trkpt>
<trkpt lat="53.405479" lon="-1.906451"><ele>450</ele><time>2024-02-10T10:33:22Z</time><name>PT1078</name></trkpt>
<trkpt lat="53.405496" lon="-1.906433"><ele>447</ele><time>2024-02-10T10:33:26Z</time><name>PT1079</name></trkpt>
<trkpt lat="53.405516" lon="-1.906428"><ele>448</ele><time>2024-02-10T10:33:29Z</time><name>PT1080</name></trkpt>
<trkpt lat="53.405528" lon="-1.906409"><ele>447</ele><time>2024-02-10T10:33:32Z</time><name>PT1081</name></trkpt>
<trkpt lat="53.405549" lon="-1.906382"><ele>446</ele><time>2024-02-10T10:33:36Z</time><name>PT1082</name></trkpt>
<trkpt lat="53.405571" lon="-1.906362"><ele>447</ele><time>2024-02-10T10:33:40Z</time><name>PT1083</name></trkpt>
<trkpt lat="53.405579" lon="-1.906336"><ele>447</ele><time>2024-02-10T10:33:43Z</time><name>PT1084</name></trkpt>
<trkpt lat="53.405599" lon="-1.906305"><ele>449</ele><time>2024-02-10T10:33:47Z</time><name>PT1085</name></trkpt>
<trkpt lat="53.405618" lon="-1.906285"><ele>450</ele><time>2024-02-10T10:33:50Z</time><name>PT1086</name></trkpt>
<trkpt lat="53.405646" lon="-1.906264"><ele>452</ele><time>2024-02-10T10:33:54Z</time><name>PT1087</name></trkpt>
<trkpt lat="53.405658" lon="-1.906252"><ele>453</ele><time>2024-02-10T10:33:57Z</time><name>PT1088</name></trkpt>
<trkpt lat="53.405683" lon="-1.906238"><ele>455</ele><time>2024-02-10T10:34:01Z</time><name>PT1089</name></trkpt>
<trkpt lat="53.405699" lon="-1.906206"><ele>456</ele><time>2024-02-10T10:34:05Z</time><name>PT1090</name></trkpt>
<trkpt lat="53.405722" lon="-1.906186"><ele>457</ele><time>2024-02-10T10:34:08Z</time><name>PT1091</name></trkpt>
<trkpt lat="53.405755" lon="-1.906160"><ele>457</ele><time>2024-02-10T10:34:12Z</time><name>PT1092</name></trkpt>
<trkpt lat="53.405770" lon="-1.906129"><ele>457</ele><time>2024-02-10T10:34:16Z</time><name>PT1093</name></trkpt>
<trkpt lat="53.405785" lon="-1.906094"><ele>458</ele><time>2024-02-10T10:34:20Z</time><name>PT1094</name></trkpt>
<trkpt lat="53.405793" lon="-1.906072"><ele>459</ele><time>2024-02-10T10:34:23Z</time><name>PT1095</name></trkpt>
<trkpt lat="53.405811" lon="-1.906046"><ele>461</ele><time>2024-02-10T10:34:27Z</time><name>PT1096</name></trkpt>
<trkpt lat="53.405823" lon="-1.906023"><ele>461</ele><time>2024-02-10T10:34:31Z</time><name>PT1097</name></trkpt>
<trkpt lat="53.405831" lon="-1.906018"><ele>462</ele><time>2024-02-10T10:34:34Z</time><name>PT1098</name></trkpt>
<trkpt lat="53.405850" lon="-1.905996"><ele>461</ele><time>2024-02-10T10:34:38Z</time><name>PT1099</name></trkpt>
<trkpt lat="53.405855" lon="-1.905981"><ele>461</ele><time>2024-02-10T10:34:41Z</time><name>PT1100</name></trkpt>
<trkpt lat="53.405868" lon="-1.905975"><ele>462</ele><time>2024-02-10T10:34:44Z</time><name>PT1101</name></trkpt>
<trkpt lat="53.405885" lon="-1.905954"><ele>463</ele><time>2024-02-10T10:34:48Z</time><name>PT1102</name></trkpt>
<trkpt lat="53.405895" lon="-1.905940"><ele>464</ele><time>2024-02-10T10:34:51Z</time><name>PT1103</name></trkpt>
<trkpt lat="53.405908" lon="-1.905940"><ele>464</ele><time>2024-02-10T10:34:54Z</time><name>PT1104</name></trkpt>
<trkpt lat="53.405912" lon="-1.905931"><ele>463</ele><time>2024-02-10T10:34:57Z</time><name>PT1105</name></trkpt>
<trkpt lat="53.405926" lon="-1.905913"><ele>464</ele><time>2024-02-10T10:35:00Z</time><name>PT1106</name></trkpt>
<trkpt lat="53.405942" lon="-1.905897"><ele>465</ele><time>2024-02-10T10:35:04Z</time><name>PT1107</name></trkpt>
<trkpt lat="53.405957" lon="-1.905875"><ele>466</ele><time>2024-02-10T10:35:08Z</time><name>PT1108</name></trkpt>
<trkpt lat="53.405965" lon="-1.905846"><ele>467</ele><time>2024-02-10T10:35:11Z</time><name>PT1109</name></trkpt>
<trkpt lat="53.405974" lon="-1.905825"><ele>467</ele><time>2024-02-10T10:35:15Z</time><name>PT1110</name></trkpt>
<trkpt lat="53.405980" lon="-1.905807"><ele>468</ele><time>2024-02-10T10:35:18Z</time><name>PT1111</name></trkpt>
<trkpt lat="53.405993" lon="-1.905790"><ele>468</ele><time>2024-02-10T10:35:22Z</time><name>PT1112</name></trkpt>
<trkpt lat="53.405999" lon="-1.905775"><ele>468</ele><time>2024-02-10T10:35:25Z</time><name>PT1113</name></trkpt>
<trkpt lat="53.406016" lon="-1.905758"><ele>469</ele><time>2024-02-10T10:35:29Z</time><name>PT1114</name></trkpt>
<trkpt lat="53.406021" lon="-1.905748"><ele>470</ele><time>2024-02-10T10:35:33Z</time><name>PT1115</name></trkpt>
<trkpt lat="53.406024" lon="-1.905754"><ele>471</ele><time>2024-02-10T10:35:36Z</time><name>PT1116</name></trkpt>
<trkpt lat="53.406025" lon="-1.905750"><ele>471</ele><time>2024-02-10T10:35:40Z</time><name>PT1117</name></trkpt>
<trkpt lat="53.406018" lon="-1.905746"><ele>472</ele><time>2024-02-10T10:36:06Z</time><name>PT1118</name></trkpt>
<trkpt lat="53.406018" lon="-1.905750"><ele>472</ele><time>2024-02-10T10:36:09Z</time><name>PT1119</name></trkpt>
<trkpt lat="53.406014" lon="-1.905754"><ele>472</ele><time>2024-02-10T10:36:16Z</time><name>PT1120</name></trkpt>
<trkpt lat="53.406019" lon="-1.905750"><ele>472</ele><time>2024-02-10T10:36:19Z</time><name>PT1121</name></trkpt>
<trkpt lat="53.406018" lon="-1.905741"><ele>472</ele><time>2024-02-10T10:36:23Z</time><name>PT1122</name></trkpt>
<trkpt lat="53.406014" lon="-1.905732"><ele>472</ele><time>2024-02-10T10:37:08Z</time><name>PT1123</name></trkpt>
<trkpt lat="53.406019" lon="-1.905716"><ele>471</ele><time>2024-02-10T10:37:12Z</time><name>PT1124</name></trkpt>
<trkpt lat="53.406021" lon="-1.905715"><ele>471</ele><time>2024-02-10T10:37:15Z</time><name>PT1125</name></trkpt>
<trkpt lat="53.406034" lon="-1.905705"><ele>470</ele><time>2024-02-10T10:37:18Z</time><name>PT1126</name></trkpt>
<trkpt lat="53.406043" lon="-1.905697"><ele>471</ele><time>2024-02-10T10:37:22Z</time><name>PT1127</name></trkpt>
<trkpt lat="53.406041" lon="-1.905701"><ele>470</ele><time>2024-02-10T10:37:25Z</time><name>PT1128</name></trkpt>
<trkpt lat="53.406042" lon="-1.905681"><ele>470</ele><time>2024-02-10T10:37:28Z</time><name>PT1129</name></trkpt>
<trkpt lat="53.406051" lon="-1.905664"><ele>470</ele><time>2024-02-10T10:37:32Z</time><name>PT1130</name></trkpt>
<trkpt lat="53.406054" lon="-1.905655"><ele>470</ele><time>2024-02-10T10:37:35Z</time><name>PT1131</name></trkpt>
<trkpt lat="53.406055" lon="-1.905644"><ele>470</ele><time>2024-02-10T10:37:39Z</time><name>PT1132</name></trkpt>
<trkpt lat="53.406046" lon="-1.905635"><ele>470</ele><time>2024-02-10T10:37:42Z</time><name>PT1133</name></trkpt>
<trkpt lat="53.406058" lon="-1.905637"><ele>470</ele><time>2024-02-10T10:37:46Z</time><name>PT1134</name></trkpt>
<trkpt lat="53.406064" lon="-1.905635"><ele>470</ele><time>2024-02-10T10:38:00Z</time><name>PT1135</name></trkpt>
<trkpt lat="53.406063" lon="-1.905642"><ele>472</ele><time>2024-02-10T10:38:03Z</time><name>PT1136</name></trkpt>
<trkpt lat="53.406064" lon="-1.905646"><ele>473</ele><time>2024-02-10T10:38:07Z</time><name>PT1137</name></trkpt>
<trkpt lat="53.406068" lon="-1.905656"><ele>473</ele><time>2024-02-10T10:38:10Z</time><name>PT1138</name></trkpt>
<trkpt lat="53.406069" lon="-1.905657"><ele>473</ele><time>2024-02-10T10:38:14Z</time><name>PT1139</name></trkpt>
<trkpt lat="53.406067" lon="-1.905652"><ele>473</ele><time>2024-02-10T10:38:18Z</time><name>PT1140</name></trkpt>
<trkpt lat="53.406070" lon="-1.905649"><ele>473</ele><time>2024-02-10T10:38:21Z</time><name>PT1141</name></trkpt>
<trkpt lat="53.406072" lon="-1.905646"><ele>473</ele><time>2024-02-10T10:38:57Z</time><name>PT1142</name></trkpt>
<trkpt lat="53.406071" lon="-1.905644"><ele>473</ele><time>2024-02-10T10:39:01Z</time><name>PT1143</name></trkpt>
<trkpt lat="53.406071" lon="-1.905638"><ele>473</ele><time>2024-02-10T10:39:11Z</time><name>PT1144</name></trkpt>
<trkpt lat="53.406072" lon="-1.905641"><ele>474</ele><time>2024-02-10T10:39:15Z</time><name>PT1145</name></trkpt>
<trkpt lat="53.406075" lon="-1.905642"><ele>474</ele><time>2024-02-10T10:39:21Z</time><name>PT1146</name></trkpt>
<trkpt lat="53.406088" lon="-1.905629"><ele>473</ele><time>2024-02-10T10:39:24Z</time><name>PT1147</name></trkpt>
<trkpt lat="53.406095" lon="-1.905625"><ele>473</ele><time>2024-02-10T10:39:28Z</time><name>PT1148</name></trkpt>
<trkpt lat="53.406102" lon="-1.905630"><ele>473</ele><time>2024-02-10T10:39:38Z</time><name>PT1149</name></trkpt>
<trkpt lat="53.406107" lon="-1.905600"><ele>471</ele><time>2024-02-10T10:39:55Z</time><name>PT1150</name></trkpt>
<trkpt lat="53.406101" lon="-1.905633"><ele>472</ele><time>2024-02-10T10:40:31Z</time><name>PT1151</name></trkpt>
<trkpt lat="53.406101" lon="-1.905635"><ele>471</ele><time>2024-02-10T10:40:35Z</time><name>PT1152</name></trkpt>
<trkpt lat="53.406097" lon="-1.905635"><ele>472</ele><time>2024-02-10T10:40:54Z</time><name>PT1153</name></trkpt>
<trkpt lat="53.406088" lon="-1.905630"><ele>473</ele><time>2024-02-10T10:40:58Z</time><name>PT1154</name></trkpt>
<trkpt lat="53.406093" lon="-1.905625"><ele>472</ele><time>2024-02-10T10:41:01Z</time><name>PT1155</name></trkpt>
<trkpt lat="53.406118" lon="-1.905637"><ele>472</ele><time>2024-02-10T10:42:18Z</time><name>PT1156</name></trkpt>
<trkpt lat="53.406121" lon="-1.905638"><ele>472</ele><time>2024-02-10T10:42:21Z</time><name>PT1157</name></trkpt>
<trkpt lat="53.406116" lon="-1.905644"><ele>474</ele><time>2024-02-10T10:43:11Z</time><name>PT1158</name></trkpt>
<trkpt lat="53.406114" lon="-1.905639"><ele>474</ele><time>2024-02-10T10:44:03Z</time><name>PT1159</name></trkpt>
<trkpt lat="53.406115" lon="-1.905628"><ele>473</ele><time>2024-02-10T10:44:07Z</time><name>PT1160</name></trkpt>
<trkpt lat="53.406127" lon="-1.905608"><ele>473</ele><time>2024-02-10T10:44:34Z</time><name>PT1161</name></trkpt>
<trkpt lat="53.406143" lon="-1.905585"><ele>473</ele><time>2024-02-10T10:44:37Z</time><name>PT1162</name></trkpt>
<trkpt lat="53.406119" lon="-1.905587"><ele>474</ele><time>2024-02-10T10:45:07Z</time><name>PT1163</name></trkpt>
<trkpt lat="53.406143" lon="-1.905591"><ele>477</ele><time>2024-02-10T10:45:11Z</time><name>PT1164</name></trkpt>
<trkpt lat="53.406137" lon="-1.905597"><ele>477</ele><time>2024-02-10T10:45:14Z</time><name>PT1165</name></trkpt>
<trkpt lat="53.406134" lon="-1.905596"><ele>477</ele><time>2024-02-10T10:45:18Z</time><name>PT1166</name></trkpt>
<trkpt lat="53.406134" lon="-1.905608"><ele>477</ele><time>2024-02-10T10:45:22Z</time><name>PT1167</name></trkpt>
<trkpt lat="53.406133" lon="-1.905608"><ele>475</ele><time>2024-02-10T10:45:25Z</time><name>PT1168</name></trkpt>
<trkpt lat="53.406125" lon="-1.905618"><ele>474</ele><time>2024-02-10T10:45:29Z</time><name>PT1169</name></trkpt>
<trkpt lat="53.406080" lon="-1.905632"><ele>473</ele><time>2024-02-10T10:45:36Z</time><name>PT1170</name></trkpt>
<trkpt lat="53.406079" lon="-1.905636"><ele>474</ele><time>2024-02-10T10:45:39Z</time><name>PT1171</name></trkpt>
<trkpt lat="53.406081" lon="-1.905639"><ele>474</ele><time>2024-02-10T10:45:49Z</time><name>PT1172</name></trkpt>
<trkpt lat="53.406084" lon="-1.905640"><ele>474</ele><time>2024-02-10T10:45:53Z</time><name>PT1173</name></trkpt>
<trkpt lat="53.406085" lon="-1.905643"><ele>477</ele><time>2024-02-10T10:49:02Z</time><name>PT1174</name></trkpt>
<trkpt lat="53.406080" lon="-1.905633"><ele>477</ele><time>2024-02-10T10:49:06Z</time><name>PT1175</name></trkpt>
<trkpt lat="53.406078" lon="-1.905632"><ele>477</ele><time>2024-02-10T10:49:09Z</time><name>PT1176</name></trkpt>
<trkpt lat="53.406089" lon="-1.905635"><ele>478</ele><time>2024-02-10T10:50:35Z</time><name>PT1177</name></trkpt>
<trkpt lat="53.406110" lon="-1.905623"><ele>479</ele><time>2024-02-10T10:50:38Z</time><name>PT1178</name></trkpt>
<trkpt lat="53.406128" lon="-1.905643"><ele>480</ele><time>2024-02-10T10:50:41Z</time><name>PT1179</name></trkpt>
<trkpt lat="53.406145" lon="-1.905666"><ele>481</ele><time>2024-02-10T10:50:44Z</time><name>PT1180</name></trkpt>
<trkpt lat="53.406173" lon="-1.905664"><ele>482</ele><time>2024-02-10T10:50:48Z</time><name>PT1181</name></trkpt>
<trkpt lat="53.406193" lon="-1.905662"><ele>482</ele><time>2024-02-10T10:50:51Z</time><name>PT1182</name></trkpt>
<trkpt lat="53.406205" lon="-1.905658"><ele>483</ele><time>2024-02-10T10:50:54Z</time><name>PT1183</name></trkpt>
<trkpt lat="53.406219" lon="-1.905651"><ele>483</ele><time>2024-02-10T10:51:01Z</time><name>PT1184</name></trkpt>
<trkpt lat="53.406249" lon="-1.905634"><ele>484</ele><time>2024-02-10T10:51:05Z</time><name>PT1185</name></trkpt>
<trkpt lat="53.406284" lon="-1.905636"><ele>485</ele><time>2024-02-10T10:51:08Z</time><name>PT1186</name></trkpt>
<trkpt lat="53.406314" lon="-1.905639"><ele>485</ele><time>2024-02-10T10:51:12Z</time><name>PT1187</name></trkpt>
<trkpt lat="53.406347" lon="-1.905630"><ele>486</ele><time>2024-02-10T10:51:16Z</time><name>PT1188</name></trkpt>
<trkpt lat="53.406370" lon="-1.905633"><ele>487</ele><time>2024-02-10T10:51:19Z</time><name>PT1189</name></trkpt>
<trkpt lat="53.406396" lon="-1.905635"><ele>488</ele><time>2024-02-10T10:51:23Z</time><name>PT1190</name></trkpt>
<trkpt lat="53.406415" lon="-1.905630"><ele>488</ele><time>2024-02-10T10:51:26Z</time><name>PT1191</name></trkpt>
<trkpt lat="53.406433" lon="-1.905626"><ele>490</ele><time>2024-02-10T10:51:29Z</time><name>PT1192</name></trkpt>
<trkpt lat="53.406444" lon="-1.905616"><ele>490</ele><time>2024-02-10T10:51:33Z</time><name>PT1193</name></trkpt>
<trkpt lat="53.406450" lon="-1.905610"><ele>490</ele><time>2024-02-10T10:51:36Z</time><name>PT1194</name></trkpt>
<trkpt lat="53.406466" lon="-1.905581"><ele>491</ele><time>2024-02-10T10:51:47Z</time><name>PT1195</name></trkpt>
<trkpt lat="53.406479" lon="-1.905572"><ele>491</ele><time>2024-02-10T10:51:51Z</time><name>PT1196</name></trkpt>
<trkpt lat="53.406517" lon="-1.905546"><ele>492</ele><time>2024-02-10T10:52:02Z</time><name>PT1197</name></trkpt>
<trkpt lat="53.406553" lon="-1.905534"><ele>493</ele><time>2024-02-10T10:52:05Z</time><name>PT1198</name></trkpt>
<trkpt lat="53.406581" lon="-1.905523"><ele>494</ele><time>2024-02-10T10:52:08Z</time><name>PT1199</name></trkpt>
<trkpt lat="53.406630" lon="-1.905508"><ele>494</ele><time>2024-02-10T10:52:12Z</time><name>PT1200</name></trkpt>
<trkpt lat="53.406660" lon="-1.905489"><ele>496</ele><time>2024-02-10T10:52:16Z</time><name>PT1201</name></trkpt>
<trkpt lat="53.406686" lon="-1.905483"><ele>497</ele><time>2024-02-10T10:52:19Z</time><name>PT1202</name></trkpt>
<trkpt lat="53.406712" lon="-1.905484"><ele>497</ele><time>2024-02-10T10:52:22Z</time><name>PT1203</name></trkpt>
<trkpt lat="53.406752" lon="-1.905473"><ele>498</ele><time>2024-02-10T10:52:26Z</time><name>PT1204</name></trkpt>
<trkpt lat="53.406778" lon="-1.905460"><ele>498</ele><time>2024-02-10T10:52:29Z</time><name>PT1205</name></trkpt>
<trkpt lat="53.406801" lon="-1.905441"><ele>499</ele><time>2024-02-10T10:52:32Z</time><name>PT1206</name></trkpt>
<trkpt lat="53.406825" lon="-1.905426"><ele>499</ele><time>2024-02-10T10:52:35Z</time><name>PT1207</name></trkpt>
<trkpt lat="53.406851" lon="-1.905414"><ele>499</ele><time>2024-02-10T10:52:38Z</time><name>PT1208</name></trkpt>
<trkpt lat="53.406880" lon="-1.905392"><ele>500</ele><time>2024-02-10T10:52:42Z</time><name>PT1209</name></trkpt>
<trkpt lat="53.406903" lon="-1.905371"><ele>500</ele><time>2024-02-10T10:52:45Z</time><name>PT1210</name></trkpt>
<trkpt lat="53.406939" lon="-1.905348"><ele>501</ele><time>2024-02-10T10:52:49Z</time><name>PT1211</name></trkpt>
<trkpt lat="53.406972" lon="-1.905326"><ele>501</ele><time>2024-02-10T10:52:53Z</time><name>PT1212</name></trkpt>
<trkpt lat="53.406991" lon="-1.905310"><ele>503</ele><time>2024-02-10T10:52:56Z</time><name>PT1213</name></trkpt>
<trkpt lat="53.407015" lon="-1.905288"><ele>503</ele><time>2024-02-10T10:53:00Z</time><name>PT1214</name></trkpt>
<trkpt lat="53.407030" lon="-1.905259"><ele>503</ele><time>2024-02-10T10:53:03Z</time><name>PT1215</name></trkpt>
<trkpt lat="53.407036" lon="-1.905223"><ele>503</ele><time>2024-02-10T10:53:07Z</time><name>PT1216</name></trkpt>
<trkpt lat="53.407038" lon="-1.905185"><ele>503</ele><time>2024-02-10T10:53:10Z</time><name>PT1217</name></trkpt>
<trkpt lat="53.407042" lon="-1.905125"><ele>502</ele><time>2024-02-10T10:53:14Z</time><name>PT1218</name></trkpt>
<trkpt lat="53.407049" lon="-1.905075"><ele>503</ele><time>2024-02-10T10:53:17Z</time><name>PT1219</name></trkpt>
<trkpt lat="53.407053" lon="-1.905031"><ele>503</ele><time>2024-02-10T10:53:20Z</time><name>PT1220</name></trkpt>
<trkpt lat="53.407059" lon="-1.904962"><ele>502</ele><time>2024-02-10T10:53:24Z</time><name>PT1221</name></trkpt>
<trkpt lat="53.407063" lon="-1.904913"><ele>502</ele><time>2024-02-10T10:53:27Z</time><name>PT1222</name></trkpt>
<trkpt lat="53.407065" lon="-1.904838"><ele>502</ele><time>2024-02-10T10:53:31Z</time><name>PT1223</name></trkpt>
<trkpt lat="53.407061" lon="-1.904770"><ele>501</ele><time>2024-02-10T10:53:35Z</time><name>PT1224</name></trkpt>
<trkpt lat="53.407059" lon="-1.904685"><ele>502</ele><time>2024-02-10T10:53:39Z</time><name>PT1225</name></trkpt>
<trkpt lat="53.407058" lon="-1.904604"><ele>502</ele><time>2024-02-10T10:53:43Z</time><name>PT1226</name></trkpt>
<trkpt lat="53.407054" lon="-1.904537"><ele>502</ele><time>2024-02-10T10:53:47Z</time><name>PT1227</name></trkpt>
<trkpt lat="53.407061" lon="-1.904486"><ele>502</ele><time>2024-02-10T10:53:50Z</time><name>PT1228</name></trkpt>
<trkpt lat="53.407058" lon="-1.904438"><ele>501</ele><time>2024-02-10T10:53:53Z</time><name>PT1229</name></trkpt>
<trkpt lat="53.407072" lon="-1.904370"><ele>502</ele><time>2024-02-10T10:53:57Z</time><name>PT1230</name></trkpt>
<trkpt lat="53.407092" lon="-1.904318"><ele>504</ele><time>2024-02-10T10:54:00Z</time><name>PT1231</name></trkpt>
<trkpt lat="53.407099" lon="-1.904247"><ele>505</ele><time>2024-02-10T10:54:04Z</time><name>PT1232</name></trkpt>
<trkpt lat="53.407108" lon="-1.904197"><ele>505</ele><time>2024-02-10T10:54:07Z</time><name>PT1233</name></trkpt>
<trkpt lat="53.407109" lon="-1.904122"><ele>505</ele><time>2024-02-10T10:54:11Z</time><name>PT1234</name></trkpt>
<trkpt lat="53.407110" lon="-1.904056"><ele>506</ele><time>2024-02-10T10:54:14Z</time><name>PT1235</name></trkpt>
<trkpt lat="53.407111" lon="-1.903984"><ele>505</ele><time>2024-02-10T10:54:18Z</time><name>PT1236</name></trkpt>
<trkpt lat="53.407109" lon="-1.903905"><ele>505</ele><time>2024-02-10T10:54:22Z</time><name>PT1237</name></trkpt>
<trkpt lat="53.407109" lon="-1.903828"><ele>505</ele><time>2024-02-10T10:54:26Z</time><name>PT1238</name></trkpt>
<trkpt lat="53.407104" lon="-1.903748"><ele>505</ele><time>2024-02-10T10:54:30Z</time><name>PT1239</name></trkpt>
<trkpt lat="53.407100" lon="-1.903677"><ele>505</ele><time>2024-02-10T10:54:34Z</time><name>PT1240</name></trkpt>
<trkpt lat="53.407098" lon="-1.903626"><ele>506</ele><time>2024-02-10T10:54:37Z</time><name>PT1241</name></trkpt>
<trkpt lat="53.407094" lon="-1.903562"><ele>506</ele><time>2024-02-10T10:54:41Z</time><name>PT1242</name></trkpt>
<trkpt lat="53.407095" lon="-1.903509"><ele>507</ele><time>2024-02-10T10:54:44Z</time><name>PT1243</name></trkpt>
<trkpt lat="53.407098" lon="-1.903440"><ele>507</ele><time>2024-02-10T10:54:48Z</time><name>PT1244</name></trkpt>
<trkpt lat="53.407102" lon="-1.903400"><ele>506</ele><time>2024-02-10T10:54:51Z</time><name>PT1245</name></trkpt>
<trkpt lat="53.407108" lon="-1.903346"><ele>506</ele><time>2024-02-10T10:54:55Z</time><name>PT1246</name></trkpt>
<trkpt lat="53.407101" lon="-1.903301"><ele>507</ele><time>2024-02-10T10:54:59Z</time><name>PT1247</name></trkpt>
<trkpt lat="53.407092" lon="-1.903243"><ele>508</ele><time>2024-02-10T10:55:03Z</time><name>PT1248</name></trkpt>
<trkpt lat="53.407082" lon="-1.903213"><ele>509</ele><time>2024-02-10T10:55:06Z</time><name>PT1249</name></trkpt>
<trkpt lat="53.407076" lon="-1.903185"><ele>510</ele><time>2024-02-10T10:55:09Z</time><name>PT1250</name></trkpt>
<trkpt lat="53.407066" lon="-1.903140"><ele>510</ele><time>2024-02-10T10:55:13Z</time><name>PT1251</name></trkpt>
<trkpt lat="53.407051" lon="-1.903103"><ele>511</ele><time>2024-02-10T10:55:16Z</time><name>PT1252</name></trkpt>
<trkpt lat="53.407039" lon="-1.903052"><ele>512</ele><time>2024-02-10T10:55:20Z</time><name>PT1253</name></trkpt>
<trkpt lat="53.407027" lon="-1.902999"><ele>513</ele><time>2024-02-10T10:55:24Z</time><name>PT1254</name></trkpt>
<trkpt lat="53.407016" lon="-1.902974"><ele>514</ele><time>2024-02-10T10:55:27Z</time><name>PT1255</name></trkpt>
<trkpt lat="53.407003" lon="-1.902930"><ele>514</ele><time>2024-02-10T10:55:31Z</time><name>PT1256</name></trkpt>
<trkpt lat="53.406996" lon="-1.902900"><ele>514</ele><time>2024-02-10T10:55:34Z</time><name>PT1257</name></trkpt>
<trkpt lat="53.406983" lon="-1.902856"><ele>516</ele><time>2024-02-10T10:55:38Z</time><name>PT1258</name></trkpt>
<trkpt lat="53.406974" lon="-1.902831"><ele>516</ele><time>2024-02-10T10:55:41Z</time><name>PT1259</name></trkpt>
<trkpt lat="53.406961" lon="-1.902788"><ele>517</ele><time>2024-02-10T10:55:45Z</time><name>PT1260</name></trkpt>
<trkpt lat="53.406954" lon="-1.902768"><ele>517</ele><time>2024-02-10T10:55:48Z</time><name>PT1261</name></trkpt>
<trkpt lat="53.406948" lon="-1.902748"><ele>517</ele><time>2024-02-10T10:55:51Z</time><name>PT1262</name></trkpt>
<trkpt lat="53.406933" lon="-1.902713"><ele>518</ele><time>2024-02-10T10:55:55Z</time><name>PT1263</name></trkpt>
<trkpt lat="53.406920" lon="-1.902690"><ele>518</ele><time>2024-02-10T10:55:58Z</time><name>PT1264</name></trkpt>
<trkpt lat="53.406904" lon="-1.902649"><ele>519</ele><time>2024-02-10T10:56:02Z</time><name>PT1265</name></trkpt>
<trkpt lat="53.406899" lon="-1.902629"><ele>520</ele><time>2024-02-10T10:56:05Z</time><name>PT1266</name></trkpt>
<trkpt lat="53.406895" lon="-1.902596"><ele>520</ele><time>2024-02-10T10:56:09Z</time><name>PT1267</name></trkpt>
<trkpt lat="53.406896" lon="-1.902590"><ele>520</ele><time>2024-02-10T10:56:12Z</time><name>PT1268</name></trkpt>
<trkpt lat="53.406897" lon="-1.902551"><ele>522</ele><time>2024-02-10T10:56:22Z</time><name>PT1269</name></trkpt>
<trkpt lat="53.406895" lon="-1.902514"><ele>522</ele><time>2024-02-10T10:56:25Z</time><name>PT1270</name></trkpt>
<trkpt lat="53.406889" lon="-1.902489"><ele>523</ele><time>2024-02-10T10:56:29Z</time><name>PT1271</name></trkpt>
<trkpt lat="53.406885" lon="-1.902480"><ele>524</ele><time>2024-02-10T10:56:40Z</time><name>PT1272</name></trkpt>
<trkpt lat="53.406875" lon="-1.902443"><ele>524</ele><time>2024-02-10T10:56:44Z</time><name>PT1273</name></trkpt>
<trkpt lat="53.406863" lon="-1.902398"><ele>524</ele><time>2024-02-10T10:56:48Z</time><name>PT1274</name></trkpt>
<trkpt lat="53.406859" lon="-1.902367"><ele>525</ele><time>2024-02-10T10:56:51Z</time><name>PT1275</name></trkpt>
<trkpt lat="53.406848" lon="-1.902344"><ele>526</ele><time>2024-02-10T10:56:54Z</time><name>PT1276</name></trkpt>
<trkpt lat="53.406842" lon="-1.902308"><ele>527</ele><time>2024-02-10T10:56:58Z</time><name>PT1277</name></trkpt>
<trkpt lat="53.406829" lon="-1.902271"><ele>528</ele><time>2024-02-10T10:57:02Z</time><name>PT1278</name></trkpt>
<trkpt lat="53.406823" lon="-1.902244"><ele>528</ele><time>2024-02-10T10:57:05Z</time><name>PT1279</name></trkpt>
<trkpt lat="53.406817" lon="-1.902221"><ele>529</ele><time>2024-02-10T10:57:09Z</time><name>PT1280</name></trkpt>
<trkpt lat="53.406807" lon="-1.902195"><ele>530</ele><time>2024-02-10T10:57:13Z</time><name>PT1281</name></trkpt>
<trkpt lat="53.406803" lon="-1.902175"><ele>530</ele><time>2024-02-10T10:57:16Z</time><name>PT1282</name></trkpt>
<trkpt lat="53.406795" lon="-1.902149"><ele>532</ele><time>2024-02-10T10:57:20Z</time><name>PT1283</name></trkpt>
<trkpt lat="53.406792" lon="-1.902123"><ele>533</ele><time>2024-02-10T10:57:23Z</time><name>PT1284</name></trkpt>
<trkpt lat="53.406789" lon="-1.902086"><ele>534</ele><time>2024-02-10T10:57:27Z</time><name>PT1285</name></trkpt>
<trkpt lat="53.406789" lon="-1.902080"><ele>534</ele><time>2024-02-10T10:57:31Z</time><name>PT1286</name></trkpt>
<trkpt lat="53.406776" lon="-1.902051"><ele>535</ele><time>2024-02-10T10:57:35Z</time><name>PT1287</name></trkpt>
<trkpt lat="53.406770" lon="-1.902014"><ele>536</ele><time>2024-02-10T10:57:39Z</time><name>PT1288</name></trkpt>
<trkpt lat="53.406771" lon="-1.901983"><ele>537</ele><time>2024-02-10T10:57:42Z</time><name>PT1289</name></trkpt>
<trkpt lat="53.406767" lon="-1.901945"><ele>539</ele><time>2024-02-10T10:57:46Z</time><name>PT1290</name></trkpt>
<trkpt lat="53.406762" lon="-1.901915"><ele>539</ele><time>2024-02-10T10:57:49Z</time><name>PT1291</name></trkpt>
<trkpt lat="53.406756" lon="-1.901885"><ele>541</ele><time>2024-02-10T10:57:53Z</time><name>PT1292</name></trkpt>
<trkpt lat="53.406746" lon="-1.901862"><ele>542</ele><time>2024-02-10T10:57:56Z</time><name>PT1293</name></trkpt>
<trkpt lat="53.406738" lon="-1.901833"><ele>543</ele><time>2024-02-10T10:58:00Z</time><name>PT1294</name></trkpt>
<trkpt lat="53.406735" lon="-1.901815"><ele>543</ele><time>2024-02-10T10:58:03Z</time><name>PT1295</name></trkpt>
<trkpt lat="53.406722" lon="-1.901802"><ele>544</ele><time>2024-02-10T10:58:06Z</time><name>PT1296</name></trkpt>
<trkpt lat="53.406711" lon="-1.901791"><ele>545</ele><time>2024-02-10T10:58:10Z</time><name>PT1297</name></trkpt>
<trkpt lat="53.406700" lon="-1.901750"><ele>547</ele><time>2024-02-10T10:58:21Z</time><name>PT1298</name></trkpt>
<trkpt lat="53.406702" lon="-1.901724"><ele>547</ele><time>2024-02-10T10:58:25Z</time><name>PT1299</name></trkpt>
<trkpt lat="53.406704" lon="-1.901699"><ele>548</ele><time>2024-02-10T10:58:29Z</time><name>PT1300</name></trkpt>
<trkpt lat="53.406701" lon="-1.901696"><ele>548</ele><time>2024-02-10T10:58:32Z</time><name>PT1301</name></trkpt>
<trkpt lat="53.406695" lon="-1.901667"><ele>549</ele><time>2024-02-10T10:58:36Z</time><name>PT1302</name></trkpt>
<trkpt lat="53.406692" lon="-1.901654"><ele>550</ele><time>2024-02-10T10:58:40Z</time><name>PT1303</name></trkpt>
<trkpt lat="53.406682" lon="-1.901640"><ele>550</ele><time>2024-02-10T10:58:43Z</time><name>PT1304</name></trkpt>
<trkpt lat="53.406679" lon="-1.901620"><ele>550</ele><time>2024-02-10T10:58:47Z</time><name>PT1305</name></trkpt>
<trkpt lat="53.406671" lon="-1.901607"><ele>550</ele><time>2024-02-10T10:58:51Z</time><name>PT1306</name></trkpt>
<trkpt lat="53.406655" lon="-1.901593"><ele>551</ele><time>2024-02-10T10:58:54Z</time><name>PT1307</name></trkpt>
<trkpt lat="53.406650" lon="-1.901578"><ele>552</ele><time>2024-02-10T10:58:57Z</time><name>PT1308</name></trkpt>
<trkpt lat="53.406639" lon="-1.901559"><ele>553</ele><time>2024-02-10T10:59:01Z</time><name>PT1309</name></trkpt>
<trkpt lat="53.406640" lon="-1.901549"><ele>554</ele><time>2024-02-10T10:59:04Z</time><name>PT1310</name></trkpt>
<trkpt lat="53.406618" lon="-1.901553"><ele>553</ele><time>2024-02-10T10:59:08Z</time><name>PT1311</name></trkpt>
<trkpt lat="53.406605" lon="-1.901540"><ele>554</ele><time>2024-02-10T10:59:12Z</time><name>PT1312</name></trkpt>
<trkpt lat="53.406595" lon="-1.901528"><ele>555</ele><time>2024-02-10T10:59:15Z</time><name>PT1313</name></trkpt>
<trkpt lat="53.406592" lon="-1.901508"><ele>555</ele><time>2024-02-10T10:59:19Z</time><name>PT1314</name></trkpt>
<trkpt lat="53.406591" lon="-1.901504"><ele>555</ele><time>2024-02-10T10:59:23Z</time><name>PT1315</name></trkpt>
<trkpt lat="53.406583" lon="-1.901492"><ele>556</ele><time>2024-02-10T10:59:26Z</time><name>PT1316</name></trkpt>
<trkpt lat="53.406581" lon="-1.901487"><ele>556</ele><time>2024-02-10T10:59:29Z</time><name>PT1317</name></trkpt>
<trkpt lat="53.406581" lon="-1.901474"><ele>556</ele><time>2024-02-10T10:59:33Z</time><name>PT1318</name></trkpt>
<trkpt lat="53.406576" lon="-1.901445"><ele>558</ele><time>2024-02-10T10:59:37Z</time><name>PT1319</name></trkpt>
<trkpt lat="53.406573" lon="-1.901416"><ele>559</ele><time>2024-02-10T10:59:41Z</time><name>PT1320</name></trkpt>
<trkpt lat="53.406563" lon="-1.901398"><ele>560</ele><time>2024-02-10T10:59:44Z</time><name>PT1321</name></trkpt>
<trkpt lat="53.406548" lon="-1.901369"><ele>560</ele><time>2024-02-10T10:59:48Z</time><name>PT1322</name></trkpt>
<trkpt lat="53.406543" lon="-1.901350"><ele>560</ele><time>2024-02-10T10:59:51Z</time><name>PT1323</name></trkpt>
<trkpt lat="53.406529" lon="-1.901326"><ele>562</ele><time>2024-02-10T10:59:55Z</time><name>PT1324</name></trkpt>
<trkpt lat="53.406515" lon="-1.901313"><ele>563</ele><time>2024-02-10T10:59:58Z</time><name>PT1325</name></trkpt>
<trkpt lat="53.406493" lon="-1.901304"><ele>563</ele><time>2024-02-10T11:00:01Z</time><name>PT1326</name></trkpt>
<trkpt lat="53.406490" lon="-1.901282"><ele>564</ele><time>2024-02-10T11:00:05Z</time><name>PT1327</name></trkpt>
<trkpt lat="53.406488" lon="-1.901259"><ele>565</ele><time>2024-02-10T11:00:08Z</time><name>PT1328</name></trkpt>
<trkpt lat="53.406477" lon="-1.901236"><ele>565</ele><time>2024-02-10T11:00:11Z</time><name>PT1329</name></trkpt>
<trkpt lat="53.406460" lon="-1.901211"><ele>566</ele><time>2024-02-10T11:00:15Z</time><name>PT1330</name></trkpt>
<trkpt lat="53.406449" lon="-1.901194"><ele>567</ele><time>2024-02-10T11:00:18Z</time><name>PT1331</name></trkpt>
<trkpt lat="53.406434" lon="-1.901157"><ele>567</ele><time>2024-02-10T11:00:22Z</time><name>PT1332</name></trkpt>
<trkpt lat="53.406421" lon="-1.901137"><ele>568</ele><time>2024-02-10T11:00:25Z</time><name>PT1333</name></trkpt>
<trkpt lat="53.406404" lon="-1.901114"><ele>569</ele><time>2024-02-10T11:00:29Z</time><name>PT1334</name></trkpt>
<trkpt lat="53.406387" lon="-1.901100"><ele>570</ele><time>2024-02-10T11:00:32Z</time><name>PT1335</name></trkpt>
<trkpt lat="53.406361" lon="-1.901082"><ele>570</ele><time>2024-02-10T11:00:36Z</time><name>PT1336</name></trkpt>
<trkpt lat="53.406336" lon="-1.901057"><ele>570</ele><time>2024-02-10T11:00:40Z</time><name>PT1337</name></trkpt>
<trkpt lat="53.406312" lon="-1.901032"><ele>571</ele><time>2024-02-10T11:00:44Z</time><name>PT1338</name></trkpt>
<trkpt lat="53.406292" lon="-1.901012"><ele>572</ele><time>2024-02-10T11:00:47Z</time><name>PT1339</name></trkpt>
<trkpt lat="53.406267" lon="-1.900992"><ele>572</ele><time>2024-02-10T11:00:50Z</time><name>PT1340</name></trkpt>
<trkpt lat="53.406245" lon="-1.900958"><ele>572</ele><time>2024-02-10T11:00:54Z</time><name>PT1341</name></trkpt>
<trkpt lat="53.406233" lon="-1.900943"><ele>572</ele><time>2024-02-10T11:00:58Z</time><name>PT1342</name></trkpt>
<trkpt lat="53.406223" lon="-1.900948"><ele>572</ele><time>2024-02-10T11:01:01Z</time><name>PT1343</name></trkpt>
<trkpt lat="53.406225" lon="-1.900946"><ele>572</ele><time>2024-02-10T11:01:08Z</time><name>PT1344</name></trkpt>
<trkpt lat="53.406232" lon="-1.900932"><ele>571</ele><time>2024-02-10T11:01:12Z</time><name>PT1345</name></trkpt>
<trkpt lat="53.406231" lon="-1.900929"><ele>571</ele><time>2024-02-10T11:01:15Z</time><name>PT1346</name></trkpt>
<trkpt lat="53.406221" lon="-1.900926"><ele>570</ele><time>2024-02-10T11:01:19Z</time><name>PT1347</name></trkpt>
<trkpt lat="53.406220" lon="-1.900919"><ele>570</ele><time>2024-02-10T11:01:23Z</time><name>PT1348</name></trkpt>
<trkpt lat="53.406221" lon="-1.900921"><ele>570</ele><time>2024-02-10T11:01:37Z</time><name>PT1349</name></trkpt>
<trkpt lat="53.406224" lon="-1.900920"><ele>570</ele><time>2024-02-10T11:01:41Z</time><name>PT1350</name></trkpt>
<trkpt lat="53.406221" lon="-1.900912"><ele>569</ele><time>2024-02-10T11:02:39Z</time><name>PT1351</name></trkpt>
<trkpt lat="53.406219" lon="-1.900911"><ele>569</ele><time>2024-02-10T11:02:42Z</time><name>PT1352</name></trkpt>
<trkpt lat="53.406219" lon="-1.900910"><ele>569</ele><time>2024-02-10T11:02:46Z</time><name>PT1353</name></trkpt>
<trkpt lat="53.406219" lon="-1.900911"><ele>569</ele><time>2024-02-10T11:02:50Z</time><name>PT1354</name></trkpt>
<trkpt lat="53.406223" lon="-1.900914"><ele>569</ele><time>2024-02-10T11:03:25Z</time><name>PT1355</name></trkpt>
<trkpt lat="53.406200" lon="-1.900922"><ele>570</ele><time>2024-02-10T11:03:36Z</time><name>PT1356</name></trkpt>
<trkpt lat="53.406158" lon="-1.900906"><ele>570</ele><time>2024-02-10T11:03:40Z</time><name>PT1357</name></trkpt>
<trkpt lat="53.406124" lon="-1.900891"><ele>571</ele><time>2024-02-10T11:03:44Z</time><name>PT1358</name></trkpt>
<trkpt lat="53.406100" lon="-1.900889"><ele>571</ele><time>2024-02-10T11:03:47Z</time><name>PT1359</name></trkpt>
<trkpt lat="53.406062" lon="-1.900880"><ele>571</ele><time>2024-02-10T11:03:51Z</time><name>PT1360</name></trkpt>
<trkpt lat="53.406037" lon="-1.900872"><ele>571</ele><time>2024-02-10T11:03:54Z</time><name>PT1361</name></trkpt>
<trkpt lat="53.406013" lon="-1.900860"><ele>571</ele><time>2024-02-10T11:03:57Z</time><name>PT1362</name></trkpt>
<trkpt lat="53.405991" lon="-1.900831"><ele>572</ele><time>2024-02-10T11:04:01Z</time><name>PT1363</name></trkpt>
<trkpt lat="53.405971" lon="-1.900817"><ele>572</ele><time>2024-02-10T11:04:04Z</time><name>PT1364</name></trkpt>
<trkpt lat="53.405942" lon="-1.900808"><ele>572</ele><time>2024-02-10T11:04:07Z</time><name>PT1365</name></trkpt>
<trkpt lat="53.405903" lon="-1.900789"><ele>573</ele><time>2024-02-10T11:04:11Z</time><name>PT1366</name></trkpt>
<trkpt lat="53.405872" lon="-1.900763"><ele>574</ele><time>2024-02-10T11:04:14Z</time><name>PT1367</name></trkpt>
<trkpt lat="53.405838" lon="-1.900714"><ele>574</ele><time>2024-02-10T11:04:18Z</time><name>PT1368</name></trkpt>
<trkpt lat="53.405792" lon="-1.900681"><ele>575</ele><time>2024-02-10T11:04:22Z</time><name>PT1369</name></trkpt>
<trkpt lat="53.405754" lon="-1.900665"><ele>576</ele><time>2024-02-10T11:04:26Z</time><name>PT1370</name></trkpt>
<trkpt lat="53.405718" lon="-1.900664"><ele>576</ele><time>2024-02-10T11:04:30Z</time><name>PT1371</name></trkpt>
<trkpt lat="53.405687" lon="-1.900663"><ele>577</ele><time>2024-02-10T11:04:33Z</time><name>PT1372</name></trkpt>
<trkpt lat="53.405661" lon="-1.900660"><ele>577</ele><time>2024-02-10T11:04:36Z</time><name>PT1373</name></trkpt>
<trkpt lat="53.405622" lon="-1.900660"><ele>577</ele><time>2024-02-10T11:04:40Z</time><name>PT1374</name></trkpt>
<trkpt lat="53.405585" lon="-1.900652"><ele>576</ele><time>2024-02-10T11:04:44Z</time><name>PT1375</name></trkpt>
<trkpt lat="53.405559" lon="-1.900640"><ele>576</ele><time>2024-02-10T11:04:47Z</time><name>PT1376</name></trkpt>
<trkpt lat="53.405532" lon="-1.900644"><ele>578</ele><time>2024-02-10T11:04:50Z</time><name>PT1377</name></trkpt>
<trkpt lat="53.405500" lon="-1.900640"><ele>578</ele><time>2024-02-10T11:04:54Z</time><name>PT1378</name></trkpt>
<trkpt lat="53.405477" lon="-1.900641"><ele>579</ele><time>2024-02-10T11:04:57Z</time><name>PT1379</name></trkpt>
<trkpt lat="53.405449" lon="-1.900630"><ele>579</ele><time>2024-02-10T11:05:00Z</time><name>PT1380</name></trkpt>
<trkpt lat="53.405402" lon="-1.900614"><ele>580</ele><time>2024-02-10T11:05:04Z</time><name>PT1381</name></trkpt>
<trkpt lat="53.405370" lon="-1.900591"><ele>581</ele><time>2024-02-10T11:05:07Z</time><name>PT1382</name></trkpt>
<trkpt lat="53.405344" lon="-1.900570"><ele>582</ele><time>2024-02-10T11:05:10Z</time><name>PT1383</name></trkpt>
<trkpt lat="53.405311" lon="-1.900548"><ele>582</ele><time>2024-02-10T11:05:14Z</time><name>PT1384</name></trkpt>
<trkpt lat="53.405281" lon="-1.900536"><ele>582</ele><time>2024-02-10T11:05:18Z</time><name>PT1385</name></trkpt>
<trkpt lat="53.405255" lon="-1.900520"><ele>582</ele><time>2024-02-10T11:05:21Z</time><name>PT1386</name></trkpt>
<trkpt lat="53.405231" lon="-1.900519"><ele>582</ele><time>2024-02-10T11:05:24Z</time><name>PT1387</name></trkpt>
<trkpt lat="53.405205" lon="-1.900528"><ele>581</ele><time>2024-02-10T11:05:27Z</time><name>PT1388</name></trkpt>
<trkpt lat="53.405171" lon="-1.900536"><ele>581</ele><time>2024-02-10T11:05:31Z</time><name>PT1389</name></trkpt>
<trkpt lat="53.405140" lon="-1.900539"><ele>581</ele><time>2024-02-10T11:05:34Z</time><name>PT1390</name></trkpt>
<trkpt lat="53.405102" lon="-1.900543"><ele>582</ele><time>2024-02-10T11:05:38Z</time><name>PT1391</name></trkpt>
<trkpt lat="53.405067" lon="-1.900542"><ele>581</ele><time>2024-02-10T11:05:42Z</time><name>PT1392</name></trkpt>
<trkpt lat="53.405044" lon="-1.900537"><ele>581</ele><time>2024-02-10T11:05:45Z</time><name>PT1393</name></trkpt>
<trkpt lat="53.405019" lon="-1.900533"><ele>581</ele><time>2024-02-10T11:05:48Z</time><name>PT1394</name></trkpt>
<trkpt lat="53.404993" lon="-1.900530"><ele>582</ele><time>2024-02-10T11:05:51Z</time><name>PT1395</name></trkpt>
<trkpt lat="53.404960" lon="-1.900517"><ele>582</ele><time>2024-02-10T11:05:55Z</time><name>PT1396</name></trkpt>
<trkpt lat="53.404937" lon="-1.900502"><ele>582</ele><time>2024-02-10T11:05:58Z</time><name>PT1397</name></trkpt>
<trkpt lat="53.404901" lon="-1.900495"><ele>582</ele><time>2024-02-10T11:06:02Z</time><name>PT1398</name></trkpt>
<trkpt lat="53.404877" lon="-1.900489"><ele>583</ele><time>2024-02-10T11:06:05Z</time><name>PT1399</name></trkpt>
<trkpt lat="53.404852" lon="-1.900487"><ele>583</ele><time>2024-02-10T11:06:08Z</time><name>PT1400</name></trkpt>
<trkpt lat="53.404825" lon="-1.900489"><ele>583</ele><time>2024-02-10T11:06:12Z</time><name>PT1401</name></trkpt>
<trkpt lat="53.404800" lon="-1.900486"><ele>583</ele><time>2024-02-10T11:06:15Z</time><name>PT1402</name></trkpt>
<trkpt lat="53.404779" lon="-1.900487"><ele>583</ele><time>2024-02-10T11:06:19Z</time><name>PT1403</name></trkpt>
<trkpt lat="53.404749" lon="-1.900490"><ele>583</ele><time>2024-02-10T11:06:23Z</time><name>PT1404</name></trkpt>
<trkpt lat="53.404718" lon="-1.900476"><ele>586</ele><time>2024-02-10T11:06:27Z</time><name>PT1405</name></trkpt>
<trkpt lat="53.404689" lon="-1.900472"><ele>586</ele><time>2024-02-10T11:06:30Z</time><name>PT1406</name></trkpt>
<trkpt lat="53.404673" lon="-1.900454"><ele>587</ele><time>2024-02-10T11:06:34Z</time><name>PT1407</name></trkpt>
<trkpt lat="53.404653" lon="-1.900443"><ele>587</ele><time>2024-02-10T11:06:37Z</time><name>PT1408</name></trkpt>
<trkpt lat="53.404621" lon="-1.900436"><ele>587</ele><time>2024-02-10T11:06:41Z</time><name>PT1409</name></trkpt>
<trkpt lat="53.404583" lon="-1.900436"><ele>588</ele><time>2024-02-10T11:06:45Z</time><name>PT1410</name></trkpt>
<trkpt lat="53.404542" lon="-1.900443"><ele>589</ele><time>2024-02-10T11:06:49Z</time><name>PT1411</name></trkpt>
<trkpt lat="53.404508" lon="-1.900432"><ele>587</ele><time>2024-02-10T11:06:52Z</time><name>PT1412</name></trkpt>
<trkpt lat="53.404473" lon="-1.900424"><ele>586</ele><time>2024-02-10T11:06:56Z</time><name>PT1413</name></trkpt>
<trkpt lat="53.404452" lon="-1.900406"><ele>586</ele><time>2024-02-10T11:06:59Z</time><name>PT1414</name></trkpt>
<trkpt lat="53.404436" lon="-1.900381"><ele>586</ele><time>2024-02-10T11:07:02Z</time><name>PT1415</name></trkpt>
<trkpt lat="53.404411" lon="-1.900355"><ele>587</ele><time>2024-02-10T11:07:06Z</time><name>PT1416</name></trkpt>
<trkpt lat="53.404383" lon="-1.900334"><ele>588</ele><time>2024-02-10T11:07:10Z</time><name>PT1417</name></trkpt>
<trkpt lat="53.404363" lon="-1.900303"><ele>588</ele><time>2024-02-10T11:07:14Z</time><name>PT1418</name></trkpt>
<trkpt lat="53.404326" lon="-1.900261"><ele>590</ele><time>2024-02-10T11:07:18Z</time><name>PT1419</name></trkpt>
<trkpt lat="53.404292" lon="-1.900227"><ele>590</ele><time>2024-02-10T11:07:22Z</time><name>PT1420</name></trkpt>
<trkpt lat="53.404272" lon="-1.900194"><ele>591</ele><time>2024-02-10T11:07:25Z</time><name>PT1421</name></trkpt>
<trkpt lat="53.404240" lon="-1.900153"><ele>591</ele><time>2024-02-10T11:07:29Z</time><name>PT1422</name></trkpt>
<trkpt lat="53.404222" lon="-1.900131"><ele>591</ele><time>2024-02-10T11:07:32Z</time><name>PT1423</name></trkpt>
<trkpt lat="53.404203" lon="-1.900101"><ele>592</ele><time>2024-02-10T11:07:36Z</time><name>PT1424</name></trkpt>
<trkpt lat="53.404190" lon="-1.900076"><ele>593</ele><time>2024-02-10T11:07:39Z</time><name>PT1425</name></trkpt>
<trkpt lat="53.404177" lon="-1.900040"><ele>594</ele><time>2024-02-10T11:07:42Z</time><name>PT1426</name></trkpt>
<trkpt lat="53.404156" lon="-1.900011"><ele>595</ele><time>2024-02-10T11:07:45Z</time><name>PT1427</name></trkpt>
<trkpt lat="53.404128" lon="-1.899971"><ele>595</ele><time>2024-02-10T11:07:49Z</time><name>PT1428</name></trkpt>
<trkpt lat="53.404098" lon="-1.899934"><ele>595</ele><time>2024-02-10T11:07:53Z</time><name>PT1429</name></trkpt>
<trkpt lat="53.404065" lon="-1.899892"><ele>595</ele><time>2024-02-10T11:07:57Z</time><name>PT1430</name></trkpt>
<trkpt lat="53.404040" lon="-1.899847"><ele>595</ele><time>2024-02-10T11:08:01Z</time><name>PT1431</name></trkpt>
<trkpt lat="53.404003" lon="-1.899810"><ele>595</ele><time>2024-02-10T11:08:05Z</time><name>PT1432</name></trkpt>
<trkpt lat="53.403973" lon="-1.899786"><ele>595</ele><time>2024-02-10T11:08:08Z</time><name>PT1433</name></trkpt>
<trkpt lat="53.403937" lon="-1.899738"><ele>596</ele><time>2024-02-10T11:08:12Z</time><name>PT1434</name></trkpt>
<trkpt lat="53.403904" lon="-1.899698"><ele>596</ele><time>2024-02-10T11:08:16Z</time><name>PT1435</name></trkpt>
<trkpt lat="53.403884" lon="-1.899671"><ele>596</ele><time>2024-02-10T11:08:20Z</time><name>PT1436</name></trkpt>
<trkpt lat="53.403859" lon="-1.899663"><ele>596</ele><time>2024-02-10T11:08:24Z</time><name>PT1437</name></trkpt>
<trkpt lat="53.403835" lon="-1.899644"><ele>595</ele><time>2024-02-10T11:08:27Z</time><name>PT1438</name></trkpt>
<trkpt lat="53.403797" lon="-1.899636"><ele>595</ele><time>2024-02-10T11:08:31Z</time><name>PT1439</name></trkpt>
<trkpt lat="53.403777" lon="-1.899603"><ele>595</ele><time>2024-02-10T11:08:34Z</time><name>PT1440</name></trkpt>
<trkpt lat="53.403749" lon="-1.899573"><ele>594</ele><time>2024-02-10T11:08:38Z</time><name>PT1441</name></trkpt>
<trkpt lat="53.403729" lon="-1.899531"><ele>594</ele><time>2024-02-10T11:08:42Z</time><name>PT1442</name></trkpt>
<trkpt lat="53.403705" lon="-1.899477"><ele>593</ele><time>2024-02-10T11:08:46Z</time><name>PT1443</name></trkpt>
<trkpt lat="53.403684" lon="-1.899440"><ele>592</ele><time>2024-02-10T11:08:49Z</time><name>PT1444</name></trkpt>
<trkpt lat="53.403660" lon="-1.899380"><ele>592</ele><time>2024-02-10T11:08:53Z</time><name>PT1445</name></trkpt>
<trkpt lat="53.403634" lon="-1.899319"><ele>592</ele><time>2024-02-10T11:08:57Z</time><name>PT1446</name></trkpt>
<trkpt lat="53.403610" lon="-1.899271"><ele>592</ele><time>2024-02-10T11:09:00Z</time><name>PT1447</name></trkpt>
<trkpt lat="53.403580" lon="-1.899195"><ele>592</ele><time>2024-02-10T11:09:04Z</time><name>PT1448</name></trkpt>
<trkpt lat="53.403549" lon="-1.899138"><ele>592</ele><time>2024-02-10T11:09:08Z</time><name>PT1449</name></trkpt>
<trkpt lat="53.403531" lon="-1.899091"><ele>593</ele><time>2024-02-10T11:09:11Z</time><name>PT1450</name></trkpt>
<trkpt lat="53.403516" lon="-1.899038"><ele>593</ele><time>2024-02-10T11:09:14Z</time><name>PT1451</name></trkpt>
<trkpt lat="53.403497" lon="-1.898991"><ele>592</ele><time>2024-02-10T11:09:17Z</time><name>PT1452</name></trkpt>
<trkpt lat="53.403477" lon="-1.898923"><ele>591</ele><time>2024-02-10T11:09:21Z</time><name>PT1453</name></trkpt>
<trkpt lat="53.403464" lon="-1.898843"><ele>591</ele><time>2024-02-10T11:09:25Z</time><name>PT1454</name></trkpt>
<trkpt lat="53.403457" lon="-1.898792"><ele>590</ele><time>2024-02-10T11:09:28Z</time><name>PT1455</name></trkpt>
<trkpt lat="53.403450" lon="-1.898732"><ele>589</ele><time>2024-02-10T11:09:32Z</time><name>PT1456</name></trkpt>
<trkpt lat="53.403440" lon="-1.898695"><ele>590</ele><time>2024-02-10T11:09:35Z</time><name>PT1457</name></trkpt>
<trkpt lat="53.403430" lon="-1.898656"><ele>591</ele><time>2024-02-10T11:09:38Z</time><name>PT1458</name></trkpt>
<trkpt lat="53.403415" lon="-1.898604"><ele>590</ele><time>2024-02-10T11:09:42Z</time><name>PT1459</name></trkpt>
<trkpt lat="53.403398" lon="-1.898559"><ele>591</ele><time>2024-02-10T11:09:45Z</time><name>PT1460</name></trkpt>
<trkpt lat="53.403388" lon="-1.898515"><ele>591</ele><time>2024-02-10T11:09:48Z</time><name>PT1461</name></trkpt>
<trkpt lat="53.403383" lon="-1.898475"><ele>590</ele><time>2024-02-10T11:09:51Z</time><name>PT1462</name></trkpt>
<trkpt lat="53.403366" lon="-1.898422"><ele>590</ele><time>2024-02-10T11:09:55Z</time><name>PT1463</name></trkpt>
<trkpt lat="53.403346" lon="-1.898366"><ele>591</ele><time>2024-02-10T11:09:58Z</time><name>PT1464</name></trkpt>
<trkpt lat="53.403325" lon="-1.898292"><ele>591</ele><time>2024-02-10T11:10:02Z</time><name>PT1465</name></trkpt>
<trkpt lat="53.403311" lon="-1.898223"><ele>592</ele><time>2024-02-10T11:10:06Z</time><name>PT1466</name></trkpt>
<trkpt lat="53.403301" lon="-1.898167"><ele>592</ele><time>2024-02-10T11:10:09Z</time><name>PT1467</name></trkpt>
<trkpt lat="53.403288" lon="-1.898101"><ele>592</ele><time>2024-02-10T11:10:13Z</time><name>PT1468</name></trkpt>
<trkpt lat="53.403278" lon="-1.898050"><ele>592</ele><time>2024-02-10T11:10:16Z</time><name>PT1469</name></trkpt>
<trkpt lat="53.403267" lon="-1.897999"><ele>592</ele><time>2024-02-10T11:10:19Z</time><name>PT1470</name></trkpt>
<trkpt lat="53.403260" lon="-1.897954"><ele>593</ele><time>2024-02-10T11:10:22Z</time><name>PT1471</name></trkpt>
<trkpt lat="53.403249" lon="-1.897908"><ele>593</ele><time>2024-02-10T11:10:25Z</time><name>PT1472</name></trkpt>
<trkpt lat="53.403233" lon="-1.897832"><ele>593</ele><time>2024-02-10T11:10:29Z</time><name>PT1473</name></trkpt>
<trkpt lat="53.403228" lon="-1.897786"><ele>593</ele><time>2024-02-10T11:10:32Z</time><name>PT1474</name></trkpt>
<trkpt lat="53.403217" lon="-1.897728"><ele>593</ele><time>2024-02-10T11:10:36Z</time><name>PT1475</name></trkpt>
<trkpt lat="53.403207" lon="-1.897677"><ele>593</ele><time>2024-02-10T11:10:39Z</time><name>PT1476</name></trkpt>
<trkpt lat="53.403197" lon="-1.897623"><ele>593</ele><time>2024-02-10T11:10:42Z</time><name>PT1477</name></trkpt>
<trkpt lat="53.403172" lon="-1.897558"><ele>593</ele><time>2024-02-10T11:10:46Z</time><name>PT1478</name></trkpt>
<trkpt lat="53.403159" lon="-1.897512"><ele>593</ele><time>2024-02-10T11:10:49Z</time><name>PT1479</name></trkpt>
<trkpt lat="53.403142" lon="-1.897451"><ele>592</ele><time>2024-02-10T11:10:53Z</time><name>PT1480</name></trkpt>
<trkpt lat="53.403131" lon="-1.897394"><ele>591</ele><time>2024-02-10T11:10:57Z</time><name>PT1481</name></trkpt>
<trkpt lat="53.403112" lon="-1.897328"><ele>591</ele><time>2024-02-10T11:11:01Z</time><name>PT1482</name></trkpt>
<trkpt lat="53.403089" lon="-1.897286"><ele>592</ele><time>2024-02-10T11:11:05Z</time><name>PT1483</name></trkpt>
<trkpt lat="53.403080" lon="-1.897248"><ele>592</ele><time>2024-02-10T11:11:08Z</time><name>PT1484</name></trkpt>
<trkpt lat="53.403057" lon="-1.897219"><ele>593</ele><time>2024-02-10T11:11:11Z</time><name>PT1485</name></trkpt>
<trkpt lat="53.403036" lon="-1.897171"><ele>594</ele><time>2024-02-10T11:11:15Z</time><name>PT1486</name></trkpt>
<trkpt lat="53.403019" lon="-1.897139"><ele>594</ele><time>2024-02-10T11:11:18Z</time><name>PT1487</name></trkpt>
<trkpt lat="53.402994" lon="-1.897081"><ele>596</ele><time>2024-02-10T11:11:22Z</time><name>PT1488</name></trkpt>
<trkpt lat="53.402963" lon="-1.897020"><ele>596</ele><time>2024-02-10T11:11:26Z</time><name>PT1489</name></trkpt>
<trkpt lat="53.402938" lon="-1.896973"><ele>596</ele><time>2024-02-10T11:11:29Z</time><name>PT1490</name></trkpt>
<trkpt lat="53.402910" lon="-1.896910"><ele>597</ele><time>2024-02-10T11:11:33Z</time><name>PT1491</name></trkpt>
<trkpt lat="53.402882" lon="-1.896852"><ele>597</ele><time>2024-02-10T11:11:37Z</time><name>PT1492</name></trkpt>
<trkpt lat="53.402852" lon="-1.896786"><ele>598</ele><time>2024-02-10T11:11:41Z</time><name>PT1493</name></trkpt>
<trkpt lat="53.402841" lon="-1.896737"><ele>598</ele><time>2024-02-10T11:11:44Z</time><name>PT1494</name></trkpt>
<trkpt lat="53.402814" lon="-1.896690"><ele>599</ele><time>2024-02-10T11:11:48Z</time><name>PT1495</name></trkpt>
<trkpt lat="53.402788" lon="-1.896646"><ele>599</ele><time>2024-02-10T11:11:52Z</time><name>PT1496</name></trkpt>
<trkpt lat="53.402771" lon="-1.896600"><ele>599</ele><time>2024-02-10T11:11:55Z</time><name>PT1497</name></trkpt>
<trkpt lat="53.402741" lon="-1.896539"><ele>600</ele><time>2024-02-10T11:11:59Z</time><name>PT1498</name></trkpt>
<trkpt lat="53.402723" lon="-1.896506"><ele>600</ele><time>2024-02-10T11:12:02Z</time><name>PT1499</name></trkpt>
<trkpt lat="53.402700" lon="-1.896461"><ele>599</ele><time>2024-02-10T11:12:06Z</time><name>PT1500</name></trkpt>
<trkpt lat="53.402680" lon="-1.896418"><ele>598</ele><time>2024-02-10T11:12:09Z</time><name>PT1501</name></trkpt>
<trkpt lat="53.402654" lon="-1.896357"><ele>597</ele><time>2024-02-10T11:12:13Z</time><name>PT1502</name></trkpt>
<trkpt lat="53.402630" lon="-1.896288"><ele>597</ele><time>2024-02-10T11:12:17Z</time><name>PT1503</name></trkpt>
<trkpt lat="53.402605" lon="-1.896233"><ele>596</ele><time>2024-02-10T11:12:21Z</time><name>PT1504</name></trkpt>
<trkpt lat="53.402576" lon="-1.896174"><ele>596</ele><time>2024-02-10T11:12:25Z</time><name>PT1505</name></trkpt>
<trkpt lat="53.402557" lon="-1.896123"><ele>595</ele><time>2024-02-10T11:12:28Z</time><name>PT1506</name></trkpt>
<trkpt lat="53.402542" lon="-1.896066"><ele>595</ele><time>2024-02-10T11:12:31Z</time><name>PT1507</name></trkpt>
<trkpt lat="53.402524" lon="-1.895987"><ele>595</ele><time>2024-02-10T11:12:35Z</time><name>PT1508</name></trkpt>
<trkpt lat="53.402503" lon="-1.895929"><ele>595</ele><time>2024-02-10T11:12:38Z</time><name>PT1509</name></trkpt>
<trkpt lat="53.402485" lon="-1.895854"><ele>596</ele><time>2024-02-10T11:12:42Z</time><name>PT1510</name></trkpt>
<trkpt lat="53.402471" lon="-1.895787"><ele>596</ele><time>2024-02-10T11:12:46Z</time><name>PT1511</name></trkpt>
<trkpt lat="53.402436" lon="-1.895748"><ele>596</ele><time>2024-02-10T11:12:50Z</time><name>PT1512</name></trkpt>
<trkpt lat="53.402403" lon="-1.895713"><ele>598</ele><time>2024-02-10T11:12:54Z</time><name>PT1513</name></trkpt>
<trkpt lat="53.402376" lon="-1.895689"><ele>598</ele><time>2024-02-10T11:12:57Z</time><name>PT1514</name></trkpt>
<trkpt lat="53.402349" lon="-1.895655"><ele>599</ele><time>2024-02-10T11:13:00Z</time><name>PT1515</name></trkpt>
<trkpt lat="53.402311" lon="-1.895634"><ele>598</ele><time>2024-02-10T11:13:04Z</time><name>PT1516</name></trkpt>
<trkpt lat="53.402288" lon="-1.895604"><ele>598</ele><time>2024-02-10T11:13:07Z</time><name>PT1517</name></trkpt>
<trkpt lat="53.402268" lon="-1.895564"><ele>599</ele><time>2024-02-10T11:13:11Z</time><name>PT1518</name></trkpt>
<trkpt lat="53.402257" lon="-1.895521"><ele>600</ele><time>2024-02-10T11:13:15Z</time><name>PT1519</name></trkpt>
<trkpt lat="53.402244" lon="-1.895487"><ele>599</ele><time>2024-02-10T11:13:18Z</time><name>PT1520</name></trkpt>
<trkpt lat="53.402235" lon="-1.895449"><ele>599</ele><time>2024-02-10T11:13:22Z</time><name>PT1521</name></trkpt>
<trkpt lat="53.402227" lon="-1.895429"><ele>600</ele><time>2024-02-10T11:13:25Z</time><name>PT1522</name></trkpt>
<trkpt lat="53.402201" lon="-1.895400"><ele>600</ele><time>2024-02-10T11:13:29Z</time><name>PT1523</name></trkpt>
<trkpt lat="53.402181" lon="-1.895387"><ele>600</ele><time>2024-02-10T11:13:32Z</time><name>PT1524</name></trkpt>
<trkpt lat="53.402157" lon="-1.895374"><ele>602</ele><time>2024-02-10T11:13:35Z</time><name>PT1525</name></trkpt>
<trkpt lat="53.402133" lon="-1.895371"><ele>602</ele><time>2024-02-10T11:13:39Z</time><name>PT1526</name></trkpt>
<trkpt lat="53.402106" lon="-1.895357"><ele>601</ele><time>2024-02-10T11:13:43Z</time><name>PT1527</name></trkpt>
<trkpt lat="53.402072" lon="-1.895332"><ele>600</ele><time>2024-02-10T11:13:47Z</time><name>PT1528</name></trkpt>
<trkpt lat="53.402041" lon="-1.895328"><ele>600</ele><time>2024-02-10T11:13:50Z</time><name>PT1529</name></trkpt>
<trkpt lat="53.401998" lon="-1.895311"><ele>600</ele><time>2024-02-10T11:13:54Z</time><name>PT1530</name></trkpt>
<trkpt lat="53.401961" lon="-1.895310"><ele>600</ele><time>2024-02-10T11:13:57Z</time><name>PT1531</name></trkpt>
<trkpt lat="53.401915" lon="-1.895313"><ele>600</ele><time>2024-02-10T11:14:01Z</time><name>PT1532</name></trkpt>
<trkpt lat="53.401870" lon="-1.895308"><ele>600</ele><time>2024-02-10T11:14:05Z</time><name>PT1533</name></trkpt>
<trkpt lat="53.401825" lon="-1.895306"><ele>600</ele><time>2024-02-10T11:14:09Z</time><name>PT1534</name></trkpt>
<trkpt lat="53.401793" lon="-1.895300"><ele>600</ele><time>2024-02-10T11:14:12Z</time><name>PT1535</name></trkpt>
<trkpt lat="53.401764" lon="-1.895290"><ele>600</ele><time>2024-02-10T11:14:15Z</time><name>PT1536</name></trkpt>
<trkpt lat="53.401718" lon="-1.895287"><ele>599</ele><time>2024-02-10T11:14:19Z</time><name>PT1537</name></trkpt>
<trkpt lat="53.401683" lon="-1.895281"><ele>599</ele><time>2024-02-10T11:14:22Z</time><name>PT1538</name></trkpt>
<trkpt lat="53.401637" lon="-1.895273"><ele>598</ele><time>2024-02-10T11:14:26Z</time><name>PT1539</name></trkpt>
<trkpt lat="53.401602" lon="-1.895271"><ele>597</ele><time>2024-02-10T11:14:30Z</time><name>PT1540</name></trkpt>
<trkpt lat="53.401566" lon="-1.895275"><ele>597</ele><time>2024-02-10T11:14:34Z</time><name>PT1541</name></trkpt>
<trkpt lat="53.401530" lon="-1.895259"><ele>597</ele><time>2024-02-10T11:14:38Z</time><name>PT1542</name></trkpt>
<trkpt lat="53.401491" lon="-1.895238"><ele>596</ele><time>2024-02-10T11:14:42Z</time><name>PT1543</name></trkpt>
<trkpt lat="53.401463" lon="-1.895217"><ele>596</ele><time>2024-02-10T11:14:45Z</time><name>PT1544</name></trkpt>
<trkpt lat="53.401422" lon="-1.895199"><ele>596</ele><time>2024-02-10T11:14:49Z</time><name>PT1545</name></trkpt>
<trkpt lat="53.401386" lon="-1.895161"><ele>596</ele><time>2024-02-10T11:14:53Z</time><name>PT1546</name></trkpt>
<trkpt lat="53.401355" lon="-1.895141"><ele>596</ele><time>2024-02-10T11:14:57Z</time><name>PT1547</name></trkpt>
<trkpt lat="53.401309" lon="-1.895141"><ele>596</ele><time>2024-02-10T11:15:01Z</time><name>PT1548</name></trkpt>
<trkpt lat="53.401269" lon="-1.895145"><ele>596</ele><time>2024-02-10T11:15:05Z</time><name>PT1549</name></trkpt>
<trkpt lat="53.401229" lon="-1.895169"><ele>597</ele><time>2024-02-10T11:15:09Z</time><name>PT1550</name></trkpt>
<trkpt lat="53.401193" lon="-1.895178"><ele>597</ele><time>2024-02-10T11:15:13Z</time><name>PT1551</name></trkpt>
<trkpt lat="53.401166" lon="-1.895189"><ele>597</ele><time>2024-02-10T11:15:16Z</time><name>PT1552</name></trkpt>
<trkpt lat="53.401130" lon="-1.895206"><ele>596</ele><time>2024-02-10T11:15:20Z</time><name>PT1553</name></trkpt>
<trkpt lat="53.401105" lon="-1.895228"><ele>596</ele><time>2024-02-10T11:15:23Z</time><name>PT1554</name></trkpt>
<trkpt lat="53.401062" lon="-1.895266"><ele>596</ele><time>2024-02-10T11:15:27Z</time><name>PT1555</name></trkpt>
<trkpt lat="53.401027" lon="-1.895289"><ele>595</ele><time>2024-02-10T11:15:30Z</time><name>PT1556</name></trkpt>
<trkpt lat="53.400980" lon="-1.895320"><ele>595</ele><time>2024-02-10T11:15:34Z</time><name>PT1557</name></trkpt>
<trkpt lat="53.400949" lon="-1.895334"><ele>595</ele><time>2024-02-10T11:15:37Z</time><name>PT1558</name></trkpt>
<trkpt lat="53.400900" lon="-1.895336"><ele>596</ele><time>2024-02-10T11:15:41Z</time><name>PT1559</name></trkpt>
<trkpt lat="53.400857" lon="-1.895322"><ele>597</ele><time>2024-02-10T11:15:45Z</time><name>PT1560</name></trkpt>
<trkpt lat="53.400823" lon="-1.895317"><ele>597</ele><time>2024-02-10T11:15:48Z</time><name>PT1561</name></trkpt>
<trkpt lat="53.400793" lon="-1.895309"><ele>597</ele><time>2024-02-10T11:15:51Z</time><name>PT1562</name></trkpt>
<trkpt lat="53.400761" lon="-1.895308"><ele>598</ele><time>2024-02-10T11:15:54Z</time><name>PT1563</name></trkpt>
<trkpt lat="53.400730" lon="-1.895305"><ele>598</ele><time>2024-02-10T11:15:57Z</time><name>PT1564</name></trkpt>
<trkpt lat="53.400681" lon="-1.895302"><ele>599</ele><time>2024-02-10T11:16:01Z</time><name>PT1565</name></trkpt>
<trkpt lat="53.400632" lon="-1.895300"><ele>598</ele><time>2024-02-10T11:16:05Z</time><name>PT1566</name></trkpt>
<trkpt lat="53.400595" lon="-1.895293"><ele>599</ele><time>2024-02-10T11:16:08Z</time><name>PT1567</name></trkpt>
<trkpt lat="53.400568" lon="-1.895295"><ele>600</ele><time>2024-02-10T11:16:12Z</time><name>PT1568</name></trkpt>
<trkpt lat="53.400565" lon="-1.895294"><ele>600</ele><time>2024-02-10T11:16:16Z</time><name>PT1569</name></trkpt>
<trkpt lat="53.400549" lon="-1.895249"><ele>600</ele><time>2024-02-10T11:16:30Z</time><name>PT1570</name></trkpt>
<trkpt lat="53.400552" lon="-1.895192"><ele>599</ele><time>2024-02-10T11:16:33Z</time><name>PT1571</name></trkpt>
<trkpt lat="53.400544" lon="-1.895110"><ele>599</ele><time>2024-02-10T11:16:37Z</time><name>PT1572</name></trkpt>
<trkpt lat="53.400547" lon="-1.895045"><ele>599</ele><time>2024-02-10T11:16:41Z</time><name>PT1573</name></trkpt>
<trkpt lat="53.400549" lon="-1.894989"><ele>600</ele><time>2024-02-10T11:16:45Z</time><name>PT1574</name></trkpt>
<trkpt lat="53.400557" lon="-1.894914"><ele>599</ele><time>2024-02-10T11:16:49Z</time><name>PT1575</name></trkpt>
<trkpt lat="53.400566" lon="-1.894854"><ele>599</ele><time>2024-02-10T11:16:52Z</time><name>PT1576</name></trkpt>
<trkpt lat="53.400574" lon="-1.894783"><ele>599</ele><time>2024-02-10T11:16:55Z</time><name>PT1577</name></trkpt>
<trkpt lat="53.400586" lon="-1.894719"><ele>600</ele><time>2024-02-10T11:16:58Z</time><name>PT1578</name></trkpt>
<trkpt lat="53.400598" lon="-1.894641"><ele>600</ele><time>2024-02-10T11:17:02Z</time><name>PT1579</name></trkpt>
<trkpt lat="53.400596" lon="-1.894556"><ele>600</ele><time>2024-02-10T11:17:06Z</time><name>PT1580</name></trkpt>
<trkpt lat="53.400592" lon="-1.894491"><ele>600</ele><time>2024-02-10T11:17:09Z</time><name>PT1581</name></trkpt>
<trkpt lat="53.400594" lon="-1.894433"><ele>600</ele><time>2024-02-10T11:17:12Z</time><name>PT1582</name></trkpt>
<trkpt lat="53.400598" lon="-1.894365"><ele>600</ele><time>2024-02-10T11:17:16Z</time><name>PT1583</name></trkpt>
<trkpt lat="53.400598" lon="-1.894322"><ele>600</ele><time>2024-02-10T11:17:19Z</time><name>PT1584</name></trkpt>
<trkpt lat="53.400603" lon="-1.894268"><ele>601</ele><time>2024-02-10T11:17:23Z</time><name>PT1585</name></trkpt>
<trkpt lat="53.400611" lon="-1.894235"><ele>602</ele><time>2024-02-10T11:17:26Z</time><name>PT1586</name></trkpt>
<trkpt lat="53.400620" lon="-1.894169"><ele>603</ele><time>2024-02-10T11:17:30Z</time><name>PT1587</name></trkpt>
<trkpt lat="53.400621" lon="-1.894126"><ele>603</ele><time>2024-02-10T11:17:33Z</time><name>PT1588</name></trkpt>
<trkpt lat="53.400620" lon="-1.894081"><ele>603</ele><time>2024-02-10T11:17:36Z</time><name>PT1589</name></trkpt>
<trkpt lat="53.400623" lon="-1.894006"><ele>602</ele><time>2024-02-10T11:17:40Z</time><name>PT1590</name></trkpt>
<trkpt lat="53.400622" lon="-1.893974"><ele>603</ele><time>2024-02-10T11:17:43Z</time><name>PT1591</name></trkpt>
<trkpt lat="53.400628" lon="-1.893943"><ele>603</ele><time>2024-02-10T11:17:46Z</time><name>PT1592</name></trkpt>
<trkpt lat="53.400615" lon="-1.893887"><ele>604</ele><time>2024-02-10T11:17:50Z</time><name>PT1593</name></trkpt>
<trkpt lat="53.400590" lon="-1.893822"><ele>604</ele><time>2024-02-10T11:17:54Z</time><name>PT1594</name></trkpt>
<trkpt lat="53.400582" lon="-1.893750"><ele>606</ele><time>2024-02-10T11:17:58Z</time><name>PT1595</name></trkpt>
<trkpt lat="53.400574" lon="-1.893688"><ele>606</ele><time>2024-02-10T11:18:02Z</time><name>PT1596</name></trkpt>
<trkpt lat="53.400561" lon="-1.893618"><ele>607</ele><time>2024-02-10T11:18:06Z</time><name>PT1597</name></trkpt>
<trkpt lat="53.400545" lon="-1.893550"><ele>607</ele><time>2024-02-10T11:18:10Z</time><name>PT1598</name></trkpt>
<trkpt lat="53.400538" lon="-1.893487"><ele>607</ele><time>2024-02-10T11:18:14Z</time><name>PT1599</name></trkpt>
<trkpt lat="53.400531" lon="-1.893408"><ele>607</ele><time>2024-02-10T11:18:18Z</time><name>PT1600</name></trkpt>
<trkpt lat="53.400516" lon="-1.893357"><ele>609</ele><time>2024-02-10T11:18:21Z</time><name>PT1601</name></trkpt>
<trkpt lat="53.400498" lon="-1.893322"><ele>609</ele><time>2024-02-10T11:18:24Z</time><name>PT1602</name></trkpt>
<trkpt lat="53.400480" lon="-1.893272"><ele>610</ele><time>2024-02-10T11:18:27Z</time><name>PT1603</name></trkpt>
<trkpt lat="53.400448" lon="-1.893216"><ele>610</ele><time>2024-02-10T11:18:31Z</time><name>PT1604</name></trkpt>
<trkpt lat="53.400432" lon="-1.893154"><ele>610</ele><time>2024-02-10T11:18:35Z</time><name>PT1605</name></trkpt>
<trkpt lat="53.400414" lon="-1.893113"><ele>611</ele><time>2024-02-10T11:18:38Z</time><name>PT1606</name></trkpt>
<trkpt lat="53.400395" lon="-1.893054"><ele>610</ele><time>2024-02-10T11:18:42Z</time><name>PT1607</name></trkpt>
<trkpt lat="53.400379" lon="-1.893014"><ele>610</ele><time>2024-02-10T11:18:45Z</time><name>PT1608</name></trkpt>
<trkpt lat="53.400358" lon="-1.892979"><ele>609</ele><time>2024-02-10T11:18:48Z</time><name>PT1609</name></trkpt>
<trkpt lat="53.400326" lon="-1.892924"><ele>609</ele><time>2024-02-10T11:18:52Z</time><name>PT1610</name></trkpt>
<trkpt lat="53.400305" lon="-1.892888"><ele>609</ele><time>2024-02-10T11:18:55Z</time><name>PT1611</name></trkpt>
<trkpt lat="53.400288" lon="-1.892837"><ele>610</ele><time>2024-02-10T11:18:59Z</time><name>PT1612</name></trkpt>
<trkpt lat="53.400276" lon="-1.892785"><ele>610</ele><time>2024-02-10T11:19:02Z</time><name>PT1613</name></trkpt>
<trkpt lat="53.400257" lon="-1.892754"><ele>609</ele><time>2024-02-10T11:19:05Z</time><name>PT1614</name></trkpt>
<trkpt lat="53.400234" lon="-1.892711"><ele>610</ele><time>2024-02-10T11:19:09Z</time><name>PT1615</name></trkpt>
<trkpt lat="53.400212" lon="-1.892651"><ele>609</ele><time>2024-02-10T11:19:13Z</time><name>PT1616</name></trkpt>
<trkpt lat="53.400177" lon="-1.892578"><ele>609</ele><time>2024-02-10T11:19:17Z</time><name>PT1617</name></trkpt>
<trkpt lat="53.400146" lon="-1.892517"><ele>609</ele><time>2024-02-10T11:19:21Z</time><name>PT1618</name></trkpt>
<trkpt lat="53.400114" lon="-1.892454"><ele>610</ele><time>2024-02-10T11:19:25Z</time><name>PT1619</name></trkpt>
<trkpt lat="53.400084" lon="-1.892395"><ele>610</ele><time>2024-02-10T11:19:29Z</time><name>PT1620</name></trkpt>
<trkpt lat="53.400068" lon="-1.892344"><ele>610</ele><time>2024-02-10T11:19:32Z</time><name>PT1621</name></trkpt>
<trkpt lat="53.400042" lon="-1.892293"><ele>610</ele><time>2024-02-10T11:19:36Z</time><name>PT1622</name></trkpt>
<trkpt lat="53.400027" lon="-1.892238"><ele>610</ele><time>2024-02-10T11:19:39Z</time><name>PT1623</name></trkpt>
<trkpt lat="53.400009" lon="-1.892179"><ele>611</ele><time>2024-02-10T11:19:42Z</time><name>PT1624</name></trkpt>
<trkpt lat="53.400000" lon="-1.892107"><ele>611</ele><time>2024-02-10T11:19:46Z</time><name>PT1625</name></trkpt>
<trkpt lat="53.399990" lon="-1.892054"><ele>611</ele><time>2024-02-10T11:19:49Z</time><name>PT1626</name></trkpt>
<trkpt lat="53.399982" lon="-1.891989"><ele>611</ele><time>2024-02-10T11:19:53Z</time><name>PT1627</name></trkpt>
<trkpt lat="53.399976" lon="-1.891945"><ele>611</ele><time>2024-02-10T11:19:56Z</time><name>PT1628</name></trkpt>
<trkpt lat="53.399975" lon="-1.891900"><ele>613</ele><time>2024-02-10T11:20:00Z</time><name>PT1629</name></trkpt>
<trkpt lat="53.399978" lon="-1.891874"><ele>613</ele><time>2024-02-10T11:20:03Z</time><name>PT1630</name></trkpt>
<trkpt lat="53.399981" lon="-1.891829"><ele>613</ele><time>2024-02-10T11:20:07Z</time><name>PT1631</name></trkpt>
<trkpt lat="53.399977" lon="-1.891792"><ele>613</ele><time>2024-02-10T11:20:10Z</time><name>PT1632</name></trkpt>
<trkpt lat="53.399972" lon="-1.891737"><ele>613</ele><time>2024-02-10T11:20:14Z</time><name>PT1633</name></trkpt>
<trkpt lat="53.399977" lon="-1.891662"><ele>614</ele><time>2024-02-10T11:20:18Z</time><name>PT1634</name></trkpt>
<trkpt lat="53.399972" lon="-1.891617"><ele>615</ele><time>2024-02-10T11:20:21Z</time><name>PT1635</name></trkpt>
<trkpt lat="53.399966" lon="-1.891558"><ele>616</ele><time>2024-02-10T11:20:25Z</time><name>PT1636</name></trkpt>
<trkpt lat="53.399961" lon="-1.891513"><ele>616</ele><time>2024-02-10T11:20:28Z</time><name>PT1637</name></trkpt>
<trkpt lat="53.399943" lon="-1.891474"><ele>616</ele><time>2024-02-10T11:20:31Z</time><name>PT1638</name></trkpt>
<trkpt lat="53.399930" lon="-1.891408"><ele>617</ele><time>2024-02-10T11:20:35Z</time><name>PT1639</name></trkpt>
<trkpt lat="53.399919" lon="-1.891338"><ele>617</ele><time>2024-02-10T11:20:39Z</time><name>PT1640</name></trkpt>
<trkpt lat="53.399914" lon="-1.891293"><ele>617</ele><time>2024-02-10T11:20:42Z</time><name>PT1641</name></trkpt>
<trkpt lat="53.399906" lon="-1.891243"><ele>618</ele><time>2024-02-10T11:20:45Z</time><name>PT1642</name></trkpt>
<trkpt lat="53.399885" lon="-1.891173"><ele>618</ele><time>2024-02-10T11:20:49Z</time><name>PT1643</name></trkpt>
<trkpt lat="53.399868" lon="-1.891125"><ele>618</ele><time>2024-02-10T11:20:52Z</time><name>PT1644</name></trkpt>
<trkpt lat="53.399849" lon="-1.891065"><ele>617</ele><time>2024-02-10T11:20:55Z</time><name>PT1645</name></trkpt>
<trkpt lat="53.399833" lon="-1.891008"><ele>617</ele><time>2024-02-10T11:20:58Z</time><name>PT1646</name></trkpt>
<trkpt lat="53.399809" lon="-1.890947"><ele>618</ele><time>2024-02-10T11:21:02Z</time><name>PT1647</name></trkpt>
<trkpt lat="53.399787" lon="-1.890880"><ele>618</ele><time>2024-02-10T11:21:06Z</time><name>PT1648</name></trkpt>
<trkpt lat="53.399773" lon="-1.890826"><ele>618</ele><time>2024-02-10T11:21:09Z</time><name>PT1649</name></trkpt>
<trkpt lat="53.399755" lon="-1.890767"><ele>618</ele><time>2024-02-10T11:21:12Z</time><name>PT1650</name></trkpt>
<trkpt lat="53.399731" lon="-1.890690"><ele>618</ele><time>2024-02-10T11:21:16Z</time><name>PT1651</name></trkpt>
<trkpt lat="53.399711" lon="-1.890612"><ele>618</ele><time>2024-02-10T11:21:20Z</time><name>PT1652</name></trkpt>
<trkpt lat="53.399694" lon="-1.890562"><ele>618</ele><time>2024-02-10T11:21:23Z</time><name>PT1653</name></trkpt>
<trkpt lat="53.399678" lon="-1.890478"><ele>618</ele><time>2024-02-10T11:21:27Z</time><name>PT1654</name></trkpt>
<trkpt lat="53.399663" lon="-1.890404"><ele>618</ele><time>2024-02-10T11:21:31Z</time><name>PT1655</name></trkpt>
<trkpt lat="53.399648" lon="-1.890335"><ele>619</ele><time>2024-02-10T11:21:35Z</time><name>PT1656</name></trkpt>
<trkpt lat="53.399635" lon="-1.890268"><ele>619</ele><time>2024-02-10T11:21:39Z</time><name>PT1657</name></trkpt>
<trkpt lat="53.399627" lon="-1.890223"><ele>619</ele><time>2024-02-10T11:21:42Z</time><name>PT1658</name></trkpt>
<trkpt lat="53.399614" lon="-1.890188"><ele>618</ele><time>2024-02-10T11:21:45Z</time><name>PT1659</name></trkpt>
<trkpt lat="53.399611" lon="-1.890151"><ele>618</ele><time>2024-02-10T11:21:48Z</time><name>PT1660</name></trkpt>
<trkpt lat="53.399615" lon="-1.890100"><ele>618</ele><time>2024-02-10T11:21:52Z</time><name>PT1661</name></trkpt>
<trkpt lat="53.399618" lon="-1.890049"><ele>618</ele><time>2024-02-10T11:21:56Z</time><name>PT1662</name></trkpt>
<trkpt lat="53.399604" lon="-1.890006"><ele>618</ele><time>2024-02-10T11:21:59Z</time><name>PT1663</name></trkpt>
<trkpt lat="53.399589" lon="-1.889958"><ele>618</ele><time>2024-02-10T11:22:02Z</time><name>PT1664</name></trkpt>
<trkpt lat="53.399567" lon="-1.889904"><ele>618</ele><time>2024-02-10T11:22:06Z</time><name>PT1665</name></trkpt>
<trkpt lat="53.399565" lon="-1.889885"><ele>616</ele><time>2024-02-10T11:22:09Z</time><name>PT1666</name></trkpt>
<trkpt lat="53.399563" lon="-1.889851"><ele>615</ele><time>2024-02-10T11:22:13Z</time><name>PT1667</name></trkpt>
<trkpt lat="53.399558" lon="-1.889826"><ele>614</ele><time>2024-02-10T11:22:16Z</time><name>PT1668</name></trkpt>
<trkpt lat="53.399539" lon="-1.889789"><ele>613</ele><time>2024-02-10T11:22:20Z</time><name>PT1669</name></trkpt>
<trkpt lat="53.399521" lon="-1.889741"><ele>612</ele><time>2024-02-10T11:22:23Z</time><name>PT1670</name></trkpt>
<trkpt lat="53.399515" lon="-1.889692"><ele>613</ele><time>2024-02-10T11:22:26Z</time><name>PT1671</name></trkpt>
<trkpt lat="53.399514" lon="-1.889621"><ele>613</ele><time>2024-02-10T11:22:30Z</time><name>PT1672</name></trkpt>
<trkpt lat="53.399520" lon="-1.889537"><ele>613</ele><time>2024-02-10T11:22:34Z</time><name>PT1673</name></trkpt>
<trkpt lat="53.399528" lon="-1.889480"><ele>613</ele><time>2024-02-10T11:22:37Z</time><name>PT1674</name></trkpt>
<trkpt lat="53.399535" lon="-1.889395"><ele>612</ele><time>2024-02-10T11:22:41Z</time><name>PT1675</name></trkpt>
<trkpt lat="53.399549" lon="-1.889318"><ele>612</ele><time>2024-02-10T11:22:45Z</time><name>PT1676</name></trkpt>
<trkpt lat="53.399564" lon="-1.889250"><ele>612</ele><time>2024-02-10T11:22:49Z</time><name>PT1677</name></trkpt>
<trkpt lat="53.399574" lon="-1.889193"><ele>613</ele><time>2024-02-10T11:22:52Z</time><name>PT1678</name></trkpt>
<trkpt lat="53.399581" lon="-1.889143"><ele>613</ele><time>2024-02-10T11:22:55Z</time><name>PT1679</name></trkpt>
<trkpt lat="53.399588" lon="-1.889078"><ele>612</ele><time>2024-02-10T11:22:59Z</time><name>PT1680</name></trkpt>
<trkpt lat="53.399600" lon="-1.889027"><ele>612</ele><time>2024-02-10T11:23:02Z</time><name>PT1681</name></trkpt>
<trkpt lat="53.399605" lon="-1.888957"><ele>612</ele><time>2024-02-10T11:23:06Z</time><name>PT1682</name></trkpt>
<trkpt lat="53.399614" lon="-1.888913"><ele>612</ele><time>2024-02-10T11:23:09Z</time><name>PT1683</name></trkpt>
<trkpt lat="53.399632" lon="-1.888832"><ele>611</ele><time>2024-02-10T11:23:13Z</time><name>PT1684</name></trkpt>
<trkpt lat="53.399646" lon="-1.888774"><ele>611</ele><time>2024-02-10T11:23:16Z</time><name>PT1685</name></trkpt>
<trkpt lat="53.399656" lon="-1.888688"><ele>611</ele><time>2024-02-10T11:23:20Z</time><name>PT1686</name></trkpt>
<trkpt lat="53.399654" lon="-1.888630"><ele>611</ele><time>2024-02-10T11:23:23Z</time><name>PT1687</name></trkpt>
<trkpt lat="53.399653" lon="-1.888570"><ele>611</ele><time>2024-02-10T11:23:26Z</time><name>PT1688</name></trkpt>
<trkpt lat="53.399654" lon="-1.888510"><ele>611</ele><time>2024-02-10T11:23:29Z</time><name>PT1689</name></trkpt>
<trkpt lat="53.399652" lon="-1.888447"><ele>611</ele><time>2024-02-10T11:23:33Z</time><name>PT1690</name></trkpt>
<trkpt lat="53.399642" lon="-1.888380"><ele>610</ele><time>2024-02-10T11:23:37Z</time><name>PT1691</name></trkpt>
<trkpt lat="53.399642" lon="-1.888326"><ele>610</ele><time>2024-02-10T11:23:40Z</time><name>PT1692</name></trkpt>
<trkpt lat="53.399639" lon="-1.888252"><ele>609</ele><time>2024-02-10T11:23:44Z</time><name>PT1693</name></trkpt>
<trkpt lat="53.399635" lon="-1.888172"><ele>609</ele><time>2024-02-10T11:23:48Z</time><name>PT1694</name></trkpt>
<trkpt lat="53.399636" lon="-1.888095"><ele>609</ele><time>2024-02-10T11:23:52Z</time><name>PT1695</name></trkpt>
<trkpt lat="53.399635" lon="-1.888035"><ele>608</ele><time>2024-02-10T11:23:55Z</time><name>PT1696</name></trkpt>
<trkpt lat="53.399627" lon="-1.887956"><ele>608</ele><time>2024-02-10T11:23:59Z</time><name>PT1697</name></trkpt>
<trkpt lat="53.399623" lon="-1.887903"><ele>608</ele><time>2024-02-10T11:24:02Z</time><name>PT1698</name></trkpt>
<trkpt lat="53.399617" lon="-1.887835"><ele>607</ele><time>2024-02-10T11:24:06Z</time><name>PT1699</name></trkpt>
<trkpt lat="53.399603" lon="-1.887767"><ele>607</ele><time>2024-02-10T11:24:10Z</time><name>PT1700</name></trkpt>
<trkpt lat="53.399593" lon="-1.887717"><ele>607</ele><time>2024-02-10T11:24:13Z</time><name>PT1701</name></trkpt>
<trkpt lat="53.399579" lon="-1.887689"><ele>607</ele><time>2024-02-10T11:24:16Z</time><name>PT1702</name></trkpt>
<trkpt lat="53.399565" lon="-1.887642"><ele>606</ele><time>2024-02-10T11:24:20Z</time><name>PT1703</name></trkpt>
<trkpt lat="53.399547" lon="-1.887580"><ele>606</ele><time>2024-02-10T11:24:24Z</time><name>PT1704</name></trkpt>
<trkpt lat="53.399520" lon="-1.887502"><ele>606</ele><time>2024-02-10T11:24:28Z</time><name>PT1705</name></trkpt>
<trkpt lat="53.399504" lon="-1.887450"><ele>606</ele><time>2024-02-10T11:24:31Z</time><name>PT1706</name></trkpt>
<trkpt lat="53.399481" lon="-1.887388"><ele>606</ele><time>2024-02-10T11:24:35Z</time><name>PT1707</name></trkpt>
<trkpt lat="53.399461" lon="-1.887325"><ele>606</ele><time>2024-02-10T11:24:38Z</time><name>PT1708</name></trkpt>
<trkpt lat="53.399447" lon="-1.887260"><ele>606</ele><time>2024-02-10T11:24:42Z</time><name>PT1709</name></trkpt>
<trkpt lat="53.399435" lon="-1.887216"><ele>606</ele><time>2024-02-10T11:24:45Z</time><name>PT1710</name></trkpt>
<trkpt lat="53.399432" lon="-1.887145"><ele>607</ele><time>2024-02-10T11:24:49Z</time><name>PT1711</name></trkpt>
<trkpt lat="53.399424" lon="-1.887098"><ele>607</ele><time>2024-02-10T11:24:52Z</time><name>PT1712</name></trkpt>
<trkpt lat="53.399405" lon="-1.887036"><ele>608</ele><time>2024-02-10T11:24:56Z</time><name>PT1713</name></trkpt>
<trkpt lat="53.399383" lon="-1.886982"><ele>608</ele><time>2024-02-10T11:25:00Z</time><name>PT1714</name></trkpt>
<trkpt lat="53.399367" lon="-1.886938"><ele>608</ele><time>2024-02-10T11:25:03Z</time><name>PT1715</name></trkpt>
<trkpt lat="53.399352" lon="-1.886878"><ele>607</ele><time>2024-02-10T11:25:07Z</time><name>PT1716</name></trkpt>
<trkpt lat="53.399342" lon="-1.886824"><ele>607</ele><time>2024-02-10T11:25:11Z</time><name>PT1717</name></trkpt>
<trkpt lat="53.399338" lon="-1.886787"><ele>607</ele><time>2024-02-10T11:25:14Z</time><name>PT1718</name></trkpt>
<trkpt lat="53.399339" lon="-1.886743"><ele>607</ele><time>2024-02-10T11:25:18Z</time><name>PT1719</name></trkpt>
<trkpt lat="53.399326" lon="-1.886678"><ele>606</ele><time>2024-02-10T11:25:22Z</time><name>PT1720</name></trkpt>
<trkpt lat="53.399311" lon="-1.886635"><ele>607</ele><time>2024-02-10T11:25:25Z</time><name>PT1721</name></trkpt>
<trkpt lat="53.399297" lon="-1.886569"><ele>607</ele><time>2024-02-10T11:25:29Z</time><name>PT1722</name></trkpt>
<trkpt lat="53.399279" lon="-1.886532"><ele>607</ele><time>2024-02-10T11:25:32Z</time><name>PT1723</name></trkpt>
<trkpt lat="53.399263" lon="-1.886486"><ele>607</ele><time>2024-02-10T11:25:35Z</time><name>PT1724</name></trkpt>
<trkpt lat="53.399243" lon="-1.886422"><ele>608</ele><time>2024-02-10T11:25:39Z</time><name>PT1725</name></trkpt>
<trkpt lat="53.399239" lon="-1.886377"><ele>608</ele><time>2024-02-10T11:25:43Z</time><name>PT1726</name></trkpt>
<trkpt lat="53.399226" lon="-1.886335"><ele>608</ele><time>2024-02-10T11:25:46Z</time><name>PT1727</name></trkpt>
<trkpt lat="53.399216" lon="-1.886291"><ele>608</ele><time>2024-02-10T11:25:50Z</time><name>PT1728</name></trkpt>
<trkpt lat="53.399189" lon="-1.886238"><ele>609</ele><time>2024-02-10T11:25:54Z</time><name>PT1729</name></trkpt>
<trkpt lat="53.399177" lon="-1.886210"><ele>609</ele><time>2024-02-10T11:25:57Z</time><name>PT1730</name></trkpt>
<trkpt lat="53.399170" lon="-1.886176"><ele>609</ele><time>2024-02-10T11:26:00Z</time><name>PT1731</name></trkpt>
<trkpt lat="53.399157" lon="-1.886136"><ele>610</ele><time>2024-02-10T11:26:04Z</time><name>PT1732</name></trkpt>
<trkpt lat="53.399146" lon="-1.886099"><ele>610</ele><time>2024-02-10T11:26:07Z</time><name>PT1733</name></trkpt>
<trkpt lat="53.399125" lon="-1.886046"><ele>609</ele><time>2024-02-10T11:26:11Z</time><name>PT1734</name></trkpt>
<trkpt lat="53.399105" lon="-1.886007"><ele>609</ele><time>2024-02-10T11:26:14Z</time><name>PT1735</name></trkpt>
<trkpt lat="53.399091" lon="-1.885961"><ele>609</ele><time>2024-02-10T11:26:18Z</time><name>PT1736</name></trkpt>
<trkpt lat="53.399074" lon="-1.885912"><ele>611</ele><time>2024-02-10T11:26:22Z</time><name>PT1737</name></trkpt>
<trkpt lat="53.399051" lon="-1.885863"><ele>610</ele><time>2024-02-10T11:26:26Z</time><name>PT1738</name></trkpt>
<trkpt lat="53.399050" lon="-1.885812"><ele>610</ele><time>2024-02-10T11:26:30Z</time><name>PT1739</name></trkpt>
<trkpt lat="53.399065" lon="-1.885785"><ele>610</ele><time>2024-02-10T11:26:33Z</time><name>PT1740</name></trkpt>
<trkpt lat="53.399063" lon="-1.885738"><ele>611</ele><time>2024-02-10T11:26:37Z</time><name>PT1741</name></trkpt>
<trkpt lat="53.399052" lon="-1.885681"><ele>611</ele><time>2024-02-10T11:26:41Z</time><name>PT1742</name></trkpt>
<trkpt lat="53.399040" lon="-1.885652"><ele>612</ele><time>2024-02-10T11:26:44Z</time><name>PT1743</name></trkpt>
<trkpt lat="53.399019" lon="-1.885622"><ele>611</ele><time>2024-02-10T11:26:47Z</time><name>PT1744</name></trkpt>
<trkpt lat="53.398991" lon="-1.885594"><ele>611</ele><time>2024-02-10T11:26:51Z</time><name>PT1745</name></trkpt>
<trkpt lat="53.398960" lon="-1.885549"><ele>611</ele><time>2024-02-10T11:26:55Z</time><name>PT1746</name></trkpt>
<trkpt lat="53.398943" lon="-1.885514"><ele>610</ele><time>2024-02-10T11:26:58Z</time><name>PT1747</name></trkpt>
<trkpt lat="53.398915" lon="-1.885461"><ele>609</ele><time>2024-02-10T11:27:02Z</time><name>PT1748</name></trkpt>
<trkpt lat="53.398903" lon="-1.885392"><ele>608</ele><time>2024-02-10T11:27:06Z</time><name>PT1749</name></trkpt>
<trkpt lat="53.398896" lon="-1.885347"><ele>609</ele><time>2024-02-10T11:27:09Z</time><name>PT1750</name></trkpt>
<trkpt lat="53.398886" lon="-1.885298"><ele>608</ele><time>2024-02-10T11:27:12Z</time><name>PT1751</name></trkpt>
<trkpt lat="53.398877" lon="-1.885244"><ele>607</ele><time>2024-02-10T11:27:16Z</time><name>PT1752</name></trkpt>
<trkpt lat="53.398868" lon="-1.885201"><ele>608</ele><time>2024-02-10T11:27:19Z</time><name>PT1753</name></trkpt>
<trkpt lat="53.398844" lon="-1.885156"><ele>608</ele><time>2024-02-10T11:27:22Z</time><name>PT1754</name></trkpt>
<trkpt lat="53.398819" lon="-1.885084"><ele>609</ele><time>2024-02-10T11:27:26Z</time><name>PT1755</name></trkpt>
<trkpt lat="53.398800" lon="-1.885035"><ele>609</ele><time>2024-02-10T11:27:29Z</time><name>PT1756</name></trkpt>
<trkpt lat="53.398785" lon="-1.884975"><ele>609</ele><time>2024-02-10T11:27:33Z</time><name>PT1757</name></trkpt>
<trkpt lat="53.398766" lon="-1.884926"><ele>609</ele><time>2024-02-10T11:27:36Z</time><name>PT1758</name></trkpt>
<trkpt lat="53.398752" lon="-1.884881"><ele>610</ele><time>2024-02-10T11:27:39Z</time><name>PT1759</name></trkpt>
<trkpt lat="53.398732" lon="-1.884820"><ele>610</ele><time>2024-02-10T11:27:42Z</time><name>PT1760</name></trkpt>
<trkpt lat="53.398699" lon="-1.884751"><ele>610</ele><time>2024-02-10T11:27:46Z</time><name>PT1761</name></trkpt>
<trkpt lat="53.398679" lon="-1.884716"><ele>611</ele><time>2024-02-10T11:27:49Z</time><name>PT1762</name></trkpt>
<trkpt lat="53.398670" lon="-1.884668"><ele>610</ele><time>2024-02-10T11:27:52Z</time><name>PT1763</name></trkpt>
<trkpt lat="53.398645" lon="-1.884626"><ele>610</ele><time>2024-02-10T11:27:56Z</time><name>PT1764</name></trkpt>
<trkpt lat="53.398627" lon="-1.884584"><ele>610</ele><time>2024-02-10T11:27:59Z</time><name>PT1765</name></trkpt>
<trkpt lat="53.398618" lon="-1.884531"><ele>610</ele><time>2024-02-10T11:28:02Z</time><name>PT1766</name></trkpt>
<trkpt lat="53.398599" lon="-1.884473"><ele>610</ele><time>2024-02-10T11:28:06Z</time><name>PT1767</name></trkpt>
<trkpt lat="53.398589" lon="-1.884414"><ele>610</ele><time>2024-02-10T11:28:10Z</time><name>PT1768</name></trkpt>
<trkpt lat="53.398583" lon="-1.884364"><ele>611</ele><time>2024-02-10T11:28:13Z</time><name>PT1769</name></trkpt>
<trkpt lat="53.398555" lon="-1.884316"><ele>611</ele><time>2024-02-10T11:28:17Z</time><name>PT1770</name></trkpt>
<trkpt lat="53.398534" lon="-1.884259"><ele>611</ele><time>2024-02-10T11:28:20Z</time><name>PT1771</name></trkpt>
<trkpt lat="53.398513" lon="-1.884192"><ele>610</ele><time>2024-02-10T11:28:24Z</time><name>PT1772</name></trkpt>
<trkpt lat="53.398497" lon="-1.884138"><ele>611</ele><time>2024-02-10T11:28:27Z</time><name>PT1773</name></trkpt>
<trkpt lat="53.398479" lon="-1.884066"><ele>611</ele><time>2024-02-10T11:28:31Z</time><name>PT1774</name></trkpt>
<trkpt lat="53.398468" lon="-1.884012"><ele>611</ele><time>2024-02-10T11:28:34Z</time><name>PT1775</name></trkpt>
<trkpt lat="53.398453" lon="-1.883958"><ele>612</ele><time>2024-02-10T11:28:37Z</time><name>PT1776</name></trkpt>
<trkpt lat="53.398445" lon="-1.883895"><ele>612</ele><time>2024-02-10T11:28:41Z</time><name>PT1777</name></trkpt>
<trkpt lat="53.398454" lon="-1.883855"><ele>610</ele><time>2024-02-10T11:28:44Z</time><name>PT1778</name></trkpt>
<trkpt lat="53.398463" lon="-1.883805"><ele>610</ele><time>2024-02-10T11:28:48Z</time><name>PT1779</name></trkpt>
<trkpt lat="53.398454" lon="-1.883751"><ele>609</ele><time>2024-02-10T11:28:52Z</time><name>PT1780</name></trkpt>
<trkpt lat="53.398450" lon="-1.883687"><ele>609</ele><time>2024-02-10T11:28:56Z</time><name>PT1781</name></trkpt>
<trkpt lat="53.398432" lon="-1.883621"><ele>610</ele><time>2024-02-10T11:29:00Z</time><name>PT1782</name></trkpt>
<trkpt lat="53.398407" lon="-1.883575"><ele>609</ele><time>2024-02-10T11:29:03Z</time><name>PT1783</name></trkpt>
<trkpt lat="53.398390" lon="-1.883520"><ele>609</ele><time>2024-02-10T11:29:06Z</time><name>PT1784</name></trkpt>
<trkpt lat="53.398365" lon="-1.883472"><ele>609</ele><time>2024-02-10T11:29:09Z</time><name>PT1785</name></trkpt>
<trkpt lat="53.398337" lon="-1.883400"><ele>611</ele><time>2024-02-10T11:29:13Z</time><name>PT1786</name></trkpt>
<trkpt lat="53.398304" lon="-1.883362"><ele>609</ele><time>2024-02-10T11:29:17Z</time><name>PT1787</name></trkpt>
<trkpt lat="53.398279" lon="-1.883315"><ele>609</ele><time>2024-02-10T11:29:20Z</time><name>PT1788</name></trkpt>
<trkpt lat="53.398256" lon="-1.883262"><ele>609</ele><time>2024-02-10T11:29:24Z</time><name>PT1789</name></trkpt>
<trkpt lat="53.398240" lon="-1.883205"><ele>608</ele><time>2024-02-10T11:29:28Z</time><name>PT1790</name></trkpt>
<trkpt lat="53.398233" lon="-1.883149"><ele>608</ele><time>2024-02-10T11:29:32Z</time><name>PT1791</name></trkpt>
<trkpt lat="53.398217" lon="-1.883107"><ele>610</ele><time>2024-02-10T11:29:35Z</time><name>PT1792</name></trkpt>
<trkpt lat="53.398201" lon="-1.883052"><ele>609</ele><time>2024-02-10T11:29:39Z</time><name>PT1793</name></trkpt>
<trkpt lat="53.398188" lon="-1.882997"><ele>608</ele><time>2024-02-10T11:29:43Z</time><name>PT1794</name></trkpt>
<trkpt lat="53.398156" lon="-1.882964"><ele>608</ele><time>2024-02-10T11:29:47Z</time><name>PT1795</name></trkpt>
<trkpt lat="53.398141" lon="-1.882925"><ele>608</ele><time>2024-02-10T11:29:50Z</time><name>PT1796</name></trkpt>
<trkpt lat="53.398116" lon="-1.882875"><ele>609</ele><time>2024-02-10T11:29:54Z</time><name>PT1797</name></trkpt>
<trkpt lat="53.398098" lon="-1.882809"><ele>608</ele><time>2024-02-10T11:29:58Z</time><name>PT1798</name></trkpt>
<trkpt lat="53.398088" lon="-1.882756"><ele>608</ele><time>2024-02-10T11:30:01Z</time><name>PT1799</name></trkpt>
<trkpt lat="53.398078" lon="-1.882697"><ele>608</ele><time>2024-02-10T11:30:04Z</time><name>PT1800</name></trkpt>
<trkpt lat="53.398067" lon="-1.882628"><ele>608</ele><time>2024-02-10T11:30:08Z</time><name>PT1801</name></trkpt>
<trkpt lat="53.398048" lon="-1.882580"><ele>608</ele><time>2024-02-10T11:30:11Z</time><name>PT1802</name></trkpt>
<trkpt lat="53.398035" lon="-1.882532"><ele>608</ele><time>2024-02-10T11:30:14Z</time><name>PT1803</name></trkpt>
<trkpt lat="53.398015" lon="-1.882490"><ele>608</ele><time>2024-02-10T11:30:17Z</time><name>PT1804</name></trkpt>
<trkpt lat="53.397990" lon="-1.882453"><ele>608</ele><time>2024-02-10T11:30:20Z</time><name>PT1805</name></trkpt>
<trkpt lat="53.397973" lon="-1.882404"><ele>608</ele><time>2024-02-10T11:30:23Z</time><name>PT1806</name></trkpt>
<trkpt lat="53.397958" lon="-1.882356"><ele>608</ele><time>2024-02-10T11:30:27Z</time><name>PT1807</name></trkpt>
<trkpt lat="53.397954" lon="-1.882301"><ele>607</ele><time>2024-02-10T11:30:31Z</time><name>PT1808</name></trkpt>
<trkpt lat="53.397925" lon="-1.882261"><ele>606</ele><time>2024-02-10T11:30:35Z</time><name>PT1809</name></trkpt>
<trkpt lat="53.397910" lon="-1.882241"><ele>606</ele><time>2024-02-10T11:30:38Z</time><name>PT1810</name></trkpt>
<trkpt lat="53.397889" lon="-1.882195"><ele>605</ele><time>2024-02-10T11:30:42Z</time><name>PT1811</name></trkpt>
<trkpt lat="53.397864" lon="-1.882151"><ele>606</ele><time>2024-02-10T11:30:45Z</time><name>PT1812</name></trkpt>
<trkpt lat="53.397842" lon="-1.882087"><ele>606</ele><time>2024-02-10T11:30:49Z</time><name>PT1813</name></trkpt>
<trkpt lat="53.397828" lon="-1.882033"><ele>607</ele><time>2024-02-10T11:30:52Z</time><name>PT1814</name></trkpt>
<trkpt lat="53.397816" lon="-1.881986"><ele>607</ele><time>2024-02-10T11:30:55Z</time><name>PT1815</name></trkpt>
<trkpt lat="53.397799" lon="-1.881918"><ele>607</ele><time>2024-02-10T11:30:59Z</time><name>PT1816</name></trkpt>
<trkpt lat="53.397776" lon="-1.881871"><ele>607</ele><time>2024-02-10T11:31:02Z</time><name>PT1817</name></trkpt>
<trkpt lat="53.397754" lon="-1.881808"><ele>608</ele><time>2024-02-10T11:31:06Z</time><name>PT1818</name></trkpt>
<trkpt lat="53.397752" lon="-1.881761"><ele>608</ele><time>2024-02-10T11:31:09Z</time><name>PT1819</name></trkpt>
<trkpt lat="53.397757" lon="-1.881688"><ele>609</ele><time>2024-02-10T11:31:13Z</time><name>PT1820</name></trkpt>
<trkpt lat="53.397755" lon="-1.881628"><ele>609</ele><time>2024-02-10T11:31:17Z</time><name>PT1821</name></trkpt>
<trkpt lat="53.397768" lon="-1.881573"><ele>609</ele><time>2024-02-10T11:31:21Z</time><name>PT1822</name></trkpt>
<trkpt lat="53.397757" lon="-1.881528"><ele>609</ele><time>2024-02-10T11:31:24Z</time><name>PT1823</name></trkpt>
<trkpt lat="53.397749" lon="-1.881498"><ele>609</ele><time>2024-02-10T11:31:27Z</time><name>PT1824</name></trkpt>
<trkpt lat="53.397747" lon="-1.881444"><ele>609</ele><time>2024-02-10T11:31:31Z</time><name>PT1825</name></trkpt>
<trkpt lat="53.397747" lon="-1.881396"><ele>610</ele><time>2024-02-10T11:31:34Z</time><name>PT1826</name></trkpt>
<trkpt lat="53.397757" lon="-1.881338"><ele>610</ele><time>2024-02-10T11:31:37Z</time><name>PT1827</name></trkpt>
<trkpt lat="53.397764" lon="-1.881281"><ele>610</ele><time>2024-02-10T11:31:40Z</time><name>PT1828</name></trkpt>
<trkpt lat="53.397774" lon="-1.881231"><ele>611</ele><time>2024-02-10T11:31:43Z</time><name>PT1829</name></trkpt>
<trkpt lat="53.397781" lon="-1.881166"><ele>611</ele><time>2024-02-10T11:31:47Z</time><name>PT1830</name></trkpt>
<trkpt lat="53.397785" lon="-1.881112"><ele>612</ele><time>2024-02-10T11:31:50Z</time><name>PT1831</name></trkpt>
<trkpt lat="53.397782" lon="-1.881063"><ele>612</ele><time>2024-02-10T11:31:53Z</time><name>PT1832</name></trkpt>
<trkpt lat="53.397785" lon="-1.880989"><ele>612</ele><time>2024-02-10T11:31:57Z</time><name>PT1833</name></trkpt>
<trkpt lat="53.397779" lon="-1.880949"><ele>612</ele><time>2024-02-10T11:32:00Z</time><name>PT1834</name></trkpt>
<trkpt lat="53.397780" lon="-1.880908"><ele>612</ele><time>2024-02-10T11:32:03Z</time><name>PT1835</name></trkpt>
<trkpt lat="53.397758" lon="-1.880910"><ele>611</ele><time>2024-02-10T11:32:06Z</time><name>PT1836</name></trkpt>
<trkpt lat="53.397744" lon="-1.880886"><ele>611</ele><time>2024-02-10T11:32:10Z</time><name>PT1837</name></trkpt>
<trkpt lat="53.397727" lon="-1.880846"><ele>611</ele><time>2024-02-10T11:32:14Z</time><name>PT1838</name></trkpt>
<trkpt lat="53.397712" lon="-1.880784"><ele>610</ele><time>2024-02-10T11:32:18Z</time><name>PT1839</name></trkpt>
<trkpt lat="53.397695" lon="-1.880735"><ele>610</ele><time>2024-02-10T11:32:22Z</time><name>PT1840</name></trkpt>
<trkpt lat="53.397689" lon="-1.880691"><ele>609</ele><time>2024-02-10T11:32:25Z</time><name>PT1841</name></trkpt>
<trkpt lat="53.397666" lon="-1.880647"><ele>609</ele><time>2024-02-10T11:32:29Z</time><name>PT1842</name></trkpt>
<trkpt lat="53.397628" lon="-1.880607"><ele>609</ele><time>2024-02-10T11:32:33Z</time><name>PT1843</name></trkpt>
<trkpt lat="53.397595" lon="-1.880575"><ele>609</ele><time>2024-02-10T11:32:36Z</time><name>PT1844</name></trkpt>
<trkpt lat="53.397576" lon="-1.880569"><ele>607</ele><time>2024-02-10T11:32:39Z</time><name>PT1845</name></trkpt>
<trkpt lat="53.397553" lon="-1.880533"><ele>608</ele><time>2024-02-10T11:32:42Z</time><name>PT1846</name></trkpt>
<trkpt lat="53.397535" lon="-1.880500"><ele>607</ele><time>2024-02-10T11:32:45Z</time><name>PT1847</name></trkpt>
<trkpt lat="53.397515" lon="-1.880433"><ele>607</ele><time>2024-02-10T11:32:49Z</time><name>PT1848</name></trkpt>
<trkpt lat="53.397499" lon="-1.880377"><ele>607</ele><time>2024-02-10T11:32:52Z</time><name>PT1849</name></trkpt>
<trkpt lat="53.397487" lon="-1.880335"><ele>607</ele><time>2024-02-10T11:32:55Z</time><name>PT1850</name></trkpt>
<trkpt lat="53.397458" lon="-1.880286"><ele>606</ele><time>2024-02-10T11:32:59Z</time><name>PT1851</name></trkpt>
<trkpt lat="53.397437" lon="-1.880242"><ele>606</ele><time>2024-02-10T11:33:02Z</time><name>PT1852</name></trkpt>
<trkpt lat="53.397418" lon="-1.880206"><ele>606</ele><time>2024-02-10T11:33:05Z</time><name>PT1853</name></trkpt>
<trkpt lat="53.397400" lon="-1.880142"><ele>606</ele><time>2024-02-10T11:33:09Z</time><name>PT1854</name></trkpt>
<trkpt lat="53.397381" lon="-1.880080"><ele>606</ele><time>2024-02-10T11:33:13Z</time><name>PT1855</name></trkpt>
<trkpt lat="53.397374" lon="-1.880003"><ele>606</ele><time>2024-02-10T11:33:17Z</time><name>PT1856</name></trkpt>
<trkpt lat="53.397369" lon="-1.879950"><ele>606</ele><time>2024-02-10T11:33:20Z</time><name>PT1857</name></trkpt>
<trkpt lat="53.397358" lon="-1.879908"><ele>606</ele><time>2024-02-10T11:33:23Z</time><name>PT1858</name></trkpt>
<trkpt lat="53.397341" lon="-1.879856"><ele>605</ele><time>2024-02-10T11:33:26Z</time><name>PT1859</name></trkpt>
<trkpt lat="53.397314" lon="-1.879776"><ele>605</ele><time>2024-02-10T11:33:30Z</time><name>PT1860</name></trkpt>
<trkpt lat="53.397307" lon="-1.879721"><ele>606</ele><time>2024-02-10T11:33:33Z</time><name>PT1861</name></trkpt>
<trkpt lat="53.397301" lon="-1.879664"><ele>605</ele><time>2024-02-10T11:33:36Z</time><name>PT1862</name></trkpt>
<trkpt lat="53.397296" lon="-1.879580"><ele>606</ele><time>2024-02-10T11:33:40Z</time><name>PT1863</name></trkpt>
<trkpt lat="53.397282" lon="-1.879536"><ele>607</ele><time>2024-02-10T11:33:43Z</time><name>PT1864</name></trkpt>
<trkpt lat="53.397287" lon="-1.879481"><ele>606</ele><time>2024-02-10T11:33:47Z</time><name>PT1865</name></trkpt>
<trkpt lat="53.397290" lon="-1.879428"><ele>605</ele><time>2024-02-10T11:33:51Z</time><name>PT1866</name></trkpt>
<trkpt lat="53.397287" lon="-1.879377"><ele>605</ele><time>2024-02-10T11:33:54Z</time><name>PT1867</name></trkpt>
<trkpt lat="53.397285" lon="-1.879300"><ele>605</ele><time>2024-02-10T11:33:58Z</time><name>PT1868</name></trkpt>
<trkpt lat="53.397291" lon="-1.879235"><ele>605</ele><time>2024-02-10T11:34:02Z</time><name>PT1869</name></trkpt>
<trkpt lat="53.397317" lon="-1.879162"><ele>605</ele><time>2024-02-10T11:34:06Z</time><name>PT1870</name></trkpt>
<trkpt lat="53.397326" lon="-1.879112"><ele>606</ele><time>2024-02-10T11:34:09Z</time><name>PT1871</name></trkpt>
<trkpt lat="53.397331" lon="-1.879063"><ele>605</ele><time>2024-02-10T11:34:12Z</time><name>PT1872</name></trkpt>
<trkpt lat="53.397332" lon="-1.878988"><ele>605</ele><time>2024-02-10T11:34:16Z</time><name>PT1873</name></trkpt>
<trkpt lat="53.397347" lon="-1.878934"><ele>605</ele><time>2024-02-10T11:34:20Z</time><name>PT1874</name></trkpt>
<trkpt lat="53.397357" lon="-1.878874"><ele>605</ele><time>2024-02-10T11:34:24Z</time><name>PT1875</name></trkpt>
<trkpt lat="53.397372" lon="-1.878820"><ele>605</ele><time>2024-02-10T11:34:28Z</time><name>PT1876</name></trkpt>
<trkpt lat="53.397382" lon="-1.878773"><ele>606</ele><time>2024-02-10T11:34:31Z</time><name>PT1877</name></trkpt>
<trkpt lat="53.397380" lon="-1.878714"><ele>606</ele><time>2024-02-10T11:34:35Z</time><name>PT1878</name></trkpt>
<trkpt lat="53.397378" lon="-1.878661"><ele>606</ele><time>2024-02-10T11:34:38Z</time><name>PT1879</name></trkpt>
<trkpt lat="53.397380" lon="-1.878617"><ele>606</ele><time>2024-02-10T11:34:42Z</time><name>PT1880</name></trkpt>
<trkpt lat="53.397368" lon="-1.878574"><ele>606</ele><time>2024-02-10T11:34:45Z</time><name>PT1881</name></trkpt>
<trkpt lat="53.397362" lon="-1.878537"><ele>606</ele><time>2024-02-10T11:34:48Z</time><name>PT1882</name></trkpt>
<trkpt lat="53.397359" lon="-1.878487"><ele>607</ele><time>2024-02-10T11:34:51Z</time><name>PT1883</name></trkpt>
<trkpt lat="53.397341" lon="-1.878421"><ele>607</ele><time>2024-02-10T11:34:55Z</time><name>PT1884</name></trkpt>
<trkpt lat="53.397328" lon="-1.878356"><ele>607</ele><time>2024-02-10T11:34:59Z</time><name>PT1885</name></trkpt>
<trkpt lat="53.397317" lon="-1.878305"><ele>607</ele><time>2024-02-10T11:35:02Z</time><name>PT1886</name></trkpt>
<trkpt lat="53.397303" lon="-1.878229"><ele>608</ele><time>2024-02-10T11:35:06Z</time><name>PT1887</name></trkpt>
<trkpt lat="53.397295" lon="-1.878150"><ele>608</ele><time>2024-02-10T11:35:10Z</time><name>PT1888</name></trkpt>
<trkpt lat="53.397281" lon="-1.878099"><ele>607</ele><time>2024-02-10T11:35:13Z</time><name>PT1889</name></trkpt>
<trkpt lat="53.397265" lon="-1.878023"><ele>608</ele><time>2024-02-10T11:35:17Z</time><name>PT1890</name></trkpt>
<trkpt lat="53.397247" lon="-1.877969"><ele>608</ele><time>2024-02-10T11:35:20Z</time><name>PT1891</name></trkpt>
<trkpt lat="53.397234" lon="-1.877896"><ele>608</ele><time>2024-02-10T11:35:24Z</time><name>PT1892</name></trkpt>
<trkpt lat="53.397228" lon="-1.877840"><ele>607</ele><time>2024-02-10T11:35:27Z</time><name>PT1893</name></trkpt>
<trkpt lat="53.397220" lon="-1.877764"><ele>608</ele><time>2024-02-10T11:35:31Z</time><name>PT1894</name></trkpt>
<trkpt lat="53.397216" lon="-1.877716"><ele>608</ele><time>2024-02-10T11:35:34Z</time><name>PT1895</name></trkpt>
<trkpt lat="53.397216" lon="-1.877654"><ele>608</ele><time>2024-02-10T11:35:37Z</time><name>PT1896</name></trkpt>
<trkpt lat="53.397225" lon="-1.877591"><ele>608</ele><time>2024-02-10T11:35:41Z</time><name>PT1897</name></trkpt>
<trkpt lat="53.397217" lon="-1.877544"><ele>608</ele><time>2024-02-10T11:35:44Z</time><name>PT1898</name></trkpt>
<trkpt lat="53.397215" lon="-1.877487"><ele>608</ele><time>2024-02-10T11:35:47Z</time><name>PT1899</name></trkpt>
<trkpt lat="53.397230" lon="-1.877409"><ele>609</ele><time>2024-02-10T11:35:51Z</time><name>PT1900</name></trkpt>
<trkpt lat="53.397240" lon="-1.877374"><ele>610</ele><time>2024-02-10T11:35:54Z</time><name>PT1901</name></trkpt>
<trkpt lat="53.397243" lon="-1.877316"><ele>609</ele><time>2024-02-10T11:35:57Z</time><name>PT1902</name></trkpt>
<trkpt lat="53.397257" lon="-1.877241"><ele>609</ele><time>2024-02-10T11:36:01Z</time><name>PT1903</name></trkpt>
<trkpt lat="53.397261" lon="-1.877165"><ele>609</ele><time>2024-02-10T11:36:05Z</time><name>PT1904</name></trkpt>
<trkpt lat="53.397278" lon="-1.877091"><ele>609</ele><time>2024-02-10T11:36:09Z</time><name>PT1905</name></trkpt>
<trkpt lat="53.397300" lon="-1.877018"><ele>610</ele><time>2024-02-10T11:36:13Z</time><name>PT1906</name></trkpt>
<trkpt lat="53.397309" lon="-1.876942"><ele>610</ele><time>2024-02-10T11:36:17Z</time><name>PT1907</name></trkpt>
<trkpt lat="53.397318" lon="-1.876893"><ele>610</ele><time>2024-02-10T11:36:20Z</time><name>PT1908</name></trkpt>
<trkpt lat="53.397326" lon="-1.876829"><ele>610</ele><time>2024-02-10T11:36:24Z</time><name>PT1909</name></trkpt>
<trkpt lat="53.397328" lon="-1.876783"><ele>609</ele><time>2024-02-10T11:36:27Z</time><name>PT1910</name></trkpt>
<trkpt lat="53.397341" lon="-1.876745"><ele>608</ele><time>2024-02-10T11:36:30Z</time><name>PT1911</name></trkpt>
<trkpt lat="53.397345" lon="-1.876690"><ele>608</ele><time>2024-02-10T11:36:34Z</time><name>PT1912</name></trkpt>
<trkpt lat="53.397340" lon="-1.876639"><ele>608</ele><time>2024-02-10T11:36:37Z</time><name>PT1913</name></trkpt>
<trkpt lat="53.397349" lon="-1.876568"><ele>607</ele><time>2024-02-10T11:36:41Z</time><name>PT1914</name></trkpt>
<trkpt lat="53.397364" lon="-1.876525"><ele>607</ele><time>2024-02-10T11:36:45Z</time><name>PT1915</name></trkpt>
<trkpt lat="53.397369" lon="-1.876490"><ele>606</ele><time>2024-02-10T11:36:49Z</time><name>PT1916</name></trkpt>
<trkpt lat="53.397360" lon="-1.876466"><ele>606</ele><time>2024-02-10T11:36:53Z</time><name>PT1917</name></trkpt>
<trkpt lat="53.397364" lon="-1.876439"><ele>605</ele><time>2024-02-10T11:36:56Z</time><name>PT1918</name></trkpt>
<trkpt lat="53.397358" lon="-1.876402"><ele>605</ele><time>2024-02-10T11:36:59Z</time><name>PT1919</name></trkpt>
<trkpt lat="53.397355" lon="-1.876365"><ele>605</ele><time>2024-02-10T11:37:03Z</time><name>PT1920</name></trkpt>
<trkpt lat="53.397350" lon="-1.876332"><ele>605</ele><time>2024-02-10T11:37:07Z</time><name>PT1921</name></trkpt>
<trkpt lat="53.397355" lon="-1.876332"><ele>605</ele><time>2024-02-10T11:37:10Z</time><name>PT1922</name></trkpt>
<trkpt lat="53.397357" lon="-1.876327"><ele>605</ele><time>2024-02-10T11:37:14Z</time><name>PT1923</name></trkpt>
<trkpt lat="53.397356" lon="-1.876329"><ele>605</ele><time>2024-02-10T11:37:18Z</time><name>PT1924</name></trkpt>
<trkpt lat="53.397359" lon="-1.876326"><ele>605</ele><time>2024-02-10T11:37:21Z</time><name>PT1925</name></trkpt>
<trkpt lat="53.397356" lon="-1.876320"><ele>605</ele><time>2024-02-10T11:37:28Z</time><name>PT1926</name></trkpt>
<trkpt lat="53.397356" lon="-1.876302"><ele>605</ele><time>2024-02-10T11:37:31Z</time><name>PT1927</name></trkpt>
<trkpt lat="53.397334" lon="-1.876275"><ele>606</ele><time>2024-02-10T11:37:35Z</time><name>PT1928</name></trkpt>
<trkpt lat="53.397318" lon="-1.876270"><ele>605</ele><time>2024-02-10T11:37:38Z</time><name>PT1929</name></trkpt>
<trkpt lat="53.397304" lon="-1.876273"><ele>606</ele><time>2024-02-10T11:37:41Z</time><name>PT1930</name></trkpt>
<trkpt lat="53.397287" lon="-1.876283"><ele>607</ele><time>2024-02-10T11:37:44Z</time><name>PT1931</name></trkpt>
<trkpt lat="53.397260" lon="-1.876317"><ele>606</ele><time>2024-02-10T11:37:48Z</time><name>PT1932</name></trkpt>
<trkpt lat="53.397248" lon="-1.876334"><ele>606</ele><time>2024-02-10T11:37:51Z</time><name>PT1933</name></trkpt>
<trkpt lat="53.397227" lon="-1.876339"><ele>606</ele><time>2024-02-10T11:37:55Z</time><name>PT1934</name></trkpt>
<trkpt lat="53.397217" lon="-1.876344"><ele>605</ele><time>2024-02-10T11:37:58Z</time><name>PT1935</name></trkpt>
<trkpt lat="53.397204" lon="-1.876348"><ele>604</ele><time>2024-02-10T11:38:02Z</time><name>PT1936</name></trkpt>
<trkpt lat="53.397196" lon="-1.876352"><ele>606</ele><time>2024-02-10T11:38:05Z</time><name>PT1937</name></trkpt>
<trkpt lat="53.397197" lon="-1.876353"><ele>606</ele><time>2024-02-10T11:38:08Z</time><name>PT1938</name></trkpt>
<trkpt lat="53.397197" lon="-1.876352"><ele>606</ele><time>2024-02-10T11:38:11Z</time><name>PT1939</name></trkpt>
<trkpt lat="53.397194" lon="-1.876357"><ele>606</ele><time>2024-02-10T11:38:18Z</time><name>PT1940</name></trkpt>
<trkpt lat="53.397180" lon="-1.876406"><ele>606</ele><time>2024-02-10T11:38:22Z</time><name>PT1941</name></trkpt>
<trkpt lat="53.397167" lon="-1.876431"><ele>604</ele><time>2024-02-10T11:38:26Z</time><name>PT1942</name></trkpt>
<trkpt lat="53.397139" lon="-1.876486"><ele>605</ele><time>2024-02-10T11:38:30Z</time><name>PT1943</name></trkpt>
<trkpt lat="53.397110" lon="-1.876501"><ele>606</ele><time>2024-02-10T11:38:34Z</time><name>PT1944</name></trkpt>
<trkpt lat="53.397074" lon="-1.876519"><ele>606</ele><time>2024-02-10T11:38:38Z</time><name>PT1945</name></trkpt>
<trkpt lat="53.397045" lon="-1.876550"><ele>607</ele><time>2024-02-10T11:38:42Z</time><name>PT1946</name></trkpt>
<trkpt lat="53.397012" lon="-1.876578"><ele>607</ele><time>2024-02-10T11:38:45Z</time><name>PT1947</name></trkpt>
<trkpt lat="53.396992" lon="-1.876607"><ele>607</ele><time>2024-02-10T11:38:48Z</time><name>PT1948</name></trkpt>
<trkpt lat="53.396971" lon="-1.876647"><ele>606</ele><time>2024-02-10T11:38:51Z</time><name>PT1949</name></trkpt>
<trkpt lat="53.396953" lon="-1.876701"><ele>606</ele><time>2024-02-10T11:38:55Z</time><name>PT1950</name></trkpt>
<trkpt lat="53.396929" lon="-1.876702"><ele>606</ele><time>2024-02-10T11:38:59Z</time><name>PT1951</name></trkpt>
<trkpt lat="53.396903" lon="-1.876711"><ele>605</ele><time>2024-02-10T11:39:02Z</time><name>PT1952</name></trkpt>
<trkpt lat="53.396882" lon="-1.876766"><ele>605</ele><time>2024-02-10T11:39:06Z</time><name>PT1953</name></trkpt>
<trkpt lat="53.396883" lon="-1.876813"><ele>603</ele><time>2024-02-10T11:39:09Z</time><name>PT1954</name></trkpt>
<trkpt lat="53.396880" lon="-1.876854"><ele>604</ele><time>2024-02-10T11:39:12Z</time><name>PT1955</name></trkpt>
<trkpt lat="53.396873" lon="-1.876866"><ele>604</ele><time>2024-02-10T11:39:15Z</time><name>PT1956</name></trkpt>
<trkpt lat="53.396870" lon="-1.876864"><ele>606</ele><time>2024-02-10T11:39:19Z</time><name>PT1957</name></trkpt>
<trkpt lat="53.396871" lon="-1.876865"><ele>605</ele><time>2024-02-10T11:39:23Z</time><name>PT1958</name></trkpt>
<trkpt lat="53.396869" lon="-1.876865"><ele>605</ele><time>2024-02-10T11:39:26Z</time><name>PT1959</name></trkpt>
<trkpt lat="53.396882" lon="-1.876844"><ele>606</ele><time>2024-02-10T11:39:32Z</time><name>PT1960</name></trkpt>
<trkpt lat="53.396909" lon="-1.876845"><ele>606</ele><time>2024-02-10T11:39:35Z</time><name>PT1961</name></trkpt>
<trkpt lat="53.396922" lon="-1.876842"><ele>607</ele><time>2024-02-10T11:39:39Z</time><name>PT1962</name></trkpt>
<trkpt lat="53.396922" lon="-1.876840"><ele>607</ele><time>2024-02-10T11:39:43Z</time><name>PT1963</name></trkpt>
<trkpt lat="53.396909" lon="-1.876819"><ele>606</ele><time>2024-02-10T11:40:07Z</time><name>PT1964</name></trkpt>
<trkpt lat="53.396883" lon="-1.876800"><ele>605</ele><time>2024-02-10T11:40:11Z</time><name>PT1965</name></trkpt>
<trkpt lat="53.396873" lon="-1.876769"><ele>606</ele><time>2024-02-10T11:40:14Z</time><name>PT1966</name></trkpt>
<trkpt lat="53.396882" lon="-1.876737"><ele>607</ele><time>2024-02-10T11:40:17Z</time><name>PT1967</name></trkpt>
<trkpt lat="53.396901" lon="-1.876709"><ele>608</ele><time>2024-02-10T11:40:21Z</time><name>PT1968</name></trkpt>
<trkpt lat="53.396922" lon="-1.876679"><ele>609</ele><time>2024-02-10T11:40:24Z</time><name>PT1969</name></trkpt>
<trkpt lat="53.396942" lon="-1.876624"><ele>610</ele><time>2024-02-10T11:40:28Z</time><name>PT1970</name></trkpt>
<trkpt lat="53.396962" lon="-1.876586"><ele>610</ele><time>2024-02-10T11:40:31Z</time><name>PT1971</name></trkpt>
<trkpt lat="53.397002" lon="-1.876572"><ele>611</ele><time>2024-02-10T11:40:35Z</time><name>PT1972</name></trkpt>
<trkpt lat="53.397022" lon="-1.876566"><ele>610</ele><time>2024-02-10T11:40:38Z</time><name>PT1973</name></trkpt>
<trkpt lat="53.397051" lon="-1.876540"><ele>610</ele><time>2024-02-10T11:40:41Z</time><name>PT1974</name></trkpt>
<trkpt lat="53.397080" lon="-1.876498"><ele>610</ele><time>2024-02-10T11:40:45Z</time><name>PT1975</name></trkpt>
<trkpt lat="53.397101" lon="-1.876475"><ele>611</ele><time>2024-02-10T11:40:48Z</time><name>PT1976</name></trkpt>
<trkpt lat="53.397114" lon="-1.876441"><ele>611</ele><time>2024-02-10T11:40:51Z</time><name>PT1977</name></trkpt>
<trkpt lat="53.397116" lon="-1.876404"><ele>611</ele><time>2024-02-10T11:40:55Z</time><name>PT1978</name></trkpt>
<trkpt lat="53.397133" lon="-1.876383"><ele>611</ele><time>2024-02-10T11:40:59Z</time><name>PT1979</name></trkpt>
<trkpt lat="53.397158" lon="-1.876374"><ele>611</ele><time>2024-02-10T11:41:03Z</time><name>PT1980</name></trkpt>
<trkpt lat="53.397162" lon="-1.876371"><ele>611</ele><time>2024-02-10T11:41:06Z</time><name>PT1981</name></trkpt>
<trkpt lat="53.397187" lon="-1.876359"><ele>610</ele><time>2024-02-10T11:41:25Z</time><name>PT1982</name></trkpt>
<trkpt lat="53.397188" lon="-1.876355"><ele>610</ele><time>2024-02-10T11:41:28Z</time><name>PT1983</name></trkpt>
<trkpt lat="53.397204" lon="-1.876347"><ele>610</ele><time>2024-02-10T11:41:32Z</time><name>PT1984</name></trkpt>
<trkpt lat="53.397212" lon="-1.876342"><ele>609</ele><time>2024-02-10T11:41:36Z</time><name>PT1985</name></trkpt>
<trkpt lat="53.397211" lon="-1.876342"><ele>609</ele><time>2024-02-10T11:41:39Z</time><name>PT1986</name></trkpt>
<trkpt lat="53.397212" lon="-1.876341"><ele>609</ele><time>2024-02-10T11:41:46Z</time><name>PT1987</name></trkpt>
<trkpt lat="53.397214" lon="-1.876339"><ele>609</ele><time>2024-02-10T11:41:50Z</time><name>PT1988</name></trkpt>
<trkpt lat="53.397213" lon="-1.876338"><ele>609</ele><time>2024-02-10T11:42:04Z</time><name>PT1989</name></trkpt>
<trkpt lat="53.397211" lon="-1.876339"><ele>609</ele><time>2024-02-10T11:42:07Z</time><name>PT1990</name></trkpt>
<trkpt lat="53.397213" lon="-1.876354"><ele>607</ele><time>2024-02-10T11:42:17Z</time><name>PT1991</name></trkpt>
<trkpt lat="53.397203" lon="-1.876360"><ele>608</ele><time>2024-02-10T11:42:37Z</time><name>PT1992</name></trkpt>
<trkpt lat="53.397199" lon="-1.876358"><ele>608</ele><time>2024-02-10T11:42:41Z</time><name>PT1993</name></trkpt>
<trkpt lat="53.397198" lon="-1.876359"><ele>608</ele><time>2024-02-10T11:43:04Z</time><name>PT1994</name></trkpt>
<trkpt lat="53.397223" lon="-1.876346"><ele>609</ele><time>2024-02-10T11:43:08Z</time><name>PT1995</name></trkpt>
<trkpt lat="53.397237" lon="-1.876343"><ele>608</ele><time>2024-02-10T11:43:12Z</time><name>PT1996</name></trkpt>
<trkpt lat="53.397237" lon="-1.876330"><ele>609</ele><time>2024-02-10T11:43:15Z</time><name>PT1997</name></trkpt>
<trkpt lat="53.397235" lon="-1.876330"><ele>608</ele><time>2024-02-10T11:43:19Z</time><name>PT1998</name></trkpt>
<trkpt lat="53.397235" lon="-1.876332"><ele>608</ele><time>2024-02-10T11:44:20Z</time><name>PT1999</name></trkpt>
<trkpt lat="53.397231" lon="-1.876329"><ele>608</ele><time>2024-02-10T11:44:24Z</time><name>PT2000</name></trkpt>
<trkpt lat="53.397237" lon="-1.876296"><ele>609</ele><time>2024-02-10T11:44:27Z</time><name>PT2001</name></trkpt>
<trkpt lat="53.397246" lon="-1.876263"><ele>609</ele><time>2024-02-10T11:44:30Z</time><name>PT2002</name></trkpt>
<trkpt lat="53.397249" lon="-1.876221"><ele>609</ele><time>2024-02-10T11:44:34Z</time><name>PT2003</name></trkpt>
<trkpt lat="53.397259" lon="-1.876190"><ele>609</ele><time>2024-02-10T11:44:38Z</time><name>PT2004</name></trkpt>
<trkpt lat="53.397269" lon="-1.876144"><ele>610</ele><time>2024-02-10T11:44:49Z</time><name>PT2005</name></trkpt>
<trkpt lat="53.397300" lon="-1.876068"><ele>609</ele><time>2024-02-10T11:44:53Z</time><name>PT2006</name></trkpt>
<trkpt lat="53.397322" lon="-1.876025"><ele>609</ele><time>2024-02-10T11:44:56Z</time><name>PT2007</name></trkpt>
<trkpt lat="53.397334" lon="-1.875984"><ele>609</ele><time>2024-02-10T11:44:59Z</time><name>PT2008</name></trkpt>
<trkpt lat="53.397360" lon="-1.875928"><ele>609</ele><time>2024-02-10T11:45:03Z</time><name>PT2009</name></trkpt>
<trkpt lat="53.397384" lon="-1.875867"><ele>610</ele><time>2024-02-10T11:45:07Z</time><name>PT2010</name></trkpt>
<trkpt lat="53.397400" lon="-1.875826"><ele>610</ele><time>2024-02-10T11:45:10Z</time><name>PT2011</name></trkpt>
<trkpt lat="53.397426" lon="-1.875773"><ele>610</ele><time>2024-02-10T11:45:14Z</time><name>PT2012</name></trkpt>
<trkpt lat="53.397457" lon="-1.875721"><ele>611</ele><time>2024-02-10T11:45:18Z</time><name>PT2013</name></trkpt>
<trkpt lat="53.397471" lon="-1.875677"><ele>611</ele><time>2024-02-10T11:45:21Z</time><name>PT2014</name></trkpt>
<trkpt lat="53.397489" lon="-1.875617"><ele>612</ele><time>2024-02-10T11:45:25Z</time><name>PT2015</name></trkpt>
<trkpt lat="53.397501" lon="-1.875576"><ele>612</ele><time>2024-02-10T11:45:28Z</time><name>PT2016</name></trkpt>
<trkpt lat="53.397526" lon="-1.875519"><ele>612</ele><time>2024-02-10T11:45:32Z</time><name>PT2017</name></trkpt>
<trkpt lat="53.397545" lon="-1.875457"><ele>612</ele><time>2024-02-10T11:45:36Z</time><name>PT2018</name></trkpt>
<trkpt lat="53.397561" lon="-1.875415"><ele>612</ele><time>2024-02-10T11:45:39Z</time><name>PT2019</name></trkpt>
<trkpt lat="53.397577" lon="-1.875375"><ele>612</ele><time>2024-02-10T11:45:42Z</time><name>PT2020</name></trkpt>
<trkpt lat="53.397589" lon="-1.875317"><ele>611</ele><time>2024-02-10T11:45:46Z</time><name>PT2021</name></trkpt>
<trkpt lat="53.397601" lon="-1.875259"><ele>611</ele><time>2024-02-10T11:45:50Z</time><name>PT2022</name></trkpt>
<trkpt lat="53.397613" lon="-1.875202"><ele>611</ele><time>2024-02-10T11:45:54Z</time><name>PT2023</name></trkpt>
<trkpt lat="53.397628" lon="-1.875166"><ele>610</ele><time>2024-02-10T11:45:57Z</time><name>PT2024</name></trkpt>
<trkpt lat="53.397637" lon="-1.875105"><ele>611</ele><time>2024-02-10T11:46:01Z</time><name>PT2025</name></trkpt>
<trkpt lat="53.397646" lon="-1.875058"><ele>610</ele><time>2024-02-10T11:46:04Z</time><name>PT2026</name></trkpt>
<trkpt lat="53.397643" lon="-1.874998"><ele>610</ele><time>2024-02-10T11:46:08Z</time><name>PT2027</name></trkpt>
<trkpt lat="53.397648" lon="-1.874935"><ele>610</ele><time>2024-02-10T11:46:12Z</time><name>PT2028</name></trkpt>
<trkpt lat="53.397648" lon="-1.874878"><ele>609</ele><time>2024-02-10T11:46:16Z</time><name>PT2029</name></trkpt>
<trkpt lat="53.397654" lon="-1.874828"><ele>609</ele><time>2024-02-10T11:46:19Z</time><name>PT2030</name></trkpt>
<trkpt lat="53.397657" lon="-1.874766"><ele>608</ele><time>2024-02-10T11:46:23Z</time><name>PT2031</name></trkpt>
<trkpt lat="53.397657" lon="-1.874701"><ele>609</ele><time>2024-02-10T11:46:27Z</time><name>PT2032</name></trkpt>
<trkpt lat="53.397658" lon="-1.874633"><ele>608</ele><time>2024-02-10T11:46:31Z</time><name>PT2033</name></trkpt>
<trkpt lat="53.397657" lon="-1.874584"><ele>608</ele><time>2024-02-10T11:46:34Z</time><name>PT2034</name></trkpt>
<trkpt lat="53.397652" lon="-1.874513"><ele>607</ele><time>2024-02-10T11:46:38Z</time><name>PT2035</name></trkpt>
<trkpt lat="53.397645" lon="-1.874445"><ele>607</ele><time>2024-02-10T11:46:42Z</time><name>PT2036</name></trkpt>
<trkpt lat="53.397637" lon="-1.874378"><ele>607</ele><time>2024-02-10T11:46:46Z</time><name>PT2037</name></trkpt>
<trkpt lat="53.397633" lon="-1.874309"><ele>607</ele><time>2024-02-10T11:46:50Z</time><name>PT2038</name></trkpt>
<trkpt lat="53.397638" lon="-1.874258"><ele>607</ele><time>2024-02-10T11:46:53Z</time><name>PT2039</name></trkpt>
<trkpt lat="53.397633" lon="-1.874206"><ele>607</ele><time>2024-02-10T11:46:56Z</time><name>PT2040</name></trkpt>
<trkpt lat="53.397613" lon="-1.874143"><ele>607</ele><time>2024-02-10T11:47:00Z</time><name>PT2041</name></trkpt>
<trkpt lat="53.397582" lon="-1.874102"><ele>607</ele><time>2024-02-10T11:47:04Z</time><name>PT2042</name></trkpt>
<trkpt lat="53.397565" lon="-1.874060"><ele>607</ele><time>2024-02-10T11:47:07Z</time><name>PT2043</name></trkpt>
<trkpt lat="53.397558" lon="-1.874021"><ele>607</ele><time>2024-02-10T11:47:11Z</time><name>PT2044</name></trkpt>
<trkpt lat="53.397557" lon="-1.873969"><ele>607</ele><time>2024-02-10T11:47:14Z</time><name>PT2045</name></trkpt>
<trkpt lat="53.397534" lon="-1.873913"><ele>607</ele><time>2024-02-10T11:47:18Z</time><name>PT2046</name></trkpt>
<trkpt lat="53.397520" lon="-1.873861"><ele>607</ele><time>2024-02-10T11:47:21Z</time><name>PT2047</name></trkpt>
<trkpt lat="53.397507" lon="-1.873804"><ele>606</ele><time>2024-02-10T11:47:25Z</time><name>PT2048</name></trkpt>
<trkpt lat="53.397488" lon="-1.873744"><ele>606</ele><time>2024-02-10T11:47:29Z</time><name>PT2049</name></trkpt>
<trkpt lat="53.397476" lon="-1.873677"><ele>605</ele><time>2024-02-10T11:47:33Z</time><name>PT2050</name></trkpt>
<trkpt lat="53.397470" lon="-1.873623"><ele>605</ele><time>2024-02-10T11:47:36Z</time><name>PT2051</name></trkpt>
<trkpt lat="53.397459" lon="-1.873568"><ele>605</ele><time>2024-02-10T11:47:39Z</time><name>PT2052</name></trkpt>
<trkpt lat="53.397426" lon="-1.873514"><ele>605</ele><time>2024-02-10T11:47:43Z</time><name>PT2053</name></trkpt>
<trkpt lat="53.397388" lon="-1.873474"><ele>606</ele><time>2024-02-10T11:47:47Z</time><name>PT2054</name></trkpt>
<trkpt lat="53.397351" lon="-1.873443"><ele>605</ele><time>2024-02-10T11:47:51Z</time><name>PT2055</name></trkpt>
<trkpt lat="53.397332" lon="-1.873409"><ele>606</ele><time>2024-02-10T11:47:54Z</time><name>PT2056</name></trkpt>
<trkpt lat="53.397304" lon="-1.873363"><ele>606</ele><time>2024-02-10T11:47:58Z</time><name>PT2057</name></trkpt>
<trkpt lat="53.397279" lon="-1.873325"><ele>605</ele><time>2024-02-10T11:48:01Z</time><name>PT2058</name></trkpt>
<trkpt lat="53.397245" lon="-1.873282"><ele>606</ele><time>2024-02-10T11:48:05Z</time><name>PT2059</name></trkpt>
<trkpt lat="53.397227" lon="-1.873238"><ele>606</ele><time>2024-02-10T11:48:09Z</time><name>PT2060</name></trkpt>
<trkpt lat="53.397213" lon="-1.873188"><ele>607</ele><time>2024-02-10T11:48:12Z</time><name>PT2061</name></trkpt>
<trkpt lat="53.397195" lon="-1.873147"><ele>607</ele><time>2024-02-10T11:48:15Z</time><name>PT2062</name></trkpt>
<trkpt lat="53.397162" lon="-1.873114"><ele>606</ele><time>2024-02-10T11:48:19Z</time><name>PT2063</name></trkpt>
<trkpt lat="53.397125" lon="-1.873073"><ele>606</ele><time>2024-02-10T11:48:23Z</time><name>PT2064</name></trkpt>
<trkpt lat="53.397101" lon="-1.873053"><ele>607</ele><time>2024-02-10T11:48:27Z</time><name>PT2065</name></trkpt>
<trkpt lat="53.397086" lon="-1.873014"><ele>607</ele><time>2024-02-10T11:48:30Z</time><name>PT2066</name></trkpt>
<trkpt lat="53.397064" lon="-1.872954"><ele>606</ele><time>2024-02-10T11:48:34Z</time><name>PT2067</name></trkpt>
<trkpt lat="53.397037" lon="-1.872913"><ele>606</ele><time>2024-02-10T11:48:37Z</time><name>PT2068</name></trkpt>
<trkpt lat="53.396996" lon="-1.872864"><ele>607</ele><time>2024-02-10T11:48:41Z</time><name>PT2069</name></trkpt>
<trkpt lat="53.396954" lon="-1.872841"><ele>606</ele><time>2024-02-10T11:48:45Z</time><name>PT2070</name></trkpt>
<trkpt lat="53.396925" lon="-1.872809"><ele>606</ele><time>2024-02-10T11:48:48Z</time><name>PT2071</name></trkpt>
<trkpt lat="53.396892" lon="-1.872753"><ele>606</ele><time>2024-02-10T11:48:52Z</time><name>PT2072</name></trkpt>
<trkpt lat="53.396864" lon="-1.872714"><ele>605</ele><time>2024-02-10T11:48:55Z</time><name>PT2073</name></trkpt>
<trkpt lat="53.396825" lon="-1.872661"><ele>605</ele><time>2024-02-10T11:48:59Z</time><name>PT2074</name></trkpt>
<trkpt lat="53.396797" lon="-1.872617"><ele>605</ele><time>2024-02-10T11:49:02Z</time><name>PT2075</name></trkpt>
<trkpt lat="53.396778" lon="-1.872575"><ele>605</ele><time>2024-02-10T11:49:05Z</time><name>PT2076</name></trkpt>
<trkpt lat="53.396754" lon="-1.872513"><ele>606</ele><time>2024-02-10T11:49:09Z</time><name>PT2077</name></trkpt>
<trkpt lat="53.396743" lon="-1.872459"><ele>605</ele><time>2024-02-10T11:49:12Z</time><name>PT2078</name></trkpt>
<trkpt lat="53.396728" lon="-1.872385"><ele>606</ele><time>2024-02-10T11:49:16Z</time><name>PT2079</name></trkpt>
<trkpt lat="53.396709" lon="-1.872318"><ele>605</ele><time>2024-02-10T11:49:20Z</time><name>PT2080</name></trkpt>
<trkpt lat="53.396683" lon="-1.872264"><ele>604</ele><time>2024-02-10T11:49:24Z</time><name>PT2081</name></trkpt>
<trkpt lat="53.396667" lon="-1.872199"><ele>605</ele><time>2024-02-10T11:49:28Z</time><name>PT2082</name></trkpt>
<trkpt lat="53.396651" lon="-1.872156"><ele>604</ele><time>2024-02-10T11:49:31Z</time><name>PT2083</name></trkpt>
<trkpt lat="53.396636" lon="-1.872118"><ele>604</ele><time>2024-02-10T11:49:34Z</time><name>PT2084</name></trkpt>
<trkpt lat="53.396610" lon="-1.872082"><ele>604</ele><time>2024-02-10T11:49:37Z</time><name>PT2085</name></trkpt>
<trkpt lat="53.396580" lon="-1.872051"><ele>604</ele><time>2024-02-10T11:49:40Z</time><name>PT2086</name></trkpt>
<trkpt lat="53.396554" lon="-1.872028"><ele>604</ele><time>2024-02-10T11:49:44Z</time><name>PT2087</name></trkpt>
<trkpt lat="53.396535" lon="-1.871999"><ele>604</ele><time>2024-02-10T11:49:47Z</time><name>PT2088</name></trkpt>
<trkpt lat="53.396514" lon="-1.871963"><ele>604</ele><time>2024-02-10T11:49:51Z</time><name>PT2089</name></trkpt>
<trkpt lat="53.396489" lon="-1.871943"><ele>603</ele><time>2024-02-10T11:49:54Z</time><name>PT2090</name></trkpt>
<trkpt lat="53.396465" lon="-1.871939"><ele>603</ele><time>2024-02-10T11:49:57Z</time><name>PT2091</name></trkpt>
<trkpt lat="53.396432" lon="-1.871907"><ele>602</ele><time>2024-02-10T11:50:01Z</time><name>PT2092</name></trkpt>
<trkpt lat="53.396416" lon="-1.871871"><ele>601</ele><time>2024-02-10T11:50:04Z</time><name>PT2093</name></trkpt>
<trkpt lat="53.396390" lon="-1.871827"><ele>602</ele><time>2024-02-10T11:50:08Z</time><name>PT2094</name></trkpt>
<trkpt lat="53.396370" lon="-1.871790"><ele>602</ele><time>2024-02-10T11:50:12Z</time><name>PT2095</name></trkpt>
<trkpt lat="53.396349" lon="-1.871723"><ele>603</ele><time>2024-02-10T11:50:16Z</time><name>PT2096</name></trkpt>
<trkpt lat="53.396338" lon="-1.871681"><ele>603</ele><time>2024-02-10T11:50:19Z</time><name>PT2097</name></trkpt>
<trkpt lat="53.396328" lon="-1.871622"><ele>603</ele><time>2024-02-10T11:50:23Z</time><name>PT2098</name></trkpt>
<trkpt lat="53.396327" lon="-1.871578"><ele>604</ele><time>2024-02-10T11:50:26Z</time><name>PT2099</name></trkpt>
<trkpt lat="53.396326" lon="-1.871512"><ele>604</ele><time>2024-02-10T11:50:30Z</time><name>PT2100</name></trkpt>
<trkpt lat="53.396326" lon="-1.871461"><ele>605</ele><time>2024-02-10T11:50:33Z</time><name>PT2101</name></trkpt>
<trkpt lat="53.396323" lon="-1.871423"><ele>605</ele><time>2024-02-10T11:50:36Z</time><name>PT2102</name></trkpt>
<trkpt lat="53.396315" lon="-1.871368"><ele>605</ele><time>2024-02-10T11:50:40Z</time><name>PT2103</name></trkpt>
<trkpt lat="53.396320" lon="-1.871311"><ele>605</ele><time>2024-02-10T11:50:44Z</time><name>PT2104</name></trkpt>
<trkpt lat="53.396328" lon="-1.871272"><ele>606</ele><time>2024-02-10T11:50:47Z</time><name>PT2105</name></trkpt>
<trkpt lat="53.396338" lon="-1.871231"><ele>606</ele><time>2024-02-10T11:50:50Z</time><name>PT2106</name></trkpt>
<trkpt lat="53.396342" lon="-1.871181"><ele>606</ele><time>2024-02-10T11:50:53Z</time><name>PT2107</name></trkpt>
<trkpt lat="53.396343" lon="-1.871115"><ele>606</ele><time>2024-02-10T11:50:57Z</time><name>PT2108</name></trkpt>
<trkpt lat="53.396340" lon="-1.871077"><ele>607</ele><time>2024-02-10T11:51:00Z</time><name>PT2109</name></trkpt>
<trkpt lat="53.396338" lon="-1.871030"><ele>607</ele><time>2024-02-10T11:51:04Z</time><name>PT2110</name></trkpt>
<trkpt lat="53.396338" lon="-1.871011"><ele>607</ele><time>2024-02-10T11:51:07Z</time><name>PT2111</name></trkpt>
<trkpt lat="53.396336" lon="-1.871001"><ele>607</ele><time>2024-02-10T11:51:11Z</time><name>PT2112</name></trkpt>
<trkpt lat="53.396334" lon="-1.870997"><ele>607</ele><time>2024-02-10T11:51:25Z</time><name>PT2113</name></trkpt>
<trkpt lat="53.396335" lon="-1.870996"><ele>607</ele><time>2024-02-10T11:51:29Z</time><name>PT2114</name></trkpt>
<trkpt lat="53.396345" lon="-1.870976"><ele>607</ele><time>2024-02-10T11:51:32Z</time><name>PT2115</name></trkpt>
<trkpt lat="53.396359" lon="-1.870967"><ele>607</ele><time>2024-02-10T11:51:35Z</time><name>PT2116</name></trkpt>
<trkpt lat="53.396377" lon="-1.870993"><ele>607</ele><time>2024-02-10T11:51:38Z</time><name>PT2117</name></trkpt>
<trkpt lat="53.396387" lon="-1.871023"><ele>608</ele><time>2024-02-10T11:51:42Z</time><name>PT2118</name></trkpt>
<trkpt lat="53.396403" lon="-1.871038"><ele>608</ele><time>2024-02-10T11:51:45Z</time><name>PT2119</name></trkpt>
<trkpt lat="53.396424" lon="-1.871043"><ele>608</ele><time>2024-02-10T11:51:48Z</time><name>PT2120</name></trkpt>
<trkpt lat="53.396435" lon="-1.870996"><ele>608</ele><time>2024-02-10T11:51:52Z</time><name>PT2121</name></trkpt>
<trkpt lat="53.396441" lon="-1.870931"><ele>609</ele><time>2024-02-10T11:51:56Z</time><name>PT2122</name></trkpt>
<trkpt lat="53.396427" lon="-1.870885"><ele>609</ele><time>2024-02-10T11:51:59Z</time><name>PT2123</name></trkpt>
<trkpt lat="53.396426" lon="-1.870844"><ele>608</ele><time>2024-02-10T11:52:02Z</time><name>PT2124</name></trkpt>
<trkpt lat="53.396412" lon="-1.870790"><ele>608</ele><time>2024-02-10T11:52:06Z</time><name>PT2125</name></trkpt>
<trkpt lat="53.396387" lon="-1.870751"><ele>609</ele><time>2024-02-10T11:52:09Z</time><name>PT2126</name></trkpt>
<trkpt lat="53.396355" lon="-1.870726"><ele>609</ele><time>2024-02-10T11:52:13Z</time><name>PT2127</name></trkpt>
<trkpt lat="53.396332" lon="-1.870681"><ele>609</ele><time>2024-02-10T11:52:16Z</time><name>PT2128</name></trkpt>
<trkpt lat="53.396324" lon="-1.870610"><ele>609</ele><time>2024-02-10T11:52:20Z</time><name>PT2129</name></trkpt>
<trkpt lat="53.396312" lon="-1.870523"><ele>608</ele><time>2024-02-10T11:52:25Z</time><name>PT2130</name></trkpt>
<trkpt lat="53.396300" lon="-1.870472"><ele>608</ele><time>2024-02-10T11:52:28Z</time><name>PT2131</name></trkpt>
<trkpt lat="53.396287" lon="-1.870404"><ele>608</ele><time>2024-02-10T11:52:32Z</time><name>PT2132</name></trkpt>
<trkpt lat="53.396276" lon="-1.870344"><ele>607</ele><time>2024-02-10T11:52:36Z</time><name>PT2133</name></trkpt>
<trkpt lat="53.396258" lon="-1.870289"><ele>607</ele><time>2024-02-10T11:52:40Z</time><name>PT2134</name></trkpt>
<trkpt lat="53.396251" lon="-1.870244"><ele>607</ele><time>2024-02-10T11:52:44Z</time><name>PT2135</name></trkpt>
<trkpt lat="53.396239" lon="-1.870195"><ele>608</ele><time>2024-02-10T11:52:48Z</time><name>PT2136</name></trkpt>
<trkpt lat="53.396220" lon="-1.870161"><ele>612</ele><time>2024-02-10T11:52:51Z</time><name>PT2137</name></trkpt>
<trkpt lat="53.396220" lon="-1.870160"><ele>612</ele><time>2024-02-10T11:52:55Z</time><name>PT2138</name></trkpt>
<trkpt lat="53.396214" lon="-1.870142"><ele>612</ele><time>2024-02-10T11:53:02Z</time><name>PT2139</name></trkpt>
<trkpt lat="53.396218" lon="-1.870097"><ele>611</ele><time>2024-02-10T11:53:06Z</time><name>PT2140</name></trkpt>
<trkpt lat="53.396222" lon="-1.870078"><ele>611</ele><time>2024-02-10T11:53:10Z</time><name>PT2141</name></trkpt>
<trkpt lat="53.396231" lon="-1.870050"><ele>611</ele><time>2024-02-10T11:53:13Z</time><name>PT2142</name></trkpt>
<trkpt lat="53.396234" lon="-1.870024"><ele>611</ele><time>2024-02-10T11:53:16Z</time><name>PT2143</name></trkpt>
<trkpt lat="53.396224" lon="-1.870006"><ele>611</ele><time>2024-02-10T11:53:19Z</time><name>PT2144</name></trkpt>
<trkpt lat="53.396210" lon="-1.870007"><ele>611</ele><time>2024-02-10T11:53:23Z</time><name>PT2145</name></trkpt>
<trkpt lat="53.396184" lon="-1.870009"><ele>611</ele><time>2024-02-10T11:53:27Z</time><name>PT2146</name></trkpt>
<trkpt lat="53.396178" lon="-1.869981"><ele>611</ele><time>2024-02-10T11:53:30Z</time><name>PT2147</name></trkpt>
<trkpt lat="53.396181" lon="-1.869962"><ele>611</ele><time>2024-02-10T11:53:34Z</time><name>PT2148</name></trkpt>
<trkpt lat="53.396192" lon="-1.869936"><ele>609</ele><time>2024-02-10T11:53:37Z</time><name>PT2149</name></trkpt>
<trkpt lat="53.396195" lon="-1.869901"><ele>610</ele><time>2024-02-10T11:53:40Z</time><name>PT2150</name></trkpt>
<trkpt lat="53.396193" lon="-1.869873"><ele>609</ele><time>2024-02-10T11:53:44Z</time><name>PT2151</name></trkpt>
<trkpt lat="53.396194" lon="-1.869868"><ele>609</ele><time>2024-02-10T11:53:48Z</time><name>PT2152</name></trkpt>
<trkpt lat="53.396196" lon="-1.869869"><ele>609</ele><time>2024-02-10T11:53:52Z</time><name>PT2153</name></trkpt>
<trkpt lat="53.396198" lon="-1.869876"><ele>608</ele><time>2024-02-10T11:53:55Z</time><name>PT2154</name></trkpt>
<trkpt lat="53.396182" lon="-1.869861"><ele>607</ele><time>2024-02-10T11:53:59Z</time><name>PT2155</name></trkpt>
<trkpt lat="53.396169" lon="-1.869870"><ele>607</ele><time>2024-02-10T11:54:02Z</time><name>PT2156</name></trkpt>
<trkpt lat="53.396155" lon="-1.869851"><ele>607</ele><time>2024-02-10T11:54:06Z</time><name>PT2157</name></trkpt>
<trkpt lat="53.396140" lon="-1.869845"><ele>607</ele><time>2024-02-10T11:54:09Z</time><name>PT2158</name></trkpt>
<trkpt lat="53.396110" lon="-1.869810"><ele>607</ele><time>2024-02-10T11:54:13Z</time><name>PT2159</name></trkpt>
<trkpt lat="53.396075" lon="-1.869777"><ele>608</ele><time>2024-02-10T11:54:17Z</time><name>PT2160</name></trkpt>
<trkpt lat="53.396053" lon="-1.869749"><ele>608</ele><time>2024-02-10T11:54:20Z</time><name>PT2161</name></trkpt>
<trkpt lat="53.396035" lon="-1.869723"><ele>607</ele><time>2024-02-10T11:54:23Z</time><name>PT2162</name></trkpt>
<trkpt lat="53.396010" lon="-1.869702"><ele>607</ele><time>2024-02-10T11:54:27Z</time><name>PT2163</name></trkpt>
<trkpt lat="53.395984" lon="-1.869697"><ele>608</ele><time>2024-02-10T11:54:30Z</time><name>PT2164</name></trkpt>
<trkpt lat="53.395974" lon="-1.869682"><ele>608</ele><time>2024-02-10T11:54:33Z</time><name>PT2165</name></trkpt>
<trkpt lat="53.395961" lon="-1.869653"><ele>607</ele><time>2024-02-10T11:54:37Z</time><name>PT2166</name></trkpt>
<trkpt lat="53.395973" lon="-1.869624"><ele>607</ele><time>2024-02-10T11:54:40Z</time><name>PT2167</name></trkpt>
<trkpt lat="53.395971" lon="-1.869579"><ele>608</ele><time>2024-02-10T11:54:44Z</time><name>PT2168</name></trkpt>
<trkpt lat="53.395975" lon="-1.869543"><ele>610</ele><time>2024-02-10T11:54:47Z</time><name>PT2169</name></trkpt>
<trkpt lat="53.395979" lon="-1.869522"><ele>613</ele><time>2024-02-10T11:54:51Z</time><name>PT2170</name></trkpt>
<trkpt lat="53.395992" lon="-1.869508"><ele>612</ele><time>2024-02-10T11:54:54Z</time><name>PT2171</name></trkpt>
<trkpt lat="53.395994" lon="-1.869502"><ele>612</ele><time>2024-02-10T11:54:57Z</time><name>PT2172</name></trkpt>
<trkpt lat="53.395999" lon="-1.869489"><ele>611</ele><time>2024-02-10T11:55:01Z</time><name>PT2173</name></trkpt>
<trkpt lat="53.395989" lon="-1.869465"><ele>612</ele><time>2024-02-10T11:55:05Z</time><name>PT2174</name></trkpt>
<trkpt lat="53.395980" lon="-1.869466"><ele>613</ele><time>2024-02-10T11:55:09Z</time><name>PT2175</name></trkpt>
<trkpt lat="53.395983" lon="-1.869461"><ele>613</ele><time>2024-02-10T11:55:13Z</time><name>PT2176</name></trkpt>
<trkpt lat="53.395973" lon="-1.869445"><ele>612</ele><time>2024-02-10T11:55:16Z</time><name>PT2177</name></trkpt>
<trkpt lat="53.395962" lon="-1.869441"><ele>613</ele><time>2024-02-10T11:55:20Z</time><name>PT2178</name></trkpt>
<trkpt lat="53.395927" lon="-1.869457"><ele>612</ele><time>2024-02-10T11:55:24Z</time><name>PT2179</name></trkpt>
<trkpt lat="53.395901" lon="-1.869464"><ele>613</ele><time>2024-02-10T11:55:27Z</time><name>PT2180</name></trkpt>
<trkpt lat="53.395870" lon="-1.869468"><ele>613</ele><time>2024-02-10T11:55:31Z</time><name>PT2181</name></trkpt>
<trkpt lat="53.395854" lon="-1.869472"><ele>613</ele><time>2024-02-10T11:55:35Z</time><name>PT2182</name></trkpt>
<trkpt lat="53.395846" lon="-1.869461"><ele>612</ele><time>2024-02-10T11:55:38Z</time><name>PT2183</name></trkpt>
<trkpt lat="53.395832" lon="-1.869412"><ele>612</ele><time>2024-02-10T11:55:42Z</time><name>PT2184</name></trkpt>
<trkpt lat="53.395826" lon="-1.869407"><ele>612</ele><time>2024-02-10T11:55:46Z</time><name>PT2185</name></trkpt>
<trkpt lat="53.395811" lon="-1.869393"><ele>612</ele><time>2024-02-10T11:55:54Z</time><name>PT2186</name></trkpt>
<trkpt lat="53.395822" lon="-1.869359"><ele>612</ele><time>2024-02-10T11:55:58Z</time><name>PT2187</name></trkpt>
<trkpt lat="53.395807" lon="-1.869342"><ele>611</ele><time>2024-02-10T11:56:02Z</time><name>PT2188</name></trkpt>
<trkpt lat="53.395796" lon="-1.869345"><ele>610</ele><time>2024-02-10T11:56:06Z</time><name>PT2189</name></trkpt>
<trkpt lat="53.395790" lon="-1.869344"><ele>610</ele><time>2024-02-10T11:56:09Z</time><name>PT2190</name></trkpt>
<trkpt lat="53.395781" lon="-1.869349"><ele>610</ele><time>2024-02-10T11:56:12Z</time><name>PT2191</name></trkpt>
<trkpt lat="53.395771" lon="-1.869341"><ele>611</ele><time>2024-02-10T11:56:16Z</time><name>PT2192</name></trkpt>
<trkpt lat="53.395765" lon="-1.869342"><ele>611</ele><time>2024-02-10T11:56:19Z</time><name>PT2193</name></trkpt>
<trkpt lat="53.395759" lon="-1.869354"><ele>610</ele><time>2024-02-10T11:56:22Z</time><name>PT2194</name></trkpt>
<trkpt lat="53.395748" lon="-1.869364"><ele>610</ele><time>2024-02-10T11:56:25Z</time><name>PT2195</name></trkpt>
<trkpt lat="53.395734" lon="-1.869381"><ele>610</ele><time>2024-02-10T11:56:28Z</time><name>PT2196</name></trkpt>
<trkpt lat="53.395714" lon="-1.869382"><ele>609</ele><time>2024-02-10T11:56:32Z</time><name>PT2197</name></trkpt>
<trkpt lat="53.395705" lon="-1.869352"><ele>609</ele><time>2024-02-10T11:56:35Z</time><name>PT2198</name></trkpt>
<trkpt lat="53.395698" lon="-1.869326"><ele>609</ele><time>2024-02-10T11:56:38Z</time><name>PT2199</name></trkpt>
<trkpt lat="53.395689" lon="-1.869319"><ele>608</ele><time>2024-02-10T11:56:41Z</time><name>PT2200</name></trkpt>
<trkpt lat="53.395671" lon="-1.869299"><ele>608</ele><time>2024-02-10T11:56:45Z</time><name>PT2201</name></trkpt>
<trkpt lat="53.395651" lon="-1.869272"><ele>607</ele><time>2024-02-10T11:56:49Z</time><name>PT2202</name></trkpt>
<trkpt lat="53.395631" lon="-1.869254"><ele>608</ele><time>2024-02-10T11:56:52Z</time><name>PT2203</name></trkpt>
<trkpt lat="53.395609" lon="-1.869243"><ele>607</ele><time>2024-02-10T11:56:56Z</time><name>PT2204</name></trkpt>
<trkpt lat="53.395591" lon="-1.869227"><ele>607</ele><time>2024-02-10T11:57:00Z</time><name>PT2205</name></trkpt>
<trkpt lat="53.395582" lon="-1.869217"><ele>607</ele><time>2024-02-10T11:57:03Z</time><name>PT2206</name></trkpt>
<trkpt lat="53.395577" lon="-1.869211"><ele>608</ele><time>2024-02-10T11:57:07Z</time><name>PT2207</name></trkpt>
<trkpt lat="53.395560" lon="-1.869204"><ele>607</ele><time>2024-02-10T11:57:11Z</time><name>PT2208</name></trkpt>
<trkpt lat="53.395555" lon="-1.869206"><ele>608</ele><time>2024-02-10T11:57:14Z</time><name>PT2209</name></trkpt>
<trkpt lat="53.395554" lon="-1.869213"><ele>608</ele><time>2024-02-10T11:57:20Z</time><name>PT2210</name></trkpt>
<trkpt lat="53.395533" lon="-1.869204"><ele>606</ele><time>2024-02-10T11:57:24Z</time><name>PT2211</name></trkpt>
<trkpt lat="53.395520" lon="-1.869199"><ele>606</ele><time>2024-02-10T11:57:27Z</time><name>PT2212</name></trkpt>
<trkpt lat="53.395509" lon="-1.869187"><ele>605</ele><time>2024-02-10T11:57:31Z</time><name>PT2213</name></trkpt>
<trkpt lat="53.395494" lon="-1.869161"><ele>606</ele><time>2024-02-10T11:57:35Z</time><name>PT2214</name></trkpt>
<trkpt lat="53.395478" lon="-1.869160"><ele>606</ele><time>2024-02-10T11:57:38Z</time><name>PT2215</name></trkpt>
<trkpt lat="53.395462" lon="-1.869164"><ele>606</ele><time>2024-02-10T11:57:42Z</time><name>PT2216</name></trkpt>
<trkpt lat="53.395443" lon="-1.869174"><ele>606</ele><time>2024-02-10T11:57:46Z</time><name>PT2217</name></trkpt>
<trkpt lat="53.395430" lon="-1.869182"><ele>606</ele><time>2024-02-10T11:57:49Z</time><name>PT2218</name></trkpt>
<trkpt lat="53.395413" lon="-1.869174"><ele>606</ele><time>2024-02-10T11:57:52Z</time><name>PT2219</name></trkpt>
<trkpt lat="53.395394" lon="-1.869175"><ele>605</ele><time>2024-02-10T11:57:56Z</time><name>PT2220</name></trkpt>
<trkpt lat="53.395389" lon="-1.869176"><ele>606</ele><time>2024-02-10T11:58:00Z</time><name>PT2221</name></trkpt>
<trkpt lat="53.395375" lon="-1.869149"><ele>606</ele><time>2024-02-10T11:58:04Z</time><name>PT2222</name></trkpt>
<trkpt lat="53.395356" lon="-1.869138"><ele>607</ele><time>2024-02-10T11:58:08Z</time><name>PT2223</name></trkpt>
<trkpt lat="53.395337" lon="-1.869133"><ele>606</ele><time>2024-02-10T11:58:12Z</time><name>PT2224</name></trkpt>
<trkpt lat="53.395320" lon="-1.869136"><ele>605</ele><time>2024-02-10T11:58:19Z</time><name>PT2225</name></trkpt>
<trkpt lat="53.395307" lon="-1.869149"><ele>604</ele><time>2024-02-10T11:58:23Z</time><name>PT2226</name></trkpt>
<trkpt lat="53.395295" lon="-1.869165"><ele>603</ele><time>2024-02-10T11:58:30Z</time><name>PT2227</name></trkpt>
<trkpt lat="53.395276" lon="-1.869171"><ele>602</ele><time>2024-02-10T11:58:33Z</time><name>PT2228</name></trkpt>
<trkpt lat="53.395258" lon="-1.869157"><ele>602</ele><time>2024-02-10T11:58:36Z</time><name>PT2229</name></trkpt>
<trkpt lat="53.395229" lon="-1.869138"><ele>602</ele><time>2024-02-10T11:58:40Z</time><name>PT2230</name></trkpt>
<trkpt lat="53.395200" lon="-1.869121"><ele>603</ele><time>2024-02-10T11:58:43Z</time><name>PT2231</name></trkpt>
<trkpt lat="53.395183" lon="-1.869109"><ele>603</ele><time>2024-02-10T11:58:46Z</time><name>PT2232</name></trkpt>
<trkpt lat="53.395164" lon="-1.869095"><ele>604</ele><time>2024-02-10T11:58:50Z</time><name>PT2233</name></trkpt>
<trkpt lat="53.395148" lon="-1.869083"><ele>604</ele><time>2024-02-10T11:58:53Z</time><name>PT2234</name></trkpt>
<trkpt lat="53.395138" lon="-1.869082"><ele>604</ele><time>2024-02-10T11:58:56Z</time><name>PT2235</name></trkpt>
<trkpt lat="53.395137" lon="-1.869095"><ele>605</ele><time>2024-02-10T11:59:00Z</time><name>PT2236</name></trkpt>
<trkpt lat="53.395127" lon="-1.869102"><ele>605</ele><time>2024-02-10T11:59:03Z</time><name>PT2237</name></trkpt>
<trkpt lat="53.395112" lon="-1.869096"><ele>606</ele><time>2024-02-10T11:59:07Z</time><name>PT2238</name></trkpt>
<trkpt lat="53.395111" lon="-1.869095"><ele>606</ele><time>2024-02-10T11:59:11Z</time><name>PT2239</name></trkpt>
<trkpt lat="53.395110" lon="-1.869081"><ele>605</ele><time>2024-02-10T11:59:15Z</time><name>PT2240</name></trkpt>
<trkpt lat="53.395090" lon="-1.869073"><ele>604</ele><time>2024-02-10T11:59:18Z</time><name>PT2241</name></trkpt>
<trkpt lat="53.395070" lon="-1.869034"><ele>605</ele><time>2024-02-10T11:59:22Z</time><name>PT2242</name></trkpt>
<trkpt lat="53.395046" lon="-1.869019"><ele>607</ele><time>2024-02-10T11:59:26Z</time><name>PT2243</name></trkpt>
<trkpt lat="53.395038" lon="-1.869002"><ele>608</ele><time>2024-02-10T11:59:30Z</time><name>PT2244</name></trkpt>
<trkpt lat="53.395026" lon="-1.868998"><ele>609</ele><time>2024-02-10T11:59:34Z</time><name>PT2245</name></trkpt>
<trkpt lat="53.395009" lon="-1.868986"><ele>609</ele><time>2024-02-10T11:59:37Z</time><name>PT2246</name></trkpt>
<trkpt lat="53.394982" lon="-1.868974"><ele>611</ele><time>2024-02-10T11:59:41Z</time><name>PT2247</name></trkpt>
<trkpt lat="53.394959" lon="-1.868962"><ele>612</ele><time>2024-02-10T11:59:44Z</time><name>PT2248</name></trkpt>
<trkpt lat="53.394931" lon="-1.868952"><ele>610</ele><time>2024-02-10T11:59:48Z</time><name>PT2249</name></trkpt>
<trkpt lat="53.394916" lon="-1.868924"><ele>611</ele><time>2024-02-10T11:59:52Z</time><name>PT2250</name></trkpt>
<trkpt lat="53.394895" lon="-1.868923"><ele>610</ele><time>2024-02-10T11:59:56Z</time><name>PT2251</name></trkpt>
<trkpt lat="53.394886" lon="-1.868915"><ele>607</ele><time>2024-02-10T11:59:59Z</time><name>PT2252</name></trkpt>
<trkpt lat="53.394862" lon="-1.868909"><ele>607</ele><time>2024-02-10T12:00:02Z</time><name>PT2253</name></trkpt>
<trkpt lat="53.394827" lon="-1.868915"><ele>608</ele><time>2024-02-10T12:00:06Z</time><name>PT2254</name></trkpt>
<trkpt lat="53.394797" lon="-1.868886"><ele>607</ele><time>2024-02-10T12:00:10Z</time><name>PT2255</name></trkpt>
<trkpt lat="53.394790" lon="-1.868869"><ele>609</ele><time>2024-02-10T12:00:13Z</time><name>PT2256</name></trkpt>
<trkpt lat="53.394791" lon="-1.868868"><ele>608</ele><time>2024-02-10T12:00:17Z</time><name>PT2257</name></trkpt>
<trkpt lat="53.394776" lon="-1.868855"><ele>608</ele><time>2024-02-10T12:00:20Z</time><name>PT2258</name></trkpt>
<trkpt lat="53.394756" lon="-1.868839"><ele>608</ele><time>2024-02-10T12:00:23Z</time><name>PT2259</name></trkpt>
<trkpt lat="53.394757" lon="-1.868822"><ele>608</ele><time>2024-02-10T12:00:26Z</time><name>PT2260</name></trkpt>
<trkpt lat="53.394749" lon="-1.868796"><ele>606</ele><time>2024-02-10T12:00:30Z</time><name>PT2261</name></trkpt>
<trkpt lat="53.394736" lon="-1.868782"><ele>606</ele><time>2024-02-10T12:00:33Z</time><name>PT2262</name></trkpt>
<trkpt lat="53.394718" lon="-1.868760"><ele>605</ele><time>2024-02-10T12:00:37Z</time><name>PT2263</name></trkpt>
<trkpt lat="53.394700" lon="-1.868733"><ele>606</ele><time>2024-02-10T12:00:40Z</time><name>PT2264</name></trkpt>
<trkpt lat="53.394679" lon="-1.868713"><ele>605</ele><time>2024-02-10T12:00:44Z</time><name>PT2265</name></trkpt>
<trkpt lat="53.394659" lon="-1.868693"><ele>605</ele><time>2024-02-10T12:00:47Z</time><name>PT2266</name></trkpt>
<trkpt lat="53.394647" lon="-1.868673"><ele>605</ele><time>2024-02-10T12:00:50Z</time><name>PT2267</name></trkpt>
<trkpt lat="53.394631" lon="-1.868651"><ele>604</ele><time>2024-02-10T12:00:53Z</time><name>PT2268</name></trkpt>
<trkpt lat="53.394600" lon="-1.868633"><ele>605</ele><time>2024-02-10T12:00:57Z</time><name>PT2269</name></trkpt>
<trkpt lat="53.394570" lon="-1.868621"><ele>606</ele><time>2024-02-10T12:01:00Z</time><name>PT2270</name></trkpt>
<trkpt lat="53.394534" lon="-1.868602"><ele>606</ele><time>2024-02-10T12:01:04Z</time><name>PT2271</name></trkpt>
<trkpt lat="53.394507" lon="-1.868596"><ele>605</ele><time>2024-02-10T12:01:07Z</time><name>PT2272</name></trkpt>
<trkpt lat="53.394479" lon="-1.868594"><ele>606</ele><time>2024-02-10T12:01:10Z</time><name>PT2273</name></trkpt>
<trkpt lat="53.394450" lon="-1.868576"><ele>605</ele><time>2024-02-10T12:01:14Z</time><name>PT2274</name></trkpt>
<trkpt lat="53.394423" lon="-1.868567"><ele>605</ele><time>2024-02-10T12:01:17Z</time><name>PT2275</name></trkpt>
<trkpt lat="53.394383" lon="-1.868559"><ele>605</ele><time>2024-02-10T12:01:21Z</time><name>PT2276</name></trkpt>
<trkpt lat="53.394354" lon="-1.868551"><ele>605</ele><time>2024-02-10T12:01:24Z</time><name>PT2277</name></trkpt>
<trkpt lat="53.394324" lon="-1.868551"><ele>605</ele><time>2024-02-10T12:01:27Z</time><name>PT2278</name></trkpt>
<trkpt lat="53.394299" lon="-1.868547"><ele>604</ele><time>2024-02-10T12:01:31Z</time><name>PT2279</name></trkpt>
<trkpt lat="53.394277" lon="-1.868522"><ele>604</ele><time>2024-02-10T12:01:34Z</time><name>PT2280</name></trkpt>
<trkpt lat="53.394249" lon="-1.868477"><ele>603</ele><time>2024-02-10T12:01:38Z</time><name>PT2281</name></trkpt>
<trkpt lat="53.394233" lon="-1.868438"><ele>602</ele><time>2024-02-10T12:01:41Z</time><name>PT2282</name></trkpt>
<trkpt lat="53.394196" lon="-1.868401"><ele>602</ele><time>2024-02-10T12:01:45Z</time><name>PT2283</name></trkpt>
<trkpt lat="53.394167" lon="-1.868364"><ele>602</ele><time>2024-02-10T12:01:49Z</time><name>PT2284</name></trkpt>
<trkpt lat="53.394150" lon="-1.868326"><ele>602</ele><time>2024-02-10T12:01:53Z</time><name>PT2285</name></trkpt>
<trkpt lat="53.394148" lon="-1.868302"><ele>602</ele><time>2024-02-10T12:01:56Z</time><name>PT2286</name></trkpt>
<trkpt lat="53.394150" lon="-1.868264"><ele>602</ele><time>2024-02-10T12:02:00Z</time><name>PT2287</name></trkpt>
<trkpt lat="53.394139" lon="-1.868232"><ele>603</ele><time>2024-02-10T12:02:04Z</time><name>PT2288</name></trkpt>
<trkpt lat="53.394113" lon="-1.868219"><ele>604</ele><time>2024-02-10T12:02:07Z</time><name>PT2289</name></trkpt>
<trkpt lat="53.394087" lon="-1.868190"><ele>604</ele><time>2024-02-10T12:02:11Z</time><name>PT2290</name></trkpt>
<trkpt lat="53.394062" lon="-1.868153"><ele>604</ele><time>2024-02-10T12:02:15Z</time><name>PT2291</name></trkpt>
<trkpt lat="53.394037" lon="-1.868141"><ele>604</ele><time>2024-02-10T12:02:18Z</time><name>PT2292</name></trkpt>
<trkpt lat="53.394009" lon="-1.868116"><ele>603</ele><time>2024-02-10T12:02:22Z</time><name>PT2293</name></trkpt>
<trkpt lat="53.393980" lon="-1.868088"><ele>603</ele><time>2024-02-10T12:02:26Z</time><name>PT2294</name></trkpt>
<trkpt lat="53.393958" lon="-1.868082"><ele>603</ele><time>2024-02-10T12:02:29Z</time><name>PT2295</name></trkpt>
<trkpt lat="53.393933" lon="-1.868088"><ele>603</ele><time>2024-02-10T12:02:32Z</time><name>PT2296</name></trkpt>
<trkpt lat="53.393904" lon="-1.868095"><ele>603</ele><time>2024-02-10T12:02:35Z</time><name>PT2297</name></trkpt>
<trkpt lat="53.393864" lon="-1.868092"><ele>603</ele><time>2024-02-10T12:02:39Z</time><name>PT2298</name></trkpt>
<trkpt lat="53.393830" lon="-1.868074"><ele>602</ele><time>2024-02-10T12:02:43Z</time><name>PT2299</name></trkpt>
<trkpt lat="53.393806" lon="-1.868071"><ele>602</ele><time>2024-02-10T12:02:46Z</time><name>PT2300</name></trkpt>
<trkpt lat="53.393772" lon="-1.868094"><ele>601</ele><time>2024-02-10T12:02:50Z</time><name>PT2301</name></trkpt>
<trkpt lat="53.393759" lon="-1.868081"><ele>601</ele><time>2024-02-10T12:02:53Z</time><name>PT2302</name></trkpt>
<trkpt lat="53.393753" lon="-1.868067"><ele>602</ele><time>2024-02-10T12:02:56Z</time><name>PT2303</name></trkpt>
<trkpt lat="53.393748" lon="-1.868054"><ele>603</ele><time>2024-02-10T12:02:59Z</time><name>PT2304</name></trkpt>
<trkpt lat="53.393739" lon="-1.868052"><ele>604</ele><time>2024-02-10T12:03:03Z</time><name>PT2305</name></trkpt>
<trkpt lat="53.393727" lon="-1.868043"><ele>604</ele><time>2024-02-10T12:03:06Z</time><name>PT2306</name></trkpt>
<trkpt lat="53.393710" lon="-1.868033"><ele>604</ele><time>2024-02-10T12:03:09Z</time><name>PT2307</name></trkpt>
<trkpt lat="53.393694" lon="-1.868026"><ele>607</ele><time>2024-02-10T12:03:12Z</time><name>PT2308</name></trkpt>
<trkpt lat="53.393687" lon="-1.868026"><ele>608</ele><time>2024-02-10T12:03:15Z</time><name>PT2309</name></trkpt>
<trkpt lat="53.393683" lon="-1.868032"><ele>609</ele><time>2024-02-10T12:04:08Z</time><name>PT2310</name></trkpt>
<trkpt lat="53.393677" lon="-1.868030"><ele>609</ele><time>2024-02-10T12:04:11Z</time><name>PT2311</name></trkpt>
<trkpt lat="53.393673" lon="-1.868027"><ele>610</ele><time>2024-02-10T12:04:25Z</time><name>PT2312</name></trkpt>
<trkpt lat="53.393672" lon="-1.868028"><ele>610</ele><time>2024-02-10T12:04:29Z</time><name>PT2313</name></trkpt>
<trkpt lat="53.393666" lon="-1.868027"><ele>609</ele><time>2024-02-10T12:05:04Z</time><name>PT2314</name></trkpt>
<trkpt lat="53.393668" lon="-1.868028"><ele>609</ele><time>2024-02-10T12:05:08Z</time><name>PT2315</name></trkpt>
<trkpt lat="53.393667" lon="-1.868028"><ele>610</ele><time>2024-02-10T12:05:11Z</time><name>PT2316</name></trkpt>
<trkpt lat="53.393661" lon="-1.868044"><ele>608</ele><time>2024-02-10T12:05:31Z</time><name>PT2317</name></trkpt>
<trkpt lat="53.393659" lon="-1.868046"><ele>608</ele><time>2024-02-10T12:05:34Z</time><name>PT2318</name></trkpt>
<trkpt lat="53.393659" lon="-1.868045"><ele>608</ele><time>2024-02-10T12:05:38Z</time><name>PT2319</name></trkpt>
<trkpt lat="53.393655" lon="-1.868031"><ele>608</ele><time>2024-02-10T12:06:08Z</time><name>PT2320</name></trkpt>
<trkpt lat="53.393640" lon="-1.868016"><ele>608</ele><time>2024-02-10T12:07:29Z</time><name>PT2321</name></trkpt>
<trkpt lat="53.393631" lon="-1.867980"><ele>609</ele><time>2024-02-10T12:07:32Z</time><name>PT2322</name></trkpt>
<trkpt lat="53.393616" lon="-1.867956"><ele>608</ele><time>2024-02-10T12:07:35Z</time><name>PT2323</name></trkpt>
<trkpt lat="53.393610" lon="-1.867924"><ele>607</ele><time>2024-02-10T12:07:39Z</time><name>PT2324</name></trkpt>
<trkpt lat="53.393597" lon="-1.867892"><ele>608</ele><time>2024-02-10T12:07:42Z</time><name>PT2325</name></trkpt>
<trkpt lat="53.393584" lon="-1.867878"><ele>608</ele><time>2024-02-10T12:07:46Z</time><name>PT2326</name></trkpt>
<trkpt lat="53.393579" lon="-1.867874"><ele>608</ele><time>2024-02-10T12:07:49Z</time><name>PT2327</name></trkpt>
<trkpt lat="53.393556" lon="-1.867874"><ele>608</ele><time>2024-02-10T12:07:53Z</time><name>PT2328</name></trkpt>
<trkpt lat="53.393540" lon="-1.867862"><ele>609</ele><time>2024-02-10T12:07:56Z</time><name>PT2329</name></trkpt>
<trkpt lat="53.393521" lon="-1.867877"><ele>608</ele><time>2024-02-10T12:08:00Z</time><name>PT2330</name></trkpt>
<trkpt lat="53.393502" lon="-1.867870"><ele>608</ele><time>2024-02-10T12:08:03Z</time><name>PT2331</name></trkpt>
<trkpt lat="53.393482" lon="-1.867873"><ele>608</ele><time>2024-02-10T12:08:06Z</time><name>PT2332</name></trkpt>
<trkpt lat="53.393451" lon="-1.867873"><ele>608</ele><time>2024-02-10T12:08:09Z</time><name>PT2333</name></trkpt>
<trkpt lat="53.393414" lon="-1.867869"><ele>608</ele><time>2024-02-10T12:08:13Z</time><name>PT2334</name></trkpt>
<trkpt lat="53.393380" lon="-1.867859"><ele>609</ele><time>2024-02-10T12:08:17Z</time><name>PT2335</name></trkpt>
<trkpt lat="53.393350" lon="-1.867855"><ele>608</ele><time>2024-02-10T12:08:20Z</time><name>PT2336</name></trkpt>
<trkpt lat="53.393313" lon="-1.867859"><ele>609</ele><time>2024-02-10T12:08:24Z</time><name>PT2337</name></trkpt>
<trkpt lat="53.393283" lon="-1.867870"><ele>608</ele><time>2024-02-10T12:08:28Z</time><name>PT2338</name></trkpt>
<trkpt lat="53.393264" lon="-1.867873"><ele>607</ele><time>2024-02-10T12:08:32Z</time><name>PT2339</name></trkpt>
<trkpt lat="53.393250" lon="-1.867908"><ele>606</ele><time>2024-02-10T12:08:35Z</time><name>PT2340</name></trkpt>
<trkpt lat="53.393235" lon="-1.867935"><ele>607</ele><time>2024-02-10T12:08:38Z</time><name>PT2341</name></trkpt>
<trkpt lat="53.393204" lon="-1.867954"><ele>607</ele><time>2024-02-10T12:08:42Z</time><name>PT2342</name></trkpt>
<trkpt lat="53.393179" lon="-1.867965"><ele>608</ele><time>2024-02-10T12:08:45Z</time><name>PT2343</name></trkpt>
<trkpt lat="53.393145" lon="-1.867986"><ele>607</ele><time>2024-02-10T12:08:49Z</time><name>PT2344</name></trkpt>
<trkpt lat="53.393117" lon="-1.867981"><ele>607</ele><time>2024-02-10T12:08:52Z</time><name>PT2345</name></trkpt>
<trkpt lat="53.393077" lon="-1.867946"><ele>608</ele><time>2024-02-10T12:08:56Z</time><name>PT2346</name></trkpt>
<trkpt lat="53.393053" lon="-1.867928"><ele>607</ele><time>2024-02-10T12:08:59Z</time><name>PT2347</name></trkpt>
<trkpt lat="53.393027" lon="-1.867925"><ele>607</ele><time>2024-02-10T12:09:02Z</time><name>PT2348</name></trkpt>
<trkpt lat="53.392997" lon="-1.867918"><ele>607</ele><time>2024-02-10T12:09:05Z</time><name>PT2349</name></trkpt>
<trkpt lat="53.392955" lon="-1.867896"><ele>606</ele><time>2024-02-10T12:09:09Z</time><name>PT2350</name></trkpt>
<trkpt lat="53.392918" lon="-1.867857"><ele>606</ele><time>2024-02-10T12:09:13Z</time><name>PT2351</name></trkpt>
<trkpt lat="53.392898" lon="-1.867829"><ele>607</ele><time>2024-02-10T12:09:16Z</time><name>PT2352</name></trkpt>
<trkpt lat="53.392881" lon="-1.867800"><ele>607</ele><time>2024-02-10T12:09:20Z</time><name>PT2353</name></trkpt>
<trkpt lat="53.392868" lon="-1.867803"><ele>608</ele><time>2024-02-10T12:09:24Z</time><name>PT2354</name></trkpt>
<trkpt lat="53.392835" lon="-1.867806"><ele>608</ele><time>2024-02-10T12:09:28Z</time><name>PT2355</name></trkpt>
<trkpt lat="53.392804" lon="-1.867818"><ele>608</ele><time>2024-02-10T12:09:32Z</time><name>PT2356</name></trkpt>
<trkpt lat="53.392777" lon="-1.867829"><ele>608</ele><time>2024-02-10T12:09:36Z</time><name>PT2357</name></trkpt>
<trkpt lat="53.392745" lon="-1.867836"><ele>608</ele><time>2024-02-10T12:09:39Z</time><name>PT2358</name></trkpt>
<trkpt lat="53.392706" lon="-1.867855"><ele>608</ele><time>2024-02-10T12:09:43Z</time><name>PT2359</name></trkpt>
<trkpt lat="53.392672" lon="-1.867854"><ele>609</ele><time>2024-02-10T12:09:47Z</time><name>PT2360</name></trkpt>
<trkpt lat="53.392654" lon="-1.867857"><ele>609</ele><time>2024-02-10T12:09:50Z</time><name>PT2361</name></trkpt>
<trkpt lat="53.392620" lon="-1.867862"><ele>609</ele><time>2024-02-10T12:09:54Z</time><name>PT2362</name></trkpt>
<trkpt lat="53.392593" lon="-1.867863"><ele>609</ele><time>2024-02-10T12:09:57Z</time><name>PT2363</name></trkpt>
<trkpt lat="53.392566" lon="-1.867871"><ele>609</ele><time>2024-02-10T12:10:00Z</time><name>PT2364</name></trkpt>
<trkpt lat="53.392524" lon="-1.867839"><ele>610</ele><time>2024-02-10T12:10:04Z</time><name>PT2365</name></trkpt>
<trkpt lat="53.392492" lon="-1.867832"><ele>609</ele><time>2024-02-10T12:10:07Z</time><name>PT2366</name></trkpt>
<trkpt lat="53.392453" lon="-1.867813"><ele>609</ele><time>2024-02-10T12:10:11Z</time><name>PT2367</name></trkpt>
<trkpt lat="53.392430" lon="-1.867805"><ele>609</ele><time>2024-02-10T12:10:14Z</time><name>PT2368</name></trkpt>
<trkpt lat="53.392409" lon="-1.867790"><ele>608</ele><time>2024-02-10T12:10:17Z</time><name>PT2369</name></trkpt>
<trkpt lat="53.392386" lon="-1.867776"><ele>607</ele><time>2024-02-10T12:10:20Z</time><name>PT2370</name></trkpt>
<trkpt lat="53.392338" lon="-1.867771"><ele>607</ele><time>2024-02-10T12:10:24Z</time><name>PT2371</name></trkpt>
<trkpt lat="53.392313" lon="-1.867765"><ele>607</ele><time>2024-02-10T12:10:27Z</time><name>PT2372</name></trkpt>
<trkpt lat="53.392290" lon="-1.867740"><ele>608</ele><time>2024-02-10T12:10:30Z</time><name>PT2373</name></trkpt>
<trkpt lat="53.392257" lon="-1.867711"><ele>608</ele><time>2024-02-10T12:10:34Z</time><name>PT2374</name></trkpt>
<trkpt lat="53.392236" lon="-1.867691"><ele>608</ele><time>2024-02-10T12:10:37Z</time><name>PT2375</name></trkpt>
<trkpt lat="53.392198" lon="-1.867666"><ele>608</ele><time>2024-02-10T12:10:41Z</time><name>PT2376</name></trkpt>
<trkpt lat="53.392173" lon="-1.867648"><ele>609</ele><time>2024-02-10T12:10:44Z</time><name>PT2377</name></trkpt>
<trkpt lat="53.392148" lon="-1.867622"><ele>609</ele><time>2024-02-10T12:10:48Z</time><name>PT2378</name></trkpt>
<trkpt lat="53.392132" lon="-1.867593"><ele>609</ele><time>2024-02-10T12:10:51Z</time><name>PT2379</name></trkpt>
<trkpt lat="53.392106" lon="-1.867541"><ele>610</ele><time>2024-02-10T12:10:55Z</time><name>PT2380</name></trkpt>
<trkpt lat="53.392090" lon="-1.867484"><ele>611</ele><time>2024-02-10T12:10:58Z</time><name>PT2381</name></trkpt>
<trkpt lat="53.392082" lon="-1.867434"><ele>612</ele><time>2024-02-10T12:11:01Z</time><name>PT2382</name></trkpt>
<trkpt lat="53.392064" lon="-1.867369"><ele>613</ele><time>2024-02-10T12:11:05Z</time><name>PT2383</name></trkpt>
<trkpt lat="53.392057" lon="-1.867335"><ele>613</ele><time>2024-02-10T12:11:08Z</time><name>PT2384</name></trkpt>
<trkpt lat="53.392047" lon="-1.867296"><ele>613</ele><time>2024-02-10T12:11:11Z</time><name>PT2385</name></trkpt>
<trkpt lat="53.392049" lon="-1.867248"><ele>613</ele><time>2024-02-10T12:11:15Z</time><name>PT2386</name></trkpt>
<trkpt lat="53.392047" lon="-1.867206"><ele>614</ele><time>2024-02-10T12:11:19Z</time><name>PT2387</name></trkpt>
<trkpt lat="53.392043" lon="-1.867190"><ele>613</ele><time>2024-02-10T12:11:22Z</time><name>PT2388</name></trkpt>
<trkpt lat="53.392035" lon="-1.867161"><ele>613</ele><time>2024-02-10T12:11:26Z</time><name>PT2389</name></trkpt>
<trkpt lat="53.392023" lon="-1.867138"><ele>613</ele><time>2024-02-10T12:11:29Z</time><name>PT2390</name></trkpt>
<trkpt lat="53.392025" lon="-1.867085"><ele>613</ele><time>2024-02-10T12:11:32Z</time><name>PT2391</name></trkpt>
<trkpt lat="53.392019" lon="-1.867094"><ele>612</ele><time>2024-02-10T12:11:35Z</time><name>PT2392</name></trkpt>
<trkpt lat="53.392006" lon="-1.867040"><ele>613</ele><time>2024-02-10T12:11:39Z</time><name>PT2393</name></trkpt>
<trkpt lat="53.391993" lon="-1.866990"><ele>613</ele><time>2024-02-10T12:11:42Z</time><name>PT2394</name></trkpt>
<trkpt lat="53.391974" lon="-1.866913"><ele>615</ele><time>2024-02-10T12:11:46Z</time><name>PT2395</name></trkpt>
<trkpt lat="53.391966" lon="-1.866868"><ele>616</ele><time>2024-02-10T12:11:49Z</time><name>PT2396</name></trkpt>
<trkpt lat="53.391962" lon="-1.866805"><ele>616</ele><time>2024-02-10T12:11:53Z</time><name>PT2397</name></trkpt>
<trkpt lat="53.391973" lon="-1.866759"><ele>617</ele><time>2024-02-10T12:11:56Z</time><name>PT2398</name></trkpt>
<trkpt lat="53.391990" lon="-1.866705"><ele>617</ele><time>2024-02-10T12:12:00Z</time><name>PT2399</name></trkpt>
<trkpt lat="53.392009" lon="-1.866654"><ele>617</ele><time>2024-02-10T12:12:04Z</time><name>PT2400</name></trkpt>
<trkpt lat="53.392020" lon="-1.866586"><ele>616</ele><time>2024-02-10T12:12:08Z</time><name>PT2401</name></trkpt>
<trkpt lat="53.392025" lon="-1.866510"><ele>616</ele><time>2024-02-10T12:12:12Z</time><name>PT2402</name></trkpt>
<trkpt lat="53.392036" lon="-1.866445"><ele>616</ele><time>2024-02-10T12:12:16Z</time><name>PT2403</name></trkpt>
<trkpt lat="53.392039" lon="-1.866401"><ele>616</ele><time>2024-02-10T12:12:19Z</time><name>PT2404</name></trkpt>
<trkpt lat="53.392032" lon="-1.866370"><ele>616</ele><time>2024-02-10T12:12:23Z</time><name>PT2405</name></trkpt>
<trkpt lat="53.392021" lon="-1.866383"><ele>617</ele><time>2024-02-10T12:12:26Z</time><name>PT2406</name></trkpt>
<trkpt lat="53.391999" lon="-1.866403"><ele>616</ele><time>2024-02-10T12:12:30Z</time><name>PT2407</name></trkpt>
<trkpt lat="53.392007" lon="-1.866385"><ele>615</ele><time>2024-02-10T12:12:34Z</time><name>PT2408</name></trkpt>
<trkpt lat="53.392021" lon="-1.866351"><ele>615</ele><time>2024-02-10T12:12:38Z</time><name>PT2409</name></trkpt>
<trkpt lat="53.392017" lon="-1.866304"><ele>615</ele><time>2024-02-10T12:12:42Z</time><name>PT2410</name></trkpt>
<trkpt lat="53.392020" lon="-1.866272"><ele>614</ele><time>2024-02-10T12:12:46Z</time><name>PT2411</name></trkpt>
<trkpt lat="53.392018" lon="-1.866255"><ele>614</ele><time>2024-02-10T12:12:49Z</time><name>PT2412</name></trkpt>
<trkpt lat="53.392022" lon="-1.866229"><ele>613</ele><time>2024-02-10T12:12:53Z</time><name>PT2413</name></trkpt>
<trkpt lat="53.392020" lon="-1.866198"><ele>613</ele><time>2024-02-10T12:12:56Z</time><name>PT2414</name></trkpt>
<trkpt lat="53.392013" lon="-1.866176"><ele>613</ele><time>2024-02-10T12:13:00Z</time><name>PT2415</name></trkpt>
<trkpt lat="53.392003" lon="-1.866166"><ele>614</ele><time>2024-02-10T12:13:03Z</time><name>PT2416</name></trkpt>
<trkpt lat="53.391990" lon="-1.866144"><ele>613</ele><time>2024-02-10T12:13:06Z</time><name>PT2417</name></trkpt>
<trkpt lat="53.391968" lon="-1.866092"><ele>613</ele><time>2024-02-10T12:13:10Z</time><name>PT2418</name></trkpt>
<trkpt lat="53.391944" lon="-1.866042"><ele>613</ele><time>2024-02-10T12:13:14Z</time><name>PT2419</name></trkpt>
<trkpt lat="53.391933" lon="-1.865998"><ele>613</ele><time>2024-02-10T12:13:17Z</time><name>PT2420</name></trkpt>
<trkpt lat="53.391909" lon="-1.865965"><ele>613</ele><time>2024-02-10T12:13:21Z</time><name>PT2421</name></trkpt>
<trkpt lat="53.391895" lon="-1.865942"><ele>612</ele><time>2024-02-10T12:13:25Z</time><name>PT2422</name></trkpt>
<trkpt lat="53.391877" lon="-1.865905"><ele>612</ele><time>2024-02-10T12:13:29Z</time><name>PT2423</name></trkpt>
<trkpt lat="53.391855" lon="-1.865835"><ele>612</ele><time>2024-02-10T12:13:33Z</time><name>PT2424</name></trkpt>
<trkpt lat="53.391839" lon="-1.865788"><ele>612</ele><time>2024-02-10T12:13:36Z</time><name>PT2425</name></trkpt>
<trkpt lat="53.391813" lon="-1.865741"><ele>611</ele><time>2024-02-10T12:13:40Z</time><name>PT2426</name></trkpt>
<trkpt lat="53.391787" lon="-1.865706"><ele>610</ele><time>2024-02-10T12:13:44Z</time><name>PT2427</name></trkpt>
<trkpt lat="53.391749" lon="-1.865688"><ele>611</ele><time>2024-02-10T12:13:48Z</time><name>PT2428</name></trkpt>
<trkpt lat="53.391733" lon="-1.865660"><ele>609</ele><time>2024-02-10T12:13:52Z</time><name>PT2429</name></trkpt>
<trkpt lat="53.391720" lon="-1.865641"><ele>609</ele><time>2024-02-10T12:13:56Z</time><name>PT2430</name></trkpt>
<trkpt lat="53.391697" lon="-1.865630"><ele>610</ele><time>2024-02-10T12:14:00Z</time><name>PT2431</name></trkpt>
<trkpt lat="53.391673" lon="-1.865602"><ele>610</ele><time>2024-02-10T12:14:04Z</time><name>PT2432</name></trkpt>
<trkpt lat="53.391655" lon="-1.865567"><ele>609</ele><time>2024-02-10T12:14:07Z</time><name>PT2433</name></trkpt>
<trkpt lat="53.391640" lon="-1.865528"><ele>610</ele><time>2024-02-10T12:14:10Z</time><name>PT2434</name></trkpt>
<trkpt lat="53.391627" lon="-1.865496"><ele>611</ele><time>2024-02-10T12:14:13Z</time><name>PT2435</name></trkpt>
<trkpt lat="53.391624" lon="-1.865482"><ele>610</ele><time>2024-02-10T12:14:17Z</time><name>PT2436</name></trkpt>
<trkpt lat="53.391625" lon="-1.865472"><ele>610</ele><time>2024-02-10T12:14:20Z</time><name>PT2437</name></trkpt>
<trkpt lat="53.391628" lon="-1.865446"><ele>610</ele><time>2024-02-10T12:14:23Z</time><name>PT2438</name></trkpt>
<trkpt lat="53.391634" lon="-1.865407"><ele>610</ele><time>2024-02-10T12:14:27Z</time><name>PT2439</name></trkpt>
<trkpt lat="53.391627" lon="-1.865405"><ele>610</ele><time>2024-02-10T12:14:31Z</time><name>PT2440</name></trkpt>
<trkpt lat="53.391605" lon="-1.865418"><ele>611</ele><time>2024-02-10T12:14:35Z</time><name>PT2441</name></trkpt>
<trkpt lat="53.391594" lon="-1.865422"><ele>610</ele><time>2024-02-10T12:14:38Z</time><name>PT2442</name></trkpt>
<trkpt lat="53.391587" lon="-1.865391"><ele>608</ele><time>2024-02-10T12:14:41Z</time><name>PT2443</name></trkpt>
<trkpt lat="53.391566" lon="-1.865358"><ele>608</ele><time>2024-02-10T12:14:44Z</time><name>PT2444</name></trkpt>
<trkpt lat="53.391539" lon="-1.865309"><ele>609</ele><time>2024-02-10T12:14:48Z</time><name>PT2445</name></trkpt>
<trkpt lat="53.391531" lon="-1.865279"><ele>609</ele><time>2024-02-10T12:14:51Z</time><name>PT2446</name></trkpt>
<trkpt lat="53.391524" lon="-1.865247"><ele>609</ele><time>2024-02-10T12:14:54Z</time><name>PT2447</name></trkpt>
<trkpt lat="53.391518" lon="-1.865186"><ele>609</ele><time>2024-02-10T12:14:58Z</time><name>PT2448</name></trkpt>
<trkpt lat="53.391501" lon="-1.865152"><ele>610</ele><time>2024-02-10T12:15:01Z</time><name>PT2449</name></trkpt>
<trkpt lat="53.391484" lon="-1.865120"><ele>611</ele><time>2024-02-10T12:15:04Z</time><name>PT2450</name></trkpt>
<trkpt lat="53.391470" lon="-1.865083"><ele>610</ele><time>2024-02-10T12:15:07Z</time><name>PT2451</name></trkpt>
<trkpt lat="53.391456" lon="-1.865040"><ele>610</ele><time>2024-02-10T12:15:10Z</time><name>PT2452</name></trkpt>
<trkpt lat="53.391440" lon="-1.865017"><ele>611</ele><time>2024-02-10T12:15:13Z</time><name>PT2453</name></trkpt>
<trkpt lat="53.391420" lon="-1.864956"><ele>611</ele><time>2024-02-10T12:15:17Z</time><name>PT2454</name></trkpt>
<trkpt lat="53.391403" lon="-1.864913"><ele>611</ele><time>2024-02-10T12:15:20Z</time><name>PT2455</name></trkpt>
<trkpt lat="53.391379" lon="-1.864887"><ele>611</ele><time>2024-02-10T12:15:23Z</time><name>PT2456</name></trkpt>
<trkpt lat="53.391360" lon="-1.864833"><ele>612</ele><time>2024-02-10T12:15:27Z</time><name>PT2457</name></trkpt>
<trkpt lat="53.391357" lon="-1.864799"><ele>611</ele><time>2024-02-10T12:15:30Z</time><name>PT2458</name></trkpt>
<trkpt lat="53.391337" lon="-1.864779"><ele>611</ele><time>2024-02-10T12:15:34Z</time><name>PT2459</name></trkpt>
<trkpt lat="53.391310" lon="-1.864770"><ele>611</ele><time>2024-02-10T12:15:38Z</time><name>PT2460</name></trkpt>
<trkpt lat="53.391278" lon="-1.864761"><ele>612</ele><time>2024-02-10T12:15:42Z</time><name>PT2461</name></trkpt>
<trkpt lat="53.391249" lon="-1.864748"><ele>613</ele><time>2024-02-10T12:15:46Z</time><name>PT2462</name></trkpt>
<trkpt lat="53.391229" lon="-1.864733"><ele>613</ele><time>2024-02-10T12:15:50Z</time><name>PT2463</name></trkpt>
<trkpt lat="53.391197" lon="-1.864692"><ele>613</ele><time>2024-02-10T12:15:54Z</time><name>PT2464</name></trkpt>
<trkpt lat="53.391181" lon="-1.864645"><ele>613</ele><time>2024-02-10T12:15:58Z</time><name>PT2465</name></trkpt>
<trkpt lat="53.391166" lon="-1.864596"><ele>614</ele><time>2024-02-10T12:16:01Z</time><name>PT2466</name></trkpt>
<trkpt lat="53.391153" lon="-1.864560"><ele>614</ele><time>2024-02-10T12:16:04Z</time><name>PT2467</name></trkpt>
<trkpt lat="53.391144" lon="-1.864526"><ele>614</ele><time>2024-02-10T12:16:07Z</time><name>PT2468</name></trkpt>
<trkpt lat="53.391136" lon="-1.864484"><ele>614</ele><time>2024-02-10T12:16:11Z</time><name>PT2469</name></trkpt>
<trkpt lat="53.391127" lon="-1.864457"><ele>614</ele><time>2024-02-10T12:16:14Z</time><name>PT2470</name></trkpt>
<trkpt lat="53.391115" lon="-1.864435"><ele>617</ele><time>2024-02-10T12:16:18Z</time><name>PT2471</name></trkpt>
<trkpt lat="53.391107" lon="-1.864414"><ele>617</ele><time>2024-02-10T12:16:21Z</time><name>PT2472</name></trkpt>
<trkpt lat="53.391101" lon="-1.864375"><ele>617</ele><time>2024-02-10T12:16:24Z</time><name>PT2473</name></trkpt>
<trkpt lat="53.391090" lon="-1.864329"><ele>618</ele><time>2024-02-10T12:16:27Z</time><name>PT2474</name></trkpt>
<trkpt lat="53.391073" lon="-1.864277"><ele>618</ele><time>2024-02-10T12:16:31Z</time><name>PT2475</name></trkpt>
<trkpt lat="53.391048" lon="-1.864225"><ele>619</ele><time>2024-02-10T12:16:35Z</time><name>PT2476</name></trkpt>
<trkpt lat="53.391035" lon="-1.864178"><ele>619</ele><time>2024-02-10T12:16:38Z</time><name>PT2477</name></trkpt>
<trkpt lat="53.391009" lon="-1.864133"><ele>619</ele><time>2024-02-10T12:16:42Z</time><name>PT2478</name></trkpt>
<trkpt lat="53.390988" lon="-1.864100"><ele>618</ele><time>2024-02-10T12:16:45Z</time><name>PT2479</name></trkpt>
<trkpt lat="53.390964" lon="-1.864048"><ele>617</ele><time>2024-02-10T12:16:49Z</time><name>PT2480</name></trkpt>
<trkpt lat="53.390940" lon="-1.864021"><ele>616</ele><time>2024-02-10T12:16:52Z</time><name>PT2481</name></trkpt>
<trkpt lat="53.390923" lon="-1.863987"><ele>616</ele><time>2024-02-10T12:16:55Z</time><name>PT2482</name></trkpt>
<trkpt lat="53.390905" lon="-1.863944"><ele>616</ele><time>2024-02-10T12:16:58Z</time><name>PT2483</name></trkpt>
<trkpt lat="53.390882" lon="-1.863906"><ele>616</ele><time>2024-02-10T12:17:01Z</time><name>PT2484</name></trkpt>
<trkpt lat="53.390864" lon="-1.863867"><ele>616</ele><time>2024-02-10T12:17:04Z</time><name>PT2485</name></trkpt>
<trkpt lat="53.390840" lon="-1.863830"><ele>616</ele><time>2024-02-10T12:17:08Z</time><name>PT2486</name></trkpt>
<trkpt lat="53.390832" lon="-1.863799"><ele>616</ele><time>2024-02-10T12:17:11Z</time><name>PT2487</name></trkpt>
<trkpt lat="53.390812" lon="-1.863762"><ele>616</ele><time>2024-02-10T12:17:15Z</time><name>PT2488</name></trkpt>
<trkpt lat="53.390796" lon="-1.863739"><ele>617</ele><time>2024-02-10T12:17:18Z</time><name>PT2489</name></trkpt>
<trkpt lat="53.390779" lon="-1.863713"><ele>617</ele><time>2024-02-10T12:17:21Z</time><name>PT2490</name></trkpt>
<trkpt lat="53.390756" lon="-1.863670"><ele>616</ele><time>2024-02-10T12:17:25Z</time><name>PT2491</name></trkpt>
<trkpt lat="53.390736" lon="-1.863638"><ele>616</ele><time>2024-02-10T12:17:28Z</time><name>PT2492</name></trkpt>
<trkpt lat="53.390705" lon="-1.863621"><ele>616</ele><time>2024-02-10T12:17:32Z</time><name>PT2493</name></trkpt>
<trkpt lat="53.390689" lon="-1.863597"><ele>617</ele><time>2024-02-10T12:17:35Z</time><name>PT2494</name></trkpt>
<trkpt lat="53.390678" lon="-1.863572"><ele>618</ele><time>2024-02-10T12:17:38Z</time><name>PT2495</name></trkpt>
<trkpt lat="53.390671" lon="-1.863537"><ele>620</ele><time>2024-02-10T12:17:41Z</time><name>PT2496</name></trkpt>
<trkpt lat="53.390668" lon="-1.863471"><ele>620</ele><time>2024-02-10T12:17:45Z</time><name>PT2497</name></trkpt>
<trkpt lat="53.390656" lon="-1.863417"><ele>620</ele><time>2024-02-10T12:17:49Z</time><name>PT2498</name></trkpt>
<trkpt lat="53.390645" lon="-1.863379"><ele>619</ele><time>2024-02-10T12:17:52Z</time><name>PT2499</name></trkpt>
<trkpt lat="53.390625" lon="-1.863329"><ele>619</ele><time>2024-02-10T12:17:56Z</time><name>PT2500</name></trkpt>
<trkpt lat="53.390630" lon="-1.863282"><ele>619</ele><time>2024-02-10T12:18:00Z</time><name>PT2501</name></trkpt>
<trkpt lat="53.390629" lon="-1.863248"><ele>619</ele><time>2024-02-10T12:18:03Z</time><name>PT2502</name></trkpt>
<trkpt lat="53.390623" lon="-1.863215"><ele>618</ele><time>2024-02-10T12:18:06Z</time><name>PT2503</name></trkpt>
<trkpt lat="53.390611" lon="-1.863165"><ele>618</ele><time>2024-02-10T12:18:09Z</time><name>PT2504</name></trkpt>
<trkpt lat="53.390584" lon="-1.863101"><ele>618</ele><time>2024-02-10T12:18:13Z</time><name>PT2505</name></trkpt>
<trkpt lat="53.390547" lon="-1.863067"><ele>618</ele><time>2024-02-10T12:18:17Z</time><name>PT2506</name></trkpt>
<trkpt lat="53.390520" lon="-1.863028"><ele>618</ele><time>2024-02-10T12:18:20Z</time><name>PT2507</name></trkpt>
<trkpt lat="53.390499" lon="-1.862970"><ele>618</ele><time>2024-02-10T12:18:24Z</time><name>PT2508</name></trkpt>
<trkpt lat="53.390487" lon="-1.862914"><ele>619</ele><time>2024-02-10T12:18:28Z</time><name>PT2509</name></trkpt>
<trkpt lat="53.390480" lon="-1.862886"><ele>620</ele><time>2024-02-10T12:18:31Z</time><name>PT2510</name></trkpt>
<trkpt lat="53.390476" lon="-1.862862"><ele>620</ele><time>2024-02-10T12:18:35Z</time><name>PT2511</name></trkpt>
<trkpt lat="53.390475" lon="-1.862861"><ele>620</ele><time>2024-02-10T12:18:38Z</time><name>PT2512</name></trkpt>
<trkpt lat="53.390473" lon="-1.862852"><ele>620</ele><time>2024-02-10T12:18:44Z</time><name>PT2513</name></trkpt>
<trkpt lat="53.390451" lon="-1.862802"><ele>621</ele><time>2024-02-10T12:18:48Z</time><name>PT2514</name></trkpt>
<trkpt lat="53.390440" lon="-1.862788"><ele>620</ele><time>2024-02-10T12:18:51Z</time><name>PT2515</name></trkpt>
<trkpt lat="53.390436" lon="-1.862785"><ele>621</ele><time>2024-02-10T12:18:54Z</time><name>PT2516</name></trkpt>
<trkpt lat="53.390432" lon="-1.862786"><ele>622</ele><time>2024-02-10T12:18:57Z</time><name>PT2517</name></trkpt>
<trkpt lat="53.390434" lon="-1.862783"><ele>622</ele><time>2024-02-10T12:19:01Z</time><name>PT2518</name></trkpt>
<trkpt lat="53.390433" lon="-1.862782"><ele>622</ele><time>2024-02-10T12:19:05Z</time><name>PT2519</name></trkpt>
<trkpt lat="53.390435" lon="-1.862779"><ele>623</ele><time>2024-02-10T12:19:29Z</time><name>PT2520</name></trkpt>
<trkpt lat="53.390440" lon="-1.862776"><ele>623</ele><time>2024-02-10T12:19:32Z</time><name>PT2521</name></trkpt>
<trkpt lat="53.390437" lon="-1.862771"><ele>623</ele><time>2024-02-10T12:20:21Z</time><name>PT2522</name></trkpt>
<trkpt lat="53.390430" lon="-1.862776"><ele>623</ele><time>2024-02-10T12:20:24Z</time><name>PT2523</name></trkpt>
<trkpt lat="53.390420" lon="-1.862772"><ele>623</ele><time>2024-02-10T12:20:28Z</time><name>PT2524</name></trkpt>
<trkpt lat="53.390396" lon="-1.862769"><ele>623</ele><time>2024-02-10T12:20:31Z</time><name>PT2525</name></trkpt>
<trkpt lat="53.390383" lon="-1.862748"><ele>623</ele><time>2024-02-10T12:20:35Z</time><name>PT2526</name></trkpt>
<trkpt lat="53.390362" lon="-1.862727"><ele>624</ele><time>2024-02-10T12:20:39Z</time><name>PT2527</name></trkpt>
<trkpt lat="53.390337" lon="-1.862718"><ele>624</ele><time>2024-02-10T12:20:42Z</time><name>PT2528</name></trkpt>
<trkpt lat="53.390310" lon="-1.862684"><ele>623</ele><time>2024-02-10T12:20:46Z</time><name>PT2529</name></trkpt>
<trkpt lat="53.390298" lon="-1.862648"><ele>624</ele><time>2024-02-10T12:20:49Z</time><name>PT2530</name></trkpt>
<trkpt lat="53.390272" lon="-1.862575"><ele>625</ele><time>2024-02-10T12:20:53Z</time><name>PT2531</name></trkpt>
<trkpt lat="53.390249" lon="-1.862504"><ele>626</ele><time>2024-02-10T12:20:57Z</time><name>PT2532</name></trkpt>
<trkpt lat="53.390229" lon="-1.862470"><ele>625</ele><time>2024-02-10T12:21:00Z</time><name>PT2533</name></trkpt>
<trkpt lat="53.390207" lon="-1.862442"><ele>626</ele><time>2024-02-10T12:21:03Z</time><name>PT2534</name></trkpt>
<trkpt lat="53.390178" lon="-1.862418"><ele>626</ele><time>2024-02-10T12:21:07Z</time><name>PT2535</name></trkpt>
<trkpt lat="53.390171" lon="-1.862420"><ele>627</ele><time>2024-02-10T12:21:10Z</time><name>PT2536</name></trkpt>
<trkpt lat="53.390155" lon="-1.862398"><ele>627</ele><time>2024-02-10T12:21:14Z</time><name>PT2537</name></trkpt>
<trkpt lat="53.390129" lon="-1.862391"><ele>627</ele><time>2024-02-10T12:21:18Z</time><name>PT2538</name></trkpt>
<trkpt lat="53.390112" lon="-1.862379"><ele>627</ele><time>2024-02-10T12:21:21Z</time><name>PT2539</name></trkpt>
<trkpt lat="53.390091" lon="-1.862356"><ele>627</ele><time>2024-02-10T12:21:24Z</time><name>PT2540</name></trkpt>
<trkpt lat="53.390072" lon="-1.862337"><ele>627</ele><time>2024-02-10T12:21:27Z</time><name>PT2541</name></trkpt>
<trkpt lat="53.390068" lon="-1.862277"><ele>627</ele><time>2024-02-10T12:21:31Z</time><name>PT2542</name></trkpt>
<trkpt lat="53.390042" lon="-1.862255"><ele>627</ele><time>2024-02-10T12:21:35Z</time><name>PT2543</name></trkpt>
<trkpt lat="53.390015" lon="-1.862248"><ele>628</ele><time>2024-02-10T12:21:39Z</time><name>PT2544</name></trkpt>
<trkpt lat="53.389990" lon="-1.862258"><ele>628</ele><time>2024-02-10T12:21:43Z</time><name>PT2545</name></trkpt>
<trkpt lat="53.389975" lon="-1.862252"><ele>627</ele><time>2024-02-10T12:21:46Z</time><name>PT2546</name></trkpt>
<trkpt lat="53.389948" lon="-1.862235"><ele>628</ele><time>2024-02-10T12:21:50Z</time><name>PT2547</name></trkpt>
<trkpt lat="53.389932" lon="-1.862197"><ele>627</ele><time>2024-02-10T12:21:53Z</time><name>PT2548</name></trkpt>
<trkpt lat="53.389910" lon="-1.862180"><ele>627</ele><time>2024-02-10T12:21:57Z</time><name>PT2549</name></trkpt>
<trkpt lat="53.389891" lon="-1.862160"><ele>628</ele><time>2024-02-10T12:22:00Z</time><name>PT2550</name></trkpt>
<trkpt lat="53.389874" lon="-1.862115"><ele>628</ele><time>2024-02-10T12:22:04Z</time><name>PT2551</name></trkpt>
<trkpt lat="53.389863" lon="-1.862066"><ele>628</ele><time>2024-02-10T12:22:07Z</time><name>PT2552</name></trkpt>
<trkpt lat="53.389846" lon="-1.862028"><ele>628</ele><time>2024-02-10T12:22:10Z</time><name>PT2553</name></trkpt>
<trkpt lat="53.389822" lon="-1.862006"><ele>628</ele><time>2024-02-10T12:22:14Z</time><name>PT2554</name></trkpt>
<trkpt lat="53.389805" lon="-1.862010"><ele>628</ele><time>2024-02-10T12:22:17Z</time><name>PT2555</name></trkpt>
<trkpt lat="53.389793" lon="-1.862021"><ele>628</ele><time>2024-02-10T12:22:21Z</time><name>PT2556</name></trkpt>
<trkpt lat="53.389775" lon="-1.862038"><ele>628</ele><time>2024-02-10T12:22:24Z</time><name>PT2557</name></trkpt>
<trkpt lat="53.389740" lon="-1.862073"><ele>629</ele><time>2024-02-10T12:22:28Z</time><name>PT2558</name></trkpt>
<trkpt lat="53.389721" lon="-1.862087"><ele>629</ele><time>2024-02-10T12:22:31Z</time><name>PT2559</name></trkpt>
<trkpt lat="53.389718" lon="-1.862082"><ele>630</ele><time>2024-02-10T12:22:35Z</time><name>PT2560</name></trkpt>
<trkpt lat="53.389721" lon="-1.862074"><ele>630</ele><time>2024-02-10T12:22:39Z</time><name>PT2561</name></trkpt>
<trkpt lat="53.389707" lon="-1.862049"><ele>629</ele><time>2024-02-10T12:22:42Z</time><name>PT2562</name></trkpt>
<trkpt lat="53.389687" lon="-1.861998"><ele>629</ele><time>2024-02-10T12:22:46Z</time><name>PT2563</name></trkpt>
<trkpt lat="53.389674" lon="-1.861945"><ele>630</ele><time>2024-02-10T12:22:50Z</time><name>PT2564</name></trkpt>
<trkpt lat="53.389665" lon="-1.861926"><ele>629</ele><time>2024-02-10T12:22:53Z</time><name>PT2565</name></trkpt>
<trkpt lat="53.389649" lon="-1.861927"><ele>629</ele><time>2024-02-10T12:22:56Z</time><name>PT2566</name></trkpt>
<trkpt lat="53.389624" lon="-1.861908"><ele>629</ele><time>2024-02-10T12:23:00Z</time><name>PT2567</name></trkpt>
<trkpt lat="53.389612" lon="-1.861834"><ele>629</ele><time>2024-02-10T12:23:04Z</time><name>PT2568</name></trkpt>
<trkpt lat="53.389605" lon="-1.861786"><ele>629</ele><time>2024-02-10T12:23:07Z</time><name>PT2569</name></trkpt>
<trkpt lat="53.389591" lon="-1.861776"><ele>629</ele><time>2024-02-10T12:23:10Z</time><name>PT2570</name></trkpt>
<trkpt lat="53.389586" lon="-1.861751"><ele>629</ele><time>2024-02-10T12:23:14Z</time><name>PT2571</name></trkpt>
<trkpt lat="53.389568" lon="-1.861724"><ele>629</ele><time>2024-02-10T12:23:18Z</time><name>PT2572</name></trkpt>
<trkpt lat="53.389555" lon="-1.861721"><ele>629</ele><time>2024-02-10T12:23:21Z</time><name>PT2573</name></trkpt>
<trkpt lat="53.389542" lon="-1.861718"><ele>629</ele><time>2024-02-10T12:23:25Z</time><name>PT2574</name></trkpt>
<trkpt lat="53.389534" lon="-1.861712"><ele>628</ele><time>2024-02-10T12:23:28Z</time><name>PT2575</name></trkpt>
<trkpt lat="53.389532" lon="-1.861711"><ele>628</ele><time>2024-02-10T12:23:31Z</time><name>PT2576</name></trkpt>
<trkpt lat="53.389526" lon="-1.861711"><ele>628</ele><time>2024-02-10T12:23:38Z</time><name>PT2577</name></trkpt>
<trkpt lat="53.389517" lon="-1.861675"><ele>627</ele><time>2024-02-10T12:23:42Z</time><name>PT2578</name></trkpt>
<trkpt lat="53.389523" lon="-1.861654"><ele>627</ele><time>2024-02-10T12:23:45Z</time><name>PT2579</name></trkpt>
<trkpt lat="53.389515" lon="-1.861630"><ele>628</ele><time>2024-02-10T12:23:48Z</time><name>PT2580</name></trkpt>
<trkpt lat="53.389507" lon="-1.861618"><ele>628</ele><time>2024-02-10T12:23:52Z</time><name>PT2581</name></trkpt>
<trkpt lat="53.389497" lon="-1.861621"><ele>629</ele><time>2024-02-10T12:23:55Z</time><name>PT2582</name></trkpt>
<trkpt lat="53.389486" lon="-1.861608"><ele>628</ele><time>2024-02-10T12:23:58Z</time><name>PT2583</name></trkpt>
<trkpt lat="53.389466" lon="-1.861584"><ele>627</ele><time>2024-02-10T12:24:02Z</time><name>PT2584</name></trkpt>
<trkpt lat="53.389456" lon="-1.861554"><ele>627</ele><time>2024-02-10T12:24:05Z</time><name>PT2585</name></trkpt>
<trkpt lat="53.389454" lon="-1.861517"><ele>628</ele><time>2024-02-10T12:24:09Z</time><name>PT2586</name></trkpt>
<trkpt lat="53.389457" lon="-1.861499"><ele>628</ele><time>2024-02-10T12:24:12Z</time><name>PT2587</name></trkpt>
<trkpt lat="53.389452" lon="-1.861476"><ele>628</ele><time>2024-02-10T12:24:16Z</time><name>PT2588</name></trkpt>
<trkpt lat="53.389448" lon="-1.861474"><ele>628</ele><time>2024-02-10T12:24:20Z</time><name>PT2589</name></trkpt>
<trkpt lat="53.389447" lon="-1.861477"><ele>629</ele><time>2024-02-10T12:24:23Z</time><name>PT2590</name></trkpt>
<trkpt lat="53.389449" lon="-1.861472"><ele>629</ele><time>2024-02-10T12:24:27Z</time><name>PT2591</name></trkpt>
<trkpt lat="53.389442" lon="-1.861450"><ele>629</ele><time>2024-02-10T12:24:30Z</time><name>PT2592</name></trkpt>
<trkpt lat="53.389436" lon="-1.861446"><ele>628</ele><time>2024-02-10T12:24:33Z</time><name>PT2593</name></trkpt>
<trkpt lat="53.389431" lon="-1.861417"><ele>628</ele><time>2024-02-10T12:24:37Z</time><name>PT2594</name></trkpt>
<trkpt lat="53.389421" lon="-1.861371"><ele>628</ele><time>2024-02-10T12:24:40Z</time><name>PT2595</name></trkpt>
<trkpt lat="53.389404" lon="-1.861344"><ele>628</ele><time>2024-02-10T12:24:44Z</time><name>PT2596</name></trkpt>
<trkpt lat="53.389379" lon="-1.861311"><ele>628</ele><time>2024-02-10T12:24:48Z</time><name>PT2597</name></trkpt>
<trkpt lat="53.389366" lon="-1.861277"><ele>628</ele><time>2024-02-10T12:24:51Z</time><name>PT2598</name></trkpt>
<trkpt lat="53.389344" lon="-1.861258"><ele>628</ele><time>2024-02-10T12:24:54Z</time><name>PT2599</name></trkpt>
<trkpt lat="53.389316" lon="-1.861241"><ele>629</ele><time>2024-02-10T12:24:57Z</time><name>PT2600</name></trkpt>
<trkpt lat="53.389282" lon="-1.861226"><ele>629</ele><time>2024-02-10T12:25:01Z</time><name>PT2601</name></trkpt>
<trkpt lat="53.389245" lon="-1.861216"><ele>629</ele><time>2024-02-10T12:25:05Z</time><name>PT2602</name></trkpt>
<trkpt lat="53.389215" lon="-1.861205"><ele>629</ele><time>2024-02-10T12:25:09Z</time><name>PT2603</name></trkpt>
<trkpt lat="53.389196" lon="-1.861192"><ele>629</ele><time>2024-02-10T12:25:12Z</time><name>PT2604</name></trkpt>
<trkpt lat="53.389171" lon="-1.861194"><ele>629</ele><time>2024-02-10T12:25:15Z</time><name>PT2605</name></trkpt>
<trkpt lat="53.389143" lon="-1.861215"><ele>630</ele><time>2024-02-10T12:25:19Z</time><name>PT2606</name></trkpt>
<trkpt lat="53.389113" lon="-1.861212"><ele>630</ele><time>2024-02-10T12:25:23Z</time><name>PT2607</name></trkpt>
<trkpt lat="53.389098" lon="-1.861219"><ele>629</ele><time>2024-02-10T12:25:26Z</time><name>PT2608</name></trkpt>
<trkpt lat="53.389089" lon="-1.861209"><ele>630</ele><time>2024-02-10T12:25:30Z</time><name>PT2609</name></trkpt>
<trkpt lat="53.389080" lon="-1.861202"><ele>630</ele><time>2024-02-10T12:25:34Z</time><name>PT2610</name></trkpt>
<trkpt lat="53.389054" lon="-1.861199"><ele>629</ele><time>2024-02-10T12:25:38Z</time><name>PT2611</name></trkpt>
<trkpt lat="53.389021" lon="-1.861186"><ele>630</ele><time>2024-02-10T12:25:42Z</time><name>PT2612</name></trkpt>
<trkpt lat="53.389002" lon="-1.861187"><ele>630</ele><time>2024-02-10T12:25:45Z</time><name>PT2613</name></trkpt>
<trkpt lat="53.388970" lon="-1.861171"><ele>630</ele><time>2024-02-10T12:25:49Z</time><name>PT2614</name></trkpt>
<trkpt lat="53.388946" lon="-1.861156"><ele>631</ele><time>2024-02-10T12:25:52Z</time><name>PT2615</name></trkpt>
<trkpt lat="53.388915" lon="-1.861132"><ele>630</ele><time>2024-02-10T12:25:56Z</time><name>PT2616</name></trkpt>
<trkpt lat="53.388892" lon="-1.861111"><ele>630</ele><time>2024-02-10T12:25:59Z</time><name>PT2617</name></trkpt>
<trkpt lat="53.388864" lon="-1.861071"><ele>630</ele><time>2024-02-10T12:26:03Z</time><name>PT2618</name></trkpt>
<trkpt lat="53.388851" lon="-1.861030"><ele>630</ele><time>2024-02-10T12:26:06Z</time><name>PT2619</name></trkpt>
<trkpt lat="53.388825" lon="-1.860988"><ele>631</ele><time>2024-02-10T12:26:10Z</time><name>PT2620</name></trkpt>
<trkpt lat="53.388799" lon="-1.860970"><ele>631</ele><time>2024-02-10T12:26:14Z</time><name>PT2621</name></trkpt>
<trkpt lat="53.388777" lon="-1.860967"><ele>631</ele><time>2024-02-10T12:26:17Z</time><name>PT2622</name></trkpt>
<trkpt lat="53.388740" lon="-1.860955"><ele>631</ele><time>2024-02-10T12:26:21Z</time><name>PT2623</name></trkpt>
<trkpt lat="53.388711" lon="-1.860939"><ele>630</ele><time>2024-02-10T12:26:24Z</time><name>PT2624</name></trkpt>
<trkpt lat="53.388687" lon="-1.860926"><ele>630</ele><time>2024-02-10T12:26:27Z</time><name>PT2625</name></trkpt>
<trkpt lat="53.388659" lon="-1.860901"><ele>630</ele><time>2024-02-10T12:26:31Z</time><name>PT2626</name></trkpt>
<trkpt lat="53.388634" lon="-1.860878"><ele>630</ele><time>2024-02-10T12:26:34Z</time><name>PT2627</name></trkpt>
<trkpt lat="53.388598" lon="-1.860863"><ele>630</ele><time>2024-02-10T12:26:38Z</time><name>PT2628</name></trkpt>
<trkpt lat="53.388574" lon="-1.860877"><ele>630</ele><time>2024-02-10T12:26:41Z</time><name>PT2629</name></trkpt>
<trkpt lat="53.388544" lon="-1.860886"><ele>630</ele><time>2024-02-10T12:26:44Z</time><name>PT2630</name></trkpt>
<trkpt lat="53.388511" lon="-1.860849"><ele>630</ele><time>2024-02-10T12:26:48Z</time><name>PT2631</name></trkpt>
<trkpt lat="53.388485" lon="-1.860839"><ele>630</ele><time>2024-02-10T12:26:51Z</time><name>PT2632</name></trkpt>
<trkpt lat="53.388448" lon="-1.860860"><ele>630</ele><time>2024-02-10T12:26:55Z</time><name>PT2633</name></trkpt>
<trkpt lat="53.388414" lon="-1.860864"><ele>630</ele><time>2024-02-10T12:26:59Z</time><name>PT2634</name></trkpt>
<trkpt lat="53.388383" lon="-1.860861"><ele>630</ele><time>2024-02-10T12:27:03Z</time><name>PT2635</name></trkpt>
<trkpt lat="53.388371" lon="-1.860859"><ele>631</ele><time>2024-02-10T12:27:07Z</time><name>PT2636</name></trkpt>
<trkpt lat="53.388363" lon="-1.860874"><ele>631</ele><time>2024-02-10T12:27:11Z</time><name>PT2637</name></trkpt>
<trkpt lat="53.388346" lon="-1.860871"><ele>631</ele><time>2024-02-10T12:27:14Z</time><name>PT2638</name></trkpt>
<trkpt lat="53.388328" lon="-1.860883"><ele>631</ele><time>2024-02-10T12:27:17Z</time><name>PT2639</name></trkpt>
<trkpt lat="53.388323" lon="-1.860899"><ele>631</ele><time>2024-02-10T12:27:20Z</time><name>PT2640</name></trkpt>
<trkpt lat="53.388333" lon="-1.860935"><ele>631</ele><time>2024-02-10T12:27:24Z</time><name>PT2641</name></trkpt>
<trkpt lat="53.388325" lon="-1.860961"><ele>630</ele><time>2024-02-10T12:27:28Z</time><name>PT2642</name></trkpt>
<trkpt lat="53.388308" lon="-1.860977"><ele>630</ele><time>2024-02-10T12:27:32Z</time><name>PT2643</name></trkpt>
<trkpt lat="53.388287" lon="-1.860941"><ele>631</ele><time>2024-02-10T12:27:36Z</time><name>PT2644</name></trkpt>
<trkpt lat="53.388263" lon="-1.860932"><ele>631</ele><time>2024-02-10T12:27:39Z</time><name>PT2645</name></trkpt>
<trkpt lat="53.388227" lon="-1.860929"><ele>631</ele><time>2024-02-10T12:27:43Z</time><name>PT2646</name></trkpt>
<trkpt lat="53.388201" lon="-1.860900"><ele>631</ele><time>2024-02-10T12:27:47Z</time><name>PT2647</name></trkpt>
<trkpt lat="53.388173" lon="-1.860883"><ele>630</ele><time>2024-02-10T12:27:51Z</time><name>PT2648</name></trkpt>
<trkpt lat="53.388155" lon="-1.860903"><ele>630</ele><time>2024-02-10T12:27:54Z</time><name>PT2649</name></trkpt>
<trkpt lat="53.388135" lon="-1.860923"><ele>630</ele><time>2024-02-10T12:27:58Z</time><name>PT2650</name></trkpt>
<trkpt lat="53.388108" lon="-1.860897"><ele>630</ele><time>2024-02-10T12:28:02Z</time><name>PT2651</name></trkpt>
<trkpt lat="53.388101" lon="-1.860861"><ele>630</ele><time>2024-02-10T12:28:06Z</time><name>PT2652</name></trkpt>
<trkpt lat="53.388089" lon="-1.860844"><ele>630</ele><time>2024-02-10T12:28:09Z</time><name>PT2653</name></trkpt>
<trkpt lat="53.388082" lon="-1.860827"><ele>630</ele><time>2024-02-10T12:28:12Z</time><name>PT2654</name></trkpt>
<trkpt lat="53.388072" lon="-1.860784"><ele>630</ele><time>2024-02-10T12:28:15Z</time><name>PT2655</name></trkpt>
<trkpt lat="53.388055" lon="-1.860733"><ele>630</ele><time>2024-02-10T12:28:19Z</time><name>PT2656</name></trkpt>
<trkpt lat="53.388041" lon="-1.860687"><ele>630</ele><time>2024-02-10T12:28:23Z</time><name>PT2657</name></trkpt>
<trkpt lat="53.388016" lon="-1.860657"><ele>630</ele><time>2024-02-10T12:28:27Z</time><name>PT2658</name></trkpt>
<trkpt lat="53.387994" lon="-1.860665"><ele>631</ele><time>2024-02-10T12:28:30Z</time><name>PT2659</name></trkpt>
<trkpt lat="53.387965" lon="-1.860678"><ele>631</ele><time>2024-02-10T12:28:33Z</time><name>PT2660</name></trkpt>
<trkpt lat="53.387926" lon="-1.860676"><ele>631</ele><time>2024-02-10T12:28:37Z</time><name>PT2661</name></trkpt>
<trkpt lat="53.387895" lon="-1.860654"><ele>631</ele><time>2024-02-10T12:28:41Z</time><name>PT2662</name></trkpt>
<trkpt lat="53.387857" lon="-1.860622"><ele>631</ele><time>2024-02-10T12:28:45Z</time><name>PT2663</name></trkpt>
<trkpt lat="53.387829" lon="-1.860589"><ele>631</ele><time>2024-02-10T12:28:48Z</time><name>PT2664</name></trkpt>
<trkpt lat="53.387806" lon="-1.860535"><ele>630</ele><time>2024-02-10T12:28:52Z</time><name>PT2665</name></trkpt>
<trkpt lat="53.387793" lon="-1.860489"><ele>630</ele><time>2024-02-10T12:28:55Z</time><name>PT2666</name></trkpt>
<trkpt lat="53.387771" lon="-1.860451"><ele>630</ele><time>2024-02-10T12:28:58Z</time><name>PT2667</name></trkpt>
<trkpt lat="53.387749" lon="-1.860421"><ele>631</ele><time>2024-02-10T12:29:01Z</time><name>PT2668</name></trkpt>
<trkpt lat="53.387717" lon="-1.860401"><ele>631</ele><time>2024-02-10T12:29:05Z</time><name>PT2669</name></trkpt>
<trkpt lat="53.387689" lon="-1.860420"><ele>631</ele><time>2024-02-10T12:29:08Z</time><name>PT2670</name></trkpt>
<trkpt lat="53.387670" lon="-1.860407"><ele>631</ele><time>2024-02-10T12:29:11Z</time><name>PT2671</name></trkpt>
<trkpt lat="53.387646" lon="-1.860373"><ele>630</ele><time>2024-02-10T12:29:15Z</time><name>PT2672</name></trkpt>
<trkpt lat="53.387621" lon="-1.860334"><ele>631</ele><time>2024-02-10T12:29:18Z</time><name>PT2673</name></trkpt>
<trkpt lat="53.387601" lon="-1.860316"><ele>631</ele><time>2024-02-10T12:29:22Z</time><name>PT2674</name></trkpt>
<trkpt lat="53.387576" lon="-1.860299"><ele>631</ele><time>2024-02-10T12:29:26Z</time><name>PT2675</name></trkpt>
<trkpt lat="53.387572" lon="-1.860259"><ele>631</ele><time>2024-02-10T12:29:30Z</time><name>PT2676</name></trkpt>
<trkpt lat="53.387563" lon="-1.860226"><ele>630</ele><time>2024-02-10T12:29:34Z</time><name>PT2677</name></trkpt>
<trkpt lat="53.387547" lon="-1.860221"><ele>630</ele><time>2024-02-10T12:29:38Z</time><name>PT2678</name></trkpt>
<trkpt lat="53.387548" lon="-1.860188"><ele>629</ele><time>2024-02-10T12:29:42Z</time><name>PT2679</name></trkpt>
<trkpt lat="53.387550" lon="-1.860158"><ele>628</ele><time>2024-02-10T12:29:45Z</time><name>PT2680</name></trkpt>
<trkpt lat="53.387547" lon="-1.860152"><ele>628</ele><time>2024-02-10T12:29:48Z</time><name>PT2681</name></trkpt>
<trkpt lat="53.387531" lon="-1.860129"><ele>628</ele><time>2024-02-10T12:29:52Z</time><name>PT2682</name></trkpt>
<trkpt lat="53.387506" lon="-1.860151"><ele>628</ele><time>2024-02-10T12:29:56Z</time><name>PT2683</name></trkpt>
<trkpt lat="53.387505" lon="-1.860160"><ele>626</ele><time>2024-02-10T12:29:59Z</time><name>PT2684</name></trkpt>
<trkpt lat="53.387517" lon="-1.860166"><ele>625</ele><time>2024-02-10T12:30:03Z</time><name>PT2685</name></trkpt>
<trkpt lat="53.387503" lon="-1.860181"><ele>626</ele><time>2024-02-10T12:30:06Z</time><name>PT2686</name></trkpt>
<trkpt lat="53.387490" lon="-1.860197"><ele>627</ele><time>2024-02-10T12:30:10Z</time><name>PT2687</name></trkpt>
<trkpt lat="53.387486" lon="-1.860216"><ele>628</ele><time>2024-02-10T12:30:13Z</time><name>PT2688</name></trkpt>
<trkpt lat="53.387483" lon="-1.860209"><ele>629</ele><time>2024-02-10T12:30:16Z</time><name>PT2689</name></trkpt>
<trkpt lat="53.387454" lon="-1.860227"><ele>629</ele><time>2024-02-10T12:30:20Z</time><name>PT2690</name></trkpt>
<trkpt lat="53.387422" lon="-1.860257"><ele>629</ele><time>2024-02-10T12:30:24Z</time><name>PT2691</name></trkpt>
<trkpt lat="53.387400" lon="-1.860268"><ele>629</ele><time>2024-02-10T12:30:27Z</time><name>PT2692</name></trkpt>
<trkpt lat="53.387374" lon="-1.860287"><ele>629</ele><time>2024-02-10T12:30:30Z</time><name>PT2693</name></trkpt>
<trkpt lat="53.387354" lon="-1.860329"><ele>629</ele><time>2024-02-10T12:30:34Z</time><name>PT2694</name></trkpt>
<trkpt lat="53.387317" lon="-1.860315"><ele>629</ele><time>2024-02-10T12:30:38Z</time><name>PT2695</name></trkpt>
<trkpt lat="53.387291" lon="-1.860313"><ele>629</ele><time>2024-02-10T12:30:41Z</time><name>PT2696</name></trkpt>
<trkpt lat="53.387264" lon="-1.860316"><ele>630</ele><time>2024-02-10T12:30:45Z</time><name>PT2697</name></trkpt>
<trkpt lat="53.387238" lon="-1.860322"><ele>630</ele><time>2024-02-10T12:30:49Z</time><name>PT2698</name></trkpt>
<trkpt lat="53.387209" lon="-1.860307"><ele>630</ele><time>2024-02-10T12:30:52Z</time><name>PT2699</name></trkpt>
<trkpt lat="53.387175" lon="-1.860302"><ele>629</ele><time>2024-02-10T12:30:55Z</time><name>PT2700</name></trkpt>
<trkpt lat="53.387132" lon="-1.860308"><ele>629</ele><time>2024-02-10T12:30:59Z</time><name>PT2701</name></trkpt>
<trkpt lat="53.387094" lon="-1.860316"><ele>629</ele><time>2024-02-10T12:31:03Z</time><name>PT2702</name></trkpt>
<trkpt lat="53.387056" lon="-1.860298"><ele>629</ele><time>2024-02-10T12:31:07Z</time><name>PT2703</name></trkpt>
<trkpt lat="53.387013" lon="-1.860306"><ele>629</ele><time>2024-02-10T12:31:11Z</time><name>PT2704</name></trkpt>
<trkpt lat="53.386970" lon="-1.860305"><ele>629</ele><time>2024-02-10T12:31:15Z</time><name>PT2705</name></trkpt>
<trkpt lat="53.386930" lon="-1.860286"><ele>629</ele><time>2024-02-10T12:31:19Z</time><name>PT2706</name></trkpt>
<trkpt lat="53.386905" lon="-1.860259"><ele>628</ele><time>2024-02-10T12:31:22Z</time><name>PT2707</name></trkpt>
<trkpt lat="53.386861" lon="-1.860251"><ele>628</ele><time>2024-02-10T12:31:26Z</time><name>PT2708</name></trkpt>
<trkpt lat="53.386834" lon="-1.860242"><ele>628</ele><time>2024-02-10T12:31:29Z</time><name>PT2709</name></trkpt>
<trkpt lat="53.386815" lon="-1.860227"><ele>628</ele><time>2024-02-10T12:31:32Z</time><name>PT2710</name></trkpt>
<trkpt lat="53.386786" lon="-1.860215"><ele>627</ele><time>2024-02-10T12:31:36Z</time><name>PT2711</name></trkpt>
<trkpt lat="53.386763" lon="-1.860201"><ele>627</ele><time>2024-02-10T12:31:39Z</time><name>PT2712</name></trkpt>
<trkpt lat="53.386732" lon="-1.860164"><ele>627</ele><time>2024-02-10T12:31:43Z</time><name>PT2713</name></trkpt>
<trkpt lat="53.386716" lon="-1.860144"><ele>627</ele><time>2024-02-10T12:31:46Z</time><name>PT2714</name></trkpt>
<trkpt lat="53.386695" lon="-1.860139"><ele>626</ele><time>2024-02-10T12:31:49Z</time><name>PT2715</name></trkpt>
<trkpt lat="53.386691" lon="-1.860119"><ele>625</ele><time>2024-02-10T12:31:53Z</time><name>PT2716</name></trkpt>
<trkpt lat="53.386689" lon="-1.860117"><ele>625</ele><time>2024-02-10T12:31:56Z</time><name>PT2717</name></trkpt>
<trkpt lat="53.386688" lon="-1.860071"><ele>626</ele><time>2024-02-10T12:32:23Z</time><name>PT2718</name></trkpt>
<trkpt lat="53.386669" lon="-1.860012"><ele>626</ele><time>2024-02-10T12:32:27Z</time><name>PT2719</name></trkpt>
<trkpt lat="53.386655" lon="-1.859970"><ele>626</ele><time>2024-02-10T12:32:31Z</time><name>PT2720</name></trkpt>
<trkpt lat="53.386642" lon="-1.859928"><ele>626</ele><time>2024-02-10T12:32:34Z</time><name>PT2721</name></trkpt>
<trkpt lat="53.386634" lon="-1.859878"><ele>626</ele><time>2024-02-10T12:32:37Z</time><name>PT2722</name></trkpt>
<trkpt lat="53.386618" lon="-1.859824"><ele>626</ele><time>2024-02-10T12:32:41Z</time><name>PT2723</name></trkpt>
<trkpt lat="53.386604" lon="-1.859785"><ele>627</ele><time>2024-02-10T12:32:44Z</time><name>PT2724</name></trkpt>
<trkpt lat="53.386583" lon="-1.859756"><ele>626</ele><time>2024-02-10T12:32:47Z</time><name>PT2725</name></trkpt>
<trkpt lat="53.386555" lon="-1.859707"><ele>626</ele><time>2024-02-10T12:32:51Z</time><name>PT2726</name></trkpt>
<trkpt lat="53.386530" lon="-1.859682"><ele>626</ele><time>2024-02-10T12:32:54Z</time><name>PT2727</name></trkpt>
<trkpt lat="53.386489" lon="-1.859661"><ele>626</ele><time>2024-02-10T12:32:58Z</time><name>PT2728</name></trkpt>
<trkpt lat="53.386456" lon="-1.859628"><ele>625</ele><time>2024-02-10T12:33:01Z</time><name>PT2729</name></trkpt>
<trkpt lat="53.386442" lon="-1.859614"><ele>626</ele><time>2024-02-10T12:33:05Z</time><name>PT2730</name></trkpt>
<trkpt lat="53.386420" lon="-1.859615"><ele>626</ele><time>2024-02-10T12:33:09Z</time><name>PT2731</name></trkpt>
<trkpt lat="53.386399" lon="-1.859598"><ele>625</ele><time>2024-02-10T12:33:13Z</time><name>PT2732</name></trkpt>
<trkpt lat="53.386398" lon="-1.859562"><ele>626</ele><time>2024-02-10T12:33:17Z</time><name>PT2733</name></trkpt>
<trkpt lat="53.386365" lon="-1.859520"><ele>625</ele><time>2024-02-10T12:33:21Z</time><name>PT2734</name></trkpt>
<trkpt lat="53.386341" lon="-1.859522"><ele>626</ele><time>2024-02-10T12:33:24Z</time><name>PT2735</name></trkpt>
<trkpt lat="53.386326" lon="-1.859528"><ele>624</ele><time>2024-02-10T12:33:28Z</time><name>PT2736</name></trkpt>
<trkpt lat="53.386291" lon="-1.859445"><ele>624</ele><time>2024-02-10T12:33:31Z</time><name>PT2737</name></trkpt>
<trkpt lat="53.386260" lon="-1.859394"><ele>624</ele><time>2024-02-10T12:33:35Z</time><name>PT2738</name></trkpt>
<trkpt lat="53.386245" lon="-1.859375"><ele>624</ele><time>2024-02-10T12:33:38Z</time><name>PT2739</name></trkpt>
<trkpt lat="53.386225" lon="-1.859288"><ele>625</ele><time>2024-02-10T12:33:42Z</time><name>PT2740</name></trkpt>
<trkpt lat="53.386212" lon="-1.859268"><ele>624</ele><time>2024-02-10T12:33:45Z</time><name>PT2741</name></trkpt>
<trkpt lat="53.386187" lon="-1.859198"><ele>625</ele><time>2024-02-10T12:33:48Z</time><name>PT2742</name></trkpt>
<trkpt lat="53.386150" lon="-1.859144"><ele>624</ele><time>2024-02-10T12:33:52Z</time><name>PT2743</name></trkpt>
<trkpt lat="53.386126" lon="-1.859077"><ele>623</ele><time>2024-02-10T12:33:56Z</time><name>PT2744</name></trkpt>
<trkpt lat="53.386129" lon="-1.859042"><ele>622</ele><time>2024-02-10T12:33:59Z</time><name>PT2745</name></trkpt>
<trkpt lat="53.386108" lon="-1.859030"><ele>622</ele><time>2024-02-10T12:34:03Z</time><name>PT2746</name></trkpt>
<trkpt lat="53.386066" lon="-1.858980"><ele>622</ele><time>2024-02-10T12:34:06Z</time><name>PT2747</name></trkpt>
<trkpt lat="53.386049" lon="-1.858940"><ele>623</ele><time>2024-02-10T12:34:09Z</time><name>PT2748</name></trkpt>
<trkpt lat="53.386043" lon="-1.858891"><ele>622</ele><time>2024-02-10T12:34:13Z</time><name>PT2749</name></trkpt>
<trkpt lat="53.386022" lon="-1.858841"><ele>621</ele><time>2024-02-10T12:34:16Z</time><name>PT2750</name></trkpt>
<trkpt lat="53.385991" lon="-1.858791"><ele>621</ele><time>2024-02-10T12:34:20Z</time><name>PT2751</name></trkpt>
<trkpt lat="53.385979" lon="-1.858768"><ele>620</ele><time>2024-02-10T12:34:23Z</time><name>PT2752</name></trkpt>
<trkpt lat="53.385961" lon="-1.858762"><ele>620</ele><time>2024-02-10T12:34:27Z</time><name>PT2753</name></trkpt>
<trkpt lat="53.385953" lon="-1.858798"><ele>622</ele><time>2024-02-10T12:34:31Z</time><name>PT2754</name></trkpt>
<trkpt lat="53.385941" lon="-1.858785"><ele>622</ele><time>2024-02-10T12:34:35Z</time><name>PT2755</name></trkpt>
<trkpt lat="53.385932" lon="-1.858769"><ele>623</ele><time>2024-02-10T12:34:38Z</time><name>PT2756</name></trkpt>
<trkpt lat="53.385913" lon="-1.858725"><ele>622</ele><time>2024-02-10T12:34:41Z</time><name>PT2757</name></trkpt>
<trkpt lat="53.385901" lon="-1.858712"><ele>622</ele><time>2024-02-10T12:34:45Z</time><name>PT2758</name></trkpt>
<trkpt lat="53.385881" lon="-1.858684"><ele>621</ele><time>2024-02-10T12:34:49Z</time><name>PT2759</name></trkpt>
<trkpt lat="53.385863" lon="-1.858659"><ele>620</ele><time>2024-02-10T12:34:52Z</time><name>PT2760</name></trkpt>
<trkpt lat="53.385846" lon="-1.858631"><ele>619</ele><time>2024-02-10T12:34:55Z</time><name>PT2761</name></trkpt>
<trkpt lat="53.385824" lon="-1.858601"><ele>617</ele><time>2024-02-10T12:34:59Z</time><name>PT2762</name></trkpt>
<trkpt lat="53.385803" lon="-1.858560"><ele>616</ele><time>2024-02-10T12:35:03Z</time><name>PT2763</name></trkpt>
<trkpt lat="53.385779" lon="-1.858537"><ele>615</ele><time>2024-02-10T12:35:06Z</time><name>PT2764</name></trkpt>
<trkpt lat="53.385749" lon="-1.858515"><ele>615</ele><time>2024-02-10T12:35:10Z</time><name>PT2765</name></trkpt>
<trkpt lat="53.385729" lon="-1.858501"><ele>615</ele><time>2024-02-10T12:35:13Z</time><name>PT2766</name></trkpt>
<trkpt lat="53.385703" lon="-1.858483"><ele>615</ele><time>2024-02-10T12:35:17Z</time><name>PT2767</name></trkpt>
<trkpt lat="53.385683" lon="-1.858475"><ele>614</ele><time>2024-02-10T12:35:21Z</time><name>PT2768</name></trkpt>
<trkpt lat="53.385667" lon="-1.858467"><ele>614</ele><time>2024-02-10T12:35:24Z</time><name>PT2769</name></trkpt>
<trkpt lat="53.385648" lon="-1.858459"><ele>613</ele><time>2024-02-10T12:35:27Z</time><name>PT2770</name></trkpt>
<trkpt lat="53.385636" lon="-1.858440"><ele>612</ele><time>2024-02-10T12:35:31Z</time><name>PT2771</name></trkpt>
<trkpt lat="53.385620" lon="-1.858427"><ele>612</ele><time>2024-02-10T12:35:35Z</time><name>PT2772</name></trkpt>
<trkpt lat="53.385615" lon="-1.858423"><ele>613</ele><time>2024-02-10T12:35:39Z</time><name>PT2773</name></trkpt>
<trkpt lat="53.385614" lon="-1.858425"><ele>614</ele><time>2024-02-10T12:35:42Z</time><name>PT2774</name></trkpt>
<trkpt lat="53.385584" lon="-1.858410"><ele>615</ele><time>2024-02-10T12:35:46Z</time><name>PT2775</name></trkpt>
<trkpt lat="53.385563" lon="-1.858401"><ele>615</ele><time>2024-02-10T12:35:50Z</time><name>PT2776</name></trkpt>
<trkpt lat="53.385537" lon="-1.858381"><ele>616</ele><time>2024-02-10T12:35:54Z</time><name>PT2777</name></trkpt>
<trkpt lat="53.385525" lon="-1.858363"><ele>616</ele><time>2024-02-10T12:35:57Z</time><name>PT2778</name></trkpt>
<trkpt lat="53.385513" lon="-1.858325"><ele>616</ele><time>2024-02-10T12:36:00Z</time><name>PT2779</name></trkpt>
<trkpt lat="53.385491" lon="-1.858289"><ele>616</ele><time>2024-02-10T12:36:04Z</time><name>PT2780</name></trkpt>
<trkpt lat="53.385457" lon="-1.858272"><ele>616</ele><time>2024-02-10T12:36:08Z</time><name>PT2781</name></trkpt>
<trkpt lat="53.385434" lon="-1.858259"><ele>616</ele><time>2024-02-10T12:36:11Z</time><name>PT2782</name></trkpt>
<trkpt lat="53.385417" lon="-1.858222"><ele>616</ele><time>2024-02-10T12:36:15Z</time><name>PT2783</name></trkpt>
<trkpt lat="53.385415" lon="-1.858207"><ele>616</ele><time>2024-02-10T12:36:19Z</time><name>PT2784</name></trkpt>
<trkpt lat="53.385416" lon="-1.858207"><ele>616</ele><time>2024-02-10T12:36:26Z</time><name>PT2785</name></trkpt>
<trkpt lat="53.385394" lon="-1.858190"><ele>615</ele><time>2024-02-10T12:36:29Z</time><name>PT2786</name></trkpt>
<trkpt lat="53.385348" lon="-1.858197"><ele>615</ele><time>2024-02-10T12:36:33Z</time><name>PT2787</name></trkpt>
<trkpt lat="53.385306" lon="-1.858202"><ele>615</ele><time>2024-02-10T12:36:37Z</time><name>PT2788</name></trkpt>
<trkpt lat="53.385276" lon="-1.858224"><ele>615</ele><time>2024-02-10T12:36:40Z</time><name>PT2789</name></trkpt>
<trkpt lat="53.385240" lon="-1.858251"><ele>615</ele><time>2024-02-10T12:36:44Z</time><name>PT2790</name></trkpt>
<trkpt lat="53.385217" lon="-1.858257"><ele>615</ele><time>2024-02-10T12:36:47Z</time><name>PT2791</name></trkpt>
<trkpt lat="53.385188" lon="-1.858271"><ele>615</ele><time>2024-02-10T12:36:51Z</time><name>PT2792</name></trkpt>
<trkpt lat="53.385171" lon="-1.858262"><ele>614</ele><time>2024-02-10T12:36:54Z</time><name>PT2793</name></trkpt>
<trkpt lat="53.385160" lon="-1.858244"><ele>614</ele><time>2024-02-10T12:36:57Z</time><name>PT2794</name></trkpt>
<trkpt lat="53.385135" lon="-1.858238"><ele>615</ele><time>2024-02-10T12:37:00Z</time><name>PT2795</name></trkpt>
<trkpt lat="53.385120" lon="-1.858227"><ele>615</ele><time>2024-02-10T12:37:03Z</time><name>PT2796</name></trkpt>
<trkpt lat="53.385114" lon="-1.858217"><ele>615</ele><time>2024-02-10T12:37:07Z</time><name>PT2797</name></trkpt>
<trkpt lat="53.385114" lon="-1.858212"><ele>615</ele><time>2024-02-10T12:37:10Z</time><name>PT2798</name></trkpt>
<trkpt lat="53.385080" lon="-1.858183"><ele>615</ele><time>2024-02-10T12:37:14Z</time><name>PT2799</name></trkpt>
<trkpt lat="53.385048" lon="-1.858171"><ele>614</ele><time>2024-02-10T12:37:18Z</time><name>PT2800</name></trkpt>
<trkpt lat="53.385023" lon="-1.858162"><ele>613</ele><time>2024-02-10T12:37:22Z</time><name>PT2801</name></trkpt>
<trkpt lat="53.385008" lon="-1.858170"><ele>613</ele><time>2024-02-10T12:37:25Z</time><name>PT2802</name></trkpt>
<trkpt lat="53.385005" lon="-1.858181"><ele>613</ele><time>2024-02-10T12:37:29Z</time><name>PT2803</name></trkpt>
<trkpt lat="53.384998" lon="-1.858188"><ele>613</ele><time>2024-02-10T12:37:33Z</time><name>PT2804</name></trkpt>
<trkpt lat="53.384995" lon="-1.858187"><ele>613</ele><time>2024-02-10T12:37:37Z</time><name>PT2805</name></trkpt>
<trkpt lat="53.384994" lon="-1.858190"><ele>613</ele><time>2024-02-10T12:37:41Z</time><name>PT2806</name></trkpt>
<trkpt lat="53.384985" lon="-1.858193"><ele>613</ele><time>2024-02-10T12:37:45Z</time><name>PT2807</name></trkpt>
<trkpt lat="53.384969" lon="-1.858190"><ele>612</ele><time>2024-02-10T12:37:49Z</time><name>PT2808</name></trkpt>
<trkpt lat="53.384965" lon="-1.858191"><ele>612</ele><time>2024-02-10T12:37:53Z</time><name>PT2809</name></trkpt>
<trkpt lat="53.384964" lon="-1.858199"><ele>612</ele><time>2024-02-10T12:37:57Z</time><name>PT2810</name></trkpt>
<trkpt lat="53.384961" lon="-1.858170"><ele>612</ele><time>2024-02-10T12:38:04Z</time><name>PT2811</name></trkpt>
<trkpt lat="53.384945" lon="-1.858147"><ele>611</ele><time>2024-02-10T12:38:08Z</time><name>PT2812</name></trkpt>
<trkpt lat="53.384930" lon="-1.858127"><ele>611</ele><time>2024-02-10T12:38:11Z</time><name>PT2813</name></trkpt>
<trkpt lat="53.384914" lon="-1.858094"><ele>610</ele><time>2024-02-10T12:38:15Z</time><name>PT2814</name></trkpt>
<trkpt lat="53.384879" lon="-1.858078"><ele>610</ele><time>2024-02-10T12:38:19Z</time><name>PT2815</name></trkpt>
<trkpt lat="53.384871" lon="-1.858076"><ele>609</ele><time>2024-02-10T12:38:22Z</time><name>PT2816</name></trkpt>
<trkpt lat="53.384871" lon="-1.858078"><ele>609</ele><time>2024-02-10T12:38:25Z</time><name>PT2817</name></trkpt>
<trkpt lat="53.384867" lon="-1.858078"><ele>610</ele><time>2024-02-10T12:38:28Z</time><name>PT2818</name></trkpt>
<trkpt lat="53.384869" lon="-1.858078"><ele>610</ele><time>2024-02-10T12:38:32Z</time><name>PT2819</name></trkpt>
<trkpt lat="53.384870" lon="-1.858078"><ele>610</ele><time>2024-02-10T12:38:35Z</time><name>PT2820</name></trkpt>
<trkpt lat="53.384863" lon="-1.858062"><ele>610</ele><time>2024-02-10T12:38:38Z</time><name>PT2821</name></trkpt>
<trkpt lat="53.384842" lon="-1.858055"><ele>611</ele><time>2024-02-10T12:38:41Z</time><name>PT2822</name></trkpt>
<trkpt lat="53.384821" lon="-1.858024"><ele>609</ele><time>2024-02-10T12:38:45Z</time><name>PT2823</name></trkpt>
<trkpt lat="53.384808" lon="-1.858005"><ele>608</ele><time>2024-02-10T12:38:48Z</time><name>PT2824</name></trkpt>
<trkpt lat="53.384784" lon="-1.858006"><ele>607</ele><time>2024-02-10T12:38:51Z</time><name>PT2825</name></trkpt>
<trkpt lat="53.384757" lon="-1.858016"><ele>607</ele><time>2024-02-10T12:38:55Z</time><name>PT2826</name></trkpt>
<trkpt lat="53.384742" lon="-1.858015"><ele>607</ele><time>2024-02-10T12:38:58Z</time><name>PT2827</name></trkpt>
<trkpt lat="53.384712" lon="-1.858012"><ele>606</ele><time>2024-02-10T12:39:01Z</time><name>PT2828</name></trkpt>
<trkpt lat="53.384702" lon="-1.858009"><ele>605</ele><time>2024-02-10T12:39:05Z</time><name>PT2829</name></trkpt>
<trkpt lat="53.384676" lon="-1.857980"><ele>605</ele><time>2024-02-10T12:39:09Z</time><name>PT2830</name></trkpt>
<trkpt lat="53.384659" lon="-1.857979"><ele>605</ele><time>2024-02-10T12:39:13Z</time><name>PT2831</name></trkpt>
<trkpt lat="53.384639" lon="-1.857993"><ele>605</ele><time>2024-02-10T12:39:17Z</time><name>PT2832</name></trkpt>
<trkpt lat="53.384635" lon="-1.857987"><ele>606</ele><time>2024-02-10T12:39:20Z</time><name>PT2833</name></trkpt>
<trkpt lat="53.384623" lon="-1.857996"><ele>606</ele><time>2024-02-10T12:39:23Z</time><name>PT2834</name></trkpt>
<trkpt lat="53.384600" lon="-1.858020"><ele>606</ele><time>2024-02-10T12:39:27Z</time><name>PT2835</name></trkpt>
<trkpt lat="53.384574" lon="-1.858061"><ele>608</ele><time>2024-02-10T12:39:31Z</time><name>PT2836</name></trkpt>
<trkpt lat="53.384554" lon="-1.858076"><ele>608</ele><time>2024-02-10T12:39:35Z</time><name>PT2837</name></trkpt>
<trkpt lat="53.384546" lon="-1.858058"><ele>609</ele><time>2024-02-10T12:39:38Z</time><name>PT2838</name></trkpt>
<trkpt lat="53.384527" lon="-1.858040"><ele>609</ele><time>2024-02-10T12:39:42Z</time><name>PT2839</name></trkpt>
<trkpt lat="53.384518" lon="-1.858020"><ele>609</ele><time>2024-02-10T12:39:45Z</time><name>PT2840</name></trkpt>
<trkpt lat="53.384495" lon="-1.857959"><ele>609</ele><time>2024-02-10T12:39:49Z</time><name>PT2841</name></trkpt>
<trkpt lat="53.384473" lon="-1.857937"><ele>609</ele><time>2024-02-10T12:39:52Z</time><name>PT2842</name></trkpt>
<trkpt lat="53.384439" lon="-1.857929"><ele>609</ele><time>2024-02-10T12:39:55Z</time><name>PT2843</name></trkpt>
<trkpt lat="53.384420" lon="-1.857932"><ele>609</ele><time>2024-02-10T12:39:58Z</time><name>PT2844</name></trkpt>
<trkpt lat="53.384415" lon="-1.857936"><ele>609</ele><time>2024-02-10T12:40:02Z</time><name>PT2845</name></trkpt>
<trkpt lat="53.384413" lon="-1.857913"><ele>609</ele><time>2024-02-10T12:40:16Z</time><name>PT2846</name></trkpt>
<trkpt lat="53.384402" lon="-1.857891"><ele>610</ele><time>2024-02-10T12:40:19Z</time><name>PT2847</name></trkpt>
<trkpt lat="53.384387" lon="-1.857889"><ele>610</ele><time>2024-02-10T12:40:23Z</time><name>PT2848</name></trkpt>
<trkpt lat="53.384357" lon="-1.857887"><ele>610</ele><time>2024-02-10T12:40:27Z</time><name>PT2849</name></trkpt>
<trkpt lat="53.384337" lon="-1.857877"><ele>609</ele><time>2024-02-10T12:40:31Z</time><name>PT2850</name></trkpt>
<trkpt lat="53.384308" lon="-1.857856"><ele>608</ele><time>2024-02-10T12:40:34Z</time><name>PT2851</name></trkpt>
<trkpt lat="53.384282" lon="-1.857844"><ele>608</ele><time>2024-02-10T12:40:38Z</time><name>PT2852</name></trkpt>
<trkpt lat="53.384268" lon="-1.857869"><ele>608</ele><time>2024-02-10T12:40:41Z</time><name>PT2853</name></trkpt>
<trkpt lat="53.384245" lon="-1.857891"><ele>608</ele><time>2024-02-10T12:40:45Z</time><name>PT2854</name></trkpt>
<trkpt lat="53.384243" lon="-1.857880"><ele>608</ele><time>2024-02-10T12:40:48Z</time><name>PT2855</name></trkpt>
<trkpt lat="53.384199" lon="-1.857868"><ele>607</ele><time>2024-02-10T12:40:52Z</time><name>PT2856</name></trkpt>
<trkpt lat="53.384170" lon="-1.857866"><ele>606</ele><time>2024-02-10T12:40:55Z</time><name>PT2857</name></trkpt>
<trkpt lat="53.384138" lon="-1.857851"><ele>606</ele><time>2024-02-10T12:40:59Z</time><name>PT2858</name></trkpt>
<trkpt lat="53.384102" lon="-1.857852"><ele>606</ele><time>2024-02-10T12:41:03Z</time><name>PT2859</name></trkpt>
<trkpt lat="53.384070" lon="-1.857882"><ele>605</ele><time>2024-02-10T12:41:07Z</time><name>PT2860</name></trkpt>
<trkpt lat="53.384049" lon="-1.857885"><ele>605</ele><time>2024-02-10T12:41:10Z</time><name>PT2861</name></trkpt>
<trkpt lat="53.384020" lon="-1.857902"><ele>604</ele><time>2024-02-10T12:41:14Z</time><name>PT2862</name></trkpt>
<trkpt lat="53.383998" lon="-1.857902"><ele>605</ele><time>2024-02-10T12:41:17Z</time><name>PT2863</name></trkpt>
<trkpt lat="53.383974" lon="-1.857912"><ele>604</ele><time>2024-02-10T12:41:21Z</time><name>PT2864</name></trkpt>
<trkpt lat="53.383966" lon="-1.857905"><ele>603</ele><time>2024-02-10T12:41:24Z</time><name>PT2865</name></trkpt>
<trkpt lat="53.383953" lon="-1.857897"><ele>602</ele><time>2024-02-10T12:41:28Z</time><name>PT2866</name></trkpt>
<trkpt lat="53.383936" lon="-1.857875"><ele>602</ele><time>2024-02-10T12:41:32Z</time><name>PT2867</name></trkpt>
<trkpt lat="53.383912" lon="-1.857865"><ele>601</ele><time>2024-02-10T12:41:36Z</time><name>PT2868</name></trkpt>
<trkpt lat="53.383885" lon="-1.857856"><ele>600</ele><time>2024-02-10T12:41:39Z</time><name>PT2869</name></trkpt>
<trkpt lat="53.383850" lon="-1.857827"><ele>600</ele><time>2024-02-10T12:41:43Z</time><name>PT2870</name></trkpt>
<trkpt lat="53.383828" lon="-1.857825"><ele>599</ele><time>2024-02-10T12:41:46Z</time><name>PT2871</name></trkpt>
<trkpt lat="53.383802" lon="-1.857820"><ele>599</ele><time>2024-02-10T12:41:49Z</time><name>PT2872</name></trkpt>
<trkpt lat="53.383777" lon="-1.857840"><ele>600</ele><time>2024-02-10T12:41:52Z</time><name>PT2873</name></trkpt>
<trkpt lat="53.383727" lon="-1.857874"><ele>602</ele><time>2024-02-10T12:41:56Z</time><name>PT2874</name></trkpt>
<trkpt lat="53.383690" lon="-1.857889"><ele>603</ele><time>2024-02-10T12:41:59Z</time><name>PT2875</name></trkpt>
<trkpt lat="53.383658" lon="-1.857877"><ele>603</ele><time>2024-02-10T12:42:02Z</time><name>PT2876</name></trkpt>
<trkpt lat="53.383615" lon="-1.857858"><ele>602</ele><time>2024-02-10T12:42:06Z</time><name>PT2877</name></trkpt>
<trkpt lat="53.383573" lon="-1.857853"><ele>602</ele><time>2024-02-10T12:42:10Z</time><name>PT2878</name></trkpt>
<trkpt lat="53.383532" lon="-1.857855"><ele>602</ele><time>2024-02-10T12:42:14Z</time><name>PT2879</name></trkpt>
<trkpt lat="53.383502" lon="-1.857839"><ele>602</ele><time>2024-02-10T12:42:17Z</time><name>PT2880</name></trkpt>
<trkpt lat="53.383471" lon="-1.857835"><ele>602</ele><time>2024-02-10T12:42:20Z</time><name>PT2881</name></trkpt>
<trkpt lat="53.383432" lon="-1.857836"><ele>601</ele><time>2024-02-10T12:42:24Z</time><name>PT2882</name></trkpt>
<trkpt lat="53.383390" lon="-1.857826"><ele>601</ele><time>2024-02-10T12:42:28Z</time><name>PT2883</name></trkpt>
<trkpt lat="53.383357" lon="-1.857851"><ele>601</ele><time>2024-02-10T12:42:32Z</time><name>PT2884</name></trkpt>
<trkpt lat="53.383326" lon="-1.857867"><ele>600</ele><time>2024-02-10T12:42:36Z</time><name>PT2885</name></trkpt>
<trkpt lat="53.383285" lon="-1.857876"><ele>600</ele><time>2024-02-10T12:42:40Z</time><name>PT2886</name></trkpt>
<trkpt lat="53.383244" lon="-1.857894"><ele>600</ele><time>2024-02-10T12:42:44Z</time><name>PT2887</name></trkpt>
<trkpt lat="53.383198" lon="-1.857910"><ele>600</ele><time>2024-02-10T12:42:48Z</time><name>PT2888</name></trkpt>
<trkpt lat="53.383160" lon="-1.857922"><ele>599</ele><time>2024-02-10T12:42:52Z</time><name>PT2889</name></trkpt>
<trkpt lat="53.383118" lon="-1.857951"><ele>598</ele><time>2024-02-10T12:42:56Z</time><name>PT2890</name></trkpt>
<trkpt lat="53.383088" lon="-1.857962"><ele>598</ele><time>2024-02-10T12:42:59Z</time><name>PT2891</name></trkpt>
<trkpt lat="53.383064" lon="-1.857979"><ele>598</ele><time>2024-02-10T12:43:02Z</time><name>PT2892</name></trkpt>
<trkpt lat="53.383035" lon="-1.857994"><ele>597</ele><time>2024-02-10T12:43:05Z</time><name>PT2893</name></trkpt>
<trkpt lat="53.382999" lon="-1.858017"><ele>597</ele><time>2024-02-10T12:43:09Z</time><name>PT2894</name></trkpt>
<trkpt lat="53.382980" lon="-1.858035"><ele>597</ele><time>2024-02-10T12:43:12Z</time><name>PT2895</name></trkpt>
<trkpt lat="53.382966" lon="-1.858069"><ele>596</ele><time>2024-02-10T12:43:16Z</time><name>PT2896</name></trkpt>
<trkpt lat="53.382946" lon="-1.858083"><ele>596</ele><time>2024-02-10T12:43:20Z</time><name>PT2897</name></trkpt>
<trkpt lat="53.382942" lon="-1.858085"><ele>596</ele><time>2024-02-10T12:43:24Z</time><name>PT2898</name></trkpt>
<trkpt lat="53.382936" lon="-1.858096"><ele>596</ele><time>2024-02-10T12:43:27Z</time><name>PT2899</name></trkpt>
<trkpt lat="53.382918" lon="-1.858113"><ele>595</ele><time>2024-02-10T12:43:30Z</time><name>PT2900</name></trkpt>
<trkpt lat="53.382903" lon="-1.858126"><ele>595</ele><time>2024-02-10T12:43:34Z</time><name>PT2901</name></trkpt>
<trkpt lat="53.382891" lon="-1.858146"><ele>595</ele><time>2024-02-10T12:43:38Z</time><name>PT2902</name></trkpt>
<trkpt lat="53.382871" lon="-1.858163"><ele>595</ele><time>2024-02-10T12:43:42Z</time><name>PT2903</name></trkpt>
<trkpt lat="53.382867" lon="-1.858165"><ele>595</ele><time>2024-02-10T12:43:46Z</time><name>PT2904</name></trkpt>
<trkpt lat="53.382868" lon="-1.858158"><ele>595</ele><time>2024-02-10T12:44:39Z</time><name>PT2905</name></trkpt>
<trkpt lat="53.382873" lon="-1.858160"><ele>595</ele><time>2024-02-10T12:44:42Z</time><name>PT2906</name></trkpt>
<trkpt lat="53.382872" lon="-1.858162"><ele>595</ele><time>2024-02-10T12:44:45Z</time><name>PT2907</name></trkpt>
<trkpt lat="53.382873" lon="-1.858158"><ele>595</ele><time>2024-02-10T12:45:06Z</time><name>PT2908</name></trkpt>
<trkpt lat="53.382871" lon="-1.858166"><ele>595</ele><time>2024-02-10T12:45:09Z</time><name>PT2909</name></trkpt>
<trkpt lat="53.382871" lon="-1.858163"><ele>595</ele><time>2024-02-10T12:45:13Z</time><name>PT2910</name></trkpt>
<trkpt lat="53.382870" lon="-1.858163"><ele>595</ele><time>2024-02-10T12:45:16Z</time><name>PT2911</name></trkpt>
<trkpt lat="53.382872" lon="-1.858157"><ele>595</ele><time>2024-02-10T12:45:34Z</time><name>PT2912</name></trkpt>
<trkpt lat="53.382875" lon="-1.858158"><ele>595</ele><time>2024-02-10T12:45:38Z</time><name>PT2913</name></trkpt>
<trkpt lat="53.382877" lon="-1.858171"><ele>594</ele><time>2024-02-10T12:45:44Z</time><name>PT2914</name></trkpt>
<trkpt lat="53.382877" lon="-1.858174"><ele>593</ele><time>2024-02-10T12:45:48Z</time><name>PT2915</name></trkpt>
<trkpt lat="53.382854" lon="-1.858158"><ele>593</ele><time>2024-02-10T12:45:55Z</time><name>PT2916</name></trkpt>
<trkpt lat="53.382818" lon="-1.858138"><ele>591</ele><time>2024-02-10T12:45:59Z</time><name>PT2917</name></trkpt>
<trkpt lat="53.382793" lon="-1.858117"><ele>591</ele><time>2024-02-10T12:46:02Z</time><name>PT2918</name></trkpt>
<trkpt lat="53.382774" lon="-1.858103"><ele>592</ele><time>2024-02-10T12:46:06Z</time><name>PT2919</name></trkpt>
<trkpt lat="53.382759" lon="-1.858099"><ele>593</ele><time>2024-02-10T12:46:09Z</time><name>PT2920</name></trkpt>
<trkpt lat="53.382743" lon="-1.858097"><ele>593</ele><time>2024-02-10T12:46:12Z</time><name>PT2921</name></trkpt>
<trkpt lat="53.382707" lon="-1.858110"><ele>593</ele><time>2024-02-10T12:46:16Z</time><name>PT2922</name></trkpt>
<trkpt lat="53.382683" lon="-1.858125"><ele>592</ele><time>2024-02-10T12:46:19Z</time><name>PT2923</name></trkpt>
<trkpt lat="53.382648" lon="-1.858153"><ele>591</ele><time>2024-02-10T12:46:23Z</time><name>PT2924</name></trkpt>
<trkpt lat="53.382624" lon="-1.858185"><ele>591</ele><time>2024-02-10T12:46:26Z</time><name>PT2925</name></trkpt>
<trkpt lat="53.382593" lon="-1.858192"><ele>591</ele><time>2024-02-10T12:46:30Z</time><name>PT2926</name></trkpt>
<trkpt lat="53.382571" lon="-1.858195"><ele>590</ele><time>2024-02-10T12:46:33Z</time><name>PT2927</name></trkpt>
<trkpt lat="53.382571" lon="-1.858190"><ele>590</ele><time>2024-02-10T12:46:37Z</time><name>PT2928</name></trkpt>
<trkpt lat="53.382575" lon="-1.858207"><ele>590</ele><time>2024-02-10T12:46:57Z</time><name>PT2929</name></trkpt>
<trkpt lat="53.382549" lon="-1.858206"><ele>590</ele><time>2024-02-10T12:47:00Z</time><name>PT2930</name></trkpt>
<trkpt lat="53.382543" lon="-1.858210"><ele>590</ele><time>2024-02-10T12:47:04Z</time><name>PT2931</name></trkpt>
<trkpt lat="53.382550" lon="-1.858229"><ele>591</ele><time>2024-02-10T12:47:12Z</time><name>PT2932</name></trkpt>
<trkpt lat="53.382552" lon="-1.858294"><ele>589</ele><time>2024-02-10T12:47:16Z</time><name>PT2933</name></trkpt>
<trkpt lat="53.382550" lon="-1.858323"><ele>588</ele><time>2024-02-10T12:47:19Z</time><name>PT2934</name></trkpt>
<trkpt lat="53.382554" lon="-1.858360"><ele>588</ele><time>2024-02-10T12:47:22Z</time><name>PT2935</name></trkpt>
<trkpt lat="53.382562" lon="-1.858395"><ele>589</ele><time>2024-02-10T12:47:26Z</time><name>PT2936</name></trkpt>
<trkpt lat="53.382574" lon="-1.858425"><ele>590</ele><time>2024-02-10T12:47:29Z</time><name>PT2937</name></trkpt>
<trkpt lat="53.382563" lon="-1.858479"><ele>590</ele><time>2024-02-10T12:47:33Z</time><name>PT2938</name></trkpt>
<trkpt lat="53.382535" lon="-1.858506"><ele>588</ele><time>2024-02-10T12:47:37Z</time><name>PT2939</name></trkpt>
<trkpt lat="53.382509" lon="-1.858544"><ele>589</ele><time>2024-02-10T12:47:41Z</time><name>PT2940</name></trkpt>
<trkpt lat="53.382482" lon="-1.858557"><ele>589</ele><time>2024-02-10T12:47:44Z</time><name>PT2941</name></trkpt>
<trkpt lat="53.382454" lon="-1.858594"><ele>589</ele><time>2024-02-10T12:47:48Z</time><name>PT2942</name></trkpt>
<trkpt lat="53.382431" lon="-1.858623"><ele>589</ele><time>2024-02-10T12:47:52Z</time><name>PT2943</name></trkpt>
<trkpt lat="53.382417" lon="-1.858642"><ele>589</ele><time>2024-02-10T12:47:55Z</time><name>PT2944</name></trkpt>
<trkpt lat="53.382414" lon="-1.858652"><ele>589</ele><time>2024-02-10T12:47:59Z</time><name>PT2945</name></trkpt>
<trkpt lat="53.382413" lon="-1.858653"><ele>589</ele><time>2024-02-10T12:48:09Z</time><name>PT2946</name></trkpt>
<trkpt lat="53.382401" lon="-1.858666"><ele>588</ele><time>2024-02-10T12:48:12Z</time><name>PT2947</name></trkpt>
<trkpt lat="53.382375" lon="-1.858706"><ele>589</ele><time>2024-02-10T12:48:16Z</time><name>PT2948</name></trkpt>
<trkpt lat="53.382354" lon="-1.858738"><ele>588</ele><time>2024-02-10T12:48:20Z</time><name>PT2949</name></trkpt>
<trkpt lat="53.382348" lon="-1.858740"><ele>589</ele><time>2024-02-10T12:48:24Z</time><name>PT2950</name></trkpt>
<trkpt lat="53.382343" lon="-1.858738"><ele>588</ele><time>2024-02-10T12:48:27Z</time><name>PT2951</name></trkpt>
<trkpt lat="53.382314" lon="-1.858748"><ele>588</ele><time>2024-02-10T12:48:44Z</time><name>PT2952</name></trkpt>
<trkpt lat="53.382277" lon="-1.858756"><ele>585</ele><time>2024-02-10T12:48:48Z</time><name>PT2953</name></trkpt>
<trkpt lat="53.382257" lon="-1.858764"><ele>585</ele><time>2024-02-10T12:48:51Z</time><name>PT2954</name></trkpt>
<trkpt lat="53.382230" lon="-1.858771"><ele>582</ele><time>2024-02-10T12:48:55Z</time><name>PT2955</name></trkpt>
<trkpt lat="53.382212" lon="-1.858780"><ele>582</ele><time>2024-02-10T12:48:58Z</time><name>PT2956</name></trkpt>
<trkpt lat="53.382181" lon="-1.858800"><ele>580</ele><time>2024-02-10T12:49:02Z</time><name>PT2957</name></trkpt>
<trkpt lat="53.382156" lon="-1.858832"><ele>579</ele><time>2024-02-10T12:49:06Z</time><name>PT2958</name></trkpt>
<trkpt lat="53.382144" lon="-1.858846"><ele>578</ele><time>2024-02-10T12:49:09Z</time><name>PT2959</name></trkpt>
<trkpt lat="53.382130" lon="-1.858859"><ele>578</ele><time>2024-02-10T12:49:12Z</time><name>PT2960</name></trkpt>
<trkpt lat="53.382117" lon="-1.858870"><ele>578</ele><time>2024-02-10T12:49:15Z</time><name>PT2961</name></trkpt>
<trkpt lat="53.382099" lon="-1.858880"><ele>578</ele><time>2024-02-10T12:49:19Z</time><name>PT2962</name></trkpt>
<trkpt lat="53.382100" lon="-1.858892"><ele>575</ele><time>2024-02-10T12:49:22Z</time><name>PT2963</name></trkpt>
<trkpt lat="53.382081" lon="-1.858891"><ele>575</ele><time>2024-02-10T12:49:26Z</time><name>PT2964</name></trkpt>
<trkpt lat="53.382076" lon="-1.858894"><ele>575</ele><time>2024-02-10T12:49:29Z</time><name>PT2965</name></trkpt>
<trkpt lat="53.382061" lon="-1.858882"><ele>574</ele><time>2024-02-10T12:49:32Z</time><name>PT2966</name></trkpt>
<trkpt lat="53.382038" lon="-1.858871"><ele>574</ele><time>2024-02-10T12:49:35Z</time><name>PT2967</name></trkpt>
<trkpt lat="53.382019" lon="-1.858853"><ele>574</ele><time>2024-02-10T12:49:39Z</time><name>PT2968</name></trkpt>
<trkpt lat="53.382007" lon="-1.858848"><ele>575</ele><time>2024-02-10T12:49:43Z</time><name>PT2969</name></trkpt>
<trkpt lat="53.381999" lon="-1.858848"><ele>576</ele><time>2024-02-10T12:49:46Z</time><name>PT2970</name></trkpt>
<trkpt lat="53.381993" lon="-1.858852"><ele>579</ele><time>2024-02-10T12:49:49Z</time><name>PT2971</name></trkpt>
<trkpt lat="53.381982" lon="-1.858837"><ele>578</ele><time>2024-02-10T12:49:52Z</time><name>PT2972</name></trkpt>
<trkpt lat="53.381974" lon="-1.858826"><ele>578</ele><time>2024-02-10T12:49:55Z</time><name>PT2973</name></trkpt>
<trkpt lat="53.381959" lon="-1.858825"><ele>579</ele><time>2024-02-10T12:49:58Z</time><name>PT2974</name></trkpt>
<trkpt lat="53.381945" lon="-1.858824"><ele>579</ele><time>2024-02-10T12:50:01Z</time><name>PT2975</name></trkpt>
<trkpt lat="53.381924" lon="-1.858821"><ele>579</ele><time>2024-02-10T12:50:05Z</time><name>PT2976</name></trkpt>
<trkpt lat="53.381904" lon="-1.858824"><ele>580</ele><time>2024-02-10T12:50:09Z</time><name>PT2977</name></trkpt>
<trkpt lat="53.381886" lon="-1.858842"><ele>581</ele><time>2024-02-10T12:50:13Z</time><name>PT2978</name></trkpt>
<trkpt lat="53.381861" lon="-1.858863"><ele>582</ele><time>2024-02-10T12:50:17Z</time><name>PT2979</name></trkpt>
<trkpt lat="53.381847" lon="-1.858857"><ele>582</ele><time>2024-02-10T12:50:20Z</time><name>PT2980</name></trkpt>
<trkpt lat="53.381836" lon="-1.858862"><ele>583</ele><time>2024-02-10T12:50:23Z</time><name>PT2981</name></trkpt>
<trkpt lat="53.381809" lon="-1.858852"><ele>583</ele><time>2024-02-10T12:50:27Z</time><name>PT2982</name></trkpt>
<trkpt lat="53.381778" lon="-1.858862"><ele>583</ele><time>2024-02-10T12:50:31Z</time><name>PT2983</name></trkpt>
<trkpt lat="53.381753" lon="-1.858865"><ele>584</ele><time>2024-02-10T12:50:34Z</time><name>PT2984</name></trkpt>
<trkpt lat="53.381719" lon="-1.858888"><ele>585</ele><time>2024-02-10T12:50:38Z</time><name>PT2985</name></trkpt>
<trkpt lat="53.381691" lon="-1.858897"><ele>587</ele><time>2024-02-10T12:50:42Z</time><name>PT2986</name></trkpt>
<trkpt lat="53.381665" lon="-1.858910"><ele>588</ele><time>2024-02-10T12:50:46Z</time><name>PT2987</name></trkpt>
<trkpt lat="53.381649" lon="-1.858924"><ele>587</ele><time>2024-02-10T12:50:49Z</time><name>PT2988</name></trkpt>
<trkpt lat="53.381627" lon="-1.858940"><ele>587</ele><time>2024-02-10T12:50:52Z</time><name>PT2989</name></trkpt>
<trkpt lat="53.381601" lon="-1.858965"><ele>589</ele><time>2024-02-10T12:50:56Z</time><name>PT2990</name></trkpt>
<trkpt lat="53.381582" lon="-1.858970"><ele>590</ele><time>2024-02-10T12:50:59Z</time><name>PT2991</name></trkpt>
<trkpt lat="53.381558" lon="-1.858982"><ele>590</ele><time>2024-02-10T12:51:02Z</time><name>PT2992</name></trkpt>
<trkpt lat="53.381535" lon="-1.858993"><ele>590</ele><time>2024-02-10T12:51:05Z</time><name>PT2993</name></trkpt>
<trkpt lat="53.381509" lon="-1.858997"><ele>590</ele><time>2024-02-10T12:51:08Z</time><name>PT2994</name></trkpt>
<trkpt lat="53.381484" lon="-1.859014"><ele>591</ele><time>2024-02-10T12:51:12Z</time><name>PT2995</name></trkpt>
<trkpt lat="53.381473" lon="-1.859040"><ele>591</ele><time>2024-02-10T12:51:15Z</time><name>PT2996</name></trkpt>
<trkpt lat="53.381459" lon="-1.859062"><ele>592</ele><time>2024-02-10T12:51:18Z</time><name>PT2997</name></trkpt>
<trkpt lat="53.381448" lon="-1.859101"><ele>591</ele><time>2024-02-10T12:51:22Z</time><name>PT2998</name></trkpt>
<trkpt lat="53.381429" lon="-1.859122"><ele>592</ele><time>2024-02-10T12:51:25Z</time><name>PT2999</name></trkpt>
<trkpt lat="53.381399" lon="-1.859147"><ele>594</ele><time>2024-02-10T12:51:29Z</time><name>PT3000</name></trkpt>
<trkpt lat="53.381379" lon="-1.859157"><ele>595</ele><time>2024-02-10T12:51:33Z</time><name>PT3001</name></trkpt>
<trkpt lat="53.381365" lon="-1.859180"><ele>594</ele><time>2024-02-10T12:51:37Z</time><name>PT3002</name></trkpt>
<trkpt lat="53.381354" lon="-1.859214"><ele>595</ele><time>2024-02-10T12:51:40Z</time><name>PT3003</name></trkpt>
<trkpt lat="53.381334" lon="-1.859232"><ele>596</ele><time>2024-02-10T12:51:43Z</time><name>PT3004</name></trkpt>
<trkpt lat="53.381299" lon="-1.859250"><ele>597</ele><time>2024-02-10T12:51:47Z</time><name>PT3005</name></trkpt>
<trkpt lat="53.381270" lon="-1.859261"><ele>598</ele><time>2024-02-10T12:51:50Z</time><name>PT3006</name></trkpt>
<trkpt lat="53.381248" lon="-1.859282"><ele>599</ele><time>2024-02-10T12:51:53Z</time><name>PT3007</name></trkpt>
<trkpt lat="53.381215" lon="-1.859323"><ele>600</ele><time>2024-02-10T12:51:57Z</time><name>PT3008</name></trkpt>
<trkpt lat="53.381189" lon="-1.859343"><ele>600</ele><time>2024-02-10T12:52:00Z</time><name>PT3009</name></trkpt>
<trkpt lat="53.381174" lon="-1.859395"><ele>601</ele><time>2024-02-10T12:52:04Z</time><name>PT3010</name></trkpt>
<trkpt lat="53.381155" lon="-1.859425"><ele>601</ele><time>2024-02-10T12:52:07Z</time><name>PT3011</name></trkpt>
<trkpt lat="53.381118" lon="-1.859438"><ele>601</ele><time>2024-02-10T12:52:11Z</time><name>PT3012</name></trkpt>
<trkpt lat="53.381084" lon="-1.859440"><ele>601</ele><time>2024-02-10T12:52:15Z</time><name>PT3013</name></trkpt>
<trkpt lat="53.381044" lon="-1.859444"><ele>601</ele><time>2024-02-10T12:52:19Z</time><name>PT3014</name></trkpt>
<trkpt lat="53.381018" lon="-1.859451"><ele>601</ele><time>2024-02-10T12:52:23Z</time><name>PT3015</name></trkpt>
<trkpt lat="53.380997" lon="-1.859469"><ele>601</ele><time>2024-02-10T12:52:26Z</time><name>PT3016</name></trkpt>
<trkpt lat="53.380975" lon="-1.859472"><ele>602</ele><time>2024-02-10T12:52:29Z</time><name>PT3017</name></trkpt>
<trkpt lat="53.380938" lon="-1.859466"><ele>606</ele><time>2024-02-10T12:52:32Z</time><name>PT3018</name></trkpt>
<trkpt lat="53.380928" lon="-1.859469"><ele>607</ele><time>2024-02-10T12:52:36Z</time><name>PT3019</name></trkpt>
<trkpt lat="53.380929" lon="-1.859497"><ele>608</ele><time>2024-02-10T12:52:43Z</time><name>PT3020</name></trkpt>
<trkpt lat="53.380929" lon="-1.859502"><ele>608</ele><time>2024-02-10T12:52:47Z</time><name>PT3021</name></trkpt>
<trkpt lat="53.380928" lon="-1.859514"><ele>607</ele><time>2024-02-10T12:52:50Z</time><name>PT3022</name></trkpt>
<trkpt lat="53.380928" lon="-1.859516"><ele>607</ele><time>2024-02-10T12:53:46Z</time><name>PT3023</name></trkpt>
<trkpt lat="53.380930" lon="-1.859525"><ele>606</ele><time>2024-02-10T12:53:50Z</time><name>PT3024</name></trkpt>
<trkpt lat="53.380931" lon="-1.859526"><ele>606</ele><time>2024-02-10T12:53:54Z</time><name>PT3025</name></trkpt>
<trkpt lat="53.380931" lon="-1.859520"><ele>606</ele><time>2024-02-10T12:53:57Z</time><name>PT3026</name></trkpt>
<trkpt lat="53.380930" lon="-1.859519"><ele>606</ele><time>2024-02-10T12:54:00Z</time><name>PT3027</name></trkpt>
<trkpt lat="53.380931" lon="-1.859515"><ele>605</ele><time>2024-02-10T12:54:04Z</time><name>PT3028</name></trkpt>
<trkpt lat="53.380931" lon="-1.859517"><ele>605</ele><time>2024-02-10T12:54:08Z</time><name>PT3029</name></trkpt>
<trkpt lat="53.380930" lon="-1.859511"><ele>605</ele><time>2024-02-10T12:54:19Z</time><name>PT3030</name></trkpt>
<trkpt lat="53.380929" lon="-1.859514"><ele>605</ele><time>2024-02-10T12:54:23Z</time><name>PT3031</name></trkpt>
<trkpt lat="53.380932" lon="-1.859500"><ele>605</ele><time>2024-02-10T12:54:30Z</time><name>PT3032</name></trkpt>
<trkpt lat="53.380931" lon="-1.859490"><ele>605</ele><time>2024-02-10T12:54:33Z</time><name>PT3033</name></trkpt>
<trkpt lat="53.380926" lon="-1.859497"><ele>605</ele><time>2024-02-10T12:56:20Z</time><name>PT3034</name></trkpt>
<trkpt lat="53.380923" lon="-1.859504"><ele>604</ele><time>2024-02-10T12:56:24Z</time><name>PT3035</name></trkpt>
<trkpt lat="53.380923" lon="-1.859508"><ele>603</ele><time>2024-02-10T12:56:27Z</time><name>PT3036</name></trkpt>
<trkpt lat="53.380925" lon="-1.859513"><ele>603</ele><time>2024-02-10T12:56:31Z</time><name>PT3037</name></trkpt>
<trkpt lat="53.380924" lon="-1.859534"><ele>602</ele><time>2024-02-10T12:56:50Z</time><name>PT3038</name></trkpt>
<trkpt lat="53.380923" lon="-1.859538"><ele>601</ele><time>2024-02-10T12:56:54Z</time><name>PT3039</name></trkpt>
<trkpt lat="53.380927" lon="-1.859524"><ele>601</ele><time>2024-02-10T12:56:57Z</time><name>PT3040</name></trkpt>
<trkpt lat="53.380922" lon="-1.859518"><ele>600</ele><time>2024-02-10T12:57:18Z</time><name>PT3041</name></trkpt>
<trkpt lat="53.380922" lon="-1.859519"><ele>600</ele><time>2024-02-10T12:57:22Z</time><name>PT3042</name></trkpt>
<trkpt lat="53.380926" lon="-1.859521"><ele>600</ele><time>2024-02-10T12:57:26Z</time><name>PT3043</name></trkpt>
<trkpt lat="53.380930" lon="-1.859523"><ele>600</ele><time>2024-02-10T12:57:29Z</time><name>PT3044</name></trkpt>
<trkpt lat="53.380930" lon="-1.859514"><ele>600</ele><time>2024-02-10T12:57:32Z</time><name>PT3045</name></trkpt>
<trkpt lat="53.380932" lon="-1.859520"><ele>600</ele><time>2024-02-10T12:57:50Z</time><name>PT3046</name></trkpt>
<trkpt lat="53.380931" lon="-1.859515"><ele>599</ele><time>2024-02-10T12:58:19Z</time><name>PT3047</name></trkpt>
<trkpt lat="53.380928" lon="-1.859515"><ele>599</ele><time>2024-02-10T12:58:23Z</time><name>PT3048</name></trkpt>
<trkpt lat="53.380925" lon="-1.859515"><ele>598</ele><time>2024-02-10T12:58:48Z</time><name>PT3049</name></trkpt>
<trkpt lat="53.380925" lon="-1.859509"><ele>598</ele><time>2024-02-10T13:00:45Z</time><name>PT3050</name></trkpt>
<trkpt lat="53.380921" lon="-1.859499"><ele>598</ele><time>2024-02-10T13:00:49Z</time><name>PT3051</name></trkpt>
<trkpt lat="53.380918" lon="-1.859507"><ele>599</ele><time>2024-02-10T13:01:18Z</time><name>PT3052</name></trkpt>
<trkpt lat="53.380910" lon="-1.859511"><ele>598</ele><time>2024-02-10T13:01:50Z</time><name>PT3053</name></trkpt>
<trkpt lat="53.380908" lon="-1.859510"><ele>597</ele><time>2024-02-10T13:01:54Z</time><name>PT3054</name></trkpt>
<trkpt lat="53.380911" lon="-1.859502"><ele>598</ele><time>2024-02-10T13:02:54Z</time><name>PT3055</name></trkpt>
<trkpt lat="53.380911" lon="-1.859499"><ele>598</ele><time>2024-02-10T13:07:32Z</time><name>PT3056</name></trkpt>
<trkpt lat="53.380917" lon="-1.859509"><ele>600</ele><time>2024-02-10T13:12:44Z</time><name>PT3057</name></trkpt>
<trkpt lat="53.380920" lon="-1.859510"><ele>600</ele><time>2024-02-10T13:12:47Z</time><name>PT3058</name></trkpt>
<trkpt lat="53.380920" lon="-1.859509"><ele>601</ele><time>2024-02-10T13:12:56Z</time><name>PT3059</name></trkpt>
<trkpt lat="53.380920" lon="-1.859511"><ele>601</ele><time>2024-02-10T13:14:56Z</time><name>PT3060</name></trkpt>
<trkpt lat="53.380922" lon="-1.859514"><ele>601</ele><time>2024-02-10T13:16:02Z</time><name>PT3061</name></trkpt>
<trkpt lat="53.380922" lon="-1.859519"><ele>602</ele><time>2024-02-10T13:16:05Z</time><name>PT3062</name></trkpt>
<trkpt lat="53.380929" lon="-1.859541"><ele>602</ele><time>2024-02-10T13:16:17Z</time><name>PT3063</name></trkpt>
<trkpt lat="53.380936" lon="-1.859587"><ele>604</ele><time>2024-02-10T13:16:21Z</time><name>PT3064</name></trkpt>
<trkpt lat="53.380949" lon="-1.859624"><ele>604</ele><time>2024-02-10T13:16:24Z</time><name>PT3065</name></trkpt>
<trkpt lat="53.380946" lon="-1.859661"><ele>604</ele><time>2024-02-10T13:16:27Z</time><name>PT3066</name></trkpt>
<trkpt lat="53.380936" lon="-1.859698"><ele>603</ele><time>2024-02-10T13:16:31Z</time><name>PT3067</name></trkpt>
<trkpt lat="53.380934" lon="-1.859747"><ele>604</ele><time>2024-02-10T13:16:34Z</time><name>PT3068</name></trkpt>
<trkpt lat="53.380925" lon="-1.859792"><ele>604</ele><time>2024-02-10T13:16:38Z</time><name>PT3069</name></trkpt>
<trkpt lat="53.380917" lon="-1.859826"><ele>604</ele><time>2024-02-10T13:16:41Z</time><name>PT3070</name></trkpt>
<trkpt lat="53.380894" lon="-1.859864"><ele>603</ele><time>2024-02-10T13:16:45Z</time><name>PT3071</name></trkpt>
<trkpt lat="53.380884" lon="-1.859922"><ele>604</ele><time>2024-02-10T13:16:49Z</time><name>PT3072</name></trkpt>
<trkpt lat="53.380883" lon="-1.859954"><ele>603</ele><time>2024-02-10T13:16:53Z</time><name>PT3073</name></trkpt>
<trkpt lat="53.380886" lon="-1.859976"><ele>604</ele><time>2024-02-10T13:16:57Z</time><name>PT3074</name></trkpt>
<trkpt lat="53.380883" lon="-1.859992"><ele>604</ele><time>2024-02-10T13:17:01Z</time><name>PT3075</name></trkpt>
<trkpt lat="53.380887" lon="-1.860019"><ele>604</ele><time>2024-02-10T13:17:04Z</time><name>PT3076</name></trkpt>
<trkpt lat="53.380891" lon="-1.860049"><ele>605</ele><time>2024-02-10T13:17:07Z</time><name>PT3077</name></trkpt>
<trkpt lat="53.380891" lon="-1.860048"><ele>604</ele><time>2024-02-10T13:17:10Z</time><name>PT3078</name></trkpt>
<trkpt lat="53.380892" lon="-1.860044"><ele>604</ele><time>2024-02-10T13:17:14Z</time><name>PT3079</name></trkpt>
<trkpt lat="53.380903" lon="-1.860035"><ele>603</ele><time>2024-02-10T13:17:17Z</time><name>PT3080</name></trkpt>
<trkpt lat="53.380918" lon="-1.860021"><ele>604</ele><time>2024-02-10T13:17:20Z</time><name>PT3081</name></trkpt>
<trkpt lat="53.380927" lon="-1.860020"><ele>605</ele><time>2024-02-10T13:17:24Z</time><name>PT3082</name></trkpt>
<trkpt lat="53.380926" lon="-1.860015"><ele>605</ele><time>2024-02-10T13:17:27Z</time><name>PT3083</name></trkpt>
<trkpt lat="53.380921" lon="-1.860009"><ele>604</ele><time>2024-02-10T13:17:31Z</time><name>PT3084</name></trkpt>
<trkpt lat="53.380899" lon="-1.859990"><ele>604</ele><time>2024-02-10T13:17:35Z</time><name>PT3085</name></trkpt>
<trkpt lat="53.380900" lon="-1.859987"><ele>604</ele><time>2024-02-10T13:17:38Z</time><name>PT3086</name></trkpt>
<trkpt lat="53.380899" lon="-1.859981"><ele>604</ele><time>2024-02-10T13:17:41Z</time><name>PT3087</name></trkpt>
<trkpt lat="53.380907" lon="-1.859951"><ele>603</ele><time>2024-02-10T13:17:44Z</time><name>PT3088</name></trkpt>
<trkpt lat="53.380906" lon="-1.859915"><ele>605</ele><time>2024-02-10T13:17:47Z</time><name>PT3089</name></trkpt>
<trkpt lat="53.380889" lon="-1.859883"><ele>605</ele><time>2024-02-10T13:17:51Z</time><name>PT3090</name></trkpt>
<trkpt lat="53.380882" lon="-1.859854"><ele>605</ele><time>2024-02-10T13:17:54Z</time><name>PT3091</name></trkpt>
<trkpt lat="53.380865" lon="-1.859843"><ele>606</ele><time>2024-02-10T13:17:58Z</time><name>PT3092</name></trkpt>
<trkpt lat="53.380854" lon="-1.859836"><ele>606</ele><time>2024-02-10T13:18:01Z</time><name>PT3093</name></trkpt>
<trkpt lat="53.380853" lon="-1.859821"><ele>606</ele><time>2024-02-10T13:18:05Z</time><name>PT3094</name></trkpt>
<trkpt lat="53.380836" lon="-1.859807"><ele>605</ele><time>2024-02-10T13:18:09Z</time><name>PT3095</name></trkpt>
<trkpt lat="53.380813" lon="-1.859841"><ele>606</ele><time>2024-02-10T13:18:12Z</time><name>PT3096</name></trkpt>
<trkpt lat="53.380791" lon="-1.859891"><ele>606</ele><time>2024-02-10T13:18:16Z</time><name>PT3097</name></trkpt>
<trkpt lat="53.380781" lon="-1.859933"><ele>606</ele><time>2024-02-10T13:18:20Z</time><name>PT3098</name></trkpt>
<trkpt lat="53.380762" lon="-1.859947"><ele>605</ele><time>2024-02-10T13:18:23Z</time><name>PT3099</name></trkpt>
<trkpt lat="53.380740" lon="-1.860002"><ele>605</ele><time>2024-02-10T13:18:27Z</time><name>PT3100</name></trkpt>
<trkpt lat="53.380721" lon="-1.860070"><ele>605</ele><time>2024-02-10T13:18:31Z</time><name>PT3101</name></trkpt>
<trkpt lat="53.380701" lon="-1.860107"><ele>605</ele><time>2024-02-10T13:18:34Z</time><name>PT3102</name></trkpt>
<trkpt lat="53.380674" lon="-1.860148"><ele>603</ele><time>2024-02-10T13:18:38Z</time><name>PT3103</name></trkpt>
<trkpt lat="53.380656" lon="-1.860187"><ele>602</ele><time>2024-02-10T13:18:42Z</time><name>PT3104</name></trkpt>
<trkpt lat="53.380638" lon="-1.860226"><ele>602</ele><time>2024-02-10T13:18:45Z</time><name>PT3105</name></trkpt>
<trkpt lat="53.380614" lon="-1.860262"><ele>603</ele><time>2024-02-10T13:18:49Z</time><name>PT3106</name></trkpt>
<trkpt lat="53.380580" lon="-1.860292"><ele>602</ele><time>2024-02-10T13:18:53Z</time><name>PT3107</name></trkpt>
<trkpt lat="53.380543" lon="-1.860328"><ele>602</ele><time>2024-02-10T13:18:57Z</time><name>PT3108</name></trkpt>
<trkpt lat="53.380522" lon="-1.860352"><ele>602</ele><time>2024-02-10T13:19:00Z</time><name>PT3109</name></trkpt>
<trkpt lat="53.380507" lon="-1.860395"><ele>603</ele><time>2024-02-10T13:19:03Z</time><name>PT3110</name></trkpt>
<trkpt lat="53.380482" lon="-1.860427"><ele>603</ele><time>2024-02-10T13:19:06Z</time><name>PT3111</name></trkpt>
<trkpt lat="53.380456" lon="-1.860451"><ele>603</ele><time>2024-02-10T13:19:09Z</time><name>PT3112</name></trkpt>
<trkpt lat="53.380425" lon="-1.860473"><ele>602</ele><time>2024-02-10T13:19:12Z</time><name>PT3113</name></trkpt>
<trkpt lat="53.380392" lon="-1.860529"><ele>602</ele><time>2024-02-10T13:19:16Z</time><name>PT3114</name></trkpt>
<trkpt lat="53.380367" lon="-1.860551"><ele>602</ele><time>2024-02-10T13:19:19Z</time><name>PT3115</name></trkpt>
<trkpt lat="53.380337" lon="-1.860599"><ele>603</ele><time>2024-02-10T13:19:23Z</time><name>PT3116</name></trkpt>
<trkpt lat="53.380317" lon="-1.860641"><ele>603</ele><time>2024-02-10T13:19:26Z</time><name>PT3117</name></trkpt>
<trkpt lat="53.380293" lon="-1.860693"><ele>603</ele><time>2024-02-10T13:19:30Z</time><name>PT3118</name></trkpt>
<trkpt lat="53.380263" lon="-1.860739"><ele>603</ele><time>2024-02-10T13:19:34Z</time><name>PT3119</name></trkpt>
<trkpt lat="53.380253" lon="-1.860775"><ele>604</ele><time>2024-02-10T13:19:37Z</time><name>PT3120</name></trkpt>
<trkpt lat="53.380241" lon="-1.860833"><ele>604</ele><time>2024-02-10T13:19:41Z</time><name>PT3121</name></trkpt>
<trkpt lat="53.380238" lon="-1.860878"><ele>605</ele><time>2024-02-10T13:19:44Z</time><name>PT3122</name></trkpt>
<trkpt lat="53.380223" lon="-1.860927"><ele>605</ele><time>2024-02-10T13:19:47Z</time><name>PT3123</name></trkpt>
<trkpt lat="53.380210" lon="-1.860975"><ele>605</ele><time>2024-02-10T13:19:50Z</time><name>PT3124</name></trkpt>
<trkpt lat="53.380193" lon="-1.861027"><ele>606</ele><time>2024-02-10T13:19:54Z</time><name>PT3125</name></trkpt>
<trkpt lat="53.380185" lon="-1.861063"><ele>606</ele><time>2024-02-10T13:19:57Z</time><name>PT3126</name></trkpt>
<trkpt lat="53.380175" lon="-1.861108"><ele>606</ele><time>2024-02-10T13:20:01Z</time><name>PT3127</name></trkpt>
<trkpt lat="53.380166" lon="-1.861140"><ele>606</ele><time>2024-02-10T13:20:04Z</time><name>PT3128</name></trkpt>
<trkpt lat="53.380162" lon="-1.861182"><ele>608</ele><time>2024-02-10T13:20:07Z</time><name>PT3129</name></trkpt>
<trkpt lat="53.380155" lon="-1.861223"><ele>608</ele><time>2024-02-10T13:20:10Z</time><name>PT3130</name></trkpt>
<trkpt lat="53.380144" lon="-1.861255"><ele>609</ele><time>2024-02-10T13:20:13Z</time><name>PT3131</name></trkpt>
<trkpt lat="53.380124" lon="-1.861297"><ele>609</ele><time>2024-02-10T13:20:17Z</time><name>PT3132</name></trkpt>
<trkpt lat="53.380114" lon="-1.861331"><ele>609</ele><time>2024-02-10T13:20:20Z</time><name>PT3133</name></trkpt>
<trkpt lat="53.380090" lon="-1.861366"><ele>610</ele><time>2024-02-10T13:20:24Z</time><name>PT3134</name></trkpt>
<trkpt lat="53.380076" lon="-1.861384"><ele>610</ele><time>2024-02-10T13:20:28Z</time><name>PT3135</name></trkpt>
<trkpt lat="53.380076" lon="-1.861441"><ele>610</ele><time>2024-02-10T13:20:32Z</time><name>PT3136</name></trkpt>
<trkpt lat="53.380071" lon="-1.861491"><ele>609</ele><time>2024-02-10T13:20:35Z</time><name>PT3137</name></trkpt>
<trkpt lat="53.380072" lon="-1.861543"><ele>609</ele><time>2024-02-10T13:20:39Z</time><name>PT3138</name></trkpt>
<trkpt lat="53.380065" lon="-1.861596"><ele>608</ele><time>2024-02-10T13:20:42Z</time><name>PT3139</name></trkpt>
<trkpt lat="53.380054" lon="-1.861645"><ele>608</ele><time>2024-02-10T13:20:45Z</time><name>PT3140</name></trkpt>
<trkpt lat="53.380041" lon="-1.861711"><ele>608</ele><time>2024-02-10T13:20:49Z</time><name>PT3141</name></trkpt>
<trkpt lat="53.380031" lon="-1.861773"><ele>607</ele><time>2024-02-10T13:20:53Z</time><name>PT3142</name></trkpt>
<trkpt lat="53.380021" lon="-1.861834"><ele>607</ele><time>2024-02-10T13:20:57Z</time><name>PT3143</name></trkpt>
<trkpt lat="53.380010" lon="-1.861880"><ele>607</ele><time>2024-02-10T13:21:00Z</time><name>PT3144</name></trkpt>
<trkpt lat="53.379983" lon="-1.861942"><ele>607</ele><time>2024-02-10T13:21:04Z</time><name>PT3145</name></trkpt>
<trkpt lat="53.379970" lon="-1.861998"><ele>607</ele><time>2024-02-10T13:21:07Z</time><name>PT3146</name></trkpt>
<trkpt lat="53.379972" lon="-1.862054"><ele>607</ele><time>2024-02-10T13:21:10Z</time><name>PT3147</name></trkpt>
<trkpt lat="53.379982" lon="-1.862134"><ele>608</ele><time>2024-02-10T13:21:14Z</time><name>PT3148</name></trkpt>
<trkpt lat="53.379987" lon="-1.862189"><ele>608</ele><time>2024-02-10T13:21:17Z</time><name>PT3149</name></trkpt>
<trkpt lat="53.379977" lon="-1.862271"><ele>609</ele><time>2024-02-10T13:21:21Z</time><name>PT3150</name></trkpt>
<trkpt lat="53.379972" lon="-1.862347"><ele>609</ele><time>2024-02-10T13:21:25Z</time><name>PT3151</name></trkpt>
<trkpt lat="53.379966" lon="-1.862396"><ele>610</ele><time>2024-02-10T13:21:28Z</time><name>PT3152</name></trkpt>
<trkpt lat="53.379967" lon="-1.862446"><ele>610</ele><time>2024-02-10T13:21:31Z</time><name>PT3153</name></trkpt>
<trkpt lat="53.379957" lon="-1.862515"><ele>610</ele><time>2024-02-10T13:21:35Z</time><name>PT3154</name></trkpt>
<trkpt lat="53.379932" lon="-1.862598"><ele>609</ele><time>2024-02-10T13:21:39Z</time><name>PT3155</name></trkpt>
<trkpt lat="53.379911" lon="-1.862679"><ele>609</ele><time>2024-02-10T13:21:43Z</time><name>PT3156</name></trkpt>
<trkpt lat="53.379881" lon="-1.862742"><ele>609</ele><time>2024-02-10T13:21:47Z</time><name>PT3157</name></trkpt>
<trkpt lat="53.379861" lon="-1.862801"><ele>610</ele><time>2024-02-10T13:21:50Z</time><name>PT3158</name></trkpt>
<trkpt lat="53.379837" lon="-1.862856"><ele>610</ele><time>2024-02-10T13:21:53Z</time><name>PT3159</name></trkpt>
<trkpt lat="53.379814" lon="-1.862902"><ele>610</ele><time>2024-02-10T13:21:56Z</time><name>PT3160</name></trkpt>
<trkpt lat="53.379791" lon="-1.862968"><ele>610</ele><time>2024-02-10T13:22:00Z</time><name>PT3161</name></trkpt>
<trkpt lat="53.379772" lon="-1.863039"><ele>610</ele><time>2024-02-10T13:22:04Z</time><name>PT3162</name></trkpt>
<trkpt lat="53.379753" lon="-1.863100"><ele>610</ele><time>2024-02-10T13:22:08Z</time><name>PT3163</name></trkpt>
<trkpt lat="53.379732" lon="-1.863161"><ele>610</ele><time>2024-02-10T13:22:12Z</time><name>PT3164</name></trkpt>
<trkpt lat="53.379720" lon="-1.863217"><ele>609</ele><time>2024-02-10T13:22:16Z</time><name>PT3165</name></trkpt>
<trkpt lat="53.379713" lon="-1.863247"><ele>609</ele><time>2024-02-10T13:22:19Z</time><name>PT3166</name></trkpt>
<trkpt lat="53.379704" lon="-1.863280"><ele>609</ele><time>2024-02-10T13:22:23Z</time><name>PT3167</name></trkpt>
<trkpt lat="53.379704" lon="-1.863303"><ele>609</ele><time>2024-02-10T13:22:27Z</time><name>PT3168</name></trkpt>
<trkpt lat="53.379702" lon="-1.863330"><ele>609</ele><time>2024-02-10T13:22:30Z</time><name>PT3169</name></trkpt>
<trkpt lat="53.379695" lon="-1.863350"><ele>609</ele><time>2024-02-10T13:22:34Z</time><name>PT3170</name></trkpt>
<trkpt lat="53.379681" lon="-1.863388"><ele>609</ele><time>2024-02-10T13:22:49Z</time><name>PT3171</name></trkpt>
<trkpt lat="53.379666" lon="-1.863467"><ele>609</ele><time>2024-02-10T13:22:53Z</time><name>PT3172</name></trkpt>
<trkpt lat="53.379652" lon="-1.863539"><ele>609</ele><time>2024-02-10T13:22:57Z</time><name>PT3173</name></trkpt>
<trkpt lat="53.379642" lon="-1.863588"><ele>609</ele><time>2024-02-10T13:23:00Z</time><name>PT3174</name></trkpt>
<trkpt lat="53.379629" lon="-1.863651"><ele>609</ele><time>2024-02-10T13:23:04Z</time><name>PT3175</name></trkpt>
<trkpt lat="53.379615" lon="-1.863687"><ele>608</ele><time>2024-02-10T13:23:07Z</time><name>PT3176</name></trkpt>
<trkpt lat="53.379608" lon="-1.863716"><ele>608</ele><time>2024-02-10T13:23:10Z</time><name>PT3177</name></trkpt>
<trkpt lat="53.379603" lon="-1.863740"><ele>607</ele><time>2024-02-10T13:23:14Z</time><name>PT3178</name></trkpt>
<trkpt lat="53.379604" lon="-1.863747"><ele>607</ele><time>2024-02-10T13:23:18Z</time><name>PT3179</name></trkpt>
<trkpt lat="53.379610" lon="-1.863767"><ele>607</ele><time>2024-02-10T13:23:22Z</time><name>PT3180</name></trkpt>
<trkpt lat="53.379606" lon="-1.863820"><ele>606</ele><time>2024-02-10T13:23:26Z</time><name>PT3181</name></trkpt>
<trkpt lat="53.379587" lon="-1.863859"><ele>606</ele><time>2024-02-10T13:23:30Z</time><name>PT3182</name></trkpt>
<trkpt lat="53.379568" lon="-1.863878"><ele>606</ele><time>2024-02-10T13:23:33Z</time><name>PT3183</name></trkpt>
<trkpt lat="53.379552" lon="-1.863916"><ele>605</ele><time>2024-02-10T13:23:37Z</time><name>PT3184</name></trkpt>
<trkpt lat="53.379533" lon="-1.863969"><ele>604</ele><time>2024-02-10T13:23:41Z</time><name>PT3185</name></trkpt>
<trkpt lat="53.379530" lon="-1.864029"><ele>605</ele><time>2024-02-10T13:23:45Z</time><name>PT3186</name></trkpt>
<trkpt lat="53.379508" lon="-1.864055"><ele>604</ele><time>2024-02-10T13:23:49Z</time><name>PT3187</name></trkpt>
<trkpt lat="53.379492" lon="-1.864075"><ele>603</ele><time>2024-02-10T13:23:53Z</time><name>PT3188</name></trkpt>
<trkpt lat="53.379472" lon="-1.864096"><ele>603</ele><time>2024-02-10T13:23:57Z</time><name>PT3189</name></trkpt>
<trkpt lat="53.379458" lon="-1.864102"><ele>603</ele><time>2024-02-10T13:24:01Z</time><name>PT3190</name></trkpt>
<trkpt lat="53.379445" lon="-1.864097"><ele>602</ele><time>2024-02-10T13:24:07Z</time><name>PT3191</name></trkpt>
<trkpt lat="53.379417" lon="-1.864102"><ele>601</ele><time>2024-02-10T13:24:10Z</time><name>PT3192</name></trkpt>
<trkpt lat="53.379379" lon="-1.864113"><ele>601</ele><time>2024-02-10T13:24:14Z</time><name>PT3193</name></trkpt>
<trkpt lat="53.379361" lon="-1.864146"><ele>600</ele><time>2024-02-10T13:24:18Z</time><name>PT3194</name></trkpt>
<trkpt lat="53.379338" lon="-1.864174"><ele>599</ele><time>2024-02-10T13:24:22Z</time><name>PT3195</name></trkpt>
<trkpt lat="53.379317" lon="-1.864197"><ele>599</ele><time>2024-02-10T13:24:25Z</time><name>PT3196</name></trkpt>
<trkpt lat="53.379289" lon="-1.864231"><ele>598</ele><time>2024-02-10T13:24:29Z</time><name>PT3197</name></trkpt>
<trkpt lat="53.379279" lon="-1.864261"><ele>598</ele><time>2024-02-10T13:24:32Z</time><name>PT3198</name></trkpt>
<trkpt lat="53.379266" lon="-1.864309"><ele>598</ele><time>2024-02-10T13:24:36Z</time><name>PT3199</name></trkpt>
<trkpt lat="53.379263" lon="-1.864355"><ele>598</ele><time>2024-02-10T13:24:39Z</time><name>PT3200</name></trkpt>
<trkpt lat="53.379252" lon="-1.864399"><ele>597</ele><time>2024-02-10T13:24:43Z</time><name>PT3201</name></trkpt>
<trkpt lat="53.379250" lon="-1.864421"><ele>598</ele><time>2024-02-10T13:24:47Z</time><name>PT3202</name></trkpt>
<trkpt lat="53.379249" lon="-1.864426"><ele>598</ele><time>2024-02-10T13:24:51Z</time><name>PT3203</name></trkpt>
<trkpt lat="53.379247" lon="-1.864432"><ele>598</ele><time>2024-02-10T13:24:55Z</time><name>PT3204</name></trkpt>
<trkpt lat="53.379246" lon="-1.864426"><ele>598</ele><time>2024-02-10T13:24:58Z</time><name>PT3205</name></trkpt>
<trkpt lat="53.379246" lon="-1.864433"><ele>598</ele><time>2024-02-10T13:25:01Z</time><name>PT3206</name></trkpt>
<trkpt lat="53.379246" lon="-1.864444"><ele>598</ele><time>2024-02-10T13:25:16Z</time><name>PT3207</name></trkpt>
<trkpt lat="53.379251" lon="-1.864516"><ele>598</ele><time>2024-02-10T13:25:20Z</time><name>PT3208</name></trkpt>
<trkpt lat="53.379265" lon="-1.864572"><ele>598</ele><time>2024-02-10T13:25:24Z</time><name>PT3209</name></trkpt>
<trkpt lat="53.379282" lon="-1.864608"><ele>598</ele><time>2024-02-10T13:25:27Z</time><name>PT3210</name></trkpt>
<trkpt lat="53.379297" lon="-1.864641"><ele>598</ele><time>2024-02-10T13:25:31Z</time><name>PT3211</name></trkpt>
<trkpt lat="53.379309" lon="-1.864662"><ele>598</ele><time>2024-02-10T13:25:34Z</time><name>PT3212</name></trkpt>
<trkpt lat="53.379336" lon="-1.864686"><ele>599</ele><time>2024-02-10T13:25:38Z</time><name>PT3213</name></trkpt>
<trkpt lat="53.379351" lon="-1.864701"><ele>600</ele><time>2024-02-10T13:25:41Z</time><name>PT3214</name></trkpt>
<trkpt lat="53.379366" lon="-1.864715"><ele>601</ele><time>2024-02-10T13:25:44Z</time><name>PT3215</name></trkpt>
<trkpt lat="53.379386" lon="-1.864744"><ele>601</ele><time>2024-02-10T13:25:48Z</time><name>PT3216</name></trkpt>
<trkpt lat="53.379409" lon="-1.864752"><ele>601</ele><time>2024-02-10T13:25:51Z</time><name>PT3217</name></trkpt>
<trkpt lat="53.379433" lon="-1.864766"><ele>602</ele><time>2024-02-10T13:25:54Z</time><name>PT3218</name></trkpt>
<trkpt lat="53.379455" lon="-1.864789"><ele>602</ele><time>2024-02-10T13:25:57Z</time><name>PT3219</name></trkpt>
<trkpt lat="53.379489" lon="-1.864805"><ele>603</ele><time>2024-02-10T13:26:01Z</time><name>PT3220</name></trkpt>
<trkpt lat="53.379503" lon="-1.864801"><ele>603</ele><time>2024-02-10T13:26:04Z</time><name>PT3221</name></trkpt>
<trkpt lat="53.379513" lon="-1.864796"><ele>604</ele><time>2024-02-10T13:26:08Z</time><name>PT3222</name></trkpt>
<trkpt lat="53.379513" lon="-1.864797"><ele>604</ele><time>2024-02-10T13:26:11Z</time><name>PT3223</name></trkpt>
<trkpt lat="53.379535" lon="-1.864774"><ele>604</ele><time>2024-02-10T13:26:23Z</time><name>PT3224</name></trkpt>
<trkpt lat="53.379556" lon="-1.864780"><ele>604</ele><time>2024-02-10T13:26:26Z</time><name>PT3225</name></trkpt>
<trkpt lat="53.379584" lon="-1.864785"><ele>605</ele><time>2024-02-10T13:26:30Z</time><name>PT3226</name></trkpt>
<trkpt lat="53.379608" lon="-1.864792"><ele>604</ele><time>2024-02-10T13:26:33Z</time><name>PT3227</name></trkpt>
<trkpt lat="53.379631" lon="-1.864785"><ele>604</ele><time>2024-02-10T13:26:36Z</time><name>PT3228</name></trkpt>
<trkpt lat="53.379648" lon="-1.864776"><ele>604</ele><time>2024-02-10T13:26:40Z</time><name>PT3229</name></trkpt>
<trkpt lat="53.379654" lon="-1.864787"><ele>604</ele><time>2024-02-10T13:26:47Z</time><name>PT3230</name></trkpt>
<trkpt lat="53.379668" lon="-1.864782"><ele>604</ele><time>2024-02-10T13:26:51Z</time><name>PT3231</name></trkpt>
<trkpt lat="53.379702" lon="-1.864806"><ele>604</ele><time>2024-02-10T13:26:55Z</time><name>PT3232</name></trkpt>
<trkpt lat="53.379712" lon="-1.864842"><ele>604</ele><time>2024-02-10T13:26:59Z</time><name>PT3233</name></trkpt>
<trkpt lat="53.379722" lon="-1.864893"><ele>604</ele><time>2024-02-10T13:27:03Z</time><name>PT3234</name></trkpt>
<trkpt lat="53.379720" lon="-1.864923"><ele>604</ele><time>2024-02-10T13:27:07Z</time><name>PT3235</name></trkpt>
<trkpt lat="53.379719" lon="-1.864930"><ele>604</ele><time>2024-02-10T13:27:10Z</time><name>PT3236</name></trkpt>
<trkpt lat="53.379713" lon="-1.864928"><ele>602</ele><time>2024-02-10T13:27:17Z</time><name>PT3237</name></trkpt>
<trkpt lat="53.379701" lon="-1.864938"><ele>602</ele><time>2024-02-10T13:27:21Z</time><name>PT3238</name></trkpt>
<trkpt lat="53.379695" lon="-1.864946"><ele>602</ele><time>2024-02-10T13:27:24Z</time><name>PT3239</name></trkpt>
<trkpt lat="53.379694" lon="-1.864954"><ele>602</ele><time>2024-02-10T13:27:28Z</time><name>PT3240</name></trkpt>
<trkpt lat="53.379699" lon="-1.864965"><ele>602</ele><time>2024-02-10T13:27:32Z</time><name>PT3241</name></trkpt>
<trkpt lat="53.379696" lon="-1.864960"><ele>602</ele><time>2024-02-10T13:27:36Z</time><name>PT3242</name></trkpt>
<trkpt lat="53.379704" lon="-1.864994"><ele>603</ele><time>2024-02-10T13:27:40Z</time><name>PT3243</name></trkpt>
<trkpt lat="53.379707" lon="-1.865033"><ele>603</ele><time>2024-02-10T13:27:44Z</time><name>PT3244</name></trkpt>
<trkpt lat="53.379704" lon="-1.865029"><ele>603</ele><time>2024-02-10T13:27:47Z</time><name>PT3245</name></trkpt>
<trkpt lat="53.379703" lon="-1.865033"><ele>603</ele><time>2024-02-10T13:27:50Z</time><name>PT3246</name></trkpt>
<trkpt lat="53.379704" lon="-1.865059"><ele>603</ele><time>2024-02-10T13:27:54Z</time><name>PT3247</name></trkpt>
<trkpt lat="53.379704" lon="-1.865063"><ele>603</ele><time>2024-02-10T13:27:58Z</time><name>PT3248</name></trkpt>
<trkpt lat="53.379705" lon="-1.865094"><ele>603</ele><time>2024-02-10T13:28:01Z</time><name>PT3249</name></trkpt>
<trkpt lat="53.379700" lon="-1.865132"><ele>604</ele><time>2024-02-10T13:28:05Z</time><name>PT3250</name></trkpt>
<trkpt lat="53.379701" lon="-1.865177"><ele>604</ele><time>2024-02-10T13:28:09Z</time><name>PT3251</name></trkpt>
<trkpt lat="53.379697" lon="-1.865206"><ele>604</ele><time>2024-02-10T13:28:13Z</time><name>PT3252</name></trkpt>
<trkpt lat="53.379710" lon="-1.865245"><ele>604</ele><time>2024-02-10T13:28:17Z</time><name>PT3253</name></trkpt>
<trkpt lat="53.379721" lon="-1.865283"><ele>604</ele><time>2024-02-10T13:28:21Z</time><name>PT3254</name></trkpt>
<trkpt lat="53.379733" lon="-1.865321"><ele>605</ele><time>2024-02-10T13:28:24Z</time><name>PT3255</name></trkpt>
<trkpt lat="53.379738" lon="-1.865348"><ele>606</ele><time>2024-02-10T13:28:28Z</time><name>PT3256</name></trkpt>
<trkpt lat="53.379738" lon="-1.865384"><ele>606</ele><time>2024-02-10T13:28:31Z</time><name>PT3257</name></trkpt>
<trkpt lat="53.379726" lon="-1.865429"><ele>606</ele><time>2024-02-10T13:28:35Z</time><name>PT3258</name></trkpt>
<trkpt lat="53.379728" lon="-1.865458"><ele>606</ele><time>2024-02-10T13:28:38Z</time><name>PT3259</name></trkpt>
<trkpt lat="53.379741" lon="-1.865477"><ele>606</ele><time>2024-02-10T13:28:41Z</time><name>PT3260</name></trkpt>
<trkpt lat="53.379744" lon="-1.865520"><ele>606</ele><time>2024-02-10T13:28:46Z</time><name>PT3261</name></trkpt>
<trkpt lat="53.379731" lon="-1.865538"><ele>605</ele><time>2024-02-10T13:28:49Z</time><name>PT3262</name></trkpt>
<trkpt lat="53.379716" lon="-1.865574"><ele>605</ele><time>2024-02-10T13:28:52Z</time><name>PT3263</name></trkpt>
<trkpt lat="53.379695" lon="-1.865609"><ele>605</ele><time>2024-02-10T13:28:56Z</time><name>PT3264</name></trkpt>
<trkpt lat="53.379675" lon="-1.865627"><ele>604</ele><time>2024-02-10T13:28:59Z</time><name>PT3265</name></trkpt>
<trkpt lat="53.379652" lon="-1.865637"><ele>603</ele><time>2024-02-10T13:29:02Z</time><name>PT3266</name></trkpt>
<trkpt lat="53.379630" lon="-1.865647"><ele>603</ele><time>2024-02-10T13:29:05Z</time><name>PT3267</name></trkpt>
<trkpt lat="53.379625" lon="-1.865702"><ele>603</ele><time>2024-02-10T13:29:09Z</time><name>PT3268</name></trkpt>
<trkpt lat="53.379638" lon="-1.865765"><ele>603</ele><time>2024-02-10T13:29:13Z</time><name>PT3269</name></trkpt>
<trkpt lat="53.379639" lon="-1.865798"><ele>603</ele><time>2024-02-10T13:29:16Z</time><name>PT3270</name></trkpt>
<trkpt lat="53.379645" lon="-1.865826"><ele>604</ele><time>2024-02-10T13:29:19Z</time><name>PT3271</name></trkpt>
<trkpt lat="53.379653" lon="-1.865859"><ele>604</ele><time>2024-02-10T13:29:22Z</time><name>PT3272</name></trkpt>
<trkpt lat="53.379662" lon="-1.865917"><ele>604</ele><time>2024-02-10T13:29:26Z</time><name>PT3273</name></trkpt>
<trkpt lat="53.379673" lon="-1.865961"><ele>605</ele><time>2024-02-10T13:29:29Z</time><name>PT3274</name></trkpt>
<trkpt lat="53.379690" lon="-1.865991"><ele>605</ele><time>2024-02-10T13:29:33Z</time><name>PT3275</name></trkpt>
<trkpt lat="53.379702" lon="-1.866024"><ele>606</ele><time>2024-02-10T13:29:37Z</time><name>PT3276</name></trkpt>
<trkpt lat="53.379712" lon="-1.866049"><ele>606</ele><time>2024-02-10T13:29:40Z</time><name>PT3277</name></trkpt>
<trkpt lat="53.379741" lon="-1.866052"><ele>606</ele><time>2024-02-10T13:29:44Z</time><name>PT3278</name></trkpt>
<trkpt lat="53.379762" lon="-1.866060"><ele>607</ele><time>2024-02-10T13:29:47Z</time><name>PT3279</name></trkpt>
<trkpt lat="53.379767" lon="-1.866094"><ele>607</ele><time>2024-02-10T13:29:50Z</time><name>PT3280</name></trkpt>
<trkpt lat="53.379768" lon="-1.866124"><ele>607</ele><time>2024-02-10T13:29:54Z</time><name>PT3281</name></trkpt>
<trkpt lat="53.379776" lon="-1.866134"><ele>607</ele><time>2024-02-10T13:29:58Z</time><name>PT3282</name></trkpt>
<trkpt lat="53.379781" lon="-1.866166"><ele>607</ele><time>2024-02-10T13:30:01Z</time><name>PT3283</name></trkpt>
<trkpt lat="53.379774" lon="-1.866214"><ele>607</ele><time>2024-02-10T13:30:04Z</time><name>PT3284</name></trkpt>
<trkpt lat="53.379757" lon="-1.866237"><ele>606</ele><time>2024-02-10T13:30:08Z</time><name>PT3285</name></trkpt>
<trkpt lat="53.379763" lon="-1.866258"><ele>607</ele><time>2024-02-10T13:30:12Z</time><name>PT3286</name></trkpt>
<trkpt lat="53.379777" lon="-1.866279"><ele>608</ele><time>2024-02-10T13:30:16Z</time><name>PT3287</name></trkpt>
<trkpt lat="53.379789" lon="-1.866306"><ele>609</ele><time>2024-02-10T13:30:19Z</time><name>PT3288</name></trkpt>
<trkpt lat="53.379796" lon="-1.866342"><ele>609</ele><time>2024-02-10T13:30:23Z</time><name>PT3289</name></trkpt>
<trkpt lat="53.379813" lon="-1.866365"><ele>608</ele><time>2024-02-10T13:30:27Z</time><name>PT3290</name></trkpt>
<trkpt lat="53.379843" lon="-1.866385"><ele>608</ele><time>2024-02-10T13:30:31Z</time><name>PT3291</name></trkpt>
<trkpt lat="53.379849" lon="-1.866438"><ele>608</ele><time>2024-02-10T13:30:34Z</time><name>PT3292</name></trkpt>
<trkpt lat="53.379847" lon="-1.866510"><ele>609</ele><time>2024-02-10T13:30:38Z</time><name>PT3293</name></trkpt>
<trkpt lat="53.379844" lon="-1.866561"><ele>609</ele><time>2024-02-10T13:30:41Z</time><name>PT3294</name></trkpt>
<trkpt lat="53.379845" lon="-1.866611"><ele>609</ele><time>2024-02-10T13:30:44Z</time><name>PT3295</name></trkpt>
<trkpt lat="53.379853" lon="-1.866652"><ele>608</ele><time>2024-02-10T13:30:48Z</time><name>PT3296</name></trkpt>
<trkpt lat="53.379856" lon="-1.866725"><ele>609</ele><time>2024-02-10T13:30:52Z</time><name>PT3297</name></trkpt>
<trkpt lat="53.379869" lon="-1.866808"><ele>610</ele><time>2024-02-10T13:30:56Z</time><name>PT3298</name></trkpt>
<trkpt lat="53.379874" lon="-1.866856"><ele>610</ele><time>2024-02-10T13:30:59Z</time><name>PT3299</name></trkpt>
<trkpt lat="53.379873" lon="-1.866919"><ele>610</ele><time>2024-02-10T13:31:03Z</time><name>PT3300</name></trkpt>
<trkpt lat="53.379869" lon="-1.866978"><ele>609</ele><time>2024-02-10T13:31:07Z</time><name>PT3301</name></trkpt>
<trkpt lat="53.379863" lon="-1.867029"><ele>611</ele><time>2024-02-10T13:31:11Z</time><name>PT3302</name></trkpt>
<trkpt lat="53.379846" lon="-1.867071"><ele>611</ele><time>2024-02-10T13:31:15Z</time><name>PT3303</name></trkpt>
<trkpt lat="53.379820" lon="-1.867115"><ele>611</ele><time>2024-02-10T13:31:19Z</time><name>PT3304</name></trkpt>
<trkpt lat="53.379793" lon="-1.867148"><ele>612</ele><time>2024-02-10T13:31:23Z</time><name>PT3305</name></trkpt>
<trkpt lat="53.379773" lon="-1.867190"><ele>613</ele><time>2024-02-10T13:31:27Z</time><name>PT3306</name></trkpt>
<trkpt lat="53.379763" lon="-1.867225"><ele>614</ele><time>2024-02-10T13:31:30Z</time><name>PT3307</name></trkpt>
<trkpt lat="53.379747" lon="-1.867274"><ele>613</ele><time>2024-02-10T13:31:33Z</time><name>PT3308</name></trkpt>
<trkpt lat="53.379743" lon="-1.867320"><ele>614</ele><time>2024-02-10T13:31:37Z</time><name>PT3309</name></trkpt>
<trkpt lat="53.379732" lon="-1.867372"><ele>614</ele><time>2024-02-10T13:31:40Z</time><name>PT3310</name></trkpt>
<trkpt lat="53.379727" lon="-1.867442"><ele>614</ele><time>2024-02-10T13:31:44Z</time><name>PT3311</name></trkpt>
<trkpt lat="53.379723" lon="-1.867507"><ele>615</ele><time>2024-02-10T13:31:48Z</time><name>PT3312</name></trkpt>
<trkpt lat="53.379717" lon="-1.867560"><ele>615</ele><time>2024-02-10T13:31:52Z</time><name>PT3313</name></trkpt>
<trkpt lat="53.379695" lon="-1.867569"><ele>615</ele><time>2024-02-10T13:31:56Z</time><name>PT3314</name></trkpt>
<trkpt lat="53.379675" lon="-1.867586"><ele>615</ele><time>2024-02-10T13:31:59Z</time><name>PT3315</name></trkpt>
<trkpt lat="53.379658" lon="-1.867612"><ele>615</ele><time>2024-02-10T13:32:02Z</time><name>PT3316</name></trkpt>
<trkpt lat="53.379654" lon="-1.867606"><ele>615</ele><time>2024-02-10T13:32:06Z</time><name>PT3317</name></trkpt>
<trkpt lat="53.379647" lon="-1.867589"><ele>614</ele><time>2024-02-10T13:32:09Z</time><name>PT3318</name></trkpt>
<trkpt lat="53.379620" lon="-1.867555"><ele>613</ele><time>2024-02-10T13:32:13Z</time><name>PT3319</name></trkpt>
<trkpt lat="53.379594" lon="-1.867541"><ele>612</ele><time>2024-02-10T13:32:17Z</time><name>PT3320</name></trkpt>
<trkpt lat="53.379558" lon="-1.867554"><ele>612</ele><time>2024-02-10T13:32:20Z</time><name>PT3321</name></trkpt>
<trkpt lat="53.379536" lon="-1.867548"><ele>612</ele><time>2024-02-10T13:32:24Z</time><name>PT3322</name></trkpt>
<trkpt lat="53.379526" lon="-1.867544"><ele>612</ele><time>2024-02-10T13:32:27Z</time><name>PT3323</name></trkpt>
<trkpt lat="53.379505" lon="-1.867521"><ele>611</ele><time>2024-02-10T13:32:31Z</time><name>PT3324</name></trkpt>
<trkpt lat="53.379481" lon="-1.867548"><ele>611</ele><time>2024-02-10T13:32:35Z</time><name>PT3325</name></trkpt>
<trkpt lat="53.379484" lon="-1.867580"><ele>612</ele><time>2024-02-10T13:32:38Z</time><name>PT3326</name></trkpt>
<trkpt lat="53.379477" lon="-1.867626"><ele>612</ele><time>2024-02-10T13:32:42Z</time><name>PT3327</name></trkpt>
<trkpt lat="53.379473" lon="-1.867664"><ele>612</ele><time>2024-02-10T13:32:45Z</time><name>PT3328</name></trkpt>
<trkpt lat="53.379472" lon="-1.867688"><ele>612</ele><time>2024-02-10T13:32:48Z</time><name>PT3329</name></trkpt>
<trkpt lat="53.379473" lon="-1.867691"><ele>612</ele><time>2024-02-10T13:32:52Z</time><name>PT3330</name></trkpt>
<trkpt lat="53.379472" lon="-1.867719"><ele>612</ele><time>2024-02-10T13:32:56Z</time><name>PT3331</name></trkpt>
<trkpt lat="53.379472" lon="-1.867774"><ele>612</ele><time>2024-02-10T13:33:00Z</time><name>PT3332</name></trkpt>
<trkpt lat="53.379474" lon="-1.867843"><ele>612</ele><time>2024-02-10T13:33:04Z</time><name>PT3333</name></trkpt>
<trkpt lat="53.379491" lon="-1.867908"><ele>612</ele><time>2024-02-10T13:33:08Z</time><name>PT3334</name></trkpt>
<trkpt lat="53.379512" lon="-1.867979"><ele>613</ele><time>2024-02-10T13:33:12Z</time><name>PT3335</name></trkpt>
<trkpt lat="53.379517" lon="-1.868022"><ele>613</ele><time>2024-02-10T13:33:15Z</time><name>PT3336</name></trkpt>
<trkpt lat="53.379530" lon="-1.868046"><ele>613</ele><time>2024-02-10T13:33:18Z</time><name>PT3337</name></trkpt>
<trkpt lat="53.379539" lon="-1.868088"><ele>612</ele><time>2024-02-10T13:33:22Z</time><name>PT3338</name></trkpt>
<trkpt lat="53.379559" lon="-1.868123"><ele>612</ele><time>2024-02-10T13:33:25Z</time><name>PT3339</name></trkpt>
<trkpt lat="53.379577" lon="-1.868151"><ele>612</ele><time>2024-02-10T13:33:28Z</time><name>PT3340</name></trkpt>
<trkpt lat="53.379585" lon="-1.868205"><ele>613</ele><time>2024-02-10T13:33:31Z</time><name>PT3341</name></trkpt>
<trkpt lat="53.379604" lon="-1.868239"><ele>613</ele><time>2024-02-10T13:33:34Z</time><name>PT3342</name></trkpt>
<trkpt lat="53.379619" lon="-1.868274"><ele>614</ele><time>2024-02-10T13:33:38Z</time><name>PT3343</name></trkpt>
<trkpt lat="53.379633" lon="-1.868293"><ele>614</ele><time>2024-02-10T13:33:41Z</time><name>PT3344</name></trkpt>
<trkpt lat="53.379656" lon="-1.868351"><ele>615</ele><time>2024-02-10T13:33:45Z</time><name>PT3345</name></trkpt>
<trkpt lat="53.379652" lon="-1.868400"><ele>615</ele><time>2024-02-10T13:33:48Z</time><name>PT3346</name></trkpt>
<trkpt lat="53.379651" lon="-1.868456"><ele>616</ele><time>2024-02-10T13:33:52Z</time><name>PT3347</name></trkpt>
<trkpt lat="53.379642" lon="-1.868491"><ele>616</ele><time>2024-02-10T13:33:55Z</time><name>PT3348</name></trkpt>
<trkpt lat="53.379628" lon="-1.868542"><ele>616</ele><time>2024-02-10T13:33:59Z</time><name>PT3349</name></trkpt>
<trkpt lat="53.379621" lon="-1.868582"><ele>616</ele><time>2024-02-10T13:34:02Z</time><name>PT3350</name></trkpt>
<trkpt lat="53.379625" lon="-1.868625"><ele>616</ele><time>2024-02-10T13:34:05Z</time><name>PT3351</name></trkpt>
<trkpt lat="53.379621" lon="-1.868685"><ele>617</ele><time>2024-02-10T13:34:08Z</time><name>PT3352</name></trkpt>
<trkpt lat="53.379605" lon="-1.868743"><ele>618</ele><time>2024-02-10T13:34:12Z</time><name>PT3353</name></trkpt>
<trkpt lat="53.379598" lon="-1.868799"><ele>620</ele><time>2024-02-10T13:34:16Z</time><name>PT3354</name></trkpt>
<trkpt lat="53.379602" lon="-1.868842"><ele>621</ele><time>2024-02-10T13:34:19Z</time><name>PT3355</name></trkpt>
<trkpt lat="53.379595" lon="-1.868897"><ele>622</ele><time>2024-02-10T13:34:23Z</time><name>PT3356</name></trkpt>
<trkpt lat="53.379591" lon="-1.868935"><ele>622</ele><time>2024-02-10T13:34:26Z</time><name>PT3357</name></trkpt>
<trkpt lat="53.379596" lon="-1.868995"><ele>623</ele><time>2024-02-10T13:34:30Z</time><name>PT3358</name></trkpt>
<trkpt lat="53.379602" lon="-1.869038"><ele>623</ele><time>2024-02-10T13:34:33Z</time><name>PT3359</name></trkpt>
<trkpt lat="53.379616" lon="-1.869091"><ele>623</ele><time>2024-02-10T13:34:37Z</time><name>PT3360</name></trkpt>
<trkpt lat="53.379629" lon="-1.869123"><ele>624</ele><time>2024-02-10T13:34:40Z</time><name>PT3361</name></trkpt>
<trkpt lat="53.379634" lon="-1.869170"><ele>624</ele><time>2024-02-10T13:34:44Z</time><name>PT3362</name></trkpt>
<trkpt lat="53.379653" lon="-1.869218"><ele>624</ele><time>2024-02-10T13:34:48Z</time><name>PT3363</name></trkpt>
<trkpt lat="53.379669" lon="-1.869244"><ele>624</ele><time>2024-02-10T13:34:51Z</time><name>PT3364</name></trkpt>
<trkpt lat="53.379682" lon="-1.869259"><ele>624</ele><time>2024-02-10T13:34:54Z</time><name>PT3365</name></trkpt>
<trkpt lat="53.379685" lon="-1.869271"><ele>624</ele><time>2024-02-10T13:34:58Z</time><name>PT3366</name></trkpt>
<trkpt lat="53.379686" lon="-1.869275"><ele>624</ele><time>2024-02-10T13:35:01Z</time><name>PT3367</name></trkpt>
<trkpt lat="53.379688" lon="-1.869273"><ele>624</ele><time>2024-02-10T13:35:05Z</time><name>PT3368</name></trkpt>
<trkpt lat="53.379696" lon="-1.869274"><ele>624</ele><time>2024-02-10T13:35:09Z</time><name>PT3369</name></trkpt>
<trkpt lat="53.379699" lon="-1.869273"><ele>624</ele><time>2024-02-10T13:35:12Z</time><name>PT3370</name></trkpt>
<trkpt lat="53.379699" lon="-1.869274"><ele>624</ele><time>2024-02-10T13:35:15Z</time><name>PT3371</name></trkpt>
<trkpt lat="53.379696" lon="-1.869286"><ele>624</ele><time>2024-02-10T13:35:19Z</time><name>PT3372</name></trkpt>
<trkpt lat="53.379688" lon="-1.869327"><ele>622</ele><time>2024-02-10T13:35:23Z</time><name>PT3373</name></trkpt>
<trkpt lat="53.379692" lon="-1.869357"><ele>622</ele><time>2024-02-10T13:35:27Z</time><name>PT3374</name></trkpt>
<trkpt lat="53.379694" lon="-1.869359"><ele>621</ele><time>2024-02-10T13:35:31Z</time><name>PT3375</name></trkpt>
<trkpt lat="53.379691" lon="-1.869393"><ele>621</ele><time>2024-02-10T13:35:35Z</time><name>PT3376</name></trkpt>
<trkpt lat="53.379691" lon="-1.869397"><ele>621</ele><time>2024-02-10T13:35:39Z</time><name>PT3377</name></trkpt>
<trkpt lat="53.379693" lon="-1.869414"><ele>620</ele><time>2024-02-10T13:35:42Z</time><name>PT3378</name></trkpt>
<trkpt lat="53.379693" lon="-1.869427"><ele>620</ele><time>2024-02-10T13:35:46Z</time><name>PT3379</name></trkpt>
<trkpt lat="53.379696" lon="-1.869454"><ele>618</ele><time>2024-02-10T13:35:49Z</time><name>PT3380</name></trkpt>
<trkpt lat="53.379698" lon="-1.869473"><ele>617</ele><time>2024-02-10T13:35:53Z</time><name>PT3381</name></trkpt>
<trkpt lat="53.379698" lon="-1.869476"><ele>615</ele><time>2024-02-10T13:35:57Z</time><name>PT3382</name></trkpt>
<trkpt lat="53.379700" lon="-1.869496"><ele>614</ele><time>2024-02-10T13:36:00Z</time><name>PT3383</name></trkpt>
<trkpt lat="53.379698" lon="-1.869523"><ele>614</ele><time>2024-02-10T13:36:04Z</time><name>PT3384</name></trkpt>
<trkpt lat="53.379699" lon="-1.869540"><ele>615</ele><time>2024-02-10T13:36:08Z</time><name>PT3385</name></trkpt>
<trkpt lat="53.379699" lon="-1.869550"><ele>615</ele><time>2024-02-10T13:36:11Z</time><name>PT3386</name></trkpt>
<trkpt lat="53.379699" lon="-1.869539"><ele>614</ele><time>2024-02-10T13:36:18Z</time><name>PT3387</name></trkpt>
<trkpt lat="53.379694" lon="-1.869534"><ele>614</ele><time>2024-02-10T13:36:22Z</time><name>PT3388</name></trkpt>
<trkpt lat="53.379687" lon="-1.869534"><ele>613</ele><time>2024-02-10T13:36:25Z</time><name>PT3389</name></trkpt>
<trkpt lat="53.379683" lon="-1.869537"><ele>612</ele><time>2024-02-10T13:36:29Z</time><name>PT3390</name></trkpt>
<trkpt lat="53.379680" lon="-1.869550"><ele>612</ele><time>2024-02-10T13:36:32Z</time><name>PT3391</name></trkpt>
<trkpt lat="53.379678" lon="-1.869547"><ele>611</ele><time>2024-02-10T13:36:36Z</time><name>PT3392</name></trkpt>
<trkpt lat="53.379691" lon="-1.869560"><ele>611</ele><time>2024-02-10T13:36:40Z</time><name>PT3393</name></trkpt>
<trkpt lat="53.379692" lon="-1.869566"><ele>611</ele><time>2024-02-10T13:36:43Z</time><name>PT3394</name></trkpt>
<trkpt lat="53.379691" lon="-1.869574"><ele>612</ele><time>2024-02-10T13:36:47Z</time><name>PT3395</name></trkpt>
<trkpt lat="53.379695" lon="-1.869580"><ele>613</ele><time>2024-02-10T13:36:50Z</time><name>PT3396</name></trkpt>
<trkpt lat="53.379695" lon="-1.869616"><ele>613</ele><time>2024-02-10T13:37:05Z</time><name>PT3397</name></trkpt>
<trkpt lat="53.379692" lon="-1.869651"><ele>613</ele><time>2024-02-10T13:37:09Z</time><name>PT3398</name></trkpt>
<trkpt lat="53.379696" lon="-1.869678"><ele>613</ele><time>2024-02-10T13:37:13Z</time><name>PT3399</name></trkpt>
<trkpt lat="53.379699" lon="-1.869699"><ele>612</ele><time>2024-02-10T13:37:16Z</time><name>PT3400</name></trkpt>
<trkpt lat="53.379702" lon="-1.869755"><ele>611</ele><time>2024-02-10T13:37:20Z</time><name>PT3401</name></trkpt>
<trkpt lat="53.379702" lon="-1.869791"><ele>611</ele><time>2024-02-10T13:37:23Z</time><name>PT3402</name></trkpt>
<trkpt lat="53.379674" lon="-1.869820"><ele>610</ele><time>2024-02-10T13:37:26Z</time><name>PT3403</name></trkpt>
<trkpt lat="53.379651" lon="-1.869841"><ele>609</ele><time>2024-02-10T13:37:29Z</time><name>PT3404</name></trkpt>
<trkpt lat="53.379638" lon="-1.869868"><ele>609</ele><time>2024-02-10T13:37:33Z</time><name>PT3405</name></trkpt>
<trkpt lat="53.379614" lon="-1.869905"><ele>608</ele><time>2024-02-10T13:37:37Z</time><name>PT3406</name></trkpt>
<trkpt lat="53.379587" lon="-1.869925"><ele>607</ele><time>2024-02-10T13:37:40Z</time><name>PT3407</name></trkpt>
<trkpt lat="53.379559" lon="-1.869924"><ele>607</ele><time>2024-02-10T13:37:44Z</time><name>PT3408</name></trkpt>
<trkpt lat="53.379540" lon="-1.869935"><ele>607</ele><time>2024-02-10T13:37:47Z</time><name>PT3409</name></trkpt>
<trkpt lat="53.379510" lon="-1.869919"><ele>606</ele><time>2024-02-10T13:37:50Z</time><name>PT3410</name></trkpt>
<trkpt lat="53.379485" lon="-1.869918"><ele>606</ele><time>2024-02-10T13:37:53Z</time><name>PT3411</name></trkpt>
<trkpt lat="53.379456" lon="-1.869936"><ele>606</ele><time>2024-02-10T13:37:57Z</time><name>PT3412</name></trkpt>
<trkpt lat="53.379453" lon="-1.869986"><ele>606</ele><time>2024-02-10T13:38:01Z</time><name>PT3413</name></trkpt>
<trkpt lat="53.379453" lon="-1.870044"><ele>607</ele><time>2024-02-10T13:38:04Z</time><name>PT3414</name></trkpt>
<trkpt lat="53.379457" lon="-1.870100"><ele>606</ele><time>2024-02-10T13:38:07Z</time><name>PT3415</name></trkpt>
<trkpt lat="53.379466" lon="-1.870151"><ele>606</ele><time>2024-02-10T13:38:11Z</time><name>PT3416</name></trkpt>
<trkpt lat="53.379469" lon="-1.870182"><ele>606</ele><time>2024-02-10T13:38:15Z</time><name>PT3417</name></trkpt>
<trkpt lat="53.379467" lon="-1.870183"><ele>606</ele><time>2024-02-10T13:38:18Z</time><name>PT3418</name></trkpt>
<trkpt lat="53.379469" lon="-1.870194"><ele>606</ele><time>2024-02-10T13:38:28Z</time><name>PT3419</name></trkpt>
<trkpt lat="53.379484" lon="-1.870298"><ele>606</ele><time>2024-02-10T13:38:43Z</time><name>PT3420</name></trkpt>
<trkpt lat="53.379480" lon="-1.870373"><ele>607</ele><time>2024-02-10T13:38:46Z</time><name>PT3421</name></trkpt>
<trkpt lat="53.379476" lon="-1.870451"><ele>607</ele><time>2024-02-10T13:38:50Z</time><name>PT3422</name></trkpt>
<trkpt lat="53.379481" lon="-1.870511"><ele>605</ele><time>2024-02-10T13:38:53Z</time><name>PT3423</name></trkpt>
<trkpt lat="53.379487" lon="-1.870570"><ele>605</ele><time>2024-02-10T13:38:56Z</time><name>PT3424</name></trkpt>
<trkpt lat="53.379486" lon="-1.870657"><ele>605</ele><time>2024-02-10T13:39:00Z</time><name>PT3425</name></trkpt>
<trkpt lat="53.379493" lon="-1.870735"><ele>605</ele><time>2024-02-10T13:39:03Z</time><name>PT3426</name></trkpt>
<trkpt lat="53.379500" lon="-1.870793"><ele>605</ele><time>2024-02-10T13:39:06Z</time><name>PT3427</name></trkpt>
<trkpt lat="53.379500" lon="-1.870858"><ele>606</ele><time>2024-02-10T13:39:10Z</time><name>PT3428</name></trkpt>
<trkpt lat="53.379503" lon="-1.870935"><ele>606</ele><time>2024-02-10T13:39:14Z</time><name>PT3429</name></trkpt>
<trkpt lat="53.379507" lon="-1.870995"><ele>606</ele><time>2024-02-10T13:39:17Z</time><name>PT3430</name></trkpt>
<trkpt lat="53.379518" lon="-1.871080"><ele>607</ele><time>2024-02-10T13:39:21Z</time><name>PT3431</name></trkpt>
<trkpt lat="53.379528" lon="-1.871168"><ele>606</ele><time>2024-02-10T13:39:25Z</time><name>PT3432</name></trkpt>
<trkpt lat="53.379533" lon="-1.871231"><ele>606</ele><time>2024-02-10T13:39:28Z</time><name>PT3433</name></trkpt>
<trkpt lat="53.379539" lon="-1.871305"><ele>607</ele><time>2024-02-10T13:39:32Z</time><name>PT3434</name></trkpt>
<trkpt lat="53.379540" lon="-1.871356"><ele>606</ele><time>2024-02-10T13:39:35Z</time><name>PT3435</name></trkpt>
<trkpt lat="53.379518" lon="-1.871409"><ele>606</ele><time>2024-02-10T13:39:39Z</time><name>PT3436</name></trkpt>
<trkpt lat="53.379512" lon="-1.871459"><ele>606</ele><time>2024-02-10T13:39:42Z</time><name>PT3437</name></trkpt>
<trkpt lat="53.379517" lon="-1.871527"><ele>605</ele><time>2024-02-10T13:39:46Z</time><name>PT3438</name></trkpt>
<trkpt lat="53.379531" lon="-1.871579"><ele>605</ele><time>2024-02-10T13:39:50Z</time><name>PT3439</name></trkpt>
<trkpt lat="53.379534" lon="-1.871621"><ele>604</ele><time>2024-02-10T13:39:53Z</time><name>PT3440</name></trkpt>
<trkpt lat="53.379539" lon="-1.871700"><ele>603</ele><time>2024-02-10T13:39:57Z</time><name>PT3441</name></trkpt>
<trkpt lat="53.379522" lon="-1.871771"><ele>604</ele><time>2024-02-10T13:40:01Z</time><name>PT3442</name></trkpt>
<trkpt lat="53.379510" lon="-1.871860"><ele>603</ele><time>2024-02-10T13:40:05Z</time><name>PT3443</name></trkpt>
<trkpt lat="53.379501" lon="-1.871927"><ele>603</ele><time>2024-02-10T13:40:08Z</time><name>PT3444</name></trkpt>
<trkpt lat="53.379501" lon="-1.872010"><ele>602</ele><time>2024-02-10T13:40:12Z</time><name>PT3445</name></trkpt>
<trkpt lat="53.379503" lon="-1.872076"><ele>603</ele><time>2024-02-10T13:40:15Z</time><name>PT3446</name></trkpt>
<trkpt lat="53.379499" lon="-1.872160"><ele>603</ele><time>2024-02-10T13:40:19Z</time><name>PT3447</name></trkpt>
<trkpt lat="53.379494" lon="-1.872228"><ele>603</ele><time>2024-02-10T13:40:22Z</time><name>PT3448</name></trkpt>
<trkpt lat="53.379496" lon="-1.872290"><ele>603</ele><time>2024-02-10T13:40:25Z</time><name>PT3449</name></trkpt>
<trkpt lat="53.379510" lon="-1.872351"><ele>602</ele><time>2024-02-10T13:40:29Z</time><name>PT3450</name></trkpt>
<trkpt lat="53.379522" lon="-1.872399"><ele>601</ele><time>2024-02-10T13:40:32Z</time><name>PT3451</name></trkpt>
<trkpt lat="53.379531" lon="-1.872448"><ele>601</ele><time>2024-02-10T13:40:35Z</time><name>PT3452</name></trkpt>
<trkpt lat="53.379525" lon="-1.872489"><ele>601</ele><time>2024-02-10T13:40:38Z</time><name>PT3453</name></trkpt>
<trkpt lat="53.379520" lon="-1.872565"><ele>601</ele><time>2024-02-10T13:40:42Z</time><name>PT3454</name></trkpt>
<trkpt lat="53.379519" lon="-1.872646"><ele>600</ele><time>2024-02-10T13:40:46Z</time><name>PT3455</name></trkpt>
<trkpt lat="53.379512" lon="-1.872702"><ele>600</ele><time>2024-02-10T13:40:49Z</time><name>PT3456</name></trkpt>
<trkpt lat="53.379508" lon="-1.872779"><ele>600</ele><time>2024-02-10T13:40:53Z</time><name>PT3457</name></trkpt>
<trkpt lat="53.379508" lon="-1.872838"><ele>600</ele><time>2024-02-10T13:40:56Z</time><name>PT3458</name></trkpt>
<trkpt lat="53.379504" lon="-1.872921"><ele>600</ele><time>2024-02-10T13:41:00Z</time><name>PT3459</name></trkpt>
<trkpt lat="53.379501" lon="-1.873004"><ele>599</ele><time>2024-02-10T13:41:04Z</time><name>PT3460</name></trkpt>
<trkpt lat="53.379505" lon="-1.873088"><ele>600</ele><time>2024-02-10T13:41:08Z</time><name>PT3461</name></trkpt>
<trkpt lat="53.379510" lon="-1.873144"><ele>600</ele><time>2024-02-10T13:41:11Z</time><name>PT3462</name></trkpt>
<trkpt lat="53.379514" lon="-1.873216"><ele>599</ele><time>2024-02-10T13:41:15Z</time><name>PT3463</name></trkpt>
<trkpt lat="53.379516" lon="-1.873289"><ele>600</ele><time>2024-02-10T13:41:19Z</time><name>PT3464</name></trkpt>
<trkpt lat="53.379517" lon="-1.873335"><ele>600</ele><time>2024-02-10T13:41:22Z</time><name>PT3465</name></trkpt>
<trkpt lat="53.379520" lon="-1.873396"><ele>600</ele><time>2024-02-10T13:41:25Z</time><name>PT3466</name></trkpt>
<trkpt lat="53.379522" lon="-1.873456"><ele>600</ele><time>2024-02-10T13:41:28Z</time><name>PT3467</name></trkpt>
<trkpt lat="53.379527" lon="-1.873532"><ele>600</ele><time>2024-02-10T13:41:32Z</time><name>PT3468</name></trkpt>
<trkpt lat="53.379547" lon="-1.873600"><ele>600</ele><time>2024-02-10T13:41:36Z</time><name>PT3469</name></trkpt>
<trkpt lat="53.379555" lon="-1.873654"><ele>600</ele><time>2024-02-10T13:41:39Z</time><name>PT3470</name></trkpt>
<trkpt lat="53.379560" lon="-1.873721"><ele>599</ele><time>2024-02-10T13:41:43Z</time><name>PT3471</name></trkpt>
<trkpt lat="53.379566" lon="-1.873761"><ele>599</ele><time>2024-02-10T13:41:46Z</time><name>PT3472</name></trkpt>
<trkpt lat="53.379572" lon="-1.873798"><ele>598</ele><time>2024-02-10T13:41:50Z</time><name>PT3473</name></trkpt>
<trkpt lat="53.379583" lon="-1.873848"><ele>598</ele><time>2024-02-10T13:41:53Z</time><name>PT3474</name></trkpt>
<trkpt lat="53.379593" lon="-1.873905"><ele>597</ele><time>2024-02-10T13:41:57Z</time><name>PT3475</name></trkpt>
<trkpt lat="53.379609" lon="-1.873944"><ele>596</ele><time>2024-02-10T13:42:00Z</time><name>PT3476</name></trkpt>
<trkpt lat="53.379611" lon="-1.874009"><ele>597</ele><time>2024-02-10T13:42:04Z</time><name>PT3477</name></trkpt>
<trkpt lat="53.379604" lon="-1.874082"><ele>597</ele><time>2024-02-10T13:42:08Z</time><name>PT3478</name></trkpt>
<trkpt lat="53.379599" lon="-1.874137"><ele>597</ele><time>2024-02-10T13:42:11Z</time><name>PT3479</name></trkpt>
<trkpt lat="53.379594" lon="-1.874210"><ele>597</ele><time>2024-02-10T13:42:15Z</time><name>PT3480</name></trkpt>
<trkpt lat="53.379585" lon="-1.874265"><ele>598</ele><time>2024-02-10T13:42:18Z</time><name>PT3481</name></trkpt>
<trkpt lat="53.379580" lon="-1.874324"><ele>598</ele><time>2024-02-10T13:42:21Z</time><name>PT3482</name></trkpt>
<trkpt lat="53.379580" lon="-1.874406"><ele>598</ele><time>2024-02-10T13:42:25Z</time><name>PT3483</name></trkpt>
<trkpt lat="53.379576" lon="-1.874469"><ele>598</ele><time>2024-02-10T13:42:28Z</time><name>PT3484</name></trkpt>
<trkpt lat="53.379575" lon="-1.874526"><ele>598</ele><time>2024-02-10T13:42:31Z</time><name>PT3485</name></trkpt>
<trkpt lat="53.379588" lon="-1.874612"><ele>598</ele><time>2024-02-10T13:42:35Z</time><name>PT3486</name></trkpt>
<trkpt lat="53.379601" lon="-1.874695"><ele>598</ele><time>2024-02-10T13:42:39Z</time><name>PT3487</name></trkpt>
<trkpt lat="53.379615" lon="-1.874760"><ele>598</ele><time>2024-02-10T13:42:43Z</time><name>PT3488</name></trkpt>
<trkpt lat="53.379629" lon="-1.874812"><ele>598</ele><time>2024-02-10T13:42:47Z</time><name>PT3489</name></trkpt>
<trkpt lat="53.379628" lon="-1.874849"><ele>599</ele><time>2024-02-10T13:42:50Z</time><name>PT3490</name></trkpt>
<trkpt lat="53.379634" lon="-1.874895"><ele>598</ele><time>2024-02-10T13:42:53Z</time><name>PT3491</name></trkpt>
<trkpt lat="53.379641" lon="-1.874952"><ele>598</ele><time>2024-02-10T13:42:56Z</time><name>PT3492</name></trkpt>
<trkpt lat="53.379647" lon="-1.875017"><ele>598</ele><time>2024-02-10T13:43:00Z</time><name>PT3493</name></trkpt>
<trkpt lat="53.379650" lon="-1.875069"><ele>598</ele><time>2024-02-10T13:43:03Z</time><name>PT3494</name></trkpt>
<trkpt lat="53.379660" lon="-1.875116"><ele>597</ele><time>2024-02-10T13:43:07Z</time><name>PT3495</name></trkpt>
<trkpt lat="53.379673" lon="-1.875173"><ele>598</ele><time>2024-02-10T13:43:10Z</time><name>PT3496</name></trkpt>
<trkpt lat="53.379688" lon="-1.875230"><ele>599</ele><time>2024-02-10T13:43:14Z</time><name>PT3497</name></trkpt>
<trkpt lat="53.379700" lon="-1.875282"><ele>599</ele><time>2024-02-10T13:43:17Z</time><name>PT3498</name></trkpt>
<trkpt lat="53.379717" lon="-1.875354"><ele>599</ele><time>2024-02-10T13:43:21Z</time><name>PT3499</name></trkpt>
<trkpt lat="53.379721" lon="-1.875396"><ele>599</ele><time>2024-02-10T13:43:25Z</time><name>PT3500</name></trkpt>
<trkpt lat="53.379722" lon="-1.875438"><ele>599</ele><time>2024-02-10T13:43:28Z</time><name>PT3501</name></trkpt>
<trkpt lat="53.379727" lon="-1.875497"><ele>598</ele><time>2024-02-10T13:43:32Z</time><name>PT3502</name></trkpt>
<trkpt lat="53.379722" lon="-1.875546"><ele>599</ele><time>2024-02-10T13:43:35Z</time><name>PT3503</name></trkpt>
<trkpt lat="53.379723" lon="-1.875599"><ele>599</ele><time>2024-02-10T13:43:39Z</time><name>PT3504</name></trkpt>
<trkpt lat="53.379727" lon="-1.875653"><ele>600</ele><time>2024-02-10T13:43:43Z</time><name>PT3505</name></trkpt>
<trkpt lat="53.379739" lon="-1.875691"><ele>600</ele><time>2024-02-10T13:43:46Z</time><name>PT3506</name></trkpt>
<trkpt lat="53.379749" lon="-1.875741"><ele>600</ele><time>2024-02-10T13:43:50Z</time><name>PT3507</name></trkpt>
<trkpt lat="53.379754" lon="-1.875785"><ele>600</ele><time>2024-02-10T13:43:53Z</time><name>PT3508</name></trkpt>
<trkpt lat="53.379756" lon="-1.875838"><ele>601</ele><time>2024-02-10T13:43:57Z</time><name>PT3509</name></trkpt>
<trkpt lat="53.379754" lon="-1.875890"><ele>601</ele><time>2024-02-10T13:44:01Z</time><name>PT3510</name></trkpt>
<trkpt lat="53.379748" lon="-1.875927"><ele>602</ele><time>2024-02-10T13:44:04Z</time><name>PT3511</name></trkpt>
<trkpt lat="53.379737" lon="-1.875972"><ele>602</ele><time>2024-02-10T13:44:08Z</time><name>PT3512</name></trkpt>
<trkpt lat="53.379728" lon="-1.876009"><ele>603</ele><time>2024-02-10T13:44:11Z</time><name>PT3513</name></trkpt>
<trkpt lat="53.379709" lon="-1.876067"><ele>603</ele><time>2024-02-10T13:44:15Z</time><name>PT3514</name></trkpt>
<trkpt lat="53.379694" lon="-1.876121"><ele>603</ele><time>2024-02-10T13:44:19Z</time><name>PT3515</name></trkpt>
<trkpt lat="53.379683" lon="-1.876162"><ele>603</ele><time>2024-02-10T13:44:22Z</time><name>PT3516</name></trkpt>
<trkpt lat="53.379688" lon="-1.876218"><ele>603</ele><time>2024-02-10T13:44:26Z</time><name>PT3517</name></trkpt>
<trkpt lat="53.379666" lon="-1.876246"><ele>604</ele><time>2024-02-10T13:44:29Z</time><name>PT3518</name></trkpt>
<trkpt lat="53.379648" lon="-1.876293"><ele>604</ele><time>2024-02-10T13:44:32Z</time><name>PT3519</name></trkpt>
<trkpt lat="53.379635" lon="-1.876353"><ele>605</ele><time>2024-02-10T13:44:35Z</time><name>PT3520</name></trkpt>
<trkpt lat="53.379625" lon="-1.876398"><ele>605</ele><time>2024-02-10T13:44:38Z</time><name>PT3521</name></trkpt>
<trkpt lat="53.379604" lon="-1.876459"><ele>605</ele><time>2024-02-10T13:44:42Z</time><name>PT3522</name></trkpt>
<trkpt lat="53.379595" lon="-1.876531"><ele>605</ele><time>2024-02-10T13:44:46Z</time><name>PT3523</name></trkpt>
<trkpt lat="53.379601" lon="-1.876561"><ele>605</ele><time>2024-02-10T13:44:49Z</time><name>PT3524</name></trkpt>
<trkpt lat="53.379607" lon="-1.876605"><ele>605</ele><time>2024-02-10T13:44:53Z</time><name>PT3525</name></trkpt>
<trkpt lat="53.379609" lon="-1.876644"><ele>606</ele><time>2024-02-10T13:44:56Z</time><name>PT3526</name></trkpt>
<trkpt lat="53.379603" lon="-1.876700"><ele>606</ele><time>2024-02-10T13:45:00Z</time><name>PT3527</name></trkpt>
<trkpt lat="53.379595" lon="-1.876734"><ele>607</ele><time>2024-02-10T13:45:03Z</time><name>PT3528</name></trkpt>
<trkpt lat="53.379578" lon="-1.876772"><ele>607</ele><time>2024-02-10T13:45:07Z</time><name>PT3529</name></trkpt>
<trkpt lat="53.379570" lon="-1.876794"><ele>607</ele><time>2024-02-10T13:45:10Z</time><name>PT3530</name></trkpt>
<trkpt lat="53.379570" lon="-1.876795"><ele>608</ele><time>2024-02-10T13:45:14Z</time><name>PT3531</name></trkpt>
<trkpt lat="53.379568" lon="-1.876800"><ele>608</ele><time>2024-02-10T13:45:18Z</time><name>PT3532</name></trkpt>
<trkpt lat="53.379568" lon="-1.876802"><ele>608</ele><time>2024-02-10T13:45:21Z</time><name>PT3533</name></trkpt>
<trkpt lat="53.379558" lon="-1.876810"><ele>608</ele><time>2024-02-10T13:45:32Z</time><name>PT3534</name></trkpt>
<trkpt lat="53.379556" lon="-1.876843"><ele>608</ele><time>2024-02-10T13:45:35Z</time><name>PT3535</name></trkpt>
<trkpt lat="53.379546" lon="-1.876879"><ele>609</ele><time>2024-02-10T13:45:38Z</time><name>PT3536</name></trkpt>
<trkpt lat="53.379537" lon="-1.876907"><ele>609</ele><time>2024-02-10T13:45:41Z</time><name>PT3537</name></trkpt>
<trkpt lat="53.379525" lon="-1.876943"><ele>609</ele><time>2024-02-10T13:45:45Z</time><name>PT3538</name></trkpt>
<trkpt lat="53.379526" lon="-1.876948"><ele>608</ele><time>2024-02-10T13:45:49Z</time><name>PT3539</name></trkpt>
<trkpt lat="53.379521" lon="-1.876961"><ele>609</ele><time>2024-02-10T13:46:02Z</time><name>PT3540</name></trkpt>
<trkpt lat="53.379521" lon="-1.876962"><ele>609</ele><time>2024-02-10T13:46:05Z</time><name>PT3541</name></trkpt>
<trkpt lat="53.379526" lon="-1.876968"><ele>610</ele><time>2024-02-10T13:46:09Z</time><name>PT3542</name></trkpt>
<trkpt lat="53.379526" lon="-1.876969"><ele>609</ele><time>2024-02-10T13:46:12Z</time><name>PT3543</name></trkpt>
<trkpt lat="53.379519" lon="-1.876972"><ele>610</ele><time>2024-02-10T13:46:16Z</time><name>PT3544</name></trkpt>
<trkpt lat="53.379520" lon="-1.876991"><ele>609</ele><time>2024-02-10T13:46:20Z</time><name>PT3545</name></trkpt>
<trkpt lat="53.379520" lon="-1.876983"><ele>610</ele><time>2024-02-10T13:46:33Z</time><name>PT3546</name></trkpt>
<trkpt lat="53.379521" lon="-1.876979"><ele>610</ele><time>2024-02-10T13:46:37Z</time><name>PT3547</name></trkpt>
<trkpt lat="53.379524" lon="-1.876985"><ele>610</ele><time>2024-02-10T13:46:40Z</time><name>PT3548</name></trkpt>
<trkpt lat="53.379526" lon="-1.876985"><ele>610</ele><time>2024-02-10T13:46:51Z</time><name>PT3549</name></trkpt>
<trkpt lat="53.379525" lon="-1.876977"><ele>610</ele><time>2024-02-10T13:46:54Z</time><name>PT3550</name></trkpt>
<trkpt lat="53.379526" lon="-1.876974"><ele>610</ele><time>2024-02-10T13:46:58Z</time><name>PT3551</name></trkpt>
<trkpt lat="53.379524" lon="-1.877003"><ele>611</ele><time>2024-02-10T13:47:05Z</time><name>PT3552</name></trkpt>
<trkpt lat="53.379512" lon="-1.877053"><ele>611</ele><time>2024-02-10T13:47:08Z</time><name>PT3553</name></trkpt>
<trkpt lat="53.379500" lon="-1.877103"><ele>611</ele><time>2024-02-10T13:47:12Z</time><name>PT3554</name></trkpt>
<trkpt lat="53.379484" lon="-1.877148"><ele>611</ele><time>2024-02-10T13:47:16Z</time><name>PT3555</name></trkpt>
<trkpt lat="53.379469" lon="-1.877169"><ele>611</ele><time>2024-02-10T13:47:19Z</time><name>PT3556</name></trkpt>
<trkpt lat="53.379439" lon="-1.877167"><ele>611</ele><time>2024-02-10T13:47:23Z</time><name>PT3557</name></trkpt>
<trkpt lat="53.379421" lon="-1.877152"><ele>611</ele><time>2024-02-10T13:47:26Z</time><name>PT3558</name></trkpt>
<trkpt lat="53.379397" lon="-1.877146"><ele>610</ele><time>2024-02-10T13:47:29Z</time><name>PT3559</name></trkpt>
<trkpt lat="53.379375" lon="-1.877148"><ele>609</ele><time>2024-02-10T13:47:33Z</time><name>PT3560</name></trkpt>
<trkpt lat="53.379363" lon="-1.877166"><ele>609</ele><time>2024-02-10T13:47:36Z</time><name>PT3561</name></trkpt>
<trkpt lat="53.379362" lon="-1.877166"><ele>609</ele><time>2024-02-10T13:47:39Z</time><name>PT3562</name></trkpt>
<trkpt lat="53.379346" lon="-1.877161"><ele>610</ele><time>2024-02-10T13:47:43Z</time><name>PT3563</name></trkpt>
<trkpt lat="53.379338" lon="-1.877150"><ele>609</ele><time>2024-02-10T13:47:46Z</time><name>PT3564</name></trkpt>
<trkpt lat="53.379326" lon="-1.877146"><ele>610</ele><time>2024-02-10T13:47:49Z</time><name>PT3565</name></trkpt>
<trkpt lat="53.379299" lon="-1.877179"><ele>610</ele><time>2024-02-10T13:47:53Z</time><name>PT3566</name></trkpt>
<trkpt lat="53.379276" lon="-1.877221"><ele>610</ele><time>2024-02-10T13:47:56Z</time><name>PT3567</name></trkpt>
<trkpt lat="53.379251" lon="-1.877262"><ele>610</ele><time>2024-02-10T13:47:59Z</time><name>PT3568</name></trkpt>
<trkpt lat="53.379221" lon="-1.877307"><ele>610</ele><time>2024-02-10T13:48:03Z</time><name>PT3569</name></trkpt>
<trkpt lat="53.379190" lon="-1.877359"><ele>610</ele><time>2024-02-10T13:48:07Z</time><name>PT3570</name></trkpt>
<trkpt lat="53.379181" lon="-1.877395"><ele>609</ele><time>2024-02-10T13:48:10Z</time><name>PT3571</name></trkpt>
<trkpt lat="53.379158" lon="-1.877436"><ele>609</ele><time>2024-02-10T13:48:14Z</time><name>PT3572</name></trkpt>
<trkpt lat="53.379134" lon="-1.877475"><ele>608</ele><time>2024-02-10T13:48:17Z</time><name>PT3573</name></trkpt>
<trkpt lat="53.379109" lon="-1.877515"><ele>608</ele><time>2024-02-10T13:48:21Z</time><name>PT3574</name></trkpt>
<trkpt lat="53.379088" lon="-1.877553"><ele>608</ele><time>2024-02-10T13:48:24Z</time><name>PT3575</name></trkpt>
<trkpt lat="53.379059" lon="-1.877603"><ele>607</ele><time>2024-02-10T13:48:28Z</time><name>PT3576</name></trkpt>
<trkpt lat="53.379033" lon="-1.877645"><ele>607</ele><time>2024-02-10T13:48:32Z</time><name>PT3577</name></trkpt>
<trkpt lat="53.379003" lon="-1.877672"><ele>606</ele><time>2024-02-10T13:48:35Z</time><name>PT3578</name></trkpt>
<trkpt lat="53.378972" lon="-1.877706"><ele>606</ele><time>2024-02-10T13:48:39Z</time><name>PT3579</name></trkpt>
<trkpt lat="53.378948" lon="-1.877751"><ele>606</ele><time>2024-02-10T13:48:43Z</time><name>PT3580</name></trkpt>
<trkpt lat="53.378922" lon="-1.877786"><ele>606</ele><time>2024-02-10T13:48:47Z</time><name>PT3581</name></trkpt>
<trkpt lat="53.378896" lon="-1.877808"><ele>606</ele><time>2024-02-10T13:48:50Z</time><name>PT3582</name></trkpt>
<trkpt lat="53.378857" lon="-1.877833"><ele>604</ele><time>2024-02-10T13:48:54Z</time><name>PT3583</name></trkpt>
<trkpt lat="53.378824" lon="-1.877875"><ele>604</ele><time>2024-02-10T13:48:58Z</time><name>PT3584</name></trkpt>
<trkpt lat="53.378805" lon="-1.877921"><ele>604</ele><time>2024-02-10T13:49:01Z</time><name>PT3585</name></trkpt>
<trkpt lat="53.378783" lon="-1.877985"><ele>604</ele><time>2024-02-10T13:49:05Z</time><name>PT3586</name></trkpt>
<trkpt lat="53.378760" lon="-1.878013"><ele>603</ele><time>2024-02-10T13:49:09Z</time><name>PT3587</name></trkpt>
<trkpt lat="53.378752" lon="-1.878066"><ele>603</ele><time>2024-02-10T13:49:13Z</time><name>PT3588</name></trkpt>
<trkpt lat="53.378723" lon="-1.878093"><ele>601</ele><time>2024-02-10T13:49:16Z</time><name>PT3589</name></trkpt>
<trkpt lat="53.378706" lon="-1.878112"><ele>601</ele><time>2024-02-10T13:49:19Z</time><name>PT3590</name></trkpt>
<trkpt lat="53.378694" lon="-1.878148"><ele>599</ele><time>2024-02-10T13:49:23Z</time><name>PT3591</name></trkpt>
<trkpt lat="53.378671" lon="-1.878167"><ele>599</ele><time>2024-02-10T13:49:26Z</time><name>PT3592</name></trkpt>
<trkpt lat="53.378643" lon="-1.878209"><ele>599</ele><time>2024-02-10T13:49:30Z</time><name>PT3593</name></trkpt>
<trkpt lat="53.378628" lon="-1.878234"><ele>598</ele><time>2024-02-10T13:49:33Z</time><name>PT3594</name></trkpt>
<trkpt lat="53.378593" lon="-1.878262"><ele>598</ele><time>2024-02-10T13:49:37Z</time><name>PT3595</name></trkpt>
<trkpt lat="53.378559" lon="-1.878274"><ele>598</ele><time>2024-02-10T13:49:40Z</time><name>PT3596</name></trkpt>
<trkpt lat="53.378517" lon="-1.878322"><ele>598</ele><time>2024-02-10T13:49:44Z</time><name>PT3597</name></trkpt>
<trkpt lat="53.378488" lon="-1.878346"><ele>598</ele><time>2024-02-10T13:49:47Z</time><name>PT3598</name></trkpt>
<trkpt lat="53.378456" lon="-1.878366"><ele>597</ele><time>2024-02-10T13:49:50Z</time><name>PT3599</name></trkpt>
<trkpt lat="53.378422" lon="-1.878389"><ele>597</ele><time>2024-02-10T13:49:53Z</time><name>PT3600</name></trkpt>
<trkpt lat="53.378377" lon="-1.878416"><ele>597</ele><time>2024-02-10T13:49:57Z</time><name>PT3601</name></trkpt>
<trkpt lat="53.378343" lon="-1.878432"><ele>596</ele><time>2024-02-10T13:50:01Z</time><name>PT3602</name></trkpt>
<trkpt lat="53.378323" lon="-1.878444"><ele>596</ele><time>2024-02-10T13:50:04Z</time><name>PT3603</name></trkpt>
<trkpt lat="53.378280" lon="-1.878459"><ele>596</ele><time>2024-02-10T13:50:08Z</time><name>PT3604</name></trkpt>
<trkpt lat="53.378250" lon="-1.878465"><ele>595</ele><time>2024-02-10T13:50:11Z</time><name>PT3605</name></trkpt>
<trkpt lat="53.378208" lon="-1.878488"><ele>595</ele><time>2024-02-10T13:50:15Z</time><name>PT3606</name></trkpt>
<trkpt lat="53.378166" lon="-1.878501"><ele>595</ele><time>2024-02-10T13:50:19Z</time><name>PT3607</name></trkpt>
<trkpt lat="53.378142" lon="-1.878508"><ele>594</ele><time>2024-02-10T13:50:22Z</time><name>PT3608</name></trkpt>
<trkpt lat="53.378110" lon="-1.878512"><ele>594</ele><time>2024-02-10T13:50:26Z</time><name>PT3609</name></trkpt>
<trkpt lat="53.378088" lon="-1.878523"><ele>594</ele><time>2024-02-10T13:50:29Z</time><name>PT3610</name></trkpt>
<trkpt lat="53.378067" lon="-1.878522"><ele>594</ele><time>2024-02-10T13:50:32Z</time><name>PT3611</name></trkpt>
<trkpt lat="53.378023" lon="-1.878539"><ele>593</ele><time>2024-02-10T13:50:36Z</time><name>PT3612</name></trkpt>
<trkpt lat="53.377980" lon="-1.878563"><ele>593</ele><time>2024-02-10T13:50:40Z</time><name>PT3613</name></trkpt>
<trkpt lat="53.377941" lon="-1.878589"><ele>593</ele><time>2024-02-10T13:50:44Z</time><name>PT3614</name></trkpt>
<trkpt lat="53.377911" lon="-1.878609"><ele>592</ele><time>2024-02-10T13:50:47Z</time><name>PT3615</name></trkpt>
<trkpt lat="53.377884" lon="-1.878630"><ele>591</ele><time>2024-02-10T13:50:50Z</time><name>PT3616</name></trkpt>
<trkpt lat="53.377848" lon="-1.878657"><ele>590</ele><time>2024-02-10T13:50:54Z</time><name>PT3617</name></trkpt>
<trkpt lat="53.377824" lon="-1.878679"><ele>590</ele><time>2024-02-10T13:50:57Z</time><name>PT3618</name></trkpt>
<trkpt lat="53.377792" lon="-1.878706"><ele>590</ele><time>2024-02-10T13:51:01Z</time><name>PT3619</name></trkpt>
<trkpt lat="53.377767" lon="-1.878733"><ele>590</ele><time>2024-02-10T13:51:04Z</time><name>PT3620</name></trkpt>
<trkpt lat="53.377737" lon="-1.878765"><ele>588</ele><time>2024-02-10T13:51:08Z</time><name>PT3621</name></trkpt>
<trkpt lat="53.377717" lon="-1.878808"><ele>587</ele><time>2024-02-10T13:51:12Z</time><name>PT3622</name></trkpt>
<trkpt lat="53.377697" lon="-1.878862"><ele>587</ele><time>2024-02-10T13:51:15Z</time><name>PT3623</name></trkpt>
<trkpt lat="53.377662" lon="-1.878924"><ele>585</ele><time>2024-02-10T13:51:19Z</time><name>PT3624</name></trkpt>
<trkpt lat="53.377637" lon="-1.878973"><ele>586</ele><time>2024-02-10T13:51:22Z</time><name>PT3625</name></trkpt>
<trkpt lat="53.377610" lon="-1.879007"><ele>585</ele><time>2024-02-10T13:51:25Z</time><name>PT3626</name></trkpt>
<trkpt lat="53.377577" lon="-1.879054"><ele>586</ele><time>2024-02-10T13:51:29Z</time><name>PT3627</name></trkpt>
<trkpt lat="53.377548" lon="-1.879085"><ele>586</ele><time>2024-02-10T13:51:32Z</time><name>PT3628</name></trkpt>
<trkpt lat="53.377528" lon="-1.879115"><ele>587</ele><time>2024-02-10T13:51:36Z</time><name>PT3629</name></trkpt>
<trkpt lat="53.377503" lon="-1.879164"><ele>587</ele><time>2024-02-10T13:51:40Z</time><name>PT3630</name></trkpt>
<trkpt lat="53.377471" lon="-1.879207"><ele>586</ele><time>2024-02-10T13:51:44Z</time><name>PT3631</name></trkpt>
<trkpt lat="53.377449" lon="-1.879233"><ele>586</ele><time>2024-02-10T13:51:47Z</time><name>PT3632</name></trkpt>
<trkpt lat="53.377422" lon="-1.879293"><ele>586</ele><time>2024-02-10T13:51:51Z</time><name>PT3633</name></trkpt>
<trkpt lat="53.377394" lon="-1.879362"><ele>586</ele><time>2024-02-10T13:51:55Z</time><name>PT3634</name></trkpt>
<trkpt lat="53.377378" lon="-1.879425"><ele>586</ele><time>2024-02-10T13:51:58Z</time><name>PT3635</name></trkpt>
<trkpt lat="53.377361" lon="-1.879503"><ele>586</ele><time>2024-02-10T13:52:02Z</time><name>PT3636</name></trkpt>
<trkpt lat="53.377350" lon="-1.879572"><ele>587</ele><time>2024-02-10T13:52:06Z</time><name>PT3637</name></trkpt>
<trkpt lat="53.377322" lon="-1.879615"><ele>588</ele><time>2024-02-10T13:52:10Z</time><name>PT3638</name></trkpt>
<trkpt lat="53.377298" lon="-1.879656"><ele>587</ele><time>2024-02-10T13:52:14Z</time><name>PT3639</name></trkpt>
<trkpt lat="53.377280" lon="-1.879693"><ele>587</ele><time>2024-02-10T13:52:17Z</time><name>PT3640</name></trkpt>
<trkpt lat="53.377258" lon="-1.879699"><ele>587</ele><time>2024-02-10T13:52:20Z</time><name>PT3641</name></trkpt>
<trkpt lat="53.377233" lon="-1.879720"><ele>586</ele><time>2024-02-10T13:52:23Z</time><name>PT3642</name></trkpt>
<trkpt lat="53.377202" lon="-1.879762"><ele>587</ele><time>2024-02-10T13:52:27Z</time><name>PT3643</name></trkpt>
<trkpt lat="53.377164" lon="-1.879753"><ele>586</ele><time>2024-02-10T13:52:31Z</time><name>PT3644</name></trkpt>
<trkpt lat="53.377128" lon="-1.879782"><ele>586</ele><time>2024-02-10T13:52:35Z</time><name>PT3645</name></trkpt>
<trkpt lat="53.377092" lon="-1.879837"><ele>586</ele><time>2024-02-10T13:52:39Z</time><name>PT3646</name></trkpt>
<trkpt lat="53.377061" lon="-1.879881"><ele>586</ele><time>2024-02-10T13:52:42Z</time><name>PT3647</name></trkpt>
<trkpt lat="53.377026" lon="-1.879929"><ele>586</ele><time>2024-02-10T13:52:46Z</time><name>PT3648</name></trkpt>
<trkpt lat="53.376991" lon="-1.879977"><ele>586</ele><time>2024-02-10T13:52:50Z</time><name>PT3649</name></trkpt>
<trkpt lat="53.376968" lon="-1.880000"><ele>585</ele><time>2024-02-10T13:52:53Z</time><name>PT3650</name></trkpt>
<trkpt lat="53.376935" lon="-1.880049"><ele>585</ele><time>2024-02-10T13:52:57Z</time><name>PT3651</name></trkpt>
<trkpt lat="53.376906" lon="-1.880082"><ele>585</ele><time>2024-02-10T13:53:00Z</time><name>PT3652</name></trkpt>
<trkpt lat="53.376870" lon="-1.880132"><ele>585</ele><time>2024-02-10T13:53:04Z</time><name>PT3653</name></trkpt>
<trkpt lat="53.376848" lon="-1.880179"><ele>585</ele><time>2024-02-10T13:53:07Z</time><name>PT3654</name></trkpt>
<trkpt lat="53.376819" lon="-1.880237"><ele>585</ele><time>2024-02-10T13:53:11Z</time><name>PT3655</name></trkpt>
<trkpt lat="53.376796" lon="-1.880277"><ele>585</ele><time>2024-02-10T13:53:14Z</time><name>PT3656</name></trkpt>
<trkpt lat="53.376764" lon="-1.880315"><ele>585</ele><time>2024-02-10T13:53:18Z</time><name>PT3657</name></trkpt>
<trkpt lat="53.376740" lon="-1.880339"><ele>585</ele><time>2024-02-10T13:53:21Z</time><name>PT3658</name></trkpt>
<trkpt lat="53.376699" lon="-1.880371"><ele>583</ele><time>2024-02-10T13:53:25Z</time><name>PT3659</name></trkpt>
<trkpt lat="53.376679" lon="-1.880396"><ele>583</ele><time>2024-02-10T13:53:28Z</time><name>PT3660</name></trkpt>
<trkpt lat="53.376654" lon="-1.880436"><ele>583</ele><time>2024-02-10T13:53:31Z</time><name>PT3661</name></trkpt>
<trkpt lat="53.376616" lon="-1.880477"><ele>583</ele><time>2024-02-10T13:53:35Z</time><name>PT3662</name></trkpt>
<trkpt lat="53.376588" lon="-1.880514"><ele>582</ele><time>2024-02-10T13:53:38Z</time><name>PT3663</name></trkpt>
<trkpt lat="53.376547" lon="-1.880558"><ele>581</ele><time>2024-02-10T13:53:42Z</time><name>PT3664</name></trkpt>
<trkpt lat="53.376512" lon="-1.880609"><ele>581</ele><time>2024-02-10T13:53:46Z</time><name>PT3665</name></trkpt>
<trkpt lat="53.376487" lon="-1.880639"><ele>581</ele><time>2024-02-10T13:53:49Z</time><name>PT3666</name></trkpt>
<trkpt lat="53.376453" lon="-1.880662"><ele>581</ele><time>2024-02-10T13:53:52Z</time><name>PT3667</name></trkpt>
<trkpt lat="53.376415" lon="-1.880700"><ele>580</ele><time>2024-02-10T13:53:56Z</time><name>PT3668</name></trkpt>
<trkpt lat="53.376391" lon="-1.880736"><ele>580</ele><time>2024-02-10T13:53:59Z</time><name>PT3669</name></trkpt>
<trkpt lat="53.376363" lon="-1.880765"><ele>580</ele><time>2024-02-10T13:54:02Z</time><name>PT3670</name></trkpt>
<trkpt lat="53.376340" lon="-1.880794"><ele>580</ele><time>2024-02-10T13:54:05Z</time><name>PT3671</name></trkpt>
<trkpt lat="53.376303" lon="-1.880837"><ele>580</ele><time>2024-02-10T13:54:09Z</time><name>PT3672</name></trkpt>
<trkpt lat="53.376275" lon="-1.880862"><ele>580</ele><time>2024-02-10T13:54:12Z</time><name>PT3673</name></trkpt>
<trkpt lat="53.376236" lon="-1.880905"><ele>579</ele><time>2024-02-10T13:54:16Z</time><name>PT3674</name></trkpt>
<trkpt lat="53.376203" lon="-1.880943"><ele>578</ele><time>2024-02-10T13:54:20Z</time><name>PT3675</name></trkpt>
<trkpt lat="53.376171" lon="-1.880983"><ele>578</ele><time>2024-02-10T13:54:24Z</time><name>PT3676</name></trkpt>
<trkpt lat="53.376144" lon="-1.881032"><ele>578</ele><time>2024-02-10T13:54:28Z</time><name>PT3677</name></trkpt>
<trkpt lat="53.376125" lon="-1.881067"><ele>578</ele><time>2024-02-10T13:54:31Z</time><name>PT3678</name></trkpt>
<trkpt lat="53.376096" lon="-1.881100"><ele>577</ele><time>2024-02-10T13:54:34Z</time><name>PT3679</name></trkpt>
<trkpt lat="53.376055" lon="-1.881122"><ele>577</ele><time>2024-02-10T13:54:38Z</time><name>PT3680</name></trkpt>
<trkpt lat="53.376025" lon="-1.881154"><ele>577</ele><time>2024-02-10T13:54:41Z</time><name>PT3681</name></trkpt>
<trkpt lat="53.375984" lon="-1.881188"><ele>578</ele><time>2024-02-10T13:54:45Z</time><name>PT3682</name></trkpt>
<trkpt lat="53.375953" lon="-1.881217"><ele>578</ele><time>2024-02-10T13:54:48Z</time><name>PT3683</name></trkpt>
<trkpt lat="53.375913" lon="-1.881269"><ele>578</ele><time>2024-02-10T13:54:52Z</time><name>PT3684</name></trkpt>
<trkpt lat="53.375899" lon="-1.881313"><ele>578</ele><time>2024-02-10T13:54:55Z</time><name>PT3685</name></trkpt>
<trkpt lat="53.375880" lon="-1.881370"><ele>578</ele><time>2024-02-10T13:54:59Z</time><name>PT3686</name></trkpt>
<trkpt lat="53.375863" lon="-1.881409"><ele>578</ele><time>2024-02-10T13:55:03Z</time><name>PT3687</name></trkpt>
<trkpt lat="53.375851" lon="-1.881431"><ele>578</ele><time>2024-02-10T13:55:06Z</time><name>PT3688</name></trkpt>
<trkpt lat="53.375834" lon="-1.881449"><ele>578</ele><time>2024-02-10T13:55:10Z</time><name>PT3689</name></trkpt>
<trkpt lat="53.375819" lon="-1.881474"><ele>577</ele><time>2024-02-10T13:55:14Z</time><name>PT3690</name></trkpt>
<trkpt lat="53.375804" lon="-1.881480"><ele>577</ele><time>2024-02-10T13:55:17Z</time><name>PT3691</name></trkpt>
<trkpt lat="53.375804" lon="-1.881482"><ele>577</ele><time>2024-02-10T13:55:20Z</time><name>PT3692</name></trkpt>
<trkpt lat="53.375798" lon="-1.881492"><ele>577</ele><time>2024-02-10T13:55:28Z</time><name>PT3693</name></trkpt>
<trkpt lat="53.375807" lon="-1.881494"><ele>578</ele><time>2024-02-10T13:55:31Z</time><name>PT3694</name></trkpt>
<trkpt lat="53.375809" lon="-1.881493"><ele>578</ele><time>2024-02-10T13:55:35Z</time><name>PT3695</name></trkpt>
<trkpt lat="53.375802" lon="-1.881489"><ele>578</ele><time>2024-02-10T13:55:49Z</time><name>PT3696</name></trkpt>
<trkpt lat="53.375774" lon="-1.881517"><ele>578</ele><time>2024-02-10T13:55:53Z</time><name>PT3697</name></trkpt>
<trkpt lat="53.375749" lon="-1.881566"><ele>577</ele><time>2024-02-10T13:55:57Z</time><name>PT3698</name></trkpt>
<trkpt lat="53.375738" lon="-1.881629"><ele>578</ele><time>2024-02-10T13:56:01Z</time><name>PT3699</name></trkpt>
<trkpt lat="53.375711" lon="-1.881688"><ele>578</ele><time>2024-02-10T13:56:05Z</time><name>PT3700</name></trkpt>
<trkpt lat="53.375677" lon="-1.881745"><ele>578</ele><time>2024-02-10T13:56:09Z</time><name>PT3701</name></trkpt>
<trkpt lat="53.375665" lon="-1.881815"><ele>578</ele><time>2024-02-10T13:56:13Z</time><name>PT3702</name></trkpt>
<trkpt lat="53.375666" lon="-1.881867"><ele>579</ele><time>2024-02-10T13:56:16Z</time><name>PT3703</name></trkpt>
<trkpt lat="53.375665" lon="-1.881929"><ele>578</ele><time>2024-02-10T13:56:20Z</time><name>PT3704</name></trkpt>
<trkpt lat="53.375665" lon="-1.881971"><ele>579</ele><time>2024-02-10T13:56:23Z</time><name>PT3705</name></trkpt>
<trkpt lat="53.375652" lon="-1.882015"><ele>579</ele><time>2024-02-10T13:56:27Z</time><name>PT3706</name></trkpt>
<trkpt lat="53.375645" lon="-1.882022"><ele>579</ele><time>2024-02-10T13:56:30Z</time><name>PT3707</name></trkpt>
<trkpt lat="53.375640" lon="-1.882039"><ele>580</ele><time>2024-02-10T13:56:34Z</time><name>PT3708</name></trkpt>
<trkpt lat="53.375637" lon="-1.882054"><ele>581</ele><time>2024-02-10T13:56:37Z</time><name>PT3709</name></trkpt>
<trkpt lat="53.375636" lon="-1.882055"><ele>581</ele><time>2024-02-10T13:56:41Z</time><name>PT3710</name></trkpt>
<trkpt lat="53.375635" lon="-1.882063"><ele>581</ele><time>2024-02-10T13:56:51Z</time><name>PT3711</name></trkpt>
<trkpt lat="53.375640" lon="-1.882061"><ele>581</ele><time>2024-02-10T13:56:55Z</time><name>PT3712</name></trkpt>
<trkpt lat="53.375640" lon="-1.882054"><ele>581</ele><time>2024-02-10T13:56:58Z</time><name>PT3713</name></trkpt>
<trkpt lat="53.375642" lon="-1.882053"><ele>581</ele><time>2024-02-10T13:57:09Z</time><name>PT3714</name></trkpt>
<trkpt lat="53.375640" lon="-1.882051"><ele>581</ele><time>2024-02-10T13:57:12Z</time><name>PT3715</name></trkpt>
<trkpt lat="53.375640" lon="-1.882039"><ele>580</ele><time>2024-02-10T13:57:47Z</time><name>PT3716</name></trkpt>
<trkpt lat="53.375639" lon="-1.882034"><ele>580</ele><time>2024-02-10T13:57:50Z</time><name>PT3717</name></trkpt>
<trkpt lat="53.375636" lon="-1.882031"><ele>579</ele><time>2024-02-10T13:57:54Z</time><name>PT3718</name></trkpt>
<trkpt lat="53.375633" lon="-1.882034"><ele>580</ele><time>2024-02-10T13:58:10Z</time><name>PT3719</name></trkpt>
<trkpt lat="53.375634" lon="-1.882031"><ele>580</ele><time>2024-02-10T13:58:13Z</time><name>PT3720</name></trkpt>
<trkpt lat="53.375633" lon="-1.882041"><ele>580</ele><time>2024-02-10T13:58:57Z</time><name>PT3721</name></trkpt>
<trkpt lat="53.375635" lon="-1.882058"><ele>580</ele><time>2024-02-10T13:59:00Z</time><name>PT3722</name></trkpt>
<trkpt lat="53.375636" lon="-1.882055"><ele>580</ele><time>2024-02-10T13:59:22Z</time><name>PT3723</name></trkpt>
<trkpt lat="53.375638" lon="-1.882051"><ele>580</ele><time>2024-02-10T13:59:25Z</time><name>PT3724</name></trkpt>
<trkpt lat="53.375639" lon="-1.882054"><ele>580</ele><time>2024-02-10T13:59:28Z</time><name>PT3725</name></trkpt>
<trkpt lat="53.375627" lon="-1.882053"><ele>580</ele><time>2024-02-10T14:00:42Z</time><name>PT3726</name></trkpt>
<trkpt lat="53.375587" lon="-1.882039"><ele>579</ele><time>2024-02-10T14:00:46Z</time><name>PT3727</name></trkpt>
<trkpt lat="53.375562" lon="-1.882013"><ele>579</ele><time>2024-02-10T14:00:50Z</time><name>PT3728</name></trkpt>
<trkpt lat="53.375534" lon="-1.881983"><ele>579</ele><time>2024-02-10T14:00:54Z</time><name>PT3729</name></trkpt>
<trkpt lat="53.375511" lon="-1.881943"><ele>579</ele><time>2024-02-10T14:00:58Z</time><name>PT3730</name></trkpt>
<trkpt lat="53.375494" lon="-1.881899"><ele>579</ele><time>2024-02-10T14:01:01Z</time><name>PT3731</name></trkpt>
<trkpt lat="53.375495" lon="-1.881876"><ele>578</ele><time>2024-02-10T14:01:05Z</time><name>PT3732</name></trkpt>
<trkpt lat="53.375472" lon="-1.881858"><ele>578</ele><time>2024-02-10T14:01:08Z</time><name>PT3733</name></trkpt>
<trkpt lat="53.375431" lon="-1.881827"><ele>578</ele><time>2024-02-10T14:01:12Z</time><name>PT3734</name></trkpt>
<trkpt lat="53.375407" lon="-1.881774"><ele>578</ele><time>2024-02-10T14:01:16Z</time><name>PT3735</name></trkpt>
<trkpt lat="53.375374" lon="-1.881739"><ele>577</ele><time>2024-02-10T14:01:20Z</time><name>PT3736</name></trkpt>
<trkpt lat="53.375341" lon="-1.881748"><ele>577</ele><time>2024-02-10T14:01:24Z</time><name>PT3737</name></trkpt>
<trkpt lat="53.375311" lon="-1.881741"><ele>577</ele><time>2024-02-10T14:01:27Z</time><name>PT3738</name></trkpt>
<trkpt lat="53.375274" lon="-1.881746"><ele>576</ele><time>2024-02-10T14:01:31Z</time><name>PT3739</name></trkpt>
<trkpt lat="53.375253" lon="-1.881753"><ele>576</ele><time>2024-02-10T14:01:34Z</time><name>PT3740</name></trkpt>
<trkpt lat="53.375223" lon="-1.881765"><ele>576</ele><time>2024-02-10T14:01:37Z</time><name>PT3741</name></trkpt>
<trkpt lat="53.375183" lon="-1.881774"><ele>578</ele><time>2024-02-10T14:01:41Z</time><name>PT3742</name></trkpt>
<trkpt lat="53.375140" lon="-1.881791"><ele>578</ele><time>2024-02-10T14:01:44Z</time><name>PT3743</name></trkpt>
<trkpt lat="53.375092" lon="-1.881809"><ele>579</ele><time>2024-02-10T14:01:48Z</time><name>PT3744</name></trkpt>
<trkpt lat="53.375054" lon="-1.881827"><ele>580</ele><time>2024-02-10T14:01:52Z</time><name>PT3745</name></trkpt>
<trkpt lat="53.375013" lon="-1.881843"><ele>580</ele><time>2024-02-10T14:01:56Z</time><name>PT3746</name></trkpt>
<trkpt lat="53.374974" lon="-1.881863"><ele>581</ele><time>2024-02-10T14:02:00Z</time><name>PT3747</name></trkpt>
<trkpt lat="53.374934" lon="-1.881874"><ele>581</ele><time>2024-02-10T14:02:04Z</time><name>PT3748</name></trkpt>
<trkpt lat="53.374901" lon="-1.881894"><ele>582</ele><time>2024-02-10T14:02:08Z</time><name>PT3749</name></trkpt>
<trkpt lat="53.374865" lon="-1.881911"><ele>583</ele><time>2024-02-10T14:02:11Z</time><name>PT3750</name></trkpt>
<trkpt lat="53.374831" lon="-1.881929"><ele>583</ele><time>2024-02-10T14:02:14Z</time><name>PT3751</name></trkpt>
<trkpt lat="53.374780" lon="-1.881929"><ele>584</ele><time>2024-02-10T14:02:18Z</time><name>PT3752</name></trkpt>
<trkpt lat="53.374746" lon="-1.881921"><ele>584</ele><time>2024-02-10T14:02:21Z</time><name>PT3753</name></trkpt>
<trkpt lat="53.374713" lon="-1.881913"><ele>584</ele><time>2024-02-10T14:02:24Z</time><name>PT3754</name></trkpt>
<trkpt lat="53.374674" lon="-1.881904"><ele>584</ele><time>2024-02-10T14:02:27Z</time><name>PT3755</name></trkpt>
<trkpt lat="53.374625" lon="-1.881889"><ele>584</ele><time>2024-02-10T14:02:31Z</time><name>PT3756</name></trkpt>
<trkpt lat="53.374588" lon="-1.881890"><ele>583</ele><time>2024-02-10T14:02:34Z</time><name>PT3757</name></trkpt>
<trkpt lat="53.374538" lon="-1.881885"><ele>584</ele><time>2024-02-10T14:02:37Z</time><name>PT3758</name></trkpt>
<trkpt lat="53.374493" lon="-1.881895"><ele>584</ele><time>2024-02-10T14:02:40Z</time><name>PT3759</name></trkpt>
<trkpt lat="53.374450" lon="-1.881898"><ele>584</ele><time>2024-02-10T14:02:44Z</time><name>PT3760</name></trkpt>
<trkpt lat="53.374408" lon="-1.881898"><ele>584</ele><time>2024-02-10T14:02:48Z</time><name>PT3761</name></trkpt>
<trkpt lat="53.374381" lon="-1.881896"><ele>585</ele><time>2024-02-10T14:02:51Z</time><name>PT3762</name></trkpt>
<trkpt lat="53.374353" lon="-1.881889"><ele>584</ele><time>2024-02-10T14:02:54Z</time><name>PT3763</name></trkpt>
<trkpt lat="53.374317" lon="-1.881892"><ele>583</ele><time>2024-02-10T14:02:58Z</time><name>PT3764</name></trkpt>
<trkpt lat="53.374295" lon="-1.881901"><ele>582</ele><time>2024-02-10T14:03:01Z</time><name>PT3765</name></trkpt>
<trkpt lat="53.374266" lon="-1.881905"><ele>582</ele><time>2024-02-10T14:03:04Z</time><name>PT3766</name></trkpt>
<trkpt lat="53.374225" lon="-1.881915"><ele>582</ele><time>2024-02-10T14:03:08Z</time><name>PT3767</name></trkpt>
<trkpt lat="53.374193" lon="-1.881930"><ele>582</ele><time>2024-02-10T14:03:11Z</time><name>PT3768</name></trkpt>
<trkpt lat="53.374161" lon="-1.881941"><ele>581</ele><time>2024-02-10T14:03:14Z</time><name>PT3769</name></trkpt>
<trkpt lat="53.374122" lon="-1.881951"><ele>580</ele><time>2024-02-10T14:03:18Z</time><name>PT3770</name></trkpt>
<trkpt lat="53.374096" lon="-1.881959"><ele>580</ele><time>2024-02-10T14:03:22Z</time><name>PT3771</name></trkpt>
<trkpt lat="53.374080" lon="-1.881961"><ele>581</ele><time>2024-02-10T14:03:26Z</time><name>PT3772</name></trkpt>
<trkpt lat="53.374071" lon="-1.881971"><ele>580</ele><time>2024-02-10T14:03:29Z</time><name>PT3773</name></trkpt>
<trkpt lat="53.374069" lon="-1.881978"><ele>581</ele><time>2024-02-10T14:03:32Z</time><name>PT3774</name></trkpt>
<trkpt lat="53.374051" lon="-1.881983"><ele>581</ele><time>2024-02-10T14:03:39Z</time><name>PT3775</name></trkpt>
<trkpt lat="53.374026" lon="-1.881997"><ele>581</ele><time>2024-02-10T14:03:43Z</time><name>PT3776</name></trkpt>
<trkpt lat="53.374021" lon="-1.882006"><ele>581</ele><time>2024-02-10T14:03:47Z</time><name>PT3777</name></trkpt>
<trkpt lat="53.374001" lon="-1.882006"><ele>580</ele><time>2024-02-10T14:03:51Z</time><name>PT3778</name></trkpt>
<trkpt lat="53.373967" lon="-1.882033"><ele>581</ele><time>2024-02-10T14:03:55Z</time><name>PT3779</name></trkpt>
<trkpt lat="53.373921" lon="-1.882048"><ele>580</ele><time>2024-02-10T14:03:59Z</time><name>PT3780</name></trkpt>
<trkpt lat="53.373890" lon="-1.882052"><ele>580</ele><time>2024-02-10T14:04:03Z</time><name>PT3781</name></trkpt>
<trkpt lat="53.373852" lon="-1.882052"><ele>580</ele><time>2024-02-10T14:04:07Z</time><name>PT3782</name></trkpt>
<trkpt lat="53.373832" lon="-1.882055"><ele>579</ele><time>2024-02-10T14:04:11Z</time><name>PT3783</name></trkpt>
<trkpt lat="53.373831" lon="-1.882054"><ele>579</ele><time>2024-02-10T14:04:14Z</time><name>PT3784</name></trkpt>
<trkpt lat="53.373833" lon="-1.882053"><ele>577</ele><time>2024-02-10T14:04:17Z</time><name>PT3785</name></trkpt>
<trkpt lat="53.373815" lon="-1.882061"><ele>577</ele><time>2024-02-10T14:04:21Z</time><name>PT3786</name></trkpt>
<trkpt lat="53.373784" lon="-1.882063"><ele>575</ele><time>2024-02-10T14:04:25Z</time><name>PT3787</name></trkpt>
<trkpt lat="53.373753" lon="-1.882085"><ele>575</ele><time>2024-02-10T14:04:29Z</time><name>PT3788</name></trkpt>
<trkpt lat="53.373734" lon="-1.882094"><ele>575</ele><time>2024-02-10T14:04:33Z</time><name>PT3789</name></trkpt>
<trkpt lat="53.373712" lon="-1.882118"><ele>579</ele><time>2024-02-10T14:04:37Z</time><name>PT3790</name></trkpt>
<trkpt lat="53.373710" lon="-1.882126"><ele>579</ele><time>2024-02-10T14:04:40Z</time><name>PT3791</name></trkpt>
<trkpt lat="53.373708" lon="-1.882129"><ele>579</ele><time>2024-02-10T14:04:44Z</time><name>PT3792</name></trkpt>
<trkpt lat="53.373710" lon="-1.882143"><ele>580</ele><time>2024-02-10T14:04:47Z</time><name>PT3793</name></trkpt>
<trkpt lat="53.373711" lon="-1.882152"><ele>580</ele><time>2024-02-10T14:04:51Z</time><name>PT3794</name></trkpt>
<trkpt lat="53.373702" lon="-1.882159"><ele>579</ele><time>2024-02-10T14:04:55Z</time><name>PT3795</name></trkpt>
<trkpt lat="53.373674" lon="-1.882168"><ele>578</ele><time>2024-02-10T14:04:59Z</time><name>PT3796</name></trkpt>
<trkpt lat="53.373642" lon="-1.882186"><ele>578</ele><time>2024-02-10T14:05:13Z</time><name>PT3797</name></trkpt>
<trkpt lat="53.373619" lon="-1.882218"><ele>578</ele><time>2024-02-10T14:05:16Z</time><name>PT3798</name></trkpt>
<trkpt lat="53.373579" lon="-1.882262"><ele>578</ele><time>2024-02-10T14:05:20Z</time><name>PT3799</name></trkpt>
<trkpt lat="53.373547" lon="-1.882280"><ele>577</ele><time>2024-02-10T14:05:23Z</time><name>PT3800</name></trkpt>
<trkpt lat="53.373508" lon="-1.882306"><ele>577</ele><time>2024-02-10T14:05:26Z</time><name>PT3801</name></trkpt>
<trkpt lat="53.373468" lon="-1.882346"><ele>577</ele><time>2024-02-10T14:05:30Z</time><name>PT3802</name></trkpt>
<trkpt lat="53.373436" lon="-1.882379"><ele>577</ele><time>2024-02-10T14:05:34Z</time><name>PT3803</name></trkpt>
<trkpt lat="53.373414" lon="-1.882411"><ele>578</ele><time>2024-02-10T14:05:37Z</time><name>PT3804</name></trkpt>
<trkpt lat="53.373391" lon="-1.882452"><ele>576</ele><time>2024-02-10T14:05:40Z</time><name>PT3805</name></trkpt>
<trkpt lat="53.373375" lon="-1.882482"><ele>575</ele><time>2024-02-10T14:05:44Z</time><name>PT3806</name></trkpt>
<trkpt lat="53.373357" lon="-1.882510"><ele>575</ele><time>2024-02-10T14:05:47Z</time><name>PT3807</name></trkpt>
<trkpt lat="53.373326" lon="-1.882531"><ele>576</ele><time>2024-02-10T14:05:51Z</time><name>PT3808</name></trkpt>
<trkpt lat="53.373295" lon="-1.882569"><ele>575</ele><time>2024-02-10T14:05:55Z</time><name>PT3809</name></trkpt>
<trkpt lat="53.373283" lon="-1.882595"><ele>575</ele><time>2024-02-10T14:05:58Z</time><name>PT3810</name></trkpt>
<trkpt lat="53.373264" lon="-1.882624"><ele>576</ele><time>2024-02-10T14:06:02Z</time><name>PT3811</name></trkpt>
<trkpt lat="53.373244" lon="-1.882658"><ele>576</ele><time>2024-02-10T14:06:06Z</time><name>PT3812</name></trkpt>
<trkpt lat="53.373223" lon="-1.882677"><ele>575</ele><time>2024-02-10T14:06:09Z</time><name>PT3813</name></trkpt>
<trkpt lat="53.373210" lon="-1.882707"><ele>575</ele><time>2024-02-10T14:06:13Z</time><name>PT3814</name></trkpt>
<trkpt lat="53.373208" lon="-1.882738"><ele>574</ele><time>2024-02-10T14:06:16Z</time><name>PT3815</name></trkpt>
<trkpt lat="53.373172" lon="-1.882763"><ele>573</ele><time>2024-02-10T14:06:20Z</time><name>PT3816</name></trkpt>
<trkpt lat="53.373151" lon="-1.882800"><ele>574</ele><time>2024-02-10T14:06:24Z</time><name>PT3817</name></trkpt>
<trkpt lat="53.373131" lon="-1.882852"><ele>576</ele><time>2024-02-10T14:06:28Z</time><name>PT3818</name></trkpt>
<trkpt lat="53.373115" lon="-1.882898"><ele>576</ele><time>2024-02-10T14:06:32Z</time><name>PT3819</name></trkpt>
<trkpt lat="53.373093" lon="-1.882941"><ele>578</ele><time>2024-02-10T14:06:36Z</time><name>PT3820</name></trkpt>
<trkpt lat="53.373079" lon="-1.882983"><ele>578</ele><time>2024-02-10T14:06:40Z</time><name>PT3821</name></trkpt>
<trkpt lat="53.373061" lon="-1.883030"><ele>578</ele><time>2024-02-10T14:06:44Z</time><name>PT3822</name></trkpt>
<trkpt lat="53.373036" lon="-1.883075"><ele>577</ele><time>2024-02-10T14:06:48Z</time><name>PT3823</name></trkpt>
<trkpt lat="53.373031" lon="-1.883089"><ele>577</ele><time>2024-02-10T14:06:52Z</time><name>PT3824</name></trkpt>
<trkpt lat="53.373029" lon="-1.883096"><ele>576</ele><time>2024-02-10T14:07:00Z</time><name>PT3825</name></trkpt>
<trkpt lat="53.373017" lon="-1.883150"><ele>577</ele><time>2024-02-10T14:07:03Z</time><name>PT3826</name></trkpt>
<trkpt lat="53.373012" lon="-1.883167"><ele>576</ele><time>2024-02-10T14:07:06Z</time><name>PT3827</name></trkpt>
<trkpt lat="53.373010" lon="-1.883182"><ele>576</ele><time>2024-02-10T14:07:09Z</time><name>PT3828</name></trkpt>
<trkpt lat="53.372996" lon="-1.883221"><ele>576</ele><time>2024-02-10T14:07:12Z</time><name>PT3829</name></trkpt>
<trkpt lat="53.372970" lon="-1.883262"><ele>575</ele><time>2024-02-10T14:07:15Z</time><name>PT3830</name></trkpt>
<trkpt lat="53.372957" lon="-1.883324"><ele>574</ele><time>2024-02-10T14:07:19Z</time><name>PT3831</name></trkpt>
<trkpt lat="53.372938" lon="-1.883375"><ele>574</ele><time>2024-02-10T14:07:22Z</time><name>PT3832</name></trkpt>
<trkpt lat="53.372920" lon="-1.883434"><ele>574</ele><time>2024-02-10T14:07:26Z</time><name>PT3833</name></trkpt>
<trkpt lat="53.372898" lon="-1.883495"><ele>573</ele><time>2024-02-10T14:07:30Z</time><name>PT3834</name></trkpt>
<trkpt lat="53.372884" lon="-1.883547"><ele>573</ele><time>2024-02-10T14:07:34Z</time><name>PT3835</name></trkpt>
<trkpt lat="53.372874" lon="-1.883578"><ele>573</ele><time>2024-02-10T14:07:38Z</time><name>PT3836</name></trkpt>
<trkpt lat="53.372867" lon="-1.883598"><ele>574</ele><time>2024-02-10T14:07:41Z</time><name>PT3837</name></trkpt>
<trkpt lat="53.372861" lon="-1.883626"><ele>574</ele><time>2024-02-10T14:07:44Z</time><name>PT3838</name></trkpt>
<trkpt lat="53.372851" lon="-1.883666"><ele>574</ele><time>2024-02-10T14:07:48Z</time><name>PT3839</name></trkpt>
<trkpt lat="53.372840" lon="-1.883698"><ele>574</ele><time>2024-02-10T14:07:51Z</time><name>PT3840</name></trkpt>
<trkpt lat="53.372834" lon="-1.883732"><ele>573</ele><time>2024-02-10T14:07:54Z</time><name>PT3841</name></trkpt>
<trkpt lat="53.372825" lon="-1.883792"><ele>573</ele><time>2024-02-10T14:07:58Z</time><name>PT3842</name></trkpt>
<trkpt lat="53.372822" lon="-1.883824"><ele>573</ele><time>2024-02-10T14:08:01Z</time><name>PT3843</name></trkpt>
<trkpt lat="53.372811" lon="-1.883874"><ele>573</ele><time>2024-02-10T14:08:05Z</time><name>PT3844</name></trkpt>
<trkpt lat="53.372801" lon="-1.883911"><ele>573</ele><time>2024-02-10T14:08:08Z</time><name>PT3845</name></trkpt>
<trkpt lat="53.372784" lon="-1.883962"><ele>572</ele><time>2024-02-10T14:08:12Z</time><name>PT3846</name></trkpt>
<trkpt lat="53.372774" lon="-1.884007"><ele>572</ele><time>2024-02-10T14:08:15Z</time><name>PT3847</name></trkpt>
<trkpt lat="53.372754" lon="-1.884065"><ele>572</ele><time>2024-02-10T14:08:19Z</time><name>PT3848</name></trkpt>
<trkpt lat="53.372744" lon="-1.884108"><ele>571</ele><time>2024-02-10T14:08:22Z</time><name>PT3849</name></trkpt>
<trkpt lat="53.372729" lon="-1.884143"><ele>570</ele><time>2024-02-10T14:08:26Z</time><name>PT3850</name></trkpt>
<trkpt lat="53.372725" lon="-1.884165"><ele>570</ele><time>2024-02-10T14:08:29Z</time><name>PT3851</name></trkpt>
<trkpt lat="53.372720" lon="-1.884210"><ele>570</ele><time>2024-02-10T14:08:33Z</time><name>PT3852</name></trkpt>
<trkpt lat="53.372703" lon="-1.884270"><ele>570</ele><time>2024-02-10T14:08:37Z</time><name>PT3853</name></trkpt>
<trkpt lat="53.372692" lon="-1.884318"><ele>568</ele><time>2024-02-10T14:08:40Z</time><name>PT3854</name></trkpt>
<trkpt lat="53.372681" lon="-1.884372"><ele>568</ele><time>2024-02-10T14:08:44Z</time><name>PT3855</name></trkpt>
<trkpt lat="53.372666" lon="-1.884411"><ele>568</ele><time>2024-02-10T14:08:47Z</time><name>PT3856</name></trkpt>
<trkpt lat="53.372641" lon="-1.884473"><ele>567</ele><time>2024-02-10T14:08:51Z</time><name>PT3857</name></trkpt>
<trkpt lat="53.372625" lon="-1.884534"><ele>567</ele><time>2024-02-10T14:08:55Z</time><name>PT3858</name></trkpt>
<trkpt lat="53.372613" lon="-1.884577"><ele>567</ele><time>2024-02-10T14:08:58Z</time><name>PT3859</name></trkpt>
<trkpt lat="53.372597" lon="-1.884623"><ele>567</ele><time>2024-02-10T14:09:02Z</time><name>PT3860</name></trkpt>
<trkpt lat="53.372590" lon="-1.884663"><ele>567</ele><time>2024-02-10T14:09:05Z</time><name>PT3861</name></trkpt>
<trkpt lat="53.372573" lon="-1.884697"><ele>566</ele><time>2024-02-10T14:09:09Z</time><name>PT3862</name></trkpt>
<trkpt lat="53.372559" lon="-1.884741"><ele>566</ele><time>2024-02-10T14:09:12Z</time><name>PT3863</name></trkpt>
<trkpt lat="53.372542" lon="-1.884802"><ele>567</ele><time>2024-02-10T14:09:16Z</time><name>PT3864</name></trkpt>
<trkpt lat="53.372541" lon="-1.884878"><ele>568</ele><time>2024-02-10T14:09:20Z</time><name>PT3865</name></trkpt>
<trkpt lat="53.372542" lon="-1.884904"><ele>567</ele><time>2024-02-10T14:09:23Z</time><name>PT3866</name></trkpt>
<trkpt lat="53.372540" lon="-1.884908"><ele>567</ele><time>2024-02-10T14:09:27Z</time><name>PT3867</name></trkpt>
<trkpt lat="53.372533" lon="-1.884953"><ele>567</ele><time>2024-02-10T14:09:31Z</time><name>PT3868</name></trkpt>
<trkpt lat="53.372526" lon="-1.884999"><ele>566</ele><time>2024-02-10T14:09:35Z</time><name>PT3869</name></trkpt>
<trkpt lat="53.372516" lon="-1.885007"><ele>566</ele><time>2024-02-10T14:09:39Z</time><name>PT3870</name></trkpt>
<trkpt lat="53.372512" lon="-1.885009"><ele>566</ele><time>2024-02-10T14:09:42Z</time><name>PT3871</name></trkpt>
<trkpt lat="53.372515" lon="-1.885018"><ele>566</ele><time>2024-02-10T14:09:56Z</time><name>PT3872</name></trkpt>
<trkpt lat="53.372519" lon="-1.885022"><ele>566</ele><time>2024-02-10T14:10:00Z</time><name>PT3873</name></trkpt>
<trkpt lat="53.372527" lon="-1.885037"><ele>566</ele><time>2024-02-10T14:10:03Z</time><name>PT3874</name></trkpt>
<trkpt lat="53.372549" lon="-1.885061"><ele>566</ele><time>2024-02-10T14:10:07Z</time><name>PT3875</name></trkpt>
<trkpt lat="53.372567" lon="-1.885075"><ele>567</ele><time>2024-02-10T14:10:10Z</time><name>PT3876</name></trkpt>
<trkpt lat="53.372581" lon="-1.885090"><ele>567</ele><time>2024-02-10T14:10:13Z</time><name>PT3877</name></trkpt>
<trkpt lat="53.372601" lon="-1.885116"><ele>567</ele><time>2024-02-10T14:10:16Z</time><name>PT3878</name></trkpt>
<trkpt lat="53.372628" lon="-1.885128"><ele>567</ele><time>2024-02-10T14:10:20Z</time><name>PT3879</name></trkpt>
<trkpt lat="53.372658" lon="-1.885114"><ele>568</ele><time>2024-02-10T14:10:24Z</time><name>PT3880</name></trkpt>
<trkpt lat="53.372664" lon="-1.885118"><ele>568</ele><time>2024-02-10T14:10:27Z</time><name>PT3881</name></trkpt>
<trkpt lat="53.372665" lon="-1.885120"><ele>569</ele><time>2024-02-10T14:10:30Z</time><name>PT3882</name></trkpt>
<trkpt lat="53.372694" lon="-1.885106"><ele>568</ele><time>2024-02-10T14:10:34Z</time><name>PT3883</name></trkpt>
<trkpt lat="53.372707" lon="-1.885101"><ele>567</ele><time>2024-02-10T14:10:38Z</time><name>PT3884</name></trkpt>
<trkpt lat="53.372726" lon="-1.885101"><ele>567</ele><time>2024-02-10T14:10:41Z</time><name>PT3885</name></trkpt>
<trkpt lat="53.372748" lon="-1.885094"><ele>567</ele><time>2024-02-10T14:10:44Z</time><name>PT3886</name></trkpt>
<trkpt lat="53.372780" lon="-1.885087"><ele>567</ele><time>2024-02-10T14:10:48Z</time><name>PT3887</name></trkpt>
<trkpt lat="53.372789" lon="-1.885084"><ele>567</ele><time>2024-02-10T14:10:52Z</time><name>PT3888</name></trkpt>
<trkpt lat="53.372821" lon="-1.885084"><ele>567</ele><time>2024-02-10T14:10:56Z</time><name>PT3889</name></trkpt>
<trkpt lat="53.372852" lon="-1.885091"><ele>566</ele><time>2024-02-10T14:11:00Z</time><name>PT3890</name></trkpt>
<trkpt lat="53.372888" lon="-1.885084"><ele>566</ele><time>2024-02-10T14:11:04Z</time><name>PT3891</name></trkpt>
<trkpt lat="53.372925" lon="-1.885074"><ele>565</ele><time>2024-02-10T14:11:08Z</time><name>PT3892</name></trkpt>
<trkpt lat="53.372967" lon="-1.885065"><ele>566</ele><time>2024-02-10T14:11:12Z</time><name>PT3893</name></trkpt>
<trkpt lat="53.372995" lon="-1.885061"><ele>567</ele><time>2024-02-10T14:11:15Z</time><name>PT3894</name></trkpt>
<trkpt lat="53.373017" lon="-1.885063"><ele>569</ele><time>2024-02-10T14:11:18Z</time><name>PT3895</name></trkpt>
<trkpt lat="53.373038" lon="-1.885051"><ele>569</ele><time>2024-02-10T14:11:22Z</time><name>PT3896</name></trkpt>
<trkpt lat="53.373062" lon="-1.885042"><ele>569</ele><time>2024-02-10T14:11:25Z</time><name>PT3897</name></trkpt>
<trkpt lat="53.373106" lon="-1.885036"><ele>570</ele><time>2024-02-10T14:11:29Z</time><name>PT3898</name></trkpt>
<trkpt lat="53.373137" lon="-1.885002"><ele>569</ele><time>2024-02-10T14:11:33Z</time><name>PT3899</name></trkpt>
<trkpt lat="53.373163" lon="-1.884970"><ele>570</ele><time>2024-02-10T14:11:37Z</time><name>PT3900</name></trkpt>
<trkpt lat="53.373191" lon="-1.884947"><ele>570</ele><time>2024-02-10T14:11:41Z</time><name>PT3901</name></trkpt>
<trkpt lat="53.373209" lon="-1.884924"><ele>571</ele><time>2024-02-10T14:11:44Z</time><name>PT3902</name></trkpt>
<trkpt lat="53.373228" lon="-1.884889"><ele>571</ele><time>2024-02-10T14:11:48Z</time><name>PT3903</name></trkpt>
<trkpt lat="53.373246" lon="-1.884870"><ele>572</ele><time>2024-02-10T14:11:51Z</time><name>PT3904</name></trkpt>
<trkpt lat="53.373265" lon="-1.884836"><ele>573</ele><time>2024-02-10T14:11:55Z</time><name>PT3905</name></trkpt>
<trkpt lat="53.373296" lon="-1.884796"><ele>574</ele><time>2024-02-10T14:11:59Z</time><name>PT3906</name></trkpt>
<trkpt lat="53.373329" lon="-1.884789"><ele>573</ele><time>2024-02-10T14:12:03Z</time><name>PT3907</name></trkpt>
<trkpt lat="53.373360" lon="-1.884763"><ele>574</ele><time>2024-02-10T14:12:07Z</time><name>PT3908</name></trkpt>
<trkpt lat="53.373394" lon="-1.884745"><ele>574</ele><time>2024-02-10T14:12:11Z</time><name>PT3909</name></trkpt>
<trkpt lat="53.373424" lon="-1.884739"><ele>574</ele><time>2024-02-10T14:12:14Z</time><name>PT3910</name></trkpt>
<trkpt lat="53.373452" lon="-1.884726"><ele>574</ele><time>2024-02-10T14:12:17Z</time><name>PT3911</name></trkpt>
<trkpt lat="53.373483" lon="-1.884715"><ele>575</ele><time>2024-02-10T14:12:20Z</time><name>PT3912</name></trkpt>
<trkpt lat="53.373525" lon="-1.884711"><ele>575</ele><time>2024-02-10T14:12:24Z</time><name>PT3913</name></trkpt>
<trkpt lat="53.373566" lon="-1.884704"><ele>575</ele><time>2024-02-10T14:12:28Z</time><name>PT3914</name></trkpt>
<trkpt lat="53.373598" lon="-1.884690"><ele>575</ele><time>2024-02-10T14:12:31Z</time><name>PT3915</name></trkpt>
<trkpt lat="53.373634" lon="-1.884667"><ele>576</ele><time>2024-02-10T14:12:35Z</time><name>PT3916</name></trkpt>
<trkpt lat="53.373668" lon="-1.884643"><ele>576</ele><time>2024-02-10T14:12:39Z</time><name>PT3917</name></trkpt>
<trkpt lat="53.373701" lon="-1.884614"><ele>577</ele><time>2024-02-10T14:12:43Z</time><name>PT3918</name></trkpt>
<trkpt lat="53.373723" lon="-1.884595"><ele>577</ele><time>2024-02-10T14:12:46Z</time><name>PT3919</name></trkpt>
<trkpt lat="53.373765" lon="-1.884586"><ele>580</ele><time>2024-02-10T14:12:50Z</time><name>PT3920</name></trkpt>
<trkpt lat="53.373797" lon="-1.884571"><ele>581</ele><time>2024-02-10T14:12:53Z</time><name>PT3921</name></trkpt>
<trkpt lat="53.373832" lon="-1.884540"><ele>581</ele><time>2024-02-10T14:12:57Z</time><name>PT3922</name></trkpt>
<trkpt lat="53.373872" lon="-1.884515"><ele>581</ele><time>2024-02-10T14:13:01Z</time><name>PT3923</name></trkpt>
<trkpt lat="53.373900" lon="-1.884498"><ele>581</ele><time>2024-02-10T14:13:04Z</time><name>PT3924</name></trkpt>
<trkpt lat="53.373937" lon="-1.884491"><ele>582</ele><time>2024-02-10T14:13:08Z</time><name>PT3925</name></trkpt>
<trkpt lat="53.373965" lon="-1.884487"><ele>581</ele><time>2024-02-10T14:13:11Z</time><name>PT3926</name></trkpt>
<trkpt lat="53.374002" lon="-1.884471"><ele>582</ele><time>2024-02-10T14:13:15Z</time><name>PT3927</name></trkpt>
<trkpt lat="53.374011" lon="-1.884465"><ele>582</ele><time>2024-02-10T14:13:18Z</time><name>PT3928</name></trkpt>
<trkpt lat="53.374012" lon="-1.884464"><ele>582</ele><time>2024-02-10T14:13:21Z</time><name>PT3929</name></trkpt>
<trkpt lat="53.374000" lon="-1.884476"><ele>582</ele><time>2024-02-10T14:14:17Z</time><name>PT3930</name></trkpt>
<trkpt lat="53.373979" lon="-1.884483"><ele>582</ele><time>2024-02-10T14:14:20Z</time><name>PT3931</name></trkpt>
<trkpt lat="53.373968" lon="-1.884487"><ele>581</ele><time>2024-02-10T14:14:24Z</time><name>PT3932</name></trkpt>
<trkpt lat="53.373962" lon="-1.884497"><ele>581</ele><time>2024-02-10T14:14:27Z</time><name>PT3933</name></trkpt>
<trkpt lat="53.373962" lon="-1.884496"><ele>581</ele><time>2024-02-10T14:14:31Z</time><name>PT3934</name></trkpt>
<trkpt lat="53.373955" lon="-1.884497"><ele>581</ele><time>2024-02-10T14:14:50Z</time><name>PT3935</name></trkpt>
<trkpt lat="53.373923" lon="-1.884501"><ele>581</ele><time>2024-02-10T14:14:54Z</time><name>PT3936</name></trkpt>
<trkpt lat="53.373896" lon="-1.884508"><ele>581</ele><time>2024-02-10T14:14:57Z</time><name>PT3937</name></trkpt>
<trkpt lat="53.373852" lon="-1.884536"><ele>581</ele><time>2024-02-10T14:15:01Z</time><name>PT3938</name></trkpt>
<trkpt lat="53.373821" lon="-1.884555"><ele>580</ele><time>2024-02-10T14:15:04Z</time><name>PT3939</name></trkpt>
<trkpt lat="53.373778" lon="-1.884584"><ele>580</ele><time>2024-02-10T14:15:08Z</time><name>PT3940</name></trkpt>
<trkpt lat="53.373749" lon="-1.884597"><ele>580</ele><time>2024-02-10T14:15:11Z</time><name>PT3941</name></trkpt>
<trkpt lat="53.373713" lon="-1.884618"><ele>580</ele><time>2024-02-10T14:15:15Z</time><name>PT3942</name></trkpt>
<trkpt lat="53.373676" lon="-1.884642"><ele>578</ele><time>2024-02-10T14:15:19Z</time><name>PT3943</name></trkpt>
<trkpt lat="53.373635" lon="-1.884674"><ele>579</ele><time>2024-02-10T14:15:23Z</time><name>PT3944</name></trkpt>
<trkpt lat="53.373601" lon="-1.884695"><ele>578</ele><time>2024-02-10T14:15:26Z</time><name>PT3945</name></trkpt>
<trkpt lat="53.373573" lon="-1.884718"><ele>578</ele><time>2024-02-10T14:15:29Z</time><name>PT3946</name></trkpt>
<trkpt lat="53.373529" lon="-1.884723"><ele>578</ele><time>2024-02-10T14:15:33Z</time><name>PT3947</name></trkpt>
<trkpt lat="53.373497" lon="-1.884715"><ele>578</ele><time>2024-02-10T14:15:36Z</time><name>PT3948</name></trkpt>
<trkpt lat="53.373454" lon="-1.884727"><ele>578</ele><time>2024-02-10T14:15:40Z</time><name>PT3949</name></trkpt>
<trkpt lat="53.373410" lon="-1.884732"><ele>577</ele><time>2024-02-10T14:15:44Z</time><name>PT3950</name></trkpt>
<trkpt lat="53.373377" lon="-1.884745"><ele>577</ele><time>2024-02-10T14:15:47Z</time><name>PT3951</name></trkpt>
<trkpt lat="53.373353" lon="-1.884767"><ele>576</ele><time>2024-02-10T14:15:50Z</time><name>PT3952</name></trkpt>
<trkpt lat="53.373329" lon="-1.884791"><ele>576</ele><time>2024-02-10T14:15:53Z</time><name>PT3953</name></trkpt>
<trkpt lat="53.373288" lon="-1.884800"><ele>575</ele><time>2024-02-10T14:15:57Z</time><name>PT3954</name></trkpt>
<trkpt lat="53.373258" lon="-1.884838"><ele>574</ele><time>2024-02-10T14:16:01Z</time><name>PT3955</name></trkpt>
<trkpt lat="53.373231" lon="-1.884875"><ele>573</ele><time>2024-02-10T14:16:05Z</time><name>PT3956</name></trkpt>
<trkpt lat="53.373211" lon="-1.884903"><ele>572</ele><time>2024-02-10T14:16:08Z</time><name>PT3957</name></trkpt>
<trkpt lat="53.373176" lon="-1.884947"><ele>572</ele><time>2024-02-10T14:16:12Z</time><name>PT3958</name></trkpt>
<trkpt lat="53.373129" lon="-1.884978"><ele>571</ele><time>2024-02-10T14:16:16Z</time><name>PT3959</name></trkpt>
<trkpt lat="53.373103" lon="-1.885007"><ele>570</ele><time>2024-02-10T14:16:19Z</time><name>PT3960</name></trkpt>
<trkpt lat="53.373062" lon="-1.885025"><ele>569</ele><time>2024-02-10T14:16:23Z</time><name>PT3961</name></trkpt>
<trkpt lat="53.373043" lon="-1.885044"><ele>568</ele><time>2024-02-10T14:16:26Z</time><name>PT3962</name></trkpt>
<trkpt lat="53.373002" lon="-1.885057"><ele>568</ele><time>2024-02-10T14:16:30Z</time><name>PT3963</name></trkpt>
<trkpt lat="53.372959" lon="-1.885068"><ele>567</ele><time>2024-02-10T14:16:34Z</time><name>PT3964</name></trkpt>
<trkpt lat="53.372911" lon="-1.885088"><ele>567</ele><time>2024-02-10T14:16:38Z</time><name>PT3965</name></trkpt>
<trkpt lat="53.372878" lon="-1.885104"><ele>567</ele><time>2024-02-10T14:16:41Z</time><name>PT3966</name></trkpt>
<trkpt lat="53.372852" lon="-1.885107"><ele>567</ele><time>2024-02-10T14:16:44Z</time><name>PT3967</name></trkpt>
<trkpt lat="53.372816" lon="-1.885108"><ele>569</ele><time>2024-02-10T14:16:48Z</time><name>PT3968</name></trkpt>
<trkpt lat="53.372788" lon="-1.885115"><ele>569</ele><time>2024-02-10T14:16:51Z</time><name>PT3969</name></trkpt>
<trkpt lat="53.372749" lon="-1.885127"><ele>568</ele><time>2024-02-10T14:16:55Z</time><name>PT3970</name></trkpt>
<trkpt lat="53.372731" lon="-1.885126"><ele>568</ele><time>2024-02-10T14:16:58Z</time><name>PT3971</name></trkpt>
<trkpt lat="53.372707" lon="-1.885127"><ele>569</ele><time>2024-02-10T14:17:02Z</time><name>PT3972</name></trkpt>
<trkpt lat="53.372688" lon="-1.885109"><ele>567</ele><time>2024-02-10T14:17:06Z</time><name>PT3973</name></trkpt>
<trkpt lat="53.372674" lon="-1.885094"><ele>568</ele><time>2024-02-10T14:17:10Z</time><name>PT3974</name></trkpt>
<trkpt lat="53.372649" lon="-1.885098"><ele>566</ele><time>2024-02-10T14:17:14Z</time><name>PT3975</name></trkpt>
<trkpt lat="53.372626" lon="-1.885084"><ele>566</ele><time>2024-02-10T14:17:17Z</time><name>PT3976</name></trkpt>
<trkpt lat="53.372596" lon="-1.885061"><ele>566</ele><time>2024-02-10T14:17:21Z</time><name>PT3977</name></trkpt>
<trkpt lat="53.372573" lon="-1.885045"><ele>565</ele><time>2024-02-10T14:17:24Z</time><name>PT3978</name></trkpt>
<trkpt lat="53.372547" lon="-1.885030"><ele>564</ele><time>2024-02-10T14:17:28Z</time><name>PT3979</name></trkpt>
<trkpt lat="53.372520" lon="-1.885015"><ele>563</ele><time>2024-02-10T14:17:32Z</time><name>PT3980</name></trkpt>
<trkpt lat="53.372504" lon="-1.885021"><ele>562</ele><time>2024-02-10T14:17:35Z</time><name>PT3981</name></trkpt>
<trkpt lat="53.372499" lon="-1.885032"><ele>562</ele><time>2024-02-10T14:17:39Z</time><name>PT3982</name></trkpt>
<trkpt lat="53.372481" lon="-1.885037"><ele>561</ele><time>2024-02-10T14:17:42Z</time><name>PT3983</name></trkpt>
<trkpt lat="53.372439" lon="-1.885046"><ele>561</ele><time>2024-02-10T14:17:46Z</time><name>PT3984</name></trkpt>
<trkpt lat="53.372406" lon="-1.885067"><ele>559</ele><time>2024-02-10T14:17:50Z</time><name>PT3985</name></trkpt>
<trkpt lat="53.372397" lon="-1.885082"><ele>558</ele><time>2024-02-10T14:17:53Z</time><name>PT3986</name></trkpt>
<trkpt lat="53.372369" lon="-1.885095"><ele>557</ele><time>2024-02-10T14:17:57Z</time><name>PT3987</name></trkpt>
<trkpt lat="53.372342" lon="-1.885098"><ele>556</ele><time>2024-02-10T14:18:01Z</time><name>PT3988</name></trkpt>
<trkpt lat="53.372311" lon="-1.885117"><ele>555</ele><time>2024-02-10T14:18:05Z</time><name>PT3989</name></trkpt>
<trkpt lat="53.372281" lon="-1.885112"><ele>555</ele><time>2024-02-10T14:18:08Z</time><name>PT3990</name></trkpt>
<trkpt lat="53.372249" lon="-1.885115"><ele>554</ele><time>2024-02-10T14:18:11Z</time><name>PT3991</name></trkpt>
<trkpt lat="53.372223" lon="-1.885129"><ele>554</ele><time>2024-02-10T14:18:14Z</time><name>PT3992</name></trkpt>
<trkpt lat="53.372192" lon="-1.885142"><ele>553</ele><time>2024-02-10T14:18:18Z</time><name>PT3993</name></trkpt>
<trkpt lat="53.372169" lon="-1.885162"><ele>552</ele><time>2024-02-10T14:18:21Z</time><name>PT3994</name></trkpt>
<trkpt lat="53.372133" lon="-1.885186"><ele>552</ele><time>2024-02-10T14:18:25Z</time><name>PT3995</name></trkpt>
<trkpt lat="53.372088" lon="-1.885202"><ele>551</ele><time>2024-02-10T14:18:29Z</time><name>PT3996</name></trkpt>
<trkpt lat="53.372068" lon="-1.885202"><ele>551</ele><time>2024-02-10T14:18:32Z</time><name>PT3997</name></trkpt>
<trkpt lat="53.372049" lon="-1.885204"><ele>551</ele><time>2024-02-10T14:18:35Z</time><name>PT3998</name></trkpt>
<trkpt lat="53.372020" lon="-1.885219"><ele>552</ele><time>2024-02-10T14:18:38Z</time><name>PT3999</name></trkpt>
<trkpt lat="53.371976" lon="-1.885245"><ele>551</ele><time>2024-02-10T14:18:42Z</time><name>PT4000</name></trkpt>
<trkpt lat="53.371934" lon="-1.885248"><ele>550</ele><time>2024-02-10T14:18:46Z</time><name>PT4001</name></trkpt>
<trkpt lat="53.371892" lon="-1.885265"><ele>550</ele><time>2024-02-10T14:18:50Z</time><name>PT4002</name></trkpt>
<trkpt lat="53.371856" lon="-1.885275"><ele>549</ele><time>2024-02-10T14:18:54Z</time><name>PT4003</name></trkpt>
<trkpt lat="53.371836" lon="-1.885285"><ele>549</ele><time>2024-02-10T14:18:57Z</time><name>PT4004</name></trkpt>
<trkpt lat="53.371813" lon="-1.885299"><ele>548</ele><time>2024-02-10T14:19:00Z</time><name>PT4005</name></trkpt>
<trkpt lat="53.371780" lon="-1.885300"><ele>547</ele><time>2024-02-10T14:19:03Z</time><name>PT4006</name></trkpt>
<trkpt lat="53.371752" lon="-1.885291"><ele>547</ele><time>2024-02-10T14:19:06Z</time><name>PT4007</name></trkpt>
<trkpt lat="53.371708" lon="-1.885290"><ele>547</ele><time>2024-02-10T14:19:10Z</time><name>PT4008</name></trkpt>
<trkpt lat="53.371683" lon="-1.885295"><ele>547</ele><time>2024-02-10T14:19:13Z</time><name>PT4009</name></trkpt>
<trkpt lat="53.371669" lon="-1.885308"><ele>547</ele><time>2024-02-10T14:19:16Z</time><name>PT4010</name></trkpt>
<trkpt lat="53.371657" lon="-1.885316"><ele>547</ele><time>2024-02-10T14:19:20Z</time><name>PT4011</name></trkpt>
<trkpt lat="53.371644" lon="-1.885319"><ele>547</ele><time>2024-02-10T14:19:24Z</time><name>PT4012</name></trkpt>
<trkpt lat="53.371644" lon="-1.885321"><ele>546</ele><time>2024-02-10T14:19:27Z</time><name>PT4013</name></trkpt>
<trkpt lat="53.371628" lon="-1.885324"><ele>546</ele><time>2024-02-10T14:19:31Z</time><name>PT4014</name></trkpt>
<trkpt lat="53.371610" lon="-1.885343"><ele>545</ele><time>2024-02-10T14:19:34Z</time><name>PT4015</name></trkpt>
<trkpt lat="53.371598" lon="-1.885363"><ele>545</ele><time>2024-02-10T14:19:37Z</time><name>PT4016</name></trkpt>
<trkpt lat="53.371594" lon="-1.885373"><ele>544</ele><time>2024-02-10T14:19:40Z</time><name>PT4017</name></trkpt>
<trkpt lat="53.371592" lon="-1.885378"><ele>544</ele><time>2024-02-10T14:19:44Z</time><name>PT4018</name></trkpt>
<trkpt lat="53.371594" lon="-1.885387"><ele>544</ele><time>2024-02-10T14:19:48Z</time><name>PT4019</name></trkpt>
<trkpt lat="53.371597" lon="-1.885401"><ele>544</ele><time>2024-02-10T14:19:58Z</time><name>PT4020</name></trkpt>
<trkpt lat="53.371596" lon="-1.885410"><ele>543</ele><time>2024-02-10T14:20:02Z</time><name>PT4021</name></trkpt>
<trkpt lat="53.371596" lon="-1.885417"><ele>543</ele><time>2024-02-10T14:20:06Z</time><name>PT4022</name></trkpt>
<trkpt lat="53.371601" lon="-1.885444"><ele>544</ele><time>2024-02-10T14:20:24Z</time><name>PT4023</name></trkpt>
<trkpt lat="53.371617" lon="-1.885503"><ele>544</ele><time>2024-02-10T14:20:27Z</time><name>PT4024</name></trkpt>
<trkpt lat="53.371634" lon="-1.885570"><ele>543</ele><time>2024-02-10T14:20:31Z</time><name>PT4025</name></trkpt>
<trkpt lat="53.371645" lon="-1.885645"><ele>542</ele><time>2024-02-10T14:20:35Z</time><name>PT4026</name></trkpt>
<trkpt lat="53.371647" lon="-1.885723"><ele>541</ele><time>2024-02-10T14:20:39Z</time><name>PT4027</name></trkpt>
<trkpt lat="53.371651" lon="-1.885769"><ele>541</ele><time>2024-02-10T14:20:43Z</time><name>PT4028</name></trkpt>
<trkpt lat="53.371654" lon="-1.885825"><ele>540</ele><time>2024-02-10T14:20:47Z</time><name>PT4029</name></trkpt>
<trkpt lat="53.371663" lon="-1.885898"><ele>540</ele><time>2024-02-10T14:20:51Z</time><name>PT4030</name></trkpt>
<trkpt lat="53.371678" lon="-1.885967"><ele>540</ele><time>2024-02-10T14:20:55Z</time><name>PT4031</name></trkpt>
<trkpt lat="53.371695" lon="-1.886040"><ele>538</ele><time>2024-02-10T14:20:59Z</time><name>PT4032</name></trkpt>
<trkpt lat="53.371698" lon="-1.886096"><ele>538</ele><time>2024-02-10T14:21:02Z</time><name>PT4033</name></trkpt>
<trkpt lat="53.371699" lon="-1.886160"><ele>537</ele><time>2024-02-10T14:21:05Z</time><name>PT4034</name></trkpt>
<trkpt lat="53.371706" lon="-1.886243"><ele>537</ele><time>2024-02-10T14:21:09Z</time><name>PT4035</name></trkpt>
<trkpt lat="53.371714" lon="-1.886305"><ele>536</ele><time>2024-02-10T14:21:12Z</time><name>PT4036</name></trkpt>
<trkpt lat="53.371728" lon="-1.886383"><ele>535</ele><time>2024-02-10T14:21:16Z</time><name>PT4037</name></trkpt>
<trkpt lat="53.371739" lon="-1.886468"><ele>535</ele><time>2024-02-10T14:21:20Z</time><name>PT4038</name></trkpt>
<trkpt lat="53.371754" lon="-1.886531"><ele>535</ele><time>2024-02-10T14:21:23Z</time><name>PT4039</name></trkpt>
<trkpt lat="53.371765" lon="-1.886620"><ele>535</ele><time>2024-02-10T14:21:27Z</time><name>PT4040</name></trkpt>
<trkpt lat="53.371774" lon="-1.886703"><ele>534</ele><time>2024-02-10T14:21:31Z</time><name>PT4041</name></trkpt>
<trkpt lat="53.371772" lon="-1.886761"><ele>534</ele><time>2024-02-10T14:21:34Z</time><name>PT4042</name></trkpt>
<trkpt lat="53.371779" lon="-1.886846"><ele>533</ele><time>2024-02-10T14:21:38Z</time><name>PT4043</name></trkpt>
<trkpt lat="53.371785" lon="-1.886900"><ele>533</ele><time>2024-02-10T14:21:41Z</time><name>PT4044</name></trkpt>
<trkpt lat="53.371788" lon="-1.886964"><ele>532</ele><time>2024-02-10T14:21:45Z</time><name>PT4045</name></trkpt>
<trkpt lat="53.371797" lon="-1.887041"><ele>532</ele><time>2024-02-10T14:21:49Z</time><name>PT4046</name></trkpt>
<trkpt lat="53.371813" lon="-1.887104"><ele>531</ele><time>2024-02-10T14:21:53Z</time><name>PT4047</name></trkpt>
<trkpt lat="53.371833" lon="-1.887162"><ele>530</ele><time>2024-02-10T14:21:57Z</time><name>PT4048</name></trkpt>
<trkpt lat="53.371854" lon="-1.887232"><ele>529</ele><time>2024-02-10T14:22:01Z</time><name>PT4049</name></trkpt>
<trkpt lat="53.371875" lon="-1.887303"><ele>529</ele><time>2024-02-10T14:22:05Z</time><name>PT4050</name></trkpt>
<trkpt lat="53.371902" lon="-1.887368"><ele>527</ele><time>2024-02-10T14:22:09Z</time><name>PT4051</name></trkpt>
<trkpt lat="53.371926" lon="-1.887431"><ele>526</ele><time>2024-02-10T14:22:13Z</time><name>PT4052</name></trkpt>
<trkpt lat="53.371940" lon="-1.887477"><ele>526</ele><time>2024-02-10T14:22:16Z</time><name>PT4053</name></trkpt>
<trkpt lat="53.371963" lon="-1.887533"><ele>525</ele><time>2024-02-10T14:22:20Z</time><name>PT4054</name></trkpt>
<trkpt lat="53.371994" lon="-1.887594"><ele>524</ele><time>2024-02-10T14:22:24Z</time><name>PT4055</name></trkpt>
<trkpt lat="53.372006" lon="-1.887637"><ele>524</ele><time>2024-02-10T14:22:27Z</time><name>PT4056</name></trkpt>
<trkpt lat="53.372019" lon="-1.887692"><ele>522</ele><time>2024-02-10T14:22:30Z</time><name>PT4057</name></trkpt>
<trkpt lat="53.372041" lon="-1.887753"><ele>522</ele><time>2024-02-10T14:22:34Z</time><name>PT4058</name></trkpt>
<trkpt lat="53.372063" lon="-1.887798"><ele>521</ele><time>2024-02-10T14:22:37Z</time><name>PT4059</name></trkpt>
<trkpt lat="53.372082" lon="-1.887865"><ele>521</ele><time>2024-02-10T14:22:41Z</time><name>PT4060</name></trkpt>
<trkpt lat="53.372101" lon="-1.887921"><ele>520</ele><time>2024-02-10T14:22:44Z</time><name>PT4061</name></trkpt>
<trkpt lat="53.372128" lon="-1.887981"><ele>519</ele><time>2024-02-10T14:22:48Z</time><name>PT4062</name></trkpt>
<trkpt lat="53.372157" lon="-1.888031"><ele>518</ele><time>2024-02-10T14:22:52Z</time><name>PT4063</name></trkpt>
<trkpt lat="53.372181" lon="-1.888085"><ele>518</ele><time>2024-02-10T14:22:56Z</time><name>PT4064</name></trkpt>
<trkpt lat="53.372198" lon="-1.888128"><ele>517</ele><time>2024-02-10T14:22:59Z</time><name>PT4065</name></trkpt>
<trkpt lat="53.372219" lon="-1.888159"><ele>517</ele><time>2024-02-10T14:23:02Z</time><name>PT4066</name></trkpt>
<trkpt lat="53.372245" lon="-1.888188"><ele>515</ele><time>2024-02-10T14:23:06Z</time><name>PT4067</name></trkpt>
<trkpt lat="53.372262" lon="-1.888222"><ele>515</ele><time>2024-02-10T14:23:09Z</time><name>PT4068</name></trkpt>
<trkpt lat="53.372303" lon="-1.888249"><ele>514</ele><time>2024-02-10T14:23:13Z</time><name>PT4069</name></trkpt>
<trkpt lat="53.372346" lon="-1.888283"><ele>514</ele><time>2024-02-10T14:23:17Z</time><name>PT4070</name></trkpt>
<trkpt lat="53.372374" lon="-1.888342"><ele>513</ele><time>2024-02-10T14:23:21Z</time><name>PT4071</name></trkpt>
<trkpt lat="53.372372" lon="-1.888414"><ele>512</ele><time>2024-02-10T14:23:25Z</time><name>PT4072</name></trkpt>
<trkpt lat="53.372372" lon="-1.888464"><ele>512</ele><time>2024-02-10T14:23:28Z</time><name>PT4073</name></trkpt>
<trkpt lat="53.372376" lon="-1.888546"><ele>511</ele><time>2024-02-10T14:23:32Z</time><name>PT4074</name></trkpt>
<trkpt lat="53.372377" lon="-1.888614"><ele>511</ele><time>2024-02-10T14:23:35Z</time><name>PT4075</name></trkpt>
<trkpt lat="53.372384" lon="-1.888676"><ele>511</ele><time>2024-02-10T14:23:38Z</time><name>PT4076</name></trkpt>
<trkpt lat="53.372398" lon="-1.888737"><ele>511</ele><time>2024-02-10T14:23:41Z</time><name>PT4077</name></trkpt>
<trkpt lat="53.372419" lon="-1.888810"><ele>511</ele><time>2024-02-10T14:23:45Z</time><name>PT4078</name></trkpt>
<trkpt lat="53.372434" lon="-1.888876"><ele>511</ele><time>2024-02-10T14:23:48Z</time><name>PT4079</name></trkpt>
<trkpt lat="53.372448" lon="-1.888947"><ele>511</ele><time>2024-02-10T14:23:52Z</time><name>PT4080</name></trkpt>
<trkpt lat="53.372456" lon="-1.889001"><ele>511</ele><time>2024-02-10T14:23:55Z</time><name>PT4081</name></trkpt>
<trkpt lat="53.372462" lon="-1.889090"><ele>512</ele><time>2024-02-10T14:23:59Z</time><name>PT4082</name></trkpt>
<trkpt lat="53.372471" lon="-1.889152"><ele>512</ele><time>2024-02-10T14:24:02Z</time><name>PT4083</name></trkpt>
<trkpt lat="53.372477" lon="-1.889211"><ele>511</ele><time>2024-02-10T14:24:05Z</time><name>PT4084</name></trkpt>
<trkpt lat="53.372491" lon="-1.889296"><ele>512</ele><time>2024-02-10T14:24:09Z</time><name>PT4085</name></trkpt>
<trkpt lat="53.372501" lon="-1.889351"><ele>511</ele><time>2024-02-10T14:24:12Z</time><name>PT4086</name></trkpt>
<trkpt lat="53.372509" lon="-1.889439"><ele>511</ele><time>2024-02-10T14:24:16Z</time><name>PT4087</name></trkpt>
<trkpt lat="53.372512" lon="-1.889500"><ele>512</ele><time>2024-02-10T14:24:20Z</time><name>PT4088</name></trkpt>
<trkpt lat="53.372511" lon="-1.889572"><ele>511</ele><time>2024-02-10T14:24:24Z</time><name>PT4089</name></trkpt>
<trkpt lat="53.372521" lon="-1.889626"><ele>511</ele><time>2024-02-10T14:24:28Z</time><name>PT4090</name></trkpt>
<trkpt lat="53.372526" lon="-1.889670"><ele>510</ele><time>2024-02-10T14:24:31Z</time><name>PT4091</name></trkpt>
<trkpt lat="53.372537" lon="-1.889738"><ele>510</ele><time>2024-02-10T14:24:35Z</time><name>PT4092</name></trkpt>
<trkpt lat="53.372544" lon="-1.889787"><ele>510</ele><time>2024-02-10T14:24:38Z</time><name>PT4093</name></trkpt>
<trkpt lat="53.372554" lon="-1.889824"><ele>509</ele><time>2024-02-10T14:24:41Z</time><name>PT4094</name></trkpt>
<trkpt lat="53.372560" lon="-1.889863"><ele>509</ele><time>2024-02-10T14:24:44Z</time><name>PT4095</name></trkpt>
<trkpt lat="53.372569" lon="-1.889922"><ele>507</ele><time>2024-02-10T14:24:48Z</time><name>PT4096</name></trkpt>
<trkpt lat="53.372566" lon="-1.889967"><ele>506</ele><time>2024-02-10T14:24:51Z</time><name>PT4097</name></trkpt>
<trkpt lat="53.372564" lon="-1.890036"><ele>506</ele><time>2024-02-10T14:24:55Z</time><name>PT4098</name></trkpt>
<trkpt lat="53.372564" lon="-1.890079"><ele>505</ele><time>2024-02-10T14:24:58Z</time><name>PT4099</name></trkpt>
<trkpt lat="53.372568" lon="-1.890140"><ele>504</ele><time>2024-02-10T14:25:02Z</time><name>PT4100</name></trkpt>
<trkpt lat="53.372578" lon="-1.890203"><ele>503</ele><time>2024-02-10T14:25:06Z</time><name>PT4101</name></trkpt>
<trkpt lat="53.372593" lon="-1.890243"><ele>502</ele><time>2024-02-10T14:25:09Z</time><name>PT4102</name></trkpt>
<trkpt lat="53.372612" lon="-1.890290"><ele>501</ele><time>2024-02-10T14:25:13Z</time><name>PT4103</name></trkpt>
<trkpt lat="53.372623" lon="-1.890323"><ele>501</ele><time>2024-02-10T14:25:16Z</time><name>PT4104</name></trkpt>
<trkpt lat="53.372634" lon="-1.890386"><ele>500</ele><time>2024-02-10T14:25:20Z</time><name>PT4105</name></trkpt>
<trkpt lat="53.372647" lon="-1.890431"><ele>498</ele><time>2024-02-10T14:25:24Z</time><name>PT4106</name></trkpt>
<trkpt lat="53.372668" lon="-1.890471"><ele>497</ele><time>2024-02-10T14:25:28Z</time><name>PT4107</name></trkpt>
<trkpt lat="53.372690" lon="-1.890520"><ele>495</ele><time>2024-02-10T14:25:32Z</time><name>PT4108</name></trkpt>
<trkpt lat="53.372701" lon="-1.890555"><ele>494</ele><time>2024-02-10T14:25:35Z</time><name>PT4109</name></trkpt>
<trkpt lat="53.372727" lon="-1.890616"><ele>493</ele><time>2024-02-10T14:25:39Z</time><name>PT4110</name></trkpt>
<trkpt lat="53.372760" lon="-1.890668"><ele>492</ele><time>2024-02-10T14:25:43Z</time><name>PT4111</name></trkpt>
<trkpt lat="53.372783" lon="-1.890714"><ele>491</ele><time>2024-02-10T14:25:46Z</time><name>PT4112</name></trkpt>
<trkpt lat="53.372804" lon="-1.890768"><ele>490</ele><time>2024-02-10T14:25:50Z</time><name>PT4113</name></trkpt>
<trkpt lat="53.372817" lon="-1.890807"><ele>490</ele><time>2024-02-10T14:25:53Z</time><name>PT4114</name></trkpt>
<trkpt lat="53.372823" lon="-1.890877"><ele>489</ele><time>2024-02-10T14:25:57Z</time><name>PT4115</name></trkpt>
<trkpt lat="53.372830" lon="-1.890930"><ele>489</ele><time>2024-02-10T14:26:00Z</time><name>PT4116</name></trkpt>
<trkpt lat="53.372842" lon="-1.890984"><ele>487</ele><time>2024-02-10T14:26:03Z</time><name>PT4117</name></trkpt>
<trkpt lat="53.372852" lon="-1.891037"><ele>486</ele><time>2024-02-10T14:26:06Z</time><name>PT4118</name></trkpt>
<trkpt lat="53.372864" lon="-1.891081"><ele>486</ele><time>2024-02-10T14:26:09Z</time><name>PT4119</name></trkpt>
<trkpt lat="53.372878" lon="-1.891127"><ele>485</ele><time>2024-02-10T14:26:12Z</time><name>PT4120</name></trkpt>
<trkpt lat="53.372882" lon="-1.891185"><ele>484</ele><time>2024-02-10T14:26:16Z</time><name>PT4121</name></trkpt>
<trkpt lat="53.372893" lon="-1.891253"><ele>483</ele><time>2024-02-10T14:26:20Z</time><name>PT4122</name></trkpt>
<trkpt lat="53.372915" lon="-1.891316"><ele>482</ele><time>2024-02-10T14:26:24Z</time><name>PT4123</name></trkpt>
<trkpt lat="53.372939" lon="-1.891375"><ele>482</ele><time>2024-02-10T14:26:28Z</time><name>PT4124</name></trkpt>
<trkpt lat="53.372950" lon="-1.891444"><ele>482</ele><time>2024-02-10T14:26:32Z</time><name>PT4125</name></trkpt>
<trkpt lat="53.372961" lon="-1.891488"><ele>481</ele><time>2024-02-10T14:26:35Z</time><name>PT4126</name></trkpt>
<trkpt lat="53.372970" lon="-1.891540"><ele>481</ele><time>2024-02-10T14:26:38Z</time><name>PT4127</name></trkpt>
<trkpt lat="53.372969" lon="-1.891596"><ele>479</ele><time>2024-02-10T14:26:42Z</time><name>PT4128</name></trkpt>
<trkpt lat="53.372972" lon="-1.891665"><ele>478</ele><time>2024-02-10T14:26:46Z</time><name>PT4129</name></trkpt>
<trkpt lat="53.372972" lon="-1.891710"><ele>478</ele><time>2024-02-10T14:26:49Z</time><name>PT4130</name></trkpt>
<trkpt lat="53.372980" lon="-1.891780"><ele>478</ele><time>2024-02-10T14:26:53Z</time><name>PT4131</name></trkpt>
<trkpt lat="53.372989" lon="-1.891842"><ele>478</ele><time>2024-02-10T14:26:57Z</time><name>PT4132</name></trkpt>
<trkpt lat="53.372992" lon="-1.891903"><ele>476</ele><time>2024-02-10T14:27:01Z</time><name>PT4133</name></trkpt>
<trkpt lat="53.372991" lon="-1.891937"><ele>476</ele><time>2024-02-10T14:27:04Z</time><name>PT4134</name></trkpt>
<trkpt lat="53.372987" lon="-1.891980"><ele>476</ele><time>2024-02-10T14:27:07Z</time><name>PT4135</name></trkpt>
<trkpt lat="53.372989" lon="-1.892041"><ele>475</ele><time>2024-02-10T14:27:11Z</time><name>PT4136</name></trkpt>
<trkpt lat="53.372984" lon="-1.892066"><ele>474</ele><time>2024-02-10T14:27:14Z</time><name>PT4137</name></trkpt>
<trkpt lat="53.372974" lon="-1.892112"><ele>473</ele><time>2024-02-10T14:27:18Z</time><name>PT4138</name></trkpt>
<trkpt lat="53.372971" lon="-1.892158"><ele>472</ele><time>2024-02-10T14:27:22Z</time><name>PT4139</name></trkpt>
<trkpt lat="53.372972" lon="-1.892211"><ele>471</ele><time>2024-02-10T14:27:26Z</time><name>PT4140</name></trkpt>
<trkpt lat="53.372990" lon="-1.892265"><ele>472</ele><time>2024-02-10T14:27:30Z</time><name>PT4141</name></trkpt>
<trkpt lat="53.372999" lon="-1.892290"><ele>471</ele><time>2024-02-10T14:27:33Z</time><name>PT4142</name></trkpt>
<trkpt lat="53.372988" lon="-1.892348"><ele>472</ele><time>2024-02-10T14:27:37Z</time><name>PT4143</name></trkpt>
<trkpt lat="53.372974" lon="-1.892382"><ele>472</ele><time>2024-02-10T14:27:40Z</time><name>PT4144</name></trkpt>
<trkpt lat="53.372961" lon="-1.892431"><ele>471</ele><time>2024-02-10T14:27:44Z</time><name>PT4145</name></trkpt>
<trkpt lat="53.372950" lon="-1.892479"><ele>471</ele><time>2024-02-10T14:27:47Z</time><name>PT4146</name></trkpt>
<trkpt lat="53.372926" lon="-1.892546"><ele>471</ele><time>2024-02-10T14:27:51Z</time><name>PT4147</name></trkpt>
<trkpt lat="53.372910" lon="-1.892590"><ele>472</ele><time>2024-02-10T14:27:54Z</time><name>PT4148</name></trkpt>
<trkpt lat="53.372895" lon="-1.892633"><ele>471</ele><time>2024-02-10T14:27:57Z</time><name>PT4149</name></trkpt>
<trkpt lat="53.372873" lon="-1.892702"><ele>471</ele><time>2024-02-10T14:28:01Z</time><name>PT4150</name></trkpt>
<trkpt lat="53.372861" lon="-1.892751"><ele>471</ele><time>2024-02-10T14:28:04Z</time><name>PT4151</name></trkpt>
<trkpt lat="53.372844" lon="-1.892800"><ele>472</ele><time>2024-02-10T14:28:07Z</time><name>PT4152</name></trkpt>
<trkpt lat="53.372823" lon="-1.892840"><ele>472</ele><time>2024-02-10T14:28:10Z</time><name>PT4153</name></trkpt>
<trkpt lat="53.372803" lon="-1.892869"><ele>472</ele><time>2024-02-10T14:28:13Z</time><name>PT4154</name></trkpt>
<trkpt lat="53.372799" lon="-1.892876"><ele>472</ele><time>2024-02-10T14:28:17Z</time><name>PT4155</name></trkpt>
<trkpt lat="53.372797" lon="-1.892901"><ele>472</ele><time>2024-02-10T14:28:21Z</time><name>PT4156</name></trkpt>
<trkpt lat="53.372786" lon="-1.892949"><ele>471</ele><time>2024-02-10T14:28:25Z</time><name>PT4157</name></trkpt>
<trkpt lat="53.372775" lon="-1.892977"><ele>471</ele><time>2024-02-10T14:28:28Z</time><name>PT4158</name></trkpt>
<trkpt lat="53.372765" lon="-1.893030"><ele>469</ele><time>2024-02-10T14:28:32Z</time><name>PT4159</name></trkpt>
<trkpt lat="53.372765" lon="-1.893069"><ele>469</ele><time>2024-02-10T14:28:36Z</time><name>PT4160</name></trkpt>
<trkpt lat="53.372762" lon="-1.893106"><ele>468</ele><time>2024-02-10T14:28:40Z</time><name>PT4161</name></trkpt>
<trkpt lat="53.372760" lon="-1.893126"><ele>468</ele><time>2024-02-10T14:28:43Z</time><name>PT4162</name></trkpt>
<trkpt lat="53.372759" lon="-1.893153"><ele>466</ele><time>2024-02-10T14:28:47Z</time><name>PT4163</name></trkpt>
<trkpt lat="53.372756" lon="-1.893190"><ele>466</ele><time>2024-02-10T14:28:50Z</time><name>PT4164</name></trkpt>
<trkpt lat="53.372754" lon="-1.893229"><ele>465</ele><time>2024-02-10T14:28:53Z</time><name>PT4165</name></trkpt>
<trkpt lat="53.372745" lon="-1.893268"><ele>465</ele><time>2024-02-10T14:28:56Z</time><name>PT4166</name></trkpt>
<trkpt lat="53.372728" lon="-1.893329"><ele>464</ele><time>2024-02-10T14:29:00Z</time><name>PT4167</name></trkpt>
<trkpt lat="53.372718" lon="-1.893399"><ele>464</ele><time>2024-02-10T14:29:04Z</time><name>PT4168</name></trkpt>
<trkpt lat="53.372714" lon="-1.893446"><ele>463</ele><time>2024-02-10T14:29:07Z</time><name>PT4169</name></trkpt>
<trkpt lat="53.372712" lon="-1.893490"><ele>463</ele><time>2024-02-10T14:29:10Z</time><name>PT4170</name></trkpt>
<trkpt lat="53.372711" lon="-1.893544"><ele>463</ele><time>2024-02-10T14:29:14Z</time><name>PT4171</name></trkpt>
<trkpt lat="53.372706" lon="-1.893593"><ele>463</ele><time>2024-02-10T14:29:17Z</time><name>PT4172</name></trkpt>
<trkpt lat="53.372702" lon="-1.893642"><ele>463</ele><time>2024-02-10T14:29:20Z</time><name>PT4173</name></trkpt>
<trkpt lat="53.372695" lon="-1.893725"><ele>463</ele><time>2024-02-10T14:29:24Z</time><name>PT4174</name></trkpt>
<trkpt lat="53.372684" lon="-1.893785"><ele>463</ele><time>2024-02-10T14:29:27Z</time><name>PT4175</name></trkpt>
<trkpt lat="53.372678" lon="-1.893851"><ele>463</ele><time>2024-02-10T14:29:31Z</time><name>PT4176</name></trkpt>
<trkpt lat="53.372671" lon="-1.893909"><ele>462</ele><time>2024-02-10T14:29:35Z</time><name>PT4177</name></trkpt>
<trkpt lat="53.372668" lon="-1.893948"><ele>461</ele><time>2024-02-10T14:29:38Z</time><name>PT4178</name></trkpt>
<trkpt lat="53.372659" lon="-1.893986"><ele>460</ele><time>2024-02-10T14:29:41Z</time><name>PT4179</name></trkpt>
<trkpt lat="53.372652" lon="-1.894018"><ele>460</ele><time>2024-02-10T14:29:44Z</time><name>PT4180</name></trkpt>
<trkpt lat="53.372645" lon="-1.894053"><ele>459</ele><time>2024-02-10T14:29:47Z</time><name>PT4181</name></trkpt>
<trkpt lat="53.372633" lon="-1.894099"><ele>458</ele><time>2024-02-10T14:29:51Z</time><name>PT4182</name></trkpt>
<trkpt lat="53.372633" lon="-1.894141"><ele>458</ele><time>2024-02-10T14:29:54Z</time><name>PT4183</name></trkpt>
<trkpt lat="53.372626" lon="-1.894193"><ele>457</ele><time>2024-02-10T14:29:58Z</time><name>PT4184</name></trkpt>
<trkpt lat="53.372620" lon="-1.894238"><ele>456</ele><time>2024-02-10T14:30:02Z</time><name>PT4185</name></trkpt>
<trkpt lat="53.372612" lon="-1.894282"><ele>455</ele><time>2024-02-10T14:30:05Z</time><name>PT4186</name></trkpt>
<trkpt lat="53.372606" lon="-1.894329"><ele>455</ele><time>2024-02-10T14:30:08Z</time><name>PT4187</name></trkpt>
<trkpt lat="53.372602" lon="-1.894372"><ele>454</ele><time>2024-02-10T14:30:11Z</time><name>PT4188</name></trkpt>
<trkpt lat="53.372597" lon="-1.894431"><ele>453</ele><time>2024-02-10T14:30:15Z</time><name>PT4189</name></trkpt>
<trkpt lat="53.372584" lon="-1.894495"><ele>453</ele><time>2024-02-10T14:30:19Z</time><name>PT4190</name></trkpt>
<trkpt lat="53.372573" lon="-1.894540"><ele>453</ele><time>2024-02-10T14:30:22Z</time><name>PT4191</name></trkpt>
<trkpt lat="53.372565" lon="-1.894586"><ele>453</ele><time>2024-02-10T14:30:25Z</time><name>PT4192</name></trkpt>
<trkpt lat="53.372546" lon="-1.894661"><ele>453</ele><time>2024-02-10T14:30:29Z</time><name>PT4193</name></trkpt>
<trkpt lat="53.372526" lon="-1.894727"><ele>453</ele><time>2024-02-10T14:30:33Z</time><name>PT4194</name></trkpt>
<trkpt lat="53.372506" lon="-1.894799"><ele>451</ele><time>2024-02-10T14:30:37Z</time><name>PT4195</name></trkpt>
<trkpt lat="53.372497" lon="-1.894850"><ele>451</ele><time>2024-02-10T14:30:40Z</time><name>PT4196</name></trkpt>
<trkpt lat="53.372474" lon="-1.894920"><ele>450</ele><time>2024-02-10T14:30:44Z</time><name>PT4197</name></trkpt>
<trkpt lat="53.372457" lon="-1.894974"><ele>449</ele><time>2024-02-10T14:30:47Z</time><name>PT4198</name></trkpt>
<trkpt lat="53.372442" lon="-1.895031"><ele>448</ele><time>2024-02-10T14:30:50Z</time><name>PT4199</name></trkpt>
<trkpt lat="53.372427" lon="-1.895109"><ele>448</ele><time>2024-02-10T14:30:54Z</time><name>PT4200</name></trkpt>
<trkpt lat="53.372411" lon="-1.895186"><ele>448</ele><time>2024-02-10T14:30:58Z</time><name>PT4201</name></trkpt>
<trkpt lat="53.372395" lon="-1.895259"><ele>447</ele><time>2024-02-10T14:31:02Z</time><name>PT4202</name></trkpt>
<trkpt lat="53.372376" lon="-1.895335"><ele>447</ele><time>2024-02-10T14:31:06Z</time><name>PT4203</name></trkpt>
<trkpt lat="53.372351" lon="-1.895410"><ele>447</ele><time>2024-02-10T14:31:10Z</time><name>PT4204</name></trkpt>
<trkpt lat="53.372334" lon="-1.895491"><ele>447</ele><time>2024-02-10T14:31:14Z</time><name>PT4205</name></trkpt>
<trkpt lat="53.372314" lon="-1.895564"><ele>447</ele><time>2024-02-10T14:31:18Z</time><name>PT4206</name></trkpt>
<trkpt lat="53.372288" lon="-1.895631"><ele>447</ele><time>2024-02-10T14:31:22Z</time><name>PT4207</name></trkpt>
<trkpt lat="53.372267" lon="-1.895687"><ele>447</ele><time>2024-02-10T14:31:26Z</time><name>PT4208</name></trkpt>
<trkpt lat="53.372242" lon="-1.895742"><ele>446</ele><time>2024-02-10T14:31:30Z</time><name>PT4209</name></trkpt>
<trkpt lat="53.372217" lon="-1.895807"><ele>446</ele><time>2024-02-10T14:31:34Z</time><name>PT4210</name></trkpt>
<trkpt lat="53.372198" lon="-1.895862"><ele>445</ele><time>2024-02-10T14:31:38Z</time><name>PT4211</name></trkpt>
<trkpt lat="53.372183" lon="-1.895914"><ele>445</ele><time>2024-02-10T14:31:41Z</time><name>PT4212</name></trkpt>
<trkpt lat="53.372164" lon="-1.895964"><ele>444</ele><time>2024-02-10T14:31:44Z</time><name>PT4213</name></trkpt>
<trkpt lat="53.372144" lon="-1.896031"><ele>444</ele><time>2024-02-10T14:31:48Z</time><name>PT4214</name></trkpt>
<trkpt lat="53.372127" lon="-1.896085"><ele>443</ele><time>2024-02-10T14:31:51Z</time><name>PT4215</name></trkpt>
<trkpt lat="53.372099" lon="-1.896159"><ele>443</ele><time>2024-02-10T14:31:55Z</time><name>PT4216</name></trkpt>
<trkpt lat="53.372077" lon="-1.896223"><ele>442</ele><time>2024-02-10T14:31:59Z</time><name>PT4217</name></trkpt>
<trkpt lat="53.372059" lon="-1.896271"><ele>442</ele><time>2024-02-10T14:32:02Z</time><name>PT4218</name></trkpt>
<trkpt lat="53.372040" lon="-1.896320"><ele>442</ele><time>2024-02-10T14:32:05Z</time><name>PT4219</name></trkpt>
<trkpt lat="53.372015" lon="-1.896383"><ele>441</ele><time>2024-02-10T14:32:09Z</time><name>PT4220</name></trkpt>
<trkpt lat="53.371990" lon="-1.896451"><ele>441</ele><time>2024-02-10T14:32:13Z</time><name>PT4221</name></trkpt>
<trkpt lat="53.371972" lon="-1.896496"><ele>441</ele><time>2024-02-10T14:32:16Z</time><name>PT4222</name></trkpt>
<trkpt lat="53.371955" lon="-1.896550"><ele>440</ele><time>2024-02-10T14:32:19Z</time><name>PT4223</name></trkpt>
<trkpt lat="53.371936" lon="-1.896604"><ele>440</ele><time>2024-02-10T14:32:22Z</time><name>PT4224</name></trkpt>
<trkpt lat="53.371909" lon="-1.896673"><ele>440</ele><time>2024-02-10T14:32:26Z</time><name>PT4225</name></trkpt>
<trkpt lat="53.371897" lon="-1.896720"><ele>440</ele><time>2024-02-10T14:32:29Z</time><name>PT4226</name></trkpt>
<trkpt lat="53.371877" lon="-1.896794"><ele>439</ele><time>2024-02-10T14:32:33Z</time><name>PT4227</name></trkpt>
<trkpt lat="53.371859" lon="-1.896844"><ele>439</ele><time>2024-02-10T14:32:36Z</time><name>PT4228</name></trkpt>
<trkpt lat="53.371841" lon="-1.896919"><ele>439</ele><time>2024-02-10T14:32:40Z</time><name>PT4229</name></trkpt>
<trkpt lat="53.371827" lon="-1.896977"><ele>439</ele><time>2024-02-10T14:32:43Z</time><name>PT4230</name></trkpt>
<trkpt lat="53.371803" lon="-1.897055"><ele>438</ele><time>2024-02-10T14:32:47Z</time><name>PT4231</name></trkpt>
<trkpt lat="53.371785" lon="-1.897127"><ele>437</ele><time>2024-02-10T14:32:51Z</time><name>PT4232</name></trkpt>
<trkpt lat="53.371762" lon="-1.897199"><ele>436</ele><time>2024-02-10T14:32:55Z</time><name>PT4233</name></trkpt>
<trkpt lat="53.371737" lon="-1.897266"><ele>436</ele><time>2024-02-10T14:32:59Z</time><name>PT4234</name></trkpt>
<trkpt lat="53.371718" lon="-1.897334"><ele>436</ele><time>2024-02-10T14:33:03Z</time><name>PT4235</name></trkpt>
<trkpt lat="53.371699" lon="-1.897388"><ele>436</ele><time>2024-02-10T14:33:06Z</time><name>PT4236</name></trkpt>
<trkpt lat="53.371681" lon="-1.897457"><ele>435</ele><time>2024-02-10T14:33:10Z</time><name>PT4237</name></trkpt>
<trkpt lat="53.371661" lon="-1.897525"><ele>434</ele><time>2024-02-10T14:33:14Z</time><name>PT4238</name></trkpt>
<trkpt lat="53.371639" lon="-1.897587"><ele>434</ele><time>2024-02-10T14:33:18Z</time><name>PT4239</name></trkpt>
<trkpt lat="53.371621" lon="-1.897652"><ele>434</ele><time>2024-02-10T14:33:22Z</time><name>PT4240</name></trkpt>
<trkpt lat="53.371605" lon="-1.897706"><ele>434</ele><time>2024-02-10T14:33:25Z</time><name>PT4241</name></trkpt>
<trkpt lat="53.371582" lon="-1.897761"><ele>434</ele><time>2024-02-10T14:33:29Z</time><name>PT4242</name></trkpt>
<trkpt lat="53.371564" lon="-1.897812"><ele>433</ele><time>2024-02-10T14:33:32Z</time><name>PT4243</name></trkpt>
<trkpt lat="53.371553" lon="-1.897878"><ele>433</ele><time>2024-02-10T14:33:36Z</time><name>PT4244</name></trkpt>
<trkpt lat="53.371526" lon="-1.897942"><ele>433</ele><time>2024-02-10T14:33:40Z</time><name>PT4245</name></trkpt>
<trkpt lat="53.371509" lon="-1.897987"><ele>432</ele><time>2024-02-10T14:33:43Z</time><name>PT4246</name></trkpt>
<trkpt lat="53.371499" lon="-1.898038"><ele>432</ele><time>2024-02-10T14:33:46Z</time><name>PT4247</name></trkpt>
<trkpt lat="53.371481" lon="-1.898103"><ele>432</ele><time>2024-02-10T14:33:50Z</time><name>PT4248</name></trkpt>
<trkpt lat="53.371467" lon="-1.898158"><ele>431</ele><time>2024-02-10T14:33:53Z</time><name>PT4249</name></trkpt>
<trkpt lat="53.371450" lon="-1.898226"><ele>431</ele><time>2024-02-10T14:33:57Z</time><name>PT4250</name></trkpt>
<trkpt lat="53.371434" lon="-1.898282"><ele>431</ele><time>2024-02-10T14:34:00Z</time><name>PT4251</name></trkpt>
<trkpt lat="53.371415" lon="-1.898357"><ele>430</ele><time>2024-02-10T14:34:04Z</time><name>PT4252</name></trkpt>
<trkpt lat="53.371409" lon="-1.898417"><ele>430</ele><time>2024-02-10T14:34:07Z</time><name>PT4253</name></trkpt>
<trkpt lat="53.371400" lon="-1.898472"><ele>429</ele><time>2024-02-10T14:34:10Z</time><name>PT4254</name></trkpt>
<trkpt lat="53.371393" lon="-1.898544"><ele>429</ele><time>2024-02-10T14:34:14Z</time><name>PT4255</name></trkpt>
<trkpt lat="53.371384" lon="-1.898604"><ele>428</ele><time>2024-02-10T14:34:17Z</time><name>PT4256</name></trkpt>
<trkpt lat="53.371378" lon="-1.898691"><ele>428</ele><time>2024-02-10T14:34:21Z</time><name>PT4257</name></trkpt>
<trkpt lat="53.371375" lon="-1.898767"><ele>428</ele><time>2024-02-10T14:34:25Z</time><name>PT4258</name></trkpt>
<trkpt lat="53.371365" lon="-1.898825"><ele>429</ele><time>2024-02-10T14:34:28Z</time><name>PT4259</name></trkpt>
<trkpt lat="53.371351" lon="-1.898900"><ele>429</ele><time>2024-02-10T14:34:32Z</time><name>PT4260</name></trkpt>
<trkpt lat="53.371339" lon="-1.898955"><ele>429</ele><time>2024-02-10T14:34:35Z</time><name>PT4261</name></trkpt>
<trkpt lat="53.371329" lon="-1.899027"><ele>429</ele><time>2024-02-10T14:34:39Z</time><name>PT4262</name></trkpt>
<trkpt lat="53.371320" lon="-1.899097"><ele>429</ele><time>2024-02-10T14:34:43Z</time><name>PT4263</name></trkpt>
<trkpt lat="53.371317" lon="-1.899140"><ele>427</ele><time>2024-02-10T14:34:46Z</time><name>PT4264</name></trkpt>
<trkpt lat="53.371304" lon="-1.899197"><ele>427</ele><time>2024-02-10T14:34:50Z</time><name>PT4265</name></trkpt>
<trkpt lat="53.371301" lon="-1.899235"><ele>426</ele><time>2024-02-10T14:34:53Z</time><name>PT4266</name></trkpt>
<trkpt lat="53.371303" lon="-1.899243"><ele>426</ele><time>2024-02-10T14:34:57Z</time><name>PT4267</name></trkpt>
<trkpt lat="53.371297" lon="-1.899260"><ele>426</ele><time>2024-02-10T14:35:00Z</time><name>PT4268</name></trkpt>
<trkpt lat="53.371294" lon="-1.899261"><ele>426</ele><time>2024-02-10T14:35:16Z</time><name>PT4269</name></trkpt>
<trkpt lat="53.371293" lon="-1.899279"><ele>427</ele><time>2024-02-10T14:35:20Z</time><name>PT4270</name></trkpt>
<trkpt lat="53.371287" lon="-1.899297"><ele>427</ele><time>2024-02-10T14:36:25Z</time><name>PT4271</name></trkpt>
<trkpt lat="53.371287" lon="-1.899297"><ele>427</ele><time>2024-02-10T14:36:29Z</time><name>PT4272</name></trkpt>
<trkpt lat="53.371292" lon="-1.899305"><ele>427</ele><time>2024-02-10T14:36:46Z</time><name>PT4273</name></trkpt>
<trkpt lat="53.371308" lon="-1.899325"><ele>424</ele><time>2024-02-10T14:36:49Z</time><name>PT4274</name></trkpt>
<trkpt lat="53.371306" lon="-1.899323"><ele>424</ele><time>2024-02-10T14:36:53Z</time><name>PT4275</name></trkpt>
<trkpt lat="53.371303" lon="-1.899365"><ele>423</ele><time>2024-02-10T14:36:56Z</time><name>PT4276</name></trkpt>
<trkpt lat="53.371287" lon="-1.899439"><ele>423</ele><time>2024-02-10T14:37:00Z</time><name>PT4277</name></trkpt>
<trkpt lat="53.371286" lon="-1.899504"><ele>423</ele><time>2024-02-10T14:37:04Z</time><name>PT4278</name></trkpt>
<trkpt lat="53.371286" lon="-1.899553"><ele>422</ele><time>2024-02-10T14:37:07Z</time><name>PT4279</name></trkpt>
<trkpt lat="53.371283" lon="-1.899629"><ele>420</ele><time>2024-02-10T14:37:11Z</time><name>PT4280</name></trkpt>
<trkpt lat="53.371263" lon="-1.899737"><ele>421</ele><time>2024-02-10T14:37:15Z</time><name>PT4281</name></trkpt>
<trkpt lat="53.371255" lon="-1.899816"><ele>420</ele><time>2024-02-10T14:37:18Z</time><name>PT4282</name></trkpt>
<trkpt lat="53.371248" lon="-1.899902"><ele>420</ele><time>2024-02-10T14:37:22Z</time><name>PT4283</name></trkpt>
<trkpt lat="53.371248" lon="-1.899988"><ele>419</ele><time>2024-02-10T14:37:26Z</time><name>PT4284</name></trkpt>
<trkpt lat="53.371247" lon="-1.900060"><ele>418</ele><time>2024-02-10T14:37:29Z</time><name>PT4285</name></trkpt>
<trkpt lat="53.371246" lon="-1.900121"><ele>417</ele><time>2024-02-10T14:37:32Z</time><name>PT4286</name></trkpt>
<trkpt lat="53.371243" lon="-1.900205"><ele>417</ele><time>2024-02-10T14:37:36Z</time><name>PT4287</name></trkpt>
<trkpt lat="53.371249" lon="-1.900289"><ele>417</ele><time>2024-02-10T14:37:40Z</time><name>PT4288</name></trkpt>
<trkpt lat="53.371253" lon="-1.900371"><ele>416</ele><time>2024-02-10T14:37:44Z</time><name>PT4289</name></trkpt>
<trkpt lat="53.371258" lon="-1.900426"><ele>415</ele><time>2024-02-10T14:37:47Z</time><name>PT4290</name></trkpt>
<trkpt lat="53.371270" lon="-1.900512"><ele>415</ele><time>2024-02-10T14:37:51Z</time><name>PT4291</name></trkpt>
<trkpt lat="53.371281" lon="-1.900584"><ele>414</ele><time>2024-02-10T14:37:55Z</time><name>PT4292</name></trkpt>
<trkpt lat="53.371297" lon="-1.900648"><ele>414</ele><time>2024-02-10T14:37:59Z</time><name>PT4293</name></trkpt>
<trkpt lat="53.371315" lon="-1.900695"><ele>414</ele><time>2024-02-10T14:38:02Z</time><name>PT4294</name></trkpt>
<trkpt lat="53.371339" lon="-1.900760"><ele>414</ele><time>2024-02-10T14:38:06Z</time><name>PT4295</name></trkpt>
<trkpt lat="53.371359" lon="-1.900808"><ele>414</ele><time>2024-02-10T14:38:09Z</time><name>PT4296</name></trkpt>
<trkpt lat="53.371386" lon="-1.900882"><ele>413</ele><time>2024-02-10T14:38:13Z</time><name>PT4297</name></trkpt>
<trkpt lat="53.371407" lon="-1.900947"><ele>413</ele><time>2024-02-10T14:38:16Z</time><name>PT4298</name></trkpt>
<trkpt lat="53.371437" lon="-1.901033"><ele>414</ele><time>2024-02-10T14:38:20Z</time><name>PT4299</name></trkpt>
<trkpt lat="53.371459" lon="-1.901083"><ele>414</ele><time>2024-02-10T14:38:23Z</time><name>PT4300</name></trkpt>
<trkpt lat="53.371485" lon="-1.901166"><ele>413</ele><time>2024-02-10T14:38:27Z</time><name>PT4301</name></trkpt>
<trkpt lat="53.371513" lon="-1.901243"><ele>414</ele><time>2024-02-10T14:38:31Z</time><name>PT4302</name></trkpt>
<trkpt lat="53.371541" lon="-1.901298"><ele>412</ele><time>2024-02-10T14:38:35Z</time><name>PT4303</name></trkpt>
<trkpt lat="53.371566" lon="-1.901351"><ele>412</ele><time>2024-02-10T14:38:38Z</time><name>PT4304</name></trkpt>
<trkpt lat="53.371594" lon="-1.901422"><ele>412</ele><time>2024-02-10T14:38:42Z</time><name>PT4305</name></trkpt>
<trkpt lat="53.371618" lon="-1.901480"><ele>412</ele><time>2024-02-10T14:38:45Z</time><name>PT4306</name></trkpt>
<trkpt lat="53.371633" lon="-1.901562"><ele>412</ele><time>2024-02-10T14:38:49Z</time><name>PT4307</name></trkpt>
<trkpt lat="53.371645" lon="-1.901620"><ele>412</ele><time>2024-02-10T14:38:52Z</time><name>PT4308</name></trkpt>
<trkpt lat="53.371657" lon="-1.901689"><ele>412</ele><time>2024-02-10T14:38:55Z</time><name>PT4309</name></trkpt>
<trkpt lat="53.371668" lon="-1.901749"><ele>412</ele><time>2024-02-10T14:38:58Z</time><name>PT4310</name></trkpt>
<trkpt lat="53.371671" lon="-1.901813"><ele>412</ele><time>2024-02-10T14:39:01Z</time><name>PT4311</name></trkpt>
<trkpt lat="53.371676" lon="-1.901896"><ele>411</ele><time>2024-02-10T14:39:05Z</time><name>PT4312</name></trkpt>
<trkpt lat="53.371681" lon="-1.901986"><ele>410</ele><time>2024-02-10T14:39:09Z</time><name>PT4313</name></trkpt>
<trkpt lat="53.371685" lon="-1.902063"><ele>410</ele><time>2024-02-10T14:39:12Z</time><name>PT4314</name></trkpt>
<trkpt lat="53.371688" lon="-1.902152"><ele>410</ele><time>2024-02-10T14:39:16Z</time><name>PT4315</name></trkpt>
<trkpt lat="53.371694" lon="-1.902243"><ele>409</ele><time>2024-02-10T14:39:20Z</time><name>PT4316</name></trkpt>
<trkpt lat="53.371700" lon="-1.902304"><ele>408</ele><time>2024-02-10T14:39:23Z</time><name>PT4317</name></trkpt>
<trkpt lat="53.371696" lon="-1.902365"><ele>407</ele><time>2024-02-10T14:39:26Z</time><name>PT4318</name></trkpt>
<trkpt lat="53.371686" lon="-1.902425"><ele>406</ele><time>2024-02-10T14:39:30Z</time><name>PT4319</name></trkpt>
<trkpt lat="53.371683" lon="-1.902452"><ele>407</ele><time>2024-02-10T14:39:33Z</time><name>PT4320</name></trkpt>
<trkpt lat="53.371697" lon="-1.902517"><ele>406</ele><time>2024-02-10T14:39:37Z</time><name>PT4321</name></trkpt>
<trkpt lat="53.371694" lon="-1.902590"><ele>406</ele><time>2024-02-10T14:39:40Z</time><name>PT4322</name></trkpt>
<trkpt lat="53.371696" lon="-1.902677"><ele>404</ele><time>2024-02-10T14:39:44Z</time><name>PT4323</name></trkpt>
<trkpt lat="53.371699" lon="-1.902719"><ele>403</ele><time>2024-02-10T14:39:47Z</time><name>PT4324</name></trkpt>
<trkpt lat="53.371701" lon="-1.902771"><ele>402</ele><time>2024-02-10T14:39:50Z</time><name>PT4325</name></trkpt>
<trkpt lat="53.371699" lon="-1.902862"><ele>401</ele><time>2024-02-10T14:39:54Z</time><name>PT4326</name></trkpt>
<trkpt lat="53.371695" lon="-1.902936"><ele>401</ele><time>2024-02-10T14:39:57Z</time><name>PT4327</name></trkpt>
<trkpt lat="53.371687" lon="-1.903008"><ele>402</ele><time>2024-02-10T14:40:00Z</time><name>PT4328</name></trkpt>
<trkpt lat="53.371690" lon="-1.903084"><ele>401</ele><time>2024-02-10T14:40:04Z</time><name>PT4329</name></trkpt>
<trkpt lat="53.371697" lon="-1.903167"><ele>399</ele><time>2024-02-10T14:40:08Z</time><name>PT4330</name></trkpt>
<trkpt lat="53.371697" lon="-1.903232"><ele>399</ele><time>2024-02-10T14:40:11Z</time><name>PT4331</name></trkpt>
<trkpt lat="53.371690" lon="-1.903323"><ele>399</ele><time>2024-02-10T14:40:15Z</time><name>PT4332</name></trkpt>
<trkpt lat="53.371684" lon="-1.903401"><ele>398</ele><time>2024-02-10T14:40:18Z</time><name>PT4333</name></trkpt>
<trkpt lat="53.371685" lon="-1.903455"><ele>398</ele><time>2024-02-10T14:40:21Z</time><name>PT4334</name></trkpt>
<trkpt lat="53.371682" lon="-1.903516"><ele>397</ele><time>2024-02-10T14:40:24Z</time><name>PT4335</name></trkpt>
<trkpt lat="53.371678" lon="-1.903613"><ele>397</ele><time>2024-02-10T14:40:28Z</time><name>PT4336</name></trkpt>
<trkpt lat="53.371672" lon="-1.903699"><ele>397</ele><time>2024-02-10T14:40:32Z</time><name>PT4337</name></trkpt>
<trkpt lat="53.371661" lon="-1.903769"><ele>397</ele><time>2024-02-10T14:40:35Z</time><name>PT4338</name></trkpt>
<trkpt lat="53.371655" lon="-1.903839"><ele>396</ele><time>2024-02-10T14:40:39Z</time><name>PT4339</name></trkpt>
<trkpt lat="53.371647" lon="-1.903914"><ele>396</ele><time>2024-02-10T14:40:43Z</time><name>PT4340</name></trkpt>
<trkpt lat="53.371641" lon="-1.903963"><ele>395</ele><time>2024-02-10T14:40:46Z</time><name>PT4341</name></trkpt>
<trkpt lat="53.371636" lon="-1.904032"><ele>395</ele><time>2024-02-10T14:40:50Z</time><name>PT4342</name></trkpt>
<trkpt lat="53.371627" lon="-1.904080"><ele>393</ele><time>2024-02-10T14:40:53Z</time><name>PT4343</name></trkpt>
<trkpt lat="53.371617" lon="-1.904149"><ele>393</ele><time>2024-02-10T14:40:57Z</time><name>PT4344</name></trkpt>
<trkpt lat="53.371610" lon="-1.904209"><ele>392</ele><time>2024-02-10T14:41:00Z</time><name>PT4345</name></trkpt>
<trkpt lat="53.371603" lon="-1.904291"><ele>392</ele><time>2024-02-10T14:41:04Z</time><name>PT4346</name></trkpt>
<trkpt lat="53.371597" lon="-1.904345"><ele>391</ele><time>2024-02-10T14:41:07Z</time><name>PT4347</name></trkpt>
<trkpt lat="53.371589" lon="-1.904415"><ele>390</ele><time>2024-02-10T14:41:11Z</time><name>PT4348</name></trkpt>
<trkpt lat="53.371585" lon="-1.904473"><ele>389</ele><time>2024-02-10T14:41:14Z</time><name>PT4349</name></trkpt>
<trkpt lat="53.371576" lon="-1.904539"><ele>388</ele><time>2024-02-10T14:41:17Z</time><name>PT4350</name></trkpt>
<trkpt lat="53.371572" lon="-1.904588"><ele>388</ele><time>2024-02-10T14:41:20Z</time><name>PT4351</name></trkpt>
<trkpt lat="53.371562" lon="-1.904663"><ele>388</ele><time>2024-02-10T14:41:24Z</time><name>PT4352</name></trkpt>
<trkpt lat="53.371552" lon="-1.904727"><ele>388</ele><time>2024-02-10T14:41:27Z</time><name>PT4353</name></trkpt>
<trkpt lat="53.371538" lon="-1.904820"><ele>388</ele><time>2024-02-10T14:41:31Z</time><name>PT4354</name></trkpt>
<trkpt lat="53.371530" lon="-1.904881"><ele>386</ele><time>2024-02-10T14:41:35Z</time><name>PT4355</name></trkpt>
<trkpt lat="53.371527" lon="-1.904938"><ele>385</ele><time>2024-02-10T14:41:38Z</time><name>PT4356</name></trkpt>
<trkpt lat="53.371518" lon="-1.905014"><ele>383</ele><time>2024-02-10T14:41:42Z</time><name>PT4357</name></trkpt>
<trkpt lat="53.371513" lon="-1.905088"><ele>381</ele><time>2024-02-10T14:41:46Z</time><name>PT4358</name></trkpt>
<trkpt lat="53.371509" lon="-1.905166"><ele>380</ele><time>2024-02-10T14:41:50Z</time><name>PT4359</name></trkpt>
<trkpt lat="53.371508" lon="-1.905229"><ele>380</ele><time>2024-02-10T14:41:53Z</time><name>PT4360</name></trkpt>
<trkpt lat="53.371507" lon="-1.905292"><ele>379</ele><time>2024-02-10T14:41:56Z</time><name>PT4361</name></trkpt>
<trkpt lat="53.371504" lon="-1.905358"><ele>378</ele><time>2024-02-10T14:42:00Z</time><name>PT4362</name></trkpt>
<trkpt lat="53.371501" lon="-1.905407"><ele>378</ele><time>2024-02-10T14:42:03Z</time><name>PT4363</name></trkpt>
<trkpt lat="53.371495" lon="-1.905479"><ele>378</ele><time>2024-02-10T14:42:07Z</time><name>PT4364</name></trkpt>
<trkpt lat="53.371488" lon="-1.905538"><ele>377</ele><time>2024-02-10T14:42:10Z</time><name>PT4365</name></trkpt>
<trkpt lat="53.371481" lon="-1.905609"><ele>377</ele><time>2024-02-10T14:42:13Z</time><name>PT4366</name></trkpt>
<trkpt lat="53.371473" lon="-1.905697"><ele>376</ele><time>2024-02-10T14:42:17Z</time><name>PT4367</name></trkpt>
<trkpt lat="53.371463" lon="-1.905778"><ele>375</ele><time>2024-02-10T14:42:21Z</time><name>PT4368</name></trkpt>
<trkpt lat="53.371455" lon="-1.905843"><ele>374</ele><time>2024-02-10T14:42:25Z</time><name>PT4369</name></trkpt>
<trkpt lat="53.371451" lon="-1.905908"><ele>373</ele><time>2024-02-10T14:42:29Z</time><name>PT4370</name></trkpt>
<trkpt lat="53.371441" lon="-1.905994"><ele>373</ele><time>2024-02-10T14:42:33Z</time><name>PT4371</name></trkpt>
<trkpt lat="53.371435" lon="-1.906060"><ele>372</ele><time>2024-02-10T14:42:36Z</time><name>PT4372</name></trkpt>
<trkpt lat="53.371429" lon="-1.906123"><ele>371</ele><time>2024-02-10T14:42:39Z</time><name>PT4373</name></trkpt>
<trkpt lat="53.371424" lon="-1.906188"><ele>370</ele><time>2024-02-10T14:42:42Z</time><name>PT4374</name></trkpt>
<trkpt lat="53.371416" lon="-1.906265"><ele>369</ele><time>2024-02-10T14:42:46Z</time><name>PT4375</name></trkpt>
<trkpt lat="53.371409" lon="-1.906352"><ele>368</ele><time>2024-02-10T14:42:50Z</time><name>PT4376</name></trkpt>
<trkpt lat="53.371405" lon="-1.906408"><ele>368</ele><time>2024-02-10T14:42:53Z</time><name>PT4377</name></trkpt>
<trkpt lat="53.371397" lon="-1.906490"><ele>367</ele><time>2024-02-10T14:42:57Z</time><name>PT4378</name></trkpt>
<trkpt lat="53.371392" lon="-1.906540"><ele>367</ele><time>2024-02-10T14:43:00Z</time><name>PT4379</name></trkpt>
<trkpt lat="53.371383" lon="-1.906612"><ele>366</ele><time>2024-02-10T14:43:04Z</time><name>PT4380</name></trkpt>
<trkpt lat="53.371378" lon="-1.906668"><ele>365</ele><time>2024-02-10T14:43:07Z</time><name>PT4381</name></trkpt>
<trkpt lat="53.371372" lon="-1.906722"><ele>364</ele><time>2024-02-10T14:43:10Z</time><name>PT4382</name></trkpt>
<trkpt lat="53.371362" lon="-1.906788"><ele>364</ele><time>2024-02-10T14:43:13Z</time><name>PT4383</name></trkpt>
<trkpt lat="53.371356" lon="-1.906855"><ele>363</ele><time>2024-02-10T14:43:17Z</time><name>PT4384</name></trkpt>
<trkpt lat="53.371350" lon="-1.906902"><ele>361</ele><time>2024-02-10T14:43:20Z</time><name>PT4385</name></trkpt>
<trkpt lat="53.371343" lon="-1.906956"><ele>362</ele><time>2024-02-10T14:43:23Z</time><name>PT4386</name></trkpt>
<trkpt lat="53.371333" lon="-1.907006"><ele>361</ele><time>2024-02-10T14:43:26Z</time><name>PT4387</name></trkpt>
<trkpt lat="53.371328" lon="-1.907075"><ele>360</ele><time>2024-02-10T14:43:29Z</time><name>PT4388</name></trkpt>
<trkpt lat="53.371325" lon="-1.907159"><ele>360</ele><time>2024-02-10T14:43:33Z</time><name>PT4389</name></trkpt>
<trkpt lat="53.371310" lon="-1.907236"><ele>358</ele><time>2024-02-10T14:43:37Z</time><name>PT4390</name></trkpt>
<trkpt lat="53.371299" lon="-1.907297"><ele>357</ele><time>2024-02-10T14:43:40Z</time><name>PT4391</name></trkpt>
<trkpt lat="53.371298" lon="-1.907376"><ele>356</ele><time>2024-02-10T14:43:44Z</time><name>PT4392</name></trkpt>
<trkpt lat="53.371299" lon="-1.907434"><ele>356</ele><time>2024-02-10T14:43:47Z</time><name>PT4393</name></trkpt>
<trkpt lat="53.371294" lon="-1.907495"><ele>356</ele><time>2024-02-10T14:43:50Z</time><name>PT4394</name></trkpt>
<trkpt lat="53.371288" lon="-1.907573"><ele>356</ele><time>2024-02-10T14:43:54Z</time><name>PT4395</name></trkpt>
<trkpt lat="53.371284" lon="-1.907633"><ele>356</ele><time>2024-02-10T14:43:57Z</time><name>PT4396</name></trkpt>
<trkpt lat="53.371277" lon="-1.907714"><ele>355</ele><time>2024-02-10T14:44:01Z</time><name>PT4397</name></trkpt>
<trkpt lat="53.371272" lon="-1.907769"><ele>354</ele><time>2024-02-10T14:44:04Z</time><name>PT4398</name></trkpt>
<trkpt lat="53.371263" lon="-1.907834"><ele>353</ele><time>2024-02-10T14:44:08Z</time><name>PT4399</name></trkpt>
<trkpt lat="53.371262" lon="-1.907896"><ele>352</ele><time>2024-02-10T14:44:11Z</time><name>PT4400</name></trkpt>
<trkpt lat="53.371257" lon="-1.907954"><ele>352</ele><time>2024-02-10T14:44:14Z</time><name>PT4401</name></trkpt>
<trkpt lat="53.371250" lon="-1.908010"><ele>352</ele><time>2024-02-10T14:44:17Z</time><name>PT4402</name></trkpt>
<trkpt lat="53.371244" lon="-1.908071"><ele>351</ele><time>2024-02-10T14:44:21Z</time><name>PT4403</name></trkpt>
<trkpt lat="53.371236" lon="-1.908139"><ele>351</ele><time>2024-02-10T14:44:25Z</time><name>PT4404</name></trkpt>
<trkpt lat="53.371236" lon="-1.908192"><ele>351</ele><time>2024-02-10T14:44:28Z</time><name>PT4405</name></trkpt>
<trkpt lat="53.371241" lon="-1.908261"><ele>350</ele><time>2024-02-10T14:44:32Z</time><name>PT4406</name></trkpt>
<trkpt lat="53.371244" lon="-1.908335"><ele>349</ele><time>2024-02-10T14:44:36Z</time><name>PT4407</name></trkpt>
<trkpt lat="53.371246" lon="-1.908391"><ele>348</ele><time>2024-02-10T14:44:39Z</time><name>PT4408</name></trkpt>
<trkpt lat="53.371245" lon="-1.908418"><ele>348</ele><time>2024-02-10T14:44:43Z</time><name>PT4409</name></trkpt>
<trkpt lat="53.371231" lon="-1.908478"><ele>347</ele><time>2024-02-10T14:44:47Z</time><name>PT4410</name></trkpt>
<trkpt lat="53.371219" lon="-1.908546"><ele>347</ele><time>2024-02-10T14:44:50Z</time><name>PT4411</name></trkpt>
<trkpt lat="53.371210" lon="-1.908614"><ele>347</ele><time>2024-02-10T14:44:53Z</time><name>PT4412</name></trkpt>
<trkpt lat="53.371196" lon="-1.908708"><ele>346</ele><time>2024-02-10T14:44:57Z</time><name>PT4413</name></trkpt>
<trkpt lat="53.371188" lon="-1.908769"><ele>345</ele><time>2024-02-10T14:45:00Z</time><name>PT4414</name></trkpt>
<trkpt lat="53.371178" lon="-1.908847"><ele>345</ele><time>2024-02-10T14:45:04Z</time><name>PT4415</name></trkpt>
<trkpt lat="53.371182" lon="-1.908906"><ele>344</ele><time>2024-02-10T14:45:07Z</time><name>PT4416</name></trkpt>
<trkpt lat="53.371185" lon="-1.908961"><ele>344</ele><time>2024-02-10T14:45:10Z</time><name>PT4417</name></trkpt>
<trkpt lat="53.371190" lon="-1.909033"><ele>343</ele><time>2024-02-10T14:45:14Z</time><name>PT4418</name></trkpt>
<trkpt lat="53.371197" lon="-1.909083"><ele>342</ele><time>2024-02-10T14:45:17Z</time><name>PT4419</name></trkpt>
<trkpt lat="53.371205" lon="-1.909164"><ele>341</ele><time>2024-02-10T14:45:21Z</time><name>PT4420</name></trkpt>
<trkpt lat="53.371206" lon="-1.909228"><ele>340</ele><time>2024-02-10T14:45:24Z</time><name>PT4421</name></trkpt>
<trkpt lat="53.371204" lon="-1.909306"><ele>340</ele><time>2024-02-10T14:45:28Z</time><name>PT4422</name></trkpt>
<trkpt lat="53.371203" lon="-1.909361"><ele>340</ele><time>2024-02-10T14:45:31Z</time><name>PT4423</name></trkpt>
<trkpt lat="53.371193" lon="-1.909422"><ele>339</ele><time>2024-02-10T14:45:35Z</time><name>PT4424</name></trkpt>
<trkpt lat="53.371187" lon="-1.909477"><ele>339</ele><time>2024-02-10T14:45:38Z</time><name>PT4425</name></trkpt>
<trkpt lat="53.371181" lon="-1.909539"><ele>338</ele><time>2024-02-10T14:45:42Z</time><name>PT4426</name></trkpt>
<trkpt lat="53.371182" lon="-1.909566"><ele>338</ele><time>2024-02-10T14:45:45Z</time><name>PT4427</name></trkpt>
<trkpt lat="53.371183" lon="-1.909581"><ele>339</ele><time>2024-02-10T14:45:49Z</time><name>PT4428</name></trkpt>
<trkpt lat="53.371183" lon="-1.909634"><ele>339</ele><time>2024-02-10T14:46:09Z</time><name>PT4429</name></trkpt>
<trkpt lat="53.371184" lon="-1.909682"><ele>339</ele><time>2024-02-10T14:46:12Z</time><name>PT4430</name></trkpt>
<trkpt lat="53.371182" lon="-1.909737"><ele>338</ele><time>2024-02-10T14:46:16Z</time><name>PT4431</name></trkpt>
<trkpt lat="53.371177" lon="-1.909791"><ele>338</ele><time>2024-02-10T14:46:20Z</time><name>PT4432</name></trkpt>
<trkpt lat="53.371170" lon="-1.909833"><ele>338</ele><time>2024-02-10T14:46:24Z</time><name>PT4433</name></trkpt>
<trkpt lat="53.371167" lon="-1.909851"><ele>338</ele><time>2024-02-10T14:46:28Z</time><name>PT4434</name></trkpt>
<trkpt lat="53.371166" lon="-1.909871"><ele>338</ele><time>2024-02-10T14:46:45Z</time><name>PT4435</name></trkpt>
<trkpt lat="53.371165" lon="-1.909884"><ele>339</ele><time>2024-02-10T14:46:51Z</time><name>PT4436</name></trkpt>
<trkpt lat="53.371144" lon="-1.909950"><ele>339</ele><time>2024-02-10T14:46:55Z</time><name>PT4437</name></trkpt>
<trkpt lat="53.371131" lon="-1.909988"><ele>338</ele><time>2024-02-10T14:46:58Z</time><name>PT4438</name></trkpt>
<trkpt lat="53.371118" lon="-1.910042"><ele>337</ele><time>2024-02-10T14:47:02Z</time><name>PT4439</name></trkpt>
<trkpt lat="53.371096" lon="-1.910097"><ele>337</ele><time>2024-02-10T14:47:06Z</time><name>PT4440</name></trkpt>
<trkpt lat="53.371082" lon="-1.910139"><ele>337</ele><time>2024-02-10T14:47:09Z</time><name>PT4441</name></trkpt>
<trkpt lat="53.371060" lon="-1.910192"><ele>336</ele><time>2024-02-10T14:47:13Z</time><name>PT4442</name></trkpt>
<trkpt lat="53.371045" lon="-1.910237"><ele>335</ele><time>2024-02-10T14:47:16Z</time><name>PT4443</name></trkpt>
<trkpt lat="53.371021" lon="-1.910283"><ele>334</ele><time>2024-02-10T14:47:20Z</time><name>PT4444</name></trkpt>
<trkpt lat="53.371001" lon="-1.910329"><ele>333</ele><time>2024-02-10T14:47:24Z</time><name>PT4445</name></trkpt>
<trkpt lat="53.370986" lon="-1.910358"><ele>332</ele><time>2024-02-10T14:47:27Z</time><name>PT4446</name></trkpt>
<trkpt lat="53.370961" lon="-1.910411"><ele>331</ele><time>2024-02-10T14:47:31Z</time><name>PT4447</name></trkpt>
<trkpt lat="53.370931" lon="-1.910459"><ele>331</ele><time>2024-02-10T14:47:35Z</time><name>PT4448</name></trkpt>
<trkpt lat="53.370906" lon="-1.910509"><ele>331</ele><time>2024-02-10T14:47:38Z</time><name>PT4449</name></trkpt>
<trkpt lat="53.370881" lon="-1.910556"><ele>330</ele><time>2024-02-10T14:47:42Z</time><name>PT4450</name></trkpt>
<trkpt lat="53.370853" lon="-1.910609"><ele>329</ele><time>2024-02-10T14:47:46Z</time><name>PT4451</name></trkpt>
<trkpt lat="53.370829" lon="-1.910645"><ele>328</ele><time>2024-02-10T14:47:49Z</time><name>PT4452</name></trkpt>
<trkpt lat="53.370804" lon="-1.910696"><ele>328</ele><time>2024-02-10T14:47:53Z</time><name>PT4453</name></trkpt>
<trkpt lat="53.370786" lon="-1.910741"><ele>327</ele><time>2024-02-10T14:47:57Z</time><name>PT4454</name></trkpt>
<trkpt lat="53.370764" lon="-1.910782"><ele>327</ele><time>2024-02-10T14:48:01Z</time><name>PT4455</name></trkpt>
<trkpt lat="53.370759" lon="-1.910807"><ele>326</ele><time>2024-02-10T14:48:05Z</time><name>PT4456</name></trkpt>
<trkpt lat="53.370751" lon="-1.910841"><ele>325</ele><time>2024-02-10T14:48:09Z</time><name>PT4457</name></trkpt>
<trkpt lat="53.370750" lon="-1.910865"><ele>324</ele><time>2024-02-10T14:48:12Z</time><name>PT4458</name></trkpt>
<trkpt lat="53.370741" lon="-1.910908"><ele>323</ele><time>2024-02-10T14:48:15Z</time><name>PT4459</name></trkpt>
<trkpt lat="53.370715" lon="-1.910954"><ele>322</ele><time>2024-02-10T14:48:19Z</time><name>PT4460</name></trkpt>
<trkpt lat="53.370698" lon="-1.910987"><ele>322</ele><time>2024-02-10T14:48:22Z</time><name>PT4461</name></trkpt>
<trkpt lat="53.370676" lon="-1.911036"><ele>322</ele><time>2024-02-10T14:48:26Z</time><name>PT4462</name></trkpt>
<trkpt lat="53.370656" lon="-1.911080"><ele>322</ele><time>2024-02-10T14:48:30Z</time><name>PT4463</name></trkpt>
<trkpt lat="53.370635" lon="-1.911131"><ele>320</ele><time>2024-02-10T14:48:34Z</time><name>PT4464</name></trkpt>
<trkpt lat="53.370615" lon="-1.911178"><ele>320</ele><time>2024-02-10T14:48:38Z</time><name>PT4465</name></trkpt>
<trkpt lat="53.370603" lon="-1.911216"><ele>320</ele><time>2024-02-10T14:48:41Z</time><name>PT4466</name></trkpt>
<trkpt lat="53.370583" lon="-1.911264"><ele>319</ele><time>2024-02-10T14:48:45Z</time><name>PT4467</name></trkpt>
<trkpt lat="53.370574" lon="-1.911296"><ele>319</ele><time>2024-02-10T14:48:48Z</time><name>PT4468</name></trkpt>
<trkpt lat="53.370562" lon="-1.911329"><ele>318</ele><time>2024-02-10T14:48:51Z</time><name>PT4469</name></trkpt>
<trkpt lat="53.370543" lon="-1.911374"><ele>317</ele><time>2024-02-10T14:48:55Z</time><name>PT4470</name></trkpt>
<trkpt lat="53.370528" lon="-1.911400"><ele>317</ele><time>2024-02-10T14:48:58Z</time><name>PT4471</name></trkpt>
<trkpt lat="53.370512" lon="-1.911439"><ele>316</ele><time>2024-02-10T14:49:02Z</time><name>PT4472</name></trkpt>
<trkpt lat="53.370503" lon="-1.911463"><ele>316</ele><time>2024-02-10T14:49:05Z</time><name>PT4473</name></trkpt>
<trkpt lat="53.370484" lon="-1.911509"><ele>315</ele><time>2024-02-10T14:49:09Z</time><name>PT4474</name></trkpt>
<trkpt lat="53.370469" lon="-1.911558"><ele>314</ele><time>2024-02-10T14:49:13Z</time><name>PT4475</name></trkpt>
<trkpt lat="53.370458" lon="-1.911590"><ele>313</ele><time>2024-02-10T14:49:16Z</time><name>PT4476</name></trkpt>
<trkpt lat="53.370442" lon="-1.911630"><ele>311</ele><time>2024-02-10T14:49:20Z</time><name>PT4477</name></trkpt>
<trkpt lat="53.370427" lon="-1.911668"><ele>311</ele><time>2024-02-10T14:49:23Z</time><name>PT4478</name></trkpt>
<trkpt lat="53.370414" lon="-1.911708"><ele>310</ele><time>2024-02-10T14:49:27Z</time><name>PT4479</name></trkpt>
<trkpt lat="53.370407" lon="-1.911743"><ele>310</ele><time>2024-02-10T14:49:30Z</time><name>PT4480</name></trkpt>
<trkpt lat="53.370392" lon="-1.911779"><ele>310</ele><time>2024-02-10T14:49:33Z</time><name>PT4481</name></trkpt>
<trkpt lat="53.370368" lon="-1.911835"><ele>310</ele><time>2024-02-10T14:49:37Z</time><name>PT4482</name></trkpt>
<trkpt lat="53.370347" lon="-1.911885"><ele>308</ele><time>2024-02-10T14:49:41Z</time><name>PT4483</name></trkpt>
<trkpt lat="53.370336" lon="-1.911915"><ele>308</ele><time>2024-02-10T14:49:44Z</time><name>PT4484</name></trkpt>
<trkpt lat="53.370316" lon="-1.911970"><ele>307</ele><time>2024-02-10T14:49:48Z</time><name>PT4485</name></trkpt>
<trkpt lat="53.370302" lon="-1.912004"><ele>306</ele><time>2024-02-10T14:49:51Z</time><name>PT4486</name></trkpt>
<trkpt lat="53.370286" lon="-1.912034"><ele>305</ele><time>2024-02-10T14:49:54Z</time><name>PT4487</name></trkpt>
<trkpt lat="53.370274" lon="-1.912062"><ele>305</ele><time>2024-02-10T14:49:57Z</time><name>PT4488</name></trkpt>
<trkpt lat="53.370251" lon="-1.912116"><ele>304</ele><time>2024-02-10T14:50:01Z</time><name>PT4489</name></trkpt>
<trkpt lat="53.370232" lon="-1.912181"><ele>303</ele><time>2024-02-10T14:50:05Z</time><name>PT4490</name></trkpt>
<trkpt lat="53.370219" lon="-1.912227"><ele>302</ele><time>2024-02-10T14:50:08Z</time><name>PT4491</name></trkpt>
<trkpt lat="53.370200" lon="-1.912289"><ele>301</ele><time>2024-02-10T14:50:12Z</time><name>PT4492</name></trkpt>
<trkpt lat="53.370183" lon="-1.912341"><ele>300</ele><time>2024-02-10T14:50:15Z</time><name>PT4493</name></trkpt>
<trkpt lat="53.370167" lon="-1.912409"><ele>299</ele><time>2024-02-10T14:50:19Z</time><name>PT4494</name></trkpt>
<trkpt lat="53.370150" lon="-1.912472"><ele>299</ele><time>2024-02-10T14:50:23Z</time><name>PT4495</name></trkpt>
<trkpt lat="53.370138" lon="-1.912522"><ele>299</ele><time>2024-02-10T14:50:26Z</time><name>PT4496</name></trkpt>
<trkpt lat="53.370116" lon="-1.912593"><ele>298</ele><time>2024-02-10T14:50:30Z</time><name>PT4497</name></trkpt>
<trkpt lat="53.370098" lon="-1.912662"><ele>297</ele><time>2024-02-10T14:50:34Z</time><name>PT4498</name></trkpt>
<trkpt lat="53.370081" lon="-1.912716"><ele>297</ele><time>2024-02-10T14:50:37Z</time><name>PT4499</name></trkpt>
<trkpt lat="53.370068" lon="-1.912767"><ele>297</ele><time>2024-02-10T14:50:40Z</time><name>PT4500</name></trkpt>
<trkpt lat="53.370058" lon="-1.912811"><ele>296</ele><time>2024-02-10T14:50:43Z</time><name>PT4501</name></trkpt>
<trkpt lat="53.370045" lon="-1.912866"><ele>296</ele><time>2024-02-10T14:50:46Z</time><name>PT4502</name></trkpt>
<trkpt lat="53.370030" lon="-1.912916"><ele>295</ele><time>2024-02-10T14:50:50Z</time><name>PT4503</name></trkpt>
<trkpt lat="53.370025" lon="-1.912931"><ele>296</ele><time>2024-02-10T14:50:53Z</time><name>PT4504</name></trkpt>
<trkpt lat="53.370016" lon="-1.912959"><ele>296</ele><time>2024-02-10T14:50:57Z</time><name>PT4505</name></trkpt>
<trkpt lat="53.370016" lon="-1.912986"><ele>295</ele><time>2024-02-10T14:51:01Z</time><name>PT4506</name></trkpt>
<trkpt lat="53.370022" lon="-1.913020"><ele>295</ele><time>2024-02-10T14:51:04Z</time><name>PT4507</name></trkpt>
<trkpt lat="53.370013" lon="-1.913087"><ele>295</ele><time>2024-02-10T14:51:08Z</time><name>PT4508</name></trkpt>
<trkpt lat="53.370008" lon="-1.913143"><ele>294</ele><time>2024-02-10T14:51:11Z</time><name>PT4509</name></trkpt>
<trkpt lat="53.370004" lon="-1.913214"><ele>292</ele><time>2024-02-10T14:51:15Z</time><name>PT4510</name></trkpt>
<trkpt lat="53.370004" lon="-1.913290"><ele>291</ele><time>2024-02-10T14:51:19Z</time><name>PT4511</name></trkpt>
<trkpt lat="53.370001" lon="-1.913352"><ele>291</ele><time>2024-02-10T14:51:22Z</time><name>PT4512</name></trkpt>
<trkpt lat="53.370007" lon="-1.913437"><ele>292</ele><time>2024-02-10T14:51:26Z</time><name>PT4513</name></trkpt>
<trkpt lat="53.370007" lon="-1.913517"><ele>291</ele><time>2024-02-10T14:51:30Z</time><name>PT4514</name></trkpt>
<trkpt lat="53.370009" lon="-1.913576"><ele>290</ele><time>2024-02-10T14:51:33Z</time><name>PT4515</name></trkpt>
<trkpt lat="53.370011" lon="-1.913649"><ele>289</ele><time>2024-02-10T14:51:37Z</time><name>PT4516</name></trkpt>
<trkpt lat="53.370015" lon="-1.913731"><ele>290</ele><time>2024-02-10T14:51:41Z</time><name>PT4517</name></trkpt>
<trkpt lat="53.370022" lon="-1.913794"><ele>290</ele><time>2024-02-10T14:51:44Z</time><name>PT4518</name></trkpt>
<trkpt lat="53.370019" lon="-1.913867"><ele>291</ele><time>2024-02-10T14:51:48Z</time><name>PT4519</name></trkpt>
<trkpt lat="53.370005" lon="-1.913944"><ele>290</ele><time>2024-02-10T14:51:52Z</time><name>PT4520</name></trkpt>
<trkpt lat="53.369988" lon="-1.914014"><ele>290</ele><time>2024-02-10T14:51:56Z</time><name>PT4521</name></trkpt>
<trkpt lat="53.369973" lon="-1.914090"><ele>289</ele><time>2024-02-10T14:52:00Z</time><name>PT4522</name></trkpt>
<trkpt lat="53.369960" lon="-1.914141"><ele>289</ele><time>2024-02-10T14:52:03Z</time><name>PT4523</name></trkpt>
<trkpt lat="53.369943" lon="-1.914213"><ele>289</ele><time>2024-02-10T14:52:07Z</time><name>PT4524</name></trkpt>
<trkpt lat="53.369930" lon="-1.914268"><ele>289</ele><time>2024-02-10T14:52:10Z</time><name>PT4525</name></trkpt>
<trkpt lat="53.369915" lon="-1.914325"><ele>288</ele><time>2024-02-10T14:52:13Z</time><name>PT4526</name></trkpt>
<trkpt lat="53.369895" lon="-1.914400"><ele>288</ele><time>2024-02-10T14:52:17Z</time><name>PT4527</name></trkpt>
<trkpt lat="53.369871" lon="-1.914479"><ele>288</ele><time>2024-02-10T14:52:21Z</time><name>PT4528</name></trkpt>
<trkpt lat="53.369857" lon="-1.914544"><ele>288</ele><time>2024-02-10T14:52:24Z</time><name>PT4529</name></trkpt>
<trkpt lat="53.369844" lon="-1.914607"><ele>287</ele><time>2024-02-10T14:52:27Z</time><name>PT4530</name></trkpt>
<trkpt lat="53.369829" lon="-1.914683"><ele>285</ele><time>2024-02-10T14:52:31Z</time><name>PT4531</name></trkpt>
<trkpt lat="53.369815" lon="-1.914743"><ele>284</ele><time>2024-02-10T14:52:34Z</time><name>PT4532</name></trkpt>
<trkpt lat="53.369806" lon="-1.914826"><ele>285</ele><time>2024-02-10T14:52:38Z</time><name>PT4533</name></trkpt>
<trkpt lat="53.369793" lon="-1.914907"><ele>284</ele><time>2024-02-10T14:52:42Z</time><name>PT4534</name></trkpt>
<trkpt lat="53.369787" lon="-1.914963"><ele>284</ele><time>2024-02-10T14:52:45Z</time><name>PT4535</name></trkpt>
<trkpt lat="53.369776" lon="-1.915047"><ele>283</ele><time>2024-02-10T14:52:49Z</time><name>PT4536</name></trkpt>
<trkpt lat="53.369766" lon="-1.915104"><ele>282</ele><time>2024-02-10T14:52:52Z</time><name>PT4537</name></trkpt>
<trkpt lat="53.369756" lon="-1.915177"><ele>281</ele><time>2024-02-10T14:52:56Z</time><name>PT4538</name></trkpt>
<trkpt lat="53.369751" lon="-1.915233"><ele>280</ele><time>2024-02-10T14:52:59Z</time><name>PT4539</name></trkpt>
<trkpt lat="53.369744" lon="-1.915287"><ele>279</ele><time>2024-02-10T14:53:02Z</time><name>PT4540</name></trkpt>
<trkpt lat="53.369732" lon="-1.915342"><ele>279</ele><time>2024-02-10T14:53:05Z</time><name>PT4541</name></trkpt>
<trkpt lat="53.369714" lon="-1.915417"><ele>277</ele><time>2024-02-10T14:53:09Z</time><name>PT4542</name></trkpt>
<trkpt lat="53.369692" lon="-1.915483"><ele>276</ele><time>2024-02-10T14:53:13Z</time><name>PT4543</name></trkpt>
<trkpt lat="53.369669" lon="-1.915553"><ele>276</ele><time>2024-02-10T14:53:17Z</time><name>PT4544</name></trkpt>
<trkpt lat="53.369655" lon="-1.915616"><ele>275</ele><time>2024-02-10T14:53:21Z</time><name>PT4545</name></trkpt>
<trkpt lat="53.369630" lon="-1.915686"><ele>274</ele><time>2024-02-10T14:53:25Z</time><name>PT4546</name></trkpt>
<trkpt lat="53.369622" lon="-1.915740"><ele>273</ele><time>2024-02-10T14:53:28Z</time><name>PT4547</name></trkpt>
<trkpt lat="53.369609" lon="-1.915794"><ele>271</ele><time>2024-02-10T14:53:32Z</time><name>PT4548</name></trkpt>
<trkpt lat="53.369588" lon="-1.915878"><ele>270</ele><time>2024-02-10T14:53:36Z</time><name>PT4549</name></trkpt>
<trkpt lat="53.369574" lon="-1.915974"><ele>270</ele><time>2024-02-10T14:53:40Z</time><name>PT4550</name></trkpt>
<trkpt lat="53.369564" lon="-1.916052"><ele>268</ele><time>2024-02-10T14:53:44Z</time><name>PT4551</name></trkpt>
<trkpt lat="53.369562" lon="-1.916106"><ele>267</ele><time>2024-02-10T14:53:47Z</time><name>PT4552</name></trkpt>
<trkpt lat="53.369554" lon="-1.916166"><ele>265</ele><time>2024-02-10T14:53:51Z</time><name>PT4553</name></trkpt>
<trkpt lat="53.369542" lon="-1.916221"><ele>265</ele><time>2024-02-10T14:53:54Z</time><name>PT4554</name></trkpt>
<trkpt lat="53.369526" lon="-1.916315"><ele>266</ele><time>2024-02-10T14:53:58Z</time><name>PT4555</name></trkpt>
<trkpt lat="53.369513" lon="-1.916402"><ele>267</ele><time>2024-02-10T14:54:01Z</time><name>PT4556</name></trkpt>
<trkpt lat="53.369497" lon="-1.916461"><ele>268</ele><time>2024-02-10T14:54:05Z</time><name>PT4557</name></trkpt>
<trkpt lat="53.369482" lon="-1.916519"><ele>266</ele><time>2024-02-10T14:54:08Z</time><name>PT4558</name></trkpt>
<trkpt lat="53.369475" lon="-1.916562"><ele>265</ele><time>2024-02-10T14:54:12Z</time><name>PT4559</name></trkpt>
<trkpt lat="53.369465" lon="-1.916599"><ele>266</ele><time>2024-02-10T14:54:15Z</time><name>PT4560</name></trkpt>
<trkpt lat="53.369446" lon="-1.916667"><ele>263</ele><time>2024-02-10T14:54:19Z</time><name>PT4561</name></trkpt>
<trkpt lat="53.369431" lon="-1.916718"><ele>262</ele><time>2024-02-10T14:54:22Z</time><name>PT4562</name></trkpt>
<trkpt lat="53.369414" lon="-1.916789"><ele>262</ele><time>2024-02-10T14:54:25Z</time><name>PT4563</name></trkpt>
<trkpt lat="53.369393" lon="-1.916853"><ele>260</ele><time>2024-02-10T14:54:29Z</time><name>PT4564</name></trkpt>
<trkpt lat="53.369381" lon="-1.916894"><ele>259</ele><time>2024-02-10T14:54:32Z</time><name>PT4565</name></trkpt>
<trkpt lat="53.369370" lon="-1.916951"><ele>258</ele><time>2024-02-10T14:54:36Z</time><name>PT4566</name></trkpt>
<trkpt lat="53.369405" lon="-1.916908"><ele>247</ele><time>2024-02-10T14:54:39Z</time><name>PT4567</name></trkpt>
<trkpt lat="53.369391" lon="-1.916986"><ele>246</ele><time>2024-02-10T14:54:43Z</time><name>PT4568</name></trkpt>
<trkpt lat="53.369387" lon="-1.917050"><ele>245</ele><time>2024-02-10T14:54:46Z</time><name>PT4569</name></trkpt>
<trkpt lat="53.369381" lon="-1.917140"><ele>247</ele><time>2024-02-10T14:54:50Z</time><name>PT4570</name></trkpt>
<trkpt lat="53.369362" lon="-1.917278"><ele>249</ele><time>2024-02-10T14:54:54Z</time><name>PT4571</name></trkpt>
<trkpt lat="53.369360" lon="-1.917346"><ele>250</ele><time>2024-02-10T14:54:57Z</time><name>PT4572</name></trkpt>
<trkpt lat="53.369361" lon="-1.917407"><ele>249</ele><time>2024-02-10T14:55:00Z</time><name>PT4573</name></trkpt>
<trkpt lat="53.369359" lon="-1.917469"><ele>246</ele><time>2024-02-10T14:55:04Z</time><name>PT4574</name></trkpt>
<trkpt lat="53.369349" lon="-1.917555"><ele>246</ele><time>2024-02-10T14:55:08Z</time><name>PT4575</name></trkpt>
<trkpt lat="53.369342" lon="-1.917630"><ele>247</ele><time>2024-02-10T14:55:11Z</time><name>PT4576</name></trkpt>
<trkpt lat="53.369335" lon="-1.917701"><ele>245</ele><time>2024-02-10T14:55:15Z</time><name>PT4577</name></trkpt>
<trkpt lat="53.369330" lon="-1.917801"><ele>246</ele><time>2024-02-10T14:55:19Z</time><name>PT4578</name></trkpt>
<trkpt lat="53.369327" lon="-1.917888"><ele>245</ele><time>2024-02-10T14:55:23Z</time><name>PT4579</name></trkpt>
<trkpt lat="53.369324" lon="-1.917965"><ele>245</ele><time>2024-02-10T14:55:27Z</time><name>PT4580</name></trkpt>
<trkpt lat="53.369317" lon="-1.918049"><ele>244</ele><time>2024-02-10T14:55:31Z</time><name>PT4581</name></trkpt>
<trkpt lat="53.369326" lon="-1.918135"><ele>244</ele><time>2024-02-10T14:55:35Z</time><name>PT4582</name></trkpt>
<trkpt lat="53.369337" lon="-1.918202"><ele>244</ele><time>2024-02-10T14:55:39Z</time><name>PT4583</name></trkpt>
<trkpt lat="53.369345" lon="-1.918258"><ele>244</ele><time>2024-02-10T14:55:42Z</time><name>PT4584</name></trkpt>
<trkpt lat="53.369352" lon="-1.918323"><ele>245</ele><time>2024-02-10T14:55:45Z</time><name>PT4585</name></trkpt>
<trkpt lat="53.369370" lon="-1.918452"><ele>246</ele><time>2024-02-10T14:55:49Z</time><name>PT4586</name></trkpt>
<trkpt lat="53.369387" lon="-1.918532"><ele>247</ele><time>2024-02-10T14:55:52Z</time><name>PT4587</name></trkpt>
<trkpt lat="53.369412" lon="-1.918651"><ele>249</ele><time>2024-02-10T14:55:56Z</time><name>PT4588</name></trkpt>
<trkpt lat="53.369438" lon="-1.918720"><ele>250</ele><time>2024-02-10T14:55:59Z</time><name>PT4589</name></trkpt>
<trkpt lat="53.369461" lon="-1.918787"><ele>251</ele><time>2024-02-10T14:56:02Z</time><name>PT4590</name></trkpt>
<trkpt lat="53.369504" lon="-1.918864"><ele>252</ele><time>2024-02-10T14:56:06Z</time><name>PT4591</name></trkpt>
<trkpt lat="53.369535" lon="-1.918914"><ele>252</ele><time>2024-02-10T14:56:09Z</time><name>PT4592</name></trkpt>
<trkpt lat="53.369566" lon="-1.918973"><ele>251</ele><time>2024-02-10T14:56:13Z</time><name>PT4593</name></trkpt>
<trkpt lat="53.369597" lon="-1.919029"><ele>249</ele><time>2024-02-10T14:56:17Z</time><name>PT4594</name></trkpt>
<trkpt lat="53.369639" lon="-1.919081"><ele>248</ele><time>2024-02-10T14:56:21Z</time><name>PT4595</name></trkpt>
<trkpt lat="53.369669" lon="-1.919132"><ele>246</ele><time>2024-02-10T14:56:25Z</time><name>PT4596</name></trkpt>
<trkpt lat="53.369703" lon="-1.919173"><ele>246</ele><time>2024-02-10T14:56:28Z</time><name>PT4597</name></trkpt>
<trkpt lat="53.369737" lon="-1.919215"><ele>244</ele><time>2024-02-10T14:56:32Z</time><name>PT4598</name></trkpt>
<trkpt lat="53.369786" lon="-1.919244"><ele>244</ele><time>2024-02-10T14:56:36Z</time><name>PT4599</name></trkpt>
<trkpt lat="53.369832" lon="-1.919289"><ele>244</ele><time>2024-02-10T14:56:40Z</time><name>PT4600</name></trkpt>
<trkpt lat="53.369889" lon="-1.919324"><ele>246</ele><time>2024-02-10T14:56:44Z</time><name>PT4601</name></trkpt>
<trkpt lat="53.369920" lon="-1.919348"><ele>244</ele><time>2024-02-10T14:56:47Z</time><name>PT4602</name></trkpt>
<trkpt lat="53.369956" lon="-1.919381"><ele>243</ele><time>2024-02-10T14:56:51Z</time><name>PT4603</name></trkpt>
<trkpt lat="53.370006" lon="-1.919420"><ele>243</ele><time>2024-02-10T14:56:55Z</time><name>PT4604</name></trkpt>
<trkpt lat="53.370059" lon="-1.919452"><ele>243</ele><time>2024-02-10T14:56:59Z</time><name>PT4605</name></trkpt>
<trkpt lat="53.370099" lon="-1.919475"><ele>244</ele><time>2024-02-10T14:57:02Z</time><name>PT4606</name></trkpt>
<trkpt lat="53.370128" lon="-1.919491"><ele>243</ele><time>2024-02-10T14:57:05Z</time><name>PT4607</name></trkpt>
<trkpt lat="53.370181" lon="-1.919497"><ele>242</ele><time>2024-02-10T14:57:09Z</time><name>PT4608</name></trkpt>
<trkpt lat="53.370248" lon="-1.919498"><ele>245</ele><time>2024-02-10T14:57:13Z</time><name>PT4609</name></trkpt>
<trkpt lat="53.370302" lon="-1.919493"><ele>247</ele><time>2024-02-10T14:57:16Z</time><name>PT4610</name></trkpt>
<trkpt lat="53.370356" lon="-1.919476"><ele>247</ele><time>2024-02-10T14:57:20Z</time><name>PT4611</name></trkpt>
<trkpt lat="53.370398" lon="-1.919476"><ele>246</ele><time>2024-02-10T14:57:24Z</time><name>PT4612</name></trkpt>
<trkpt lat="53.370431" lon="-1.919486"><ele>243</ele><time>2024-02-10T14:57:28Z</time><name>PT4613</name></trkpt>
<trkpt lat="53.370482" lon="-1.919491"><ele>243</ele><time>2024-02-10T14:57:32Z</time><name>PT4614</name></trkpt>
<trkpt lat="53.370519" lon="-1.919509"><ele>243</ele><time>2024-02-10T14:57:35Z</time><name>PT4615</name></trkpt>
<trkpt lat="53.370572" lon="-1.919529"><ele>243</ele><time>2024-02-10T14:57:39Z</time><name>PT4616</name></trkpt>
<trkpt lat="53.370600" lon="-1.919541"><ele>240</ele><time>2024-02-10T14:57:43Z</time><name>PT4617</name></trkpt>
<trkpt lat="53.370642" lon="-1.919557"><ele>240</ele><time>2024-02-10T14:57:46Z</time><name>PT4618</name></trkpt>
<trkpt lat="53.370672" lon="-1.919555"><ele>239</ele><time>2024-02-10T14:57:49Z</time><name>PT4619</name></trkpt>
<trkpt lat="53.370735" lon="-1.919576"><ele>239</ele><time>2024-02-10T14:57:53Z</time><name>PT4620</name></trkpt>
<trkpt lat="53.370777" lon="-1.919595"><ele>239</ele><time>2024-02-10T14:57:56Z</time><name>PT4621</name></trkpt>
<trkpt lat="53.370873" lon="-1.919656"><ele>243</ele><time>2024-02-10T14:58:00Z</time><name>PT4622</name></trkpt>
<trkpt lat="53.370930" lon="-1.919687"><ele>244</ele><time>2024-02-10T14:58:03Z</time><name>PT4623</name></trkpt>
<trkpt lat="53.370983" lon="-1.919715"><ele>247</ele><time>2024-02-10T14:58:06Z</time><name>PT4624</name></trkpt>
<trkpt lat="53.371027" lon="-1.919743"><ele>247</ele><time>2024-02-10T14:58:09Z</time><name>PT4625</name></trkpt>
<trkpt lat="53.371068" lon="-1.919767"><ele>247</ele><time>2024-02-10T14:58:12Z</time><name>PT4626</name></trkpt>
<trkpt lat="53.371123" lon="-1.919796"><ele>247</ele><time>2024-02-10T14:58:16Z</time><name>PT4627</name></trkpt>
<trkpt lat="53.371159" lon="-1.919816"><ele>247</ele><time>2024-02-10T14:58:19Z</time><name>PT4628</name></trkpt>
<trkpt lat="53.371210" lon="-1.919847"><ele>247</ele><time>2024-02-10T14:58:23Z</time><name>PT4629</name></trkpt>
<trkpt lat="53.371252" lon="-1.919867"><ele>248</ele><time>2024-02-10T14:58:26Z</time><name>PT4630</name></trkpt>
<trkpt lat="53.371298" lon="-1.919877"><ele>247</ele><time>2024-02-10T14:58:30Z</time><name>PT4631</name></trkpt>
<trkpt lat="53.371352" lon="-1.919898"><ele>248</ele><time>2024-02-10T14:58:34Z</time><name>PT4632</name></trkpt>
<trkpt lat="53.371400" lon="-1.919909"><ele>246</ele><time>2024-02-10T14:58:38Z</time><name>PT4633</name></trkpt>
<trkpt lat="53.371448" lon="-1.919929"><ele>246</ele><time>2024-02-10T14:58:42Z</time><name>PT4634</name></trkpt>
<trkpt lat="53.371496" lon="-1.919934"><ele>245</ele><time>2024-02-10T14:58:46Z</time><name>PT4635</name></trkpt>
<trkpt lat="53.371533" lon="-1.919946"><ele>245</ele><time>2024-02-10T14:58:49Z</time><name>PT4636</name></trkpt>
<trkpt lat="53.371589" lon="-1.919955"><ele>244</ele><time>2024-02-10T14:58:53Z</time><name>PT4637</name></trkpt>
<trkpt lat="53.371643" lon="-1.919962"><ele>244</ele><time>2024-02-10T14:58:57Z</time><name>PT4638</name></trkpt>
<trkpt lat="53.371698" lon="-1.919987"><ele>243</ele><time>2024-02-10T14:59:01Z</time><name>PT4639</name></trkpt>
<trkpt lat="53.371754" lon="-1.920017"><ele>244</ele><time>2024-02-10T14:59:05Z</time><name>PT4640</name></trkpt>
<trkpt lat="53.371784" lon="-1.920030"><ele>243</ele><time>2024-02-10T14:59:08Z</time><name>PT4641</name></trkpt>
<trkpt lat="53.371822" lon="-1.920054"><ele>244</ele><time>2024-02-10T14:59:11Z</time><name>PT4642</name></trkpt>
<trkpt lat="53.371879" lon="-1.920086"><ele>244</ele><time>2024-02-10T14:59:15Z</time><name>PT4643</name></trkpt>
<trkpt lat="53.371917" lon="-1.920109"><ele>244</ele><time>2024-02-10T14:59:18Z</time><name>PT4644</name></trkpt>
<trkpt lat="53.371969" lon="-1.920125"><ele>244</ele><time>2024-02-10T14:59:22Z</time><name>PT4645</name></trkpt>
<trkpt lat="53.372024" lon="-1.920135"><ele>244</ele><time>2024-02-10T14:59:26Z</time><name>PT4646</name></trkpt>
<trkpt lat="53.372066" lon="-1.920141"><ele>245</ele><time>2024-02-10T14:59:29Z</time><name>PT4647</name></trkpt>
<trkpt lat="53.372107" lon="-1.920140"><ele>245</ele><time>2024-02-10T14:59:32Z</time><name>PT4648</name></trkpt>
<trkpt lat="53.372147" lon="-1.920149"><ele>244</ele><time>2024-02-10T14:59:35Z</time><name>PT4649</name></trkpt>
<trkpt lat="53.372197" lon="-1.920160"><ele>245</ele><time>2024-02-10T14:59:39Z</time><name>PT4650</name></trkpt>
<trkpt lat="53.372250" lon="-1.920174"><ele>244</ele><time>2024-02-10T14:59:43Z</time><name>PT4651</name></trkpt>
<trkpt lat="53.372277" lon="-1.920185"><ele>243</ele><time>2024-02-10T14:59:46Z</time><name>PT4652</name></trkpt>
<trkpt lat="53.372312" lon="-1.920188"><ele>243</ele><time>2024-02-10T14:59:49Z</time><name>PT4653</name></trkpt>
<trkpt lat="53.372353" lon="-1.920201"><ele>243</ele><time>2024-02-10T14:59:52Z</time><name>PT4654</name></trkpt>
<trkpt lat="53.372396" lon="-1.920221"><ele>242</ele><time>2024-02-10T14:59:56Z</time><name>PT4655</name></trkpt>
<trkpt lat="53.372435" lon="-1.920232"><ele>243</ele><time>2024-02-10T14:59:59Z</time><name>PT4656</name></trkpt>
<trkpt lat="53.372477" lon="-1.920242"><ele>244</ele><time>2024-02-10T15:00:02Z</time><name>PT4657</name></trkpt>
<trkpt lat="53.372538" lon="-1.920247"><ele>244</ele><time>2024-02-10T15:00:06Z</time><name>PT4658</name></trkpt>
<trkpt lat="53.372591" lon="-1.920251"><ele>243</ele><time>2024-02-10T15:00:10Z</time><name>PT4659</name></trkpt>
<trkpt lat="53.372628" lon="-1.920250"><ele>244</ele><time>2024-02-10T15:00:13Z</time><name>PT4660</name></trkpt>
<trkpt lat="53.372678" lon="-1.920243"><ele>244</ele><time>2024-02-10T15:00:17Z</time><name>PT4661</name></trkpt>
<trkpt lat="53.372713" lon="-1.920229"><ele>244</ele><time>2024-02-10T15:00:20Z</time><name>PT4662</name></trkpt>
<trkpt lat="53.372743" lon="-1.920216"><ele>243</ele><time>2024-02-10T15:00:23Z</time><name>PT4663</name></trkpt>
<trkpt lat="53.372782" lon="-1.920207"><ele>243</ele><time>2024-02-10T15:00:26Z</time><name>PT4664</name></trkpt>
<trkpt lat="53.372841" lon="-1.920200"><ele>244</ele><time>2024-02-10T15:00:30Z</time><name>PT4665</name></trkpt>
<trkpt lat="53.372878" lon="-1.920197"><ele>244</ele><time>2024-02-10T15:00:33Z</time><name>PT4666</name></trkpt>
<trkpt lat="53.372921" lon="-1.920188"><ele>242</ele><time>2024-02-10T15:00:37Z</time><name>PT4667</name></trkpt>
<trkpt lat="53.372953" lon="-1.920193"><ele>242</ele><time>2024-02-10T15:00:40Z</time><name>PT4668</name></trkpt>
<trkpt lat="53.372994" lon="-1.920205"><ele>240</ele><time>2024-02-10T15:00:44Z</time><name>PT4669</name></trkpt>
<trkpt lat="53.373037" lon="-1.920214"><ele>238</ele><time>2024-02-10T15:00:48Z</time><name>PT4670</name></trkpt>
<trkpt lat="53.373089" lon="-1.920222"><ele>238</ele><time>2024-02-10T15:00:52Z</time><name>PT4671</name></trkpt>
<trkpt lat="53.373128" lon="-1.920213"><ele>239</ele><time>2024-02-10T15:00:55Z</time><name>PT4672</name></trkpt>
<trkpt lat="53.373168" lon="-1.920216"><ele>239</ele><time>2024-02-10T15:00:58Z</time><name>PT4673</name></trkpt>
<trkpt lat="53.373205" lon="-1.920230"><ele>239</ele><time>2024-02-10T15:01:01Z</time><name>PT4674</name></trkpt>
<trkpt lat="53.373254" lon="-1.920245"><ele>239</ele><time>2024-02-10T15:01:05Z</time><name>PT4675</name></trkpt>
<trkpt lat="53.373290" lon="-1.920242"><ele>240</ele><time>2024-02-10T15:01:08Z</time><name>PT4676</name></trkpt>
<trkpt lat="53.373355" lon="-1.920238"><ele>243</ele><time>2024-02-10T15:01:12Z</time><name>PT4677</name></trkpt>
<trkpt lat="53.373428" lon="-1.920216"><ele>246</ele><time>2024-02-10T15:01:16Z</time><name>PT4678</name></trkpt>
<trkpt lat="53.373479" lon="-1.920220"><ele>246</ele><time>2024-02-10T15:01:20Z</time><name>PT4679</name></trkpt>
<trkpt lat="53.373526" lon="-1.920230"><ele>244</ele><time>2024-02-10T15:01:24Z</time><name>PT4680</name></trkpt>
<trkpt lat="53.373586" lon="-1.920246"><ele>244</ele><time>2024-02-10T15:01:28Z</time><name>PT4681</name></trkpt>
<trkpt lat="53.373634" lon="-1.920261"><ele>245</ele><time>2024-02-10T15:01:32Z</time><name>PT4682</name></trkpt>
<trkpt lat="53.373678" lon="-1.920273"><ele>246</ele><time>2024-02-10T15:01:35Z</time><name>PT4683</name></trkpt>
<trkpt lat="53.373726" lon="-1.920292"><ele>246</ele><time>2024-02-10T15:01:39Z</time><name>PT4684</name></trkpt>
<trkpt lat="53.373755" lon="-1.920316"><ele>246</ele><time>2024-02-10T15:01:42Z</time><name>PT4685</name></trkpt>
<trkpt lat="53.373781" lon="-1.920334"><ele>245</ele><time>2024-02-10T15:01:45Z</time><name>PT4686</name></trkpt>
<trkpt lat="53.373816" lon="-1.920358"><ele>243</ele><time>2024-02-10T15:01:49Z</time><name>PT4687</name></trkpt>
<trkpt lat="53.373829" lon="-1.920384"><ele>242</ele><time>2024-02-10T15:01:52Z</time><name>PT4688</name></trkpt>
<trkpt lat="53.373886" lon="-1.920413"><ele>243</ele><time>2024-02-10T15:01:56Z</time><name>PT4689</name></trkpt>
<trkpt lat="53.373896" lon="-1.920453"><ele>241</ele><time>2024-02-10T15:01:59Z</time><name>PT4690</name></trkpt>
<trkpt lat="53.373934" lon="-1.920485"><ele>241</ele><time>2024-02-10T15:02:02Z</time><name>PT4691</name></trkpt>
<trkpt lat="53.373977" lon="-1.920523"><ele>241</ele><time>2024-02-10T15:02:06Z</time><name>PT4692</name></trkpt>
<trkpt lat="53.374001" lon="-1.920556"><ele>239</ele><time>2024-02-10T15:02:10Z</time><name>PT4693</name></trkpt>
<trkpt lat="53.374048" lon="-1.920582"><ele>242</ele><time>2024-02-10T15:02:13Z</time><name>PT4694</name></trkpt>
<trkpt lat="53.374083" lon="-1.920617"><ele>242</ele><time>2024-02-10T15:02:16Z</time><name>PT4695</name></trkpt>
<trkpt lat="53.374122" lon="-1.920652"><ele>243</ele><time>2024-02-10T15:02:19Z</time><name>PT4696</name></trkpt>
<trkpt lat="53.374172" lon="-1.920696"><ele>244</ele><time>2024-02-10T15:02:23Z</time><name>PT4697</name></trkpt>
<trkpt lat="53.374218" lon="-1.920733"><ele>245</ele><time>2024-02-10T15:02:26Z</time><name>PT4698</name></trkpt>
<trkpt lat="53.374251" lon="-1.920766"><ele>245</ele><time>2024-02-10T15:02:30Z</time><name>PT4699</name></trkpt>
<trkpt lat="53.374277" lon="-1.920791"><ele>243</ele><time>2024-02-10T15:02:33Z</time><name>PT4700</name></trkpt>
<trkpt lat="53.374304" lon="-1.920828"><ele>242</ele><time>2024-02-10T15:02:37Z</time><name>PT4701</name></trkpt>
<trkpt lat="53.374328" lon="-1.920845"><ele>240</ele><time>2024-02-10T15:02:40Z</time><name>PT4702</name></trkpt>
<trkpt lat="53.374323" lon="-1.920880"><ele>236</ele><time>2024-02-10T15:02:43Z</time><name>PT4703</name></trkpt>
<trkpt lat="53.374365" lon="-1.920927"><ele>236</ele><time>2024-02-10T15:02:47Z</time><name>PT4704</name></trkpt>
<trkpt lat="53.374406" lon="-1.920973"><ele>236</ele><time>2024-02-10T15:02:51Z</time><name>PT4705</name></trkpt>
<trkpt lat="53.374444" lon="-1.921006"><ele>236</ele><time>2024-02-10T15:02:54Z</time><name>PT4706</name></trkpt>
<trkpt lat="53.374482" lon="-1.921045"><ele>235</ele><time>2024-02-10T15:02:57Z</time><name>PT4707</name></trkpt>
<trkpt lat="53.374519" lon="-1.921076"><ele>234</ele><time>2024-02-10T15:03:01Z</time><name>PT4708</name></trkpt>
<trkpt lat="53.374558" lon="-1.921114"><ele>233</ele><time>2024-02-10T15:03:05Z</time><name>PT4709</name></trkpt>
<trkpt lat="53.374609" lon="-1.921157"><ele>235</ele><time>2024-02-10T15:03:08Z</time><name>PT4710</name></trkpt>
<trkpt lat="53.374640" lon="-1.921207"><ele>233</ele><time>2024-02-10T15:03:12Z</time><name>PT4711</name></trkpt>
<trkpt lat="53.374667" lon="-1.921249"><ele>232</ele><time>2024-02-10T15:03:15Z</time><name>PT4712</name></trkpt>
<trkpt lat="53.374703" lon="-1.921299"><ele>230</ele><time>2024-02-10T15:03:19Z</time><name>PT4713</name></trkpt>
<trkpt lat="53.374747" lon="-1.921334"><ele>230</ele><time>2024-02-10T15:03:22Z</time><name>PT4714</name></trkpt>
<trkpt lat="53.374813" lon="-1.921385"><ele>232</ele><time>2024-02-10T15:03:26Z</time><name>PT4715</name></trkpt>
<trkpt lat="53.374900" lon="-1.921441"><ele>236</ele><time>2024-02-10T15:03:30Z</time><name>PT4716</name></trkpt>
<trkpt lat="53.374968" lon="-1.921476"><ele>240</ele><time>2024-02-10T15:03:33Z</time><name>PT4717</name></trkpt>
<trkpt lat="53.375018" lon="-1.921515"><ele>241</ele><time>2024-02-10T15:03:36Z</time><name>PT4718</name></trkpt>
<trkpt lat="53.375073" lon="-1.921568"><ele>242</ele><time>2024-02-10T15:03:40Z</time><name>PT4719</name></trkpt>
<trkpt lat="53.375112" lon="-1.921603"><ele>242</ele><time>2024-02-10T15:03:43Z</time><name>PT4720</name></trkpt>
<trkpt lat="53.375164" lon="-1.921655"><ele>242</ele><time>2024-02-10T15:03:47Z</time><name>PT4721</name></trkpt>
<trkpt lat="53.375214" lon="-1.921700"><ele>243</ele><time>2024-02-10T15:03:51Z</time><name>PT4722</name></trkpt>
<trkpt lat="53.375261" lon="-1.921746"><ele>242</ele><time>2024-02-10T15:03:55Z</time><name>PT4723</name></trkpt>
<trkpt lat="53.375299" lon="-1.921791"><ele>242</ele><time>2024-02-10T15:03:58Z</time><name>PT4724</name></trkpt>
<trkpt lat="53.375339" lon="-1.921839"><ele>241</ele><time>2024-02-10T15:04:02Z</time><name>PT4725</name></trkpt>
<trkpt lat="53.375392" lon="-1.921884"><ele>241</ele><time>2024-02-10T15:04:06Z</time><name>PT4726</name></trkpt>
<trkpt lat="53.375430" lon="-1.921920"><ele>241</ele><time>2024-02-10T15:04:09Z</time><name>PT4727</name></trkpt>
<trkpt lat="53.375461" lon="-1.921962"><ele>241</ele><time>2024-02-10T15:04:12Z</time><name>PT4728</name></trkpt>
<trkpt lat="53.375507" lon="-1.922005"><ele>241</ele><time>2024-02-10T15:04:16Z</time><name>PT4729</name></trkpt>
<trkpt lat="53.375550" lon="-1.922035"><ele>241</ele><time>2024-02-10T15:04:19Z</time><name>PT4730</name></trkpt>
<trkpt lat="53.375589" lon="-1.922085"><ele>240</ele><time>2024-02-10T15:04:23Z</time><name>PT4731</name></trkpt>
<trkpt lat="53.375622" lon="-1.922123"><ele>240</ele><time>2024-02-10T15:04:26Z</time><name>PT4732</name></trkpt>
<trkpt lat="53.375654" lon="-1.922146"><ele>239</ele><time>2024-02-10T15:04:30Z</time><name>PT4733</name></trkpt>
<trkpt lat="53.375680" lon="-1.922180"><ele>238</ele><time>2024-02-10T15:04:33Z</time><name>PT4734</name></trkpt>
<trkpt lat="53.375720" lon="-1.922233"><ele>238</ele><time>2024-02-10T15:04:37Z</time><name>PT4735</name></trkpt>
<trkpt lat="53.375764" lon="-1.922276"><ele>237</ele><time>2024-02-10T15:04:41Z</time><name>PT4736</name></trkpt>
<trkpt lat="53.375798" lon="-1.922308"><ele>237</ele><time>2024-02-10T15:04:44Z</time><name>PT4737</name></trkpt>
<trkpt lat="53.375836" lon="-1.922354"><ele>236</ele><time>2024-02-10T15:04:48Z</time><name>PT4738</name></trkpt>
<trkpt lat="53.375870" lon="-1.922386"><ele>236</ele><time>2024-02-10T15:04:51Z</time><name>PT4739</name></trkpt>
<trkpt lat="53.375909" lon="-1.922429"><ele>233</ele><time>2024-02-10T15:04:55Z</time><name>PT4740</name></trkpt>
<trkpt lat="53.375943" lon="-1.922449"><ele>233</ele><time>2024-02-10T15:04:58Z</time><name>PT4741</name></trkpt>
<trkpt lat="53.375994" lon="-1.922477"><ele>232</ele><time>2024-02-10T15:05:02Z</time><name>PT4742</name></trkpt>
<trkpt lat="53.376041" lon="-1.922513"><ele>232</ele><time>2024-02-10T15:05:06Z</time><name>PT4743</name></trkpt>
<trkpt lat="53.376086" lon="-1.922551"><ele>231</ele><time>2024-02-10T15:05:10Z</time><name>PT4744</name></trkpt>
<trkpt lat="53.376133" lon="-1.922577"><ele>232</ele><time>2024-02-10T15:05:14Z</time><name>PT4745</name></trkpt>
<trkpt lat="53.376189" lon="-1.922612"><ele>232</ele><time>2024-02-10T15:05:18Z</time><name>PT4746</name></trkpt>
<trkpt lat="53.376238" lon="-1.922653"><ele>231</ele><time>2024-02-10T15:05:22Z</time><name>PT4747</name></trkpt>
<trkpt lat="53.376286" lon="-1.922697"><ele>231</ele><time>2024-02-10T15:05:26Z</time><name>PT4748</name></trkpt>
<trkpt lat="53.376327" lon="-1.922725"><ele>231</ele><time>2024-02-10T15:05:29Z</time><name>PT4749</name></trkpt>
<trkpt lat="53.376380" lon="-1.922763"><ele>231</ele><time>2024-02-10T15:05:33Z</time><name>PT4750</name></trkpt>
<trkpt lat="53.376423" lon="-1.922802"><ele>230</ele><time>2024-02-10T15:05:37Z</time><name>PT4751</name></trkpt>
<trkpt lat="53.376456" lon="-1.922835"><ele>229</ele><time>2024-02-10T15:05:40Z</time><name>PT4752</name></trkpt>
<trkpt lat="53.376494" lon="-1.922869"><ele>228</ele><time>2024-02-10T15:05:44Z</time><name>PT4753</name></trkpt>
<trkpt lat="53.376532" lon="-1.922894"><ele>228</ele><time>2024-02-10T15:05:47Z</time><name>PT4754</name></trkpt>
<trkpt lat="53.376567" lon="-1.922928"><ele>227</ele><time>2024-02-10T15:05:51Z</time><name>PT4755</name></trkpt>
<trkpt lat="53.376600" lon="-1.922965"><ele>227</ele><time>2024-02-10T15:05:54Z</time><name>PT4756</name></trkpt>
<trkpt lat="53.376630" lon="-1.922992"><ele>226</ele><time>2024-02-10T15:05:57Z</time><name>PT4757</name></trkpt>
<trkpt lat="53.376679" lon="-1.923023"><ele>225</ele><time>2024-02-10T15:06:01Z</time><name>PT4758</name></trkpt>
<trkpt lat="53.376715" lon="-1.923052"><ele>226</ele><time>2024-02-10T15:06:04Z</time><name>PT4759</name></trkpt>
<trkpt lat="53.376740" lon="-1.923078"><ele>224</ele><time>2024-02-10T15:06:07Z</time><name>PT4760</name></trkpt>
<trkpt lat="53.376785" lon="-1.923101"><ele>223</ele><time>2024-02-10T15:06:11Z</time><name>PT4761</name></trkpt>
<trkpt lat="53.376830" lon="-1.923126"><ele>223</ele><time>2024-02-10T15:06:15Z</time><name>PT4762</name></trkpt>
<trkpt lat="53.376861" lon="-1.923146"><ele>223</ele><time>2024-02-10T15:06:18Z</time><name>PT4763</name></trkpt>
<trkpt lat="53.376918" lon="-1.923175"><ele>223</ele><time>2024-02-10T15:06:22Z</time><name>PT4764</name></trkpt>
<trkpt lat="53.376972" lon="-1.923200"><ele>222</ele><time>2024-02-10T15:06:26Z</time><name>PT4765</name></trkpt>
<trkpt lat="53.377017" lon="-1.923211"><ele>222</ele><time>2024-02-10T15:06:29Z</time><name>PT4766</name></trkpt>
<trkpt lat="53.377069" lon="-1.923233"><ele>222</ele><time>2024-02-10T15:06:32Z</time><name>PT4767</name></trkpt>
<trkpt lat="53.377122" lon="-1.923271"><ele>222</ele><time>2024-02-10T15:06:36Z</time><name>PT4768</name></trkpt>
<trkpt lat="53.377156" lon="-1.923304"><ele>222</ele><time>2024-02-10T15:06:39Z</time><name>PT4769</name></trkpt>
<trkpt lat="53.377210" lon="-1.923333"><ele>222</ele><time>2024-02-10T15:06:43Z</time><name>PT4770</name></trkpt>
<trkpt lat="53.377270" lon="-1.923359"><ele>222</ele><time>2024-02-10T15:06:47Z</time><name>PT4771</name></trkpt>
<trkpt lat="53.377308" lon="-1.923374"><ele>220</ele><time>2024-02-10T15:06:50Z</time><name>PT4772</name></trkpt>
<trkpt lat="53.377357" lon="-1.923403"><ele>219</ele><time>2024-02-10T15:06:54Z</time><name>PT4773</name></trkpt>
<trkpt lat="53.377393" lon="-1.923409"><ele>219</ele><time>2024-02-10T15:06:57Z</time><name>PT4774</name></trkpt>
<trkpt lat="53.377444" lon="-1.923415"><ele>218</ele><time>2024-02-10T15:07:01Z</time><name>PT4775</name></trkpt>
<trkpt lat="53.377491" lon="-1.923434"><ele>219</ele><time>2024-02-10T15:07:04Z</time><name>PT4776</name></trkpt>
<trkpt lat="53.377527" lon="-1.923486"><ele>219</ele><time>2024-02-10T15:07:08Z</time><name>PT4777</name></trkpt>
<trkpt lat="53.377554" lon="-1.923566"><ele>219</ele><time>2024-02-10T15:07:12Z</time><name>PT4778</name></trkpt>
<trkpt lat="53.377566" lon="-1.923635"><ele>218</ele><time>2024-02-10T15:07:16Z</time><name>PT4779</name></trkpt>
<trkpt lat="53.377591" lon="-1.923695"><ele>217</ele><time>2024-02-10T15:07:20Z</time><name>PT4780</name></trkpt>
<trkpt lat="53.377604" lon="-1.923744"><ele>216</ele><time>2024-02-10T15:07:23Z</time><name>PT4781</name></trkpt>
<trkpt lat="53.377621" lon="-1.923799"><ele>215</ele><time>2024-02-10T15:07:26Z</time><name>PT4782</name></trkpt>
<trkpt lat="53.377640" lon="-1.923868"><ele>215</ele><time>2024-02-10T15:07:30Z</time><name>PT4783</name></trkpt>
<trkpt lat="53.377646" lon="-1.923938"><ele>211</ele><time>2024-02-10T15:07:34Z</time><name>PT4784</name></trkpt>
<trkpt lat="53.377682" lon="-1.924004"><ele>211</ele><time>2024-02-10T15:07:38Z</time><name>PT4785</name></trkpt>
<trkpt lat="53.377729" lon="-1.924055"><ele>210</ele><time>2024-02-10T15:07:42Z</time><name>PT4786</name></trkpt>
<trkpt lat="53.377794" lon="-1.924126"><ele>214</ele><time>2024-02-10T15:07:46Z</time><name>PT4787</name></trkpt>
<trkpt lat="53.377825" lon="-1.924185"><ele>214</ele><time>2024-02-10T15:07:50Z</time><name>PT4788</name></trkpt>
<trkpt lat="53.377855" lon="-1.924210"><ele>212</ele><time>2024-02-10T15:07:53Z</time><name>PT4789</name></trkpt>
<trkpt lat="53.377893" lon="-1.924239"><ele>211</ele><time>2024-02-10T15:07:57Z</time><name>PT4790</name></trkpt>
<trkpt lat="53.377958" lon="-1.924274"><ele>214</ele><time>2024-02-10T15:08:00Z</time><name>PT4791</name></trkpt>
<trkpt lat="53.377988" lon="-1.924307"><ele>213</ele><time>2024-02-10T15:08:04Z</time><name>PT4792</name></trkpt>
<trkpt lat="53.378019" lon="-1.924337"><ele>211</ele><time>2024-02-10T15:08:07Z</time><name>PT4793</name></trkpt>
<trkpt lat="53.378075" lon="-1.924375"><ele>211</ele><time>2024-02-10T15:08:11Z</time><name>PT4794</name></trkpt>
<trkpt lat="53.378140" lon="-1.924418"><ele>213</ele><time>2024-02-10T15:08:15Z</time><name>PT4795</name></trkpt>
<trkpt lat="53.378184" lon="-1.924444"><ele>212</ele><time>2024-02-10T15:08:18Z</time><name>PT4796</name></trkpt>
<trkpt lat="53.378256" lon="-1.924493"><ele>215</ele><time>2024-02-10T15:08:22Z</time><name>PT4797</name></trkpt>
<trkpt lat="53.378292" lon="-1.924523"><ele>216</ele><time>2024-02-10T15:08:25Z</time><name>PT4798</name></trkpt>
<trkpt lat="53.378341" lon="-1.924561"><ele>215</ele><time>2024-02-10T15:08:29Z</time><name>PT4799</name></trkpt>
<trkpt lat="53.378384" lon="-1.924594"><ele>216</ele><time>2024-02-10T15:08:32Z</time><name>PT4800</name></trkpt>
<trkpt lat="53.378425" lon="-1.924638"><ele>216</ele><time>2024-02-10T15:08:36Z</time><name>PT4801</name></trkpt>
<trkpt lat="53.378456" lon="-1.924663"><ele>215</ele><time>2024-02-10T15:08:39Z</time><name>PT4802</name></trkpt>
<trkpt lat="53.378487" lon="-1.924691"><ele>215</ele><time>2024-02-10T15:08:42Z</time><name>PT4803</name></trkpt>
<trkpt lat="53.378532" lon="-1.924739"><ele>217</ele><time>2024-02-10T15:08:46Z</time><name>PT4804</name></trkpt>
<trkpt lat="53.378562" lon="-1.924773"><ele>216</ele><time>2024-02-10T15:08:49Z</time><name>PT4805</name></trkpt>
<trkpt lat="53.378584" lon="-1.924828"><ele>213</ele><time>2024-02-10T15:08:53Z</time><name>PT4806</name></trkpt>
<trkpt lat="53.378621" lon="-1.924867"><ele>212</ele><time>2024-02-10T15:08:56Z</time><name>PT4807</name></trkpt>
<trkpt lat="53.378658" lon="-1.924909"><ele>210</ele><time>2024-02-10T15:09:00Z</time><name>PT4808</name></trkpt>
<trkpt lat="53.378710" lon="-1.924968"><ele>211</ele><time>2024-02-10T15:09:04Z</time><name>PT4809</name></trkpt>
<trkpt lat="53.378746" lon="-1.925001"><ele>211</ele><time>2024-02-10T15:09:07Z</time><name>PT4810</name></trkpt>
<trkpt lat="53.378790" lon="-1.925048"><ele>210</ele><time>2024-02-10T15:09:11Z</time><name>PT4811</name></trkpt>
<trkpt lat="53.378814" lon="-1.925084"><ele>210</ele><time>2024-02-10T15:09:14Z</time><name>PT4812</name></trkpt>
<trkpt lat="53.378868" lon="-1.925132"><ele>212</ele><time>2024-02-10T15:09:18Z</time><name>PT4813</name></trkpt>
<trkpt lat="53.378920" lon="-1.925174"><ele>211</ele><time>2024-02-10T15:09:22Z</time><name>PT4814</name></trkpt>
<trkpt lat="53.378948" lon="-1.925211"><ele>210</ele><time>2024-02-10T15:09:25Z</time><name>PT4815</name></trkpt>
<trkpt lat="53.378985" lon="-1.925261"><ele>209</ele><time>2024-02-10T15:09:29Z</time><name>PT4816</name></trkpt>
<trkpt lat="53.379020" lon="-1.925301"><ele>208</ele><time>2024-02-10T15:09:32Z</time><name>PT4817</name></trkpt>
<trkpt lat="53.379059" lon="-1.925347"><ele>206</ele><time>2024-02-10T15:09:36Z</time><name>PT4818</name></trkpt>
<trkpt lat="53.379076" lon="-1.925383"><ele>204</ele><time>2024-02-10T15:09:39Z</time><name>PT4819</name></trkpt>
<trkpt lat="53.379123" lon="-1.925426"><ele>205</ele><time>2024-02-10T15:09:43Z</time><name>PT4820</name></trkpt>
<trkpt lat="53.379175" lon="-1.925467"><ele>208</ele><time>2024-02-10T15:09:46Z</time><name>PT4821</name></trkpt>
<trkpt lat="53.379241" lon="-1.925517"><ele>209</ele><time>2024-02-10T15:09:50Z</time><name>PT4822</name></trkpt>
<trkpt lat="53.379281" lon="-1.925552"><ele>210</ele><time>2024-02-10T15:09:53Z</time><name>PT4823</name></trkpt>
<trkpt lat="53.379311" lon="-1.925610"><ele>210</ele><time>2024-02-10T15:09:57Z</time><name>PT4824</name></trkpt>
<trkpt lat="53.379344" lon="-1.925651"><ele>209</ele><time>2024-02-10T15:10:00Z</time><name>PT4825</name></trkpt>
<trkpt lat="53.379379" lon="-1.925703"><ele>208</ele><time>2024-02-10T15:10:04Z</time><name>PT4826</name></trkpt>
<trkpt lat="53.379415" lon="-1.925740"><ele>208</ele><time>2024-02-10T15:10:07Z</time><name>PT4827</name></trkpt>
<trkpt lat="53.379449" lon="-1.925778"><ele>207</ele><time>2024-02-10T15:10:10Z</time><name>PT4828</name></trkpt>
<trkpt lat="53.379476" lon="-1.925830"><ele>207</ele><time>2024-02-10T15:10:13Z</time><name>PT4829</name></trkpt>
<trkpt lat="53.379501" lon="-1.925863"><ele>207</ele><time>2024-02-10T15:10:16Z</time><name>PT4830</name></trkpt>
<trkpt lat="53.379540" lon="-1.925915"><ele>206</ele><time>2024-02-10T15:10:20Z</time><name>PT4831</name></trkpt>
<trkpt lat="53.379558" lon="-1.925959"><ele>205</ele><time>2024-02-10T15:10:23Z</time><name>PT4832</name></trkpt>
<trkpt lat="53.379589" lon="-1.926017"><ele>205</ele><time>2024-02-10T15:10:27Z</time><name>PT4833</name></trkpt>
<trkpt lat="53.379641" lon="-1.926077"><ele>206</ele><time>2024-02-10T15:10:31Z</time><name>PT4834</name></trkpt>
<trkpt lat="53.379687" lon="-1.926149"><ele>206</ele><time>2024-02-10T15:10:35Z</time><name>PT4835</name></trkpt>
<trkpt lat="53.379697" lon="-1.926210"><ele>203</ele><time>2024-02-10T15:10:39Z</time><name>PT4836</name></trkpt>
<trkpt lat="53.379732" lon="-1.926293"><ele>207</ele><time>2024-02-10T15:10:43Z</time><name>PT4837</name></trkpt>
<trkpt lat="53.379742" lon="-1.926365"><ele>206</ele><time>2024-02-10T15:10:47Z</time><name>PT4838</name></trkpt>
<trkpt lat="53.379774" lon="-1.926424"><ele>207</ele><time>2024-02-10T15:10:50Z</time><name>PT4839</name></trkpt>
<trkpt lat="53.379785" lon="-1.926492"><ele>206</ele><time>2024-02-10T15:10:53Z</time><name>PT4840</name></trkpt>
<trkpt lat="53.379786" lon="-1.926549"><ele>205</ele><time>2024-02-10T15:10:57Z</time><name>PT4841</name></trkpt>
<trkpt lat="53.379794" lon="-1.926619"><ele>205</ele><time>2024-02-10T15:11:01Z</time><name>PT4842</name></trkpt>
<trkpt lat="53.379813" lon="-1.926700"><ele>207</ele><time>2024-02-10T15:11:05Z</time><name>PT4843</name></trkpt>
<trkpt lat="53.379821" lon="-1.926759"><ele>206</ele><time>2024-02-10T15:11:08Z</time><name>PT4844</name></trkpt>
<trkpt lat="53.379821" lon="-1.926795"><ele>203</ele><time>2024-02-10T15:11:12Z</time><name>PT4845</name></trkpt>
<trkpt lat="53.379812" lon="-1.926855"><ele>202</ele><time>2024-02-10T15:11:16Z</time><name>PT4846</name></trkpt>
<trkpt lat="53.379796" lon="-1.926907"><ele>200</ele><time>2024-02-10T15:11:20Z</time><name>PT4847</name></trkpt>
<trkpt lat="53.379774" lon="-1.926959"><ele>202</ele><time>2024-02-10T15:11:24Z</time><name>PT4848</name></trkpt>
<trkpt lat="53.379766" lon="-1.926976"><ele>202</ele><time>2024-02-10T15:11:27Z</time><name>PT4849</name></trkpt>
<trkpt lat="53.379738" lon="-1.927056"><ele>200</ele><time>2024-02-10T15:11:33Z</time><name>PT4850</name></trkpt>
<trkpt lat="53.379696" lon="-1.927210"><ele>197</ele><time>2024-02-10T15:11:37Z</time><name>PT4851</name></trkpt>
<trkpt lat="53.379658" lon="-1.927306"><ele>195</ele><time>2024-02-10T15:11:41Z</time><name>PT4852</name></trkpt>
<trkpt lat="53.379618" lon="-1.927382"><ele>195</ele><time>2024-02-10T15:11:44Z</time><name>PT4853</name></trkpt>
<trkpt lat="53.379589" lon="-1.927426"><ele>195</ele><time>2024-02-10T15:11:47Z</time><name>PT4854</name></trkpt>
<trkpt lat="53.379563" lon="-1.927468"><ele>193</ele><time>2024-02-10T15:11:51Z</time><name>PT4855</name></trkpt>
<trkpt lat="53.379517" lon="-1.927513"><ele>196</ele><time>2024-02-10T15:11:55Z</time><name>PT4856</name></trkpt>
<trkpt lat="53.379482" lon="-1.927554"><ele>197</ele><time>2024-02-10T15:11:58Z</time><name>PT4857</name></trkpt>
<trkpt lat="53.379440" lon="-1.927605"><ele>199</ele><time>2024-02-10T15:12:02Z</time><name>PT4858</name></trkpt>
<trkpt lat="53.379389" lon="-1.927628"><ele>200</ele><time>2024-02-10T15:12:06Z</time><name>PT4859</name></trkpt>
<trkpt lat="53.379344" lon="-1.927664"><ele>198</ele><time>2024-02-10T15:12:10Z</time><name>PT4860</name></trkpt>
<trkpt lat="53.379302" lon="-1.927710"><ele>199</ele><time>2024-02-10T15:12:13Z</time><name>PT4861</name></trkpt>
<trkpt lat="53.379256" lon="-1.927747"><ele>200</ele><time>2024-02-10T15:12:17Z</time><name>PT4862</name></trkpt>
<trkpt lat="53.379205" lon="-1.927794"><ele>200</ele><time>2024-02-10T15:12:21Z</time><name>PT4863</name></trkpt>
<trkpt lat="53.379173" lon="-1.927829"><ele>200</ele><time>2024-02-10T15:12:24Z</time><name>PT4864</name></trkpt>
<trkpt lat="53.379143" lon="-1.927879"><ele>202</ele><time>2024-02-10T15:12:27Z</time><name>PT4865</name></trkpt>
<trkpt lat="53.379118" lon="-1.927937"><ele>204</ele><time>2024-02-10T15:12:30Z</time><name>PT4866</name></trkpt>
<trkpt lat="53.379113" lon="-1.928021"><ele>203</ele><time>2024-02-10T15:12:34Z</time><name>PT4867</name></trkpt>
<trkpt lat="53.379112" lon="-1.928094"><ele>201</ele><time>2024-02-10T15:12:38Z</time><name>PT4868</name></trkpt>
<trkpt lat="53.379111" lon="-1.928151"><ele>202</ele><time>2024-02-10T15:12:41Z</time><name>PT4869</name></trkpt>
<trkpt lat="53.379119" lon="-1.928201"><ele>203</ele><time>2024-02-10T15:12:45Z</time><name>PT4870</name></trkpt>
<trkpt lat="53.379141" lon="-1.928218"><ele>203</ele><time>2024-02-10T15:12:48Z</time><name>PT4871</name></trkpt>
<trkpt lat="53.379166" lon="-1.928251"><ele>204</ele><time>2024-02-10T15:12:51Z</time><name>PT4872</name></trkpt>
<trkpt lat="53.379184" lon="-1.928271"><ele>204</ele><time>2024-02-10T15:12:55Z</time><name>PT4873</name></trkpt>
<trkpt lat="53.379189" lon="-1.928278"><ele>205</ele><time>2024-02-10T15:12:58Z</time><name>PT4874</name></trkpt>
<trkpt lat="53.379207" lon="-1.928290"><ele>201</ele><time>2024-02-10T15:13:01Z</time><name>PT4875</name></trkpt>
<trkpt lat="53.379262" lon="-1.928290"><ele>202</ele><time>2024-02-10T15:13:05Z</time><name>PT4876</name></trkpt>
<trkpt lat="53.379274" lon="-1.928292"><ele>202</ele><time>2024-02-10T15:13:09Z</time><name>PT4877</name></trkpt>
<trkpt lat="53.379297" lon="-1.928289"><ele>204</ele><time>2024-02-10T15:13:18Z</time><name>PT4878</name></trkpt>
<trkpt lat="53.379336" lon="-1.928265"><ele>205</ele><time>2024-02-10T15:13:21Z</time><name>PT4879</name></trkpt>
<trkpt lat="53.379369" lon="-1.928251"><ele>205</ele><time>2024-02-10T15:13:24Z</time><name>PT4880</name></trkpt>
<trkpt lat="53.379391" lon="-1.928221"><ele>206</ele><time>2024-02-10T15:13:27Z</time><name>PT4881</name></trkpt>
<trkpt lat="53.379418" lon="-1.928184"><ele>206</ele><time>2024-02-10T15:13:31Z</time><name>PT4882</name></trkpt>
<trkpt lat="53.379429" lon="-1.928169"><ele>207</ele><time>2024-02-10T15:13:34Z</time><name>PT4883</name></trkpt>
<trkpt lat="53.379444" lon="-1.928148"><ele>207</ele><time>2024-02-10T15:13:37Z</time><name>PT4884</name></trkpt>
<trkpt lat="53.379450" lon="-1.928144"><ele>207</ele><time>2024-02-10T15:13:41Z</time><name>PT4885</name></trkpt></trkseg></trk></gpx>